<?xml version="1.0" encoding="UTF-8" standalone="no" ?>
<gpx xmlns="http://www.topografix.com/GPX/1/1" xmlns:xsi="http://www.w3.org/2001/XMLSchema-instance" xsi:schemaLocation="http://www.topografix.com/GPX/1/1 http://www.topografix.com/GPX/1/1/gpx.xsd" version="1.1" creator="VisuGPX - https://www.visugpx.com">
  <metadata>
    <name>Rando Saint-Porchaire 26-09-2010</name>
    <desc><![CDATA[Randonnée pédestre Saint-Porchaire le 26-09-2010.]]></desc>
  </metadata>
  <trk>
    <name><![CDATA[Parcours 25]]></name>
    <trkseg>
      <trkpt lat="45.82044" lon="-0.77168">
        <ele>32</ele>
        <time>2010-09-26T07:11:45Z</time>
      </trkpt>
      <trkpt lat="45.82043" lon="-0.77168">
        <ele>32</ele>
        <time>2010-09-26T07:11:47Z</time>
      </trkpt>
      <trkpt lat="45.82042" lon="-0.77169">
        <ele>32</ele>
        <time>2010-09-26T07:12:00Z</time>
      </trkpt>
      <trkpt lat="45.82042" lon="-0.77178">
        <ele>32</ele>
        <time>2010-09-26T07:12:01Z</time>
      </trkpt>
      <trkpt lat="45.82047" lon="-0.77182">
        <ele>32</ele>
        <time>2010-09-26T07:12:04Z</time>
      </trkpt>
      <trkpt lat="45.8205" lon="-0.77188">
        <ele>32</ele>
        <time>2010-09-26T07:12:07Z</time>
      </trkpt>
      <trkpt lat="45.82052" lon="-0.77194">
        <ele>32</ele>
        <time>2010-09-26T07:12:12Z</time>
      </trkpt>
      <trkpt lat="45.82054" lon="-0.772">
        <ele>32</ele>
        <time>2010-09-26T07:12:16Z</time>
      </trkpt>
      <trkpt lat="45.82054" lon="-0.77206">
        <ele>32</ele>
        <time>2010-09-26T07:12:19Z</time>
      </trkpt>
      <trkpt lat="45.82055" lon="-0.77213">
        <ele>33</ele>
        <time>2010-09-26T07:12:23Z</time>
      </trkpt>
      <trkpt lat="45.8206" lon="-0.77219">
        <ele>33</ele>
        <time>2010-09-26T07:12:27Z</time>
      </trkpt>
      <trkpt lat="45.82065" lon="-0.7722">
        <ele>33</ele>
        <time>2010-09-26T07:12:28Z</time>
      </trkpt>
      <trkpt lat="45.8207" lon="-0.77222">
        <ele>33</ele>
        <time>2010-09-26T07:12:29Z</time>
      </trkpt>
      <trkpt lat="45.82071" lon="-0.77228">
        <ele>33</ele>
        <time>2010-09-26T07:12:32Z</time>
      </trkpt>
      <trkpt lat="45.82072" lon="-0.77236">
        <ele>33</ele>
        <time>2010-09-26T07:12:36Z</time>
      </trkpt>
      <trkpt lat="45.82072" lon="-0.77243">
        <ele>33</ele>
        <time>2010-09-26T07:12:40Z</time>
      </trkpt>
      <trkpt lat="45.82073" lon="-0.77251">
        <ele>33</ele>
        <time>2010-09-26T07:12:44Z</time>
      </trkpt>
      <trkpt lat="45.82073" lon="-0.77258">
        <ele>33</ele>
        <time>2010-09-26T07:12:48Z</time>
      </trkpt>
      <trkpt lat="45.82073" lon="-0.77264">
        <ele>33</ele>
        <time>2010-09-26T07:12:53Z</time>
      </trkpt>
      <trkpt lat="45.82072" lon="-0.77267">
        <ele>33</ele>
        <time>2010-09-26T07:13:00Z</time>
      </trkpt>
      <trkpt lat="45.82071" lon="-0.77262">
        <ele>33</ele>
        <time>2010-09-26T07:13:35Z</time>
      </trkpt>
      <trkpt lat="45.82071" lon="-0.7726">
        <ele>33</ele>
        <time>2010-09-26T07:13:36Z</time>
      </trkpt>
      <trkpt lat="45.82071" lon="-0.7726">
        <ele>33</ele>
        <time>2010-09-26T07:13:37Z</time>
      </trkpt>
      <trkpt lat="45.8207" lon="-0.77262">
        <ele>33</ele>
        <time>2010-09-26T07:14:07Z</time>
      </trkpt>
      <trkpt lat="45.82068" lon="-0.77269">
        <ele>33</ele>
        <time>2010-09-26T07:14:08Z</time>
      </trkpt>
      <trkpt lat="45.82066" lon="-0.77276">
        <ele>33</ele>
        <time>2010-09-26T07:14:13Z</time>
      </trkpt>
      <trkpt lat="45.82069" lon="-0.77282">
        <ele>33</ele>
        <time>2010-09-26T07:14:17Z</time>
      </trkpt>
      <trkpt lat="45.82073" lon="-0.77289">
        <ele>33</ele>
        <time>2010-09-26T07:14:21Z</time>
      </trkpt>
      <trkpt lat="45.82076" lon="-0.77295">
        <ele>32</ele>
        <time>2010-09-26T07:14:24Z</time>
      </trkpt>
      <trkpt lat="45.82078" lon="-0.77302">
        <ele>32</ele>
        <time>2010-09-26T07:14:27Z</time>
      </trkpt>
      <trkpt lat="45.8208" lon="-0.77308">
        <ele>32</ele>
        <time>2010-09-26T07:14:30Z</time>
      </trkpt>
      <trkpt lat="45.8208" lon="-0.77315">
        <ele>32</ele>
        <time>2010-09-26T07:14:33Z</time>
      </trkpt>
      <trkpt lat="45.82082" lon="-0.77323">
        <ele>32</ele>
        <time>2010-09-26T07:14:37Z</time>
      </trkpt>
      <trkpt lat="45.82083" lon="-0.7733">
        <ele>32</ele>
        <time>2010-09-26T07:14:40Z</time>
      </trkpt>
      <trkpt lat="45.82083" lon="-0.77337">
        <ele>32</ele>
        <time>2010-09-26T07:14:43Z</time>
      </trkpt>
      <trkpt lat="45.8208" lon="-0.77343">
        <ele>32</ele>
        <time>2010-09-26T07:14:46Z</time>
      </trkpt>
      <trkpt lat="45.82078" lon="-0.7735">
        <ele>31</ele>
        <time>2010-09-26T07:14:49Z</time>
      </trkpt>
      <trkpt lat="45.82076" lon="-0.77356">
        <ele>31</ele>
        <time>2010-09-26T07:14:53Z</time>
      </trkpt>
      <trkpt lat="45.82074" lon="-0.77362">
        <ele>31</ele>
        <time>2010-09-26T07:14:56Z</time>
      </trkpt>
      <trkpt lat="45.82072" lon="-0.77368">
        <ele>31</ele>
        <time>2010-09-26T07:14:59Z</time>
      </trkpt>
      <trkpt lat="45.8207" lon="-0.77374">
        <ele>31</ele>
        <time>2010-09-26T07:15:02Z</time>
      </trkpt>
      <trkpt lat="45.82067" lon="-0.77381">
        <ele>31</ele>
        <time>2010-09-26T07:15:06Z</time>
      </trkpt>
      <trkpt lat="45.82065" lon="-0.77388">
        <ele>30</ele>
        <time>2010-09-26T07:15:09Z</time>
      </trkpt>
      <trkpt lat="45.82062" lon="-0.77395">
        <ele>30</ele>
        <time>2010-09-26T07:15:13Z</time>
      </trkpt>
      <trkpt lat="45.8206" lon="-0.77403">
        <ele>30</ele>
        <time>2010-09-26T07:15:17Z</time>
      </trkpt>
      <trkpt lat="45.82058" lon="-0.7741">
        <ele>30</ele>
        <time>2010-09-26T07:15:21Z</time>
      </trkpt>
      <trkpt lat="45.82056" lon="-0.77416">
        <ele>30</ele>
        <time>2010-09-26T07:15:24Z</time>
      </trkpt>
      <trkpt lat="45.82053" lon="-0.77421">
        <ele>29</ele>
        <time>2010-09-26T07:15:27Z</time>
      </trkpt>
      <trkpt lat="45.82048" lon="-0.77422">
        <ele>28</ele>
        <time>2010-09-26T07:15:30Z</time>
      </trkpt>
      <trkpt lat="45.82042" lon="-0.77421">
        <ele>28</ele>
        <time>2010-09-26T07:15:34Z</time>
      </trkpt>
      <trkpt lat="45.82037" lon="-0.7742">
        <ele>28</ele>
        <time>2010-09-26T07:15:37Z</time>
      </trkpt>
      <trkpt lat="45.82032" lon="-0.77418">
        <ele>28</ele>
        <time>2010-09-26T07:15:40Z</time>
      </trkpt>
      <trkpt lat="45.82027" lon="-0.77415">
        <ele>30</ele>
        <time>2010-09-26T07:15:43Z</time>
      </trkpt>
      <trkpt lat="45.82022" lon="-0.77412">
        <ele>29</ele>
        <time>2010-09-26T07:15:47Z</time>
      </trkpt>
      <trkpt lat="45.82017" lon="-0.77414">
        <ele>29</ele>
        <time>2010-09-26T07:15:50Z</time>
      </trkpt>
      <trkpt lat="45.82012" lon="-0.77418">
        <ele>28</ele>
        <time>2010-09-26T07:15:53Z</time>
      </trkpt>
      <trkpt lat="45.82009" lon="-0.77421">
        <ele>28</ele>
        <time>2010-09-26T07:15:56Z</time>
      </trkpt>
      <trkpt lat="45.82005" lon="-0.77425">
        <ele>28</ele>
        <time>2010-09-26T07:15:59Z</time>
      </trkpt>
      <trkpt lat="45.82" lon="-0.77429">
        <ele>28</ele>
        <time>2010-09-26T07:16:02Z</time>
      </trkpt>
      <trkpt lat="45.81995" lon="-0.77428">
        <ele>27</ele>
        <time>2010-09-26T07:16:05Z</time>
      </trkpt>
      <trkpt lat="45.81991" lon="-0.77424">
        <ele>27</ele>
        <time>2010-09-26T07:16:08Z</time>
      </trkpt>
      <trkpt lat="45.81988" lon="-0.77418">
        <ele>27</ele>
        <time>2010-09-26T07:16:11Z</time>
      </trkpt>
      <trkpt lat="45.81984" lon="-0.77412">
        <ele>28</ele>
        <time>2010-09-26T07:16:15Z</time>
      </trkpt>
      <trkpt lat="45.81981" lon="-0.77405">
        <ele>28</ele>
        <time>2010-09-26T07:16:19Z</time>
      </trkpt>
      <trkpt lat="45.81978" lon="-0.77399">
        <ele>28</ele>
        <time>2010-09-26T07:16:23Z</time>
      </trkpt>
      <trkpt lat="45.81974" lon="-0.77394">
        <ele>28</ele>
        <time>2010-09-26T07:16:27Z</time>
      </trkpt>
      <trkpt lat="45.81971" lon="-0.77388">
        <ele>28</ele>
        <time>2010-09-26T07:16:31Z</time>
      </trkpt>
      <trkpt lat="45.81967" lon="-0.77383">
        <ele>28</ele>
        <time>2010-09-26T07:16:36Z</time>
      </trkpt>
      <trkpt lat="45.81964" lon="-0.77378">
        <ele>29</ele>
        <time>2010-09-26T07:16:40Z</time>
      </trkpt>
      <trkpt lat="45.8196" lon="-0.77373">
        <ele>29</ele>
        <time>2010-09-26T07:16:44Z</time>
      </trkpt>
      <trkpt lat="45.81958" lon="-0.77366">
        <ele>29</ele>
        <time>2010-09-26T07:16:48Z</time>
      </trkpt>
      <trkpt lat="45.81955" lon="-0.7736">
        <ele>29</ele>
        <time>2010-09-26T07:16:53Z</time>
      </trkpt>
      <trkpt lat="45.81952" lon="-0.77353">
        <ele>29</ele>
        <time>2010-09-26T07:16:58Z</time>
      </trkpt>
      <trkpt lat="45.81949" lon="-0.77347">
        <ele>29</ele>
        <time>2010-09-26T07:17:02Z</time>
      </trkpt>
      <trkpt lat="45.81945" lon="-0.77343">
        <ele>29</ele>
        <time>2010-09-26T07:17:05Z</time>
      </trkpt>
      <trkpt lat="45.81942" lon="-0.77338">
        <ele>29</ele>
        <time>2010-09-26T07:17:08Z</time>
      </trkpt>
      <trkpt lat="45.81939" lon="-0.77332">
        <ele>30</ele>
        <time>2010-09-26T07:17:11Z</time>
      </trkpt>
      <trkpt lat="45.81935" lon="-0.77325">
        <ele>30</ele>
        <time>2010-09-26T07:17:14Z</time>
      </trkpt>
      <trkpt lat="45.81931" lon="-0.77321">
        <ele>30</ele>
        <time>2010-09-26T07:17:17Z</time>
      </trkpt>
      <trkpt lat="45.81927" lon="-0.77315">
        <ele>30</ele>
        <time>2010-09-26T07:17:20Z</time>
      </trkpt>
      <trkpt lat="45.81924" lon="-0.7731">
        <ele>30</ele>
        <time>2010-09-26T07:17:23Z</time>
      </trkpt>
      <trkpt lat="45.81919" lon="-0.77303">
        <ele>30</ele>
        <time>2010-09-26T07:17:27Z</time>
      </trkpt>
      <trkpt lat="45.81915" lon="-0.77297">
        <ele>28</ele>
        <time>2010-09-26T07:17:31Z</time>
      </trkpt>
      <trkpt lat="45.8191" lon="-0.77291">
        <ele>28</ele>
        <time>2010-09-26T07:17:35Z</time>
      </trkpt>
      <trkpt lat="45.81907" lon="-0.77286">
        <ele>28</ele>
        <time>2010-09-26T07:17:38Z</time>
      </trkpt>
      <trkpt lat="45.81903" lon="-0.7728">
        <ele>28</ele>
        <time>2010-09-26T07:17:42Z</time>
      </trkpt>
      <trkpt lat="45.819" lon="-0.77274">
        <ele>28</ele>
        <time>2010-09-26T07:17:46Z</time>
      </trkpt>
      <trkpt lat="45.81896" lon="-0.77269">
        <ele>28</ele>
        <time>2010-09-26T07:17:50Z</time>
      </trkpt>
      <trkpt lat="45.81893" lon="-0.77262">
        <ele>28</ele>
        <time>2010-09-26T07:17:55Z</time>
      </trkpt>
      <trkpt lat="45.8189" lon="-0.77257">
        <ele>28</ele>
        <time>2010-09-26T07:17:59Z</time>
      </trkpt>
      <trkpt lat="45.81887" lon="-0.7725">
        <ele>28</ele>
        <time>2010-09-26T07:18:03Z</time>
      </trkpt>
      <trkpt lat="45.81886" lon="-0.77244">
        <ele>28</ele>
        <time>2010-09-26T07:18:08Z</time>
      </trkpt>
      <trkpt lat="45.81884" lon="-0.77236">
        <ele>28</ele>
        <time>2010-09-26T07:18:13Z</time>
      </trkpt>
      <trkpt lat="45.8188" lon="-0.7723">
        <ele>28</ele>
        <time>2010-09-26T07:18:16Z</time>
      </trkpt>
      <trkpt lat="45.81877" lon="-0.77223">
        <ele>28</ele>
        <time>2010-09-26T07:18:19Z</time>
      </trkpt>
      <trkpt lat="45.81872" lon="-0.77219">
        <ele>28</ele>
        <time>2010-09-26T07:18:23Z</time>
      </trkpt>
      <trkpt lat="45.81867" lon="-0.77219">
        <ele>28</ele>
        <time>2010-09-26T07:18:27Z</time>
      </trkpt>
      <trkpt lat="45.81864" lon="-0.77223">
        <ele>28</ele>
        <time>2010-09-26T07:18:31Z</time>
      </trkpt>
      <trkpt lat="45.8186" lon="-0.77227">
        <ele>28</ele>
        <time>2010-09-26T07:18:35Z</time>
      </trkpt>
      <trkpt lat="45.81856" lon="-0.7723">
        <ele>28</ele>
        <time>2010-09-26T07:18:39Z</time>
      </trkpt>
      <trkpt lat="45.81851" lon="-0.77235">
        <ele>27</ele>
        <time>2010-09-26T07:18:43Z</time>
      </trkpt>
      <trkpt lat="45.81847" lon="-0.77239">
        <ele>27</ele>
        <time>2010-09-26T07:18:47Z</time>
      </trkpt>
      <trkpt lat="45.81842" lon="-0.77244">
        <ele>27</ele>
        <time>2010-09-26T07:18:52Z</time>
      </trkpt>
      <trkpt lat="45.81839" lon="-0.7725">
        <ele>26</ele>
        <time>2010-09-26T07:18:56Z</time>
      </trkpt>
      <trkpt lat="45.81834" lon="-0.77249">
        <ele>26</ele>
        <time>2010-09-26T07:19:00Z</time>
      </trkpt>
      <trkpt lat="45.81829" lon="-0.77244">
        <ele>26</ele>
        <time>2010-09-26T07:19:04Z</time>
      </trkpt>
      <trkpt lat="45.81825" lon="-0.7724">
        <ele>25</ele>
        <time>2010-09-26T07:19:07Z</time>
      </trkpt>
      <trkpt lat="45.8182" lon="-0.77237">
        <ele>25</ele>
        <time>2010-09-26T07:19:11Z</time>
      </trkpt>
      <trkpt lat="45.81814" lon="-0.77235">
        <ele>25</ele>
        <time>2010-09-26T07:19:15Z</time>
      </trkpt>
      <trkpt lat="45.8181" lon="-0.77234">
        <ele>25</ele>
        <time>2010-09-26T07:19:18Z</time>
      </trkpt>
      <trkpt lat="45.81806" lon="-0.7723">
        <ele>25</ele>
        <time>2010-09-26T07:19:21Z</time>
      </trkpt>
      <trkpt lat="45.81803" lon="-0.77225">
        <ele>25</ele>
        <time>2010-09-26T07:19:24Z</time>
      </trkpt>
      <trkpt lat="45.818" lon="-0.77219">
        <ele>24</ele>
        <time>2010-09-26T07:19:28Z</time>
      </trkpt>
      <trkpt lat="45.81797" lon="-0.77211">
        <ele>24</ele>
        <time>2010-09-26T07:19:32Z</time>
      </trkpt>
      <trkpt lat="45.81796" lon="-0.77205">
        <ele>24</ele>
        <time>2010-09-26T07:19:35Z</time>
      </trkpt>
      <trkpt lat="45.81793" lon="-0.77198">
        <ele>24</ele>
        <time>2010-09-26T07:19:39Z</time>
      </trkpt>
      <trkpt lat="45.81791" lon="-0.7719">
        <ele>24</ele>
        <time>2010-09-26T07:19:43Z</time>
      </trkpt>
      <trkpt lat="45.81788" lon="-0.77184">
        <ele>24</ele>
        <time>2010-09-26T07:19:47Z</time>
      </trkpt>
      <trkpt lat="45.81785" lon="-0.77179">
        <ele>24</ele>
        <time>2010-09-26T07:19:50Z</time>
      </trkpt>
      <trkpt lat="45.81781" lon="-0.77173">
        <ele>24</ele>
        <time>2010-09-26T07:19:54Z</time>
      </trkpt>
      <trkpt lat="45.81777" lon="-0.77167">
        <ele>25</ele>
        <time>2010-09-26T07:19:58Z</time>
      </trkpt>
      <trkpt lat="45.81775" lon="-0.77161">
        <ele>25</ele>
        <time>2010-09-26T07:20:01Z</time>
      </trkpt>
      <trkpt lat="45.81771" lon="-0.77154">
        <ele>25</ele>
        <time>2010-09-26T07:20:05Z</time>
      </trkpt>
      <trkpt lat="45.81768" lon="-0.77147">
        <ele>25</ele>
        <time>2010-09-26T07:20:09Z</time>
      </trkpt>
      <trkpt lat="45.81764" lon="-0.77141">
        <ele>25</ele>
        <time>2010-09-26T07:20:13Z</time>
      </trkpt>
      <trkpt lat="45.81761" lon="-0.77136">
        <ele>25</ele>
        <time>2010-09-26T07:20:16Z</time>
      </trkpt>
      <trkpt lat="45.81758" lon="-0.7713">
        <ele>25</ele>
        <time>2010-09-26T07:20:19Z</time>
      </trkpt>
      <trkpt lat="45.81754" lon="-0.77124">
        <ele>25</ele>
        <time>2010-09-26T07:20:23Z</time>
      </trkpt>
      <trkpt lat="45.81751" lon="-0.77119">
        <ele>25</ele>
        <time>2010-09-26T07:20:26Z</time>
      </trkpt>
      <trkpt lat="45.81747" lon="-0.77112">
        <ele>23</ele>
        <time>2010-09-26T07:20:30Z</time>
      </trkpt>
      <trkpt lat="45.81745" lon="-0.77106">
        <ele>23</ele>
        <time>2010-09-26T07:20:33Z</time>
      </trkpt>
      <trkpt lat="45.81741" lon="-0.771">
        <ele>23</ele>
        <time>2010-09-26T07:20:37Z</time>
      </trkpt>
      <trkpt lat="45.81737" lon="-0.77094">
        <ele>23</ele>
        <time>2010-09-26T07:20:41Z</time>
      </trkpt>
      <trkpt lat="45.81733" lon="-0.77088">
        <ele>23</ele>
        <time>2010-09-26T07:20:45Z</time>
      </trkpt>
      <trkpt lat="45.8173" lon="-0.77081">
        <ele>24</ele>
        <time>2010-09-26T07:20:49Z</time>
      </trkpt>
      <trkpt lat="45.81726" lon="-0.77075">
        <ele>24</ele>
        <time>2010-09-26T07:20:53Z</time>
      </trkpt>
      <trkpt lat="45.81723" lon="-0.7707">
        <ele>23</ele>
        <time>2010-09-26T07:20:56Z</time>
      </trkpt>
      <trkpt lat="45.81718" lon="-0.77064">
        <ele>23</ele>
        <time>2010-09-26T07:21:00Z</time>
      </trkpt>
      <trkpt lat="45.81715" lon="-0.77058">
        <ele>23</ele>
        <time>2010-09-26T07:21:04Z</time>
      </trkpt>
      <trkpt lat="45.81712" lon="-0.77052">
        <ele>23</ele>
        <time>2010-09-26T07:21:08Z</time>
      </trkpt>
      <trkpt lat="45.8171" lon="-0.77046">
        <ele>23</ele>
        <time>2010-09-26T07:21:11Z</time>
      </trkpt>
      <trkpt lat="45.81708" lon="-0.7704">
        <ele>23</ele>
        <time>2010-09-26T07:21:14Z</time>
      </trkpt>
      <trkpt lat="45.81705" lon="-0.77035">
        <ele>23</ele>
        <time>2010-09-26T07:21:17Z</time>
      </trkpt>
      <trkpt lat="45.81704" lon="-0.77027">
        <ele>23</ele>
        <time>2010-09-26T07:21:21Z</time>
      </trkpt>
      <trkpt lat="45.81702" lon="-0.77021">
        <ele>23</ele>
        <time>2010-09-26T07:21:24Z</time>
      </trkpt>
      <trkpt lat="45.81705" lon="-0.77013">
        <ele>23</ele>
        <time>2010-09-26T07:21:28Z</time>
      </trkpt>
      <trkpt lat="45.81708" lon="-0.77006">
        <ele>23</ele>
        <time>2010-09-26T07:21:32Z</time>
      </trkpt>
      <trkpt lat="45.81712" lon="-0.77001">
        <ele>23</ele>
        <time>2010-09-26T07:21:36Z</time>
      </trkpt>
      <trkpt lat="45.81717" lon="-0.76997">
        <ele>23</ele>
        <time>2010-09-26T07:21:40Z</time>
      </trkpt>
      <trkpt lat="45.8172" lon="-0.76991">
        <ele>23</ele>
        <time>2010-09-26T07:21:44Z</time>
      </trkpt>
      <trkpt lat="45.81725" lon="-0.76987">
        <ele>24</ele>
        <time>2010-09-26T07:21:48Z</time>
      </trkpt>
      <trkpt lat="45.81729" lon="-0.76983">
        <ele>24</ele>
        <time>2010-09-26T07:21:51Z</time>
      </trkpt>
      <trkpt lat="45.81732" lon="-0.76979">
        <ele>24</ele>
        <time>2010-09-26T07:21:54Z</time>
      </trkpt>
      <trkpt lat="45.81736" lon="-0.76976">
        <ele>24</ele>
        <time>2010-09-26T07:21:57Z</time>
      </trkpt>
      <trkpt lat="45.81741" lon="-0.76972">
        <ele>24</ele>
        <time>2010-09-26T07:22:01Z</time>
      </trkpt>
      <trkpt lat="45.81746" lon="-0.76969">
        <ele>24</ele>
        <time>2010-09-26T07:22:05Z</time>
      </trkpt>
      <trkpt lat="45.81751" lon="-0.76964">
        <ele>28</ele>
        <time>2010-09-26T07:22:09Z</time>
      </trkpt>
      <trkpt lat="45.81755" lon="-0.7696">
        <ele>28</ele>
        <time>2010-09-26T07:22:13Z</time>
      </trkpt>
      <trkpt lat="45.8176" lon="-0.76956">
        <ele>28</ele>
        <time>2010-09-26T07:22:17Z</time>
      </trkpt>
      <trkpt lat="45.81765" lon="-0.76952">
        <ele>28</ele>
        <time>2010-09-26T07:22:21Z</time>
      </trkpt>
      <trkpt lat="45.8177" lon="-0.76948">
        <ele>28</ele>
        <time>2010-09-26T07:22:25Z</time>
      </trkpt>
      <trkpt lat="45.81774" lon="-0.76945">
        <ele>28</ele>
        <time>2010-09-26T07:22:28Z</time>
      </trkpt>
      <trkpt lat="45.81778" lon="-0.76939">
        <ele>28</ele>
        <time>2010-09-26T07:22:32Z</time>
      </trkpt>
      <trkpt lat="45.81779" lon="-0.76932">
        <ele>28</ele>
        <time>2010-09-26T07:22:36Z</time>
      </trkpt>
      <trkpt lat="45.8178" lon="-0.76924">
        <ele>28</ele>
        <time>2010-09-26T07:22:40Z</time>
      </trkpt>
      <trkpt lat="45.81778" lon="-0.76916">
        <ele>27</ele>
        <time>2010-09-26T07:22:44Z</time>
      </trkpt>
      <trkpt lat="45.81776" lon="-0.76909">
        <ele>27</ele>
        <time>2010-09-26T07:22:48Z</time>
      </trkpt>
      <trkpt lat="45.81774" lon="-0.76903">
        <ele>27</ele>
        <time>2010-09-26T07:22:51Z</time>
      </trkpt>
      <trkpt lat="45.81771" lon="-0.76897">
        <ele>27</ele>
        <time>2010-09-26T07:22:54Z</time>
      </trkpt>
      <trkpt lat="45.81771" lon="-0.76889">
        <ele>27</ele>
        <time>2010-09-26T07:22:58Z</time>
      </trkpt>
      <trkpt lat="45.81774" lon="-0.76881">
        <ele>27</ele>
        <time>2010-09-26T07:23:02Z</time>
      </trkpt>
      <trkpt lat="45.81777" lon="-0.76876">
        <ele>27</ele>
        <time>2010-09-26T07:23:06Z</time>
      </trkpt>
      <trkpt lat="45.81782" lon="-0.76871">
        <ele>27</ele>
        <time>2010-09-26T07:23:10Z</time>
      </trkpt>
      <trkpt lat="45.81785" lon="-0.76866">
        <ele>27</ele>
        <time>2010-09-26T07:23:14Z</time>
      </trkpt>
      <trkpt lat="45.81789" lon="-0.76861">
        <ele>27</ele>
        <time>2010-09-26T07:23:17Z</time>
      </trkpt>
      <trkpt lat="45.81792" lon="-0.76857">
        <ele>27</ele>
        <time>2010-09-26T07:23:20Z</time>
      </trkpt>
      <trkpt lat="45.81797" lon="-0.76852">
        <ele>27</ele>
        <time>2010-09-26T07:23:24Z</time>
      </trkpt>
      <trkpt lat="45.81801" lon="-0.76847">
        <ele>28</ele>
        <time>2010-09-26T07:23:28Z</time>
      </trkpt>
      <trkpt lat="45.81805" lon="-0.76843">
        <ele>28</ele>
        <time>2010-09-26T07:23:32Z</time>
      </trkpt>
      <trkpt lat="45.8181" lon="-0.76837">
        <ele>28</ele>
        <time>2010-09-26T07:23:36Z</time>
      </trkpt>
      <trkpt lat="45.81813" lon="-0.76831">
        <ele>29</ele>
        <time>2010-09-26T07:23:40Z</time>
      </trkpt>
      <trkpt lat="45.81818" lon="-0.76828">
        <ele>29</ele>
        <time>2010-09-26T07:23:44Z</time>
      </trkpt>
      <trkpt lat="45.81822" lon="-0.76824">
        <ele>29</ele>
        <time>2010-09-26T07:23:48Z</time>
      </trkpt>
      <trkpt lat="45.81828" lon="-0.7682">
        <ele>29</ele>
        <time>2010-09-26T07:23:52Z</time>
      </trkpt>
      <trkpt lat="45.81832" lon="-0.76815">
        <ele>29</ele>
        <time>2010-09-26T07:23:55Z</time>
      </trkpt>
      <trkpt lat="45.81836" lon="-0.76811">
        <ele>31</ele>
        <time>2010-09-26T07:23:58Z</time>
      </trkpt>
      <trkpt lat="45.81837" lon="-0.76804">
        <ele>31</ele>
        <time>2010-09-26T07:24:02Z</time>
      </trkpt>
      <trkpt lat="45.81838" lon="-0.76797">
        <ele>32</ele>
        <time>2010-09-26T07:24:09Z</time>
      </trkpt>
      <trkpt lat="45.81834" lon="-0.76792">
        <ele>32</ele>
        <time>2010-09-26T07:24:14Z</time>
      </trkpt>
      <trkpt lat="45.8183" lon="-0.76786">
        <ele>29</ele>
        <time>2010-09-26T07:24:19Z</time>
      </trkpt>
      <trkpt lat="45.81827" lon="-0.76781">
        <ele>29</ele>
        <time>2010-09-26T07:24:23Z</time>
      </trkpt>
      <trkpt lat="45.81823" lon="-0.76777">
        <ele>29</ele>
        <time>2010-09-26T07:24:27Z</time>
      </trkpt>
      <trkpt lat="45.81819" lon="-0.76771">
        <ele>29</ele>
        <time>2010-09-26T07:24:31Z</time>
      </trkpt>
      <trkpt lat="45.81816" lon="-0.76765">
        <ele>29</ele>
        <time>2010-09-26T07:24:34Z</time>
      </trkpt>
      <trkpt lat="45.81813" lon="-0.76759">
        <ele>29</ele>
        <time>2010-09-26T07:24:38Z</time>
      </trkpt>
      <trkpt lat="45.8181" lon="-0.76755">
        <ele>29</ele>
        <time>2010-09-26T07:24:41Z</time>
      </trkpt>
      <trkpt lat="45.81807" lon="-0.76748">
        <ele>30</ele>
        <time>2010-09-26T07:24:45Z</time>
      </trkpt>
      <trkpt lat="45.81804" lon="-0.76741">
        <ele>30</ele>
        <time>2010-09-26T07:24:49Z</time>
      </trkpt>
      <trkpt lat="45.81803" lon="-0.76733">
        <ele>30</ele>
        <time>2010-09-26T07:24:53Z</time>
      </trkpt>
      <trkpt lat="45.81804" lon="-0.76725">
        <ele>30</ele>
        <time>2010-09-26T07:24:57Z</time>
      </trkpt>
      <trkpt lat="45.81806" lon="-0.76719">
        <ele>30</ele>
        <time>2010-09-26T07:25:01Z</time>
      </trkpt>
      <trkpt lat="45.8181" lon="-0.76713">
        <ele>30</ele>
        <time>2010-09-26T07:25:05Z</time>
      </trkpt>
      <trkpt lat="45.81813" lon="-0.76708">
        <ele>31</ele>
        <time>2010-09-26T07:25:09Z</time>
      </trkpt>
      <trkpt lat="45.81817" lon="-0.76703">
        <ele>31</ele>
        <time>2010-09-26T07:25:13Z</time>
      </trkpt>
      <trkpt lat="45.81821" lon="-0.76698">
        <ele>31</ele>
        <time>2010-09-26T07:25:17Z</time>
      </trkpt>
      <trkpt lat="45.81825" lon="-0.76695">
        <ele>31</ele>
        <time>2010-09-26T07:25:21Z</time>
      </trkpt>
      <trkpt lat="45.81829" lon="-0.76692">
        <ele>31</ele>
        <time>2010-09-26T07:25:24Z</time>
      </trkpt>
      <trkpt lat="45.81834" lon="-0.76691">
        <ele>34</ele>
        <time>2010-09-26T07:25:27Z</time>
      </trkpt>
      <trkpt lat="45.81838" lon="-0.76687">
        <ele>34</ele>
        <time>2010-09-26T07:25:31Z</time>
      </trkpt>
      <trkpt lat="45.81841" lon="-0.7668">
        <ele>34</ele>
        <time>2010-09-26T07:25:35Z</time>
      </trkpt>
      <trkpt lat="45.81841" lon="-0.76672">
        <ele>34</ele>
        <time>2010-09-26T07:25:39Z</time>
      </trkpt>
      <trkpt lat="45.81842" lon="-0.76665">
        <ele>34</ele>
        <time>2010-09-26T07:25:43Z</time>
      </trkpt>
      <trkpt lat="45.81843" lon="-0.76656">
        <ele>34</ele>
        <time>2010-09-26T07:25:47Z</time>
      </trkpt>
      <trkpt lat="45.81843" lon="-0.76648">
        <ele>34</ele>
        <time>2010-09-26T07:25:51Z</time>
      </trkpt>
      <trkpt lat="45.81844" lon="-0.7664">
        <ele>34</ele>
        <time>2010-09-26T07:25:55Z</time>
      </trkpt>
      <trkpt lat="45.81844" lon="-0.76632">
        <ele>34</ele>
        <time>2010-09-26T07:25:59Z</time>
      </trkpt>
      <trkpt lat="45.81844" lon="-0.76625">
        <ele>34</ele>
        <time>2010-09-26T07:26:02Z</time>
      </trkpt>
      <trkpt lat="45.81846" lon="-0.76618">
        <ele>34</ele>
        <time>2010-09-26T07:26:05Z</time>
      </trkpt>
      <trkpt lat="45.81848" lon="-0.76611">
        <ele>34</ele>
        <time>2010-09-26T07:26:09Z</time>
      </trkpt>
      <trkpt lat="45.81849" lon="-0.76604">
        <ele>34</ele>
        <time>2010-09-26T07:26:12Z</time>
      </trkpt>
      <trkpt lat="45.81851" lon="-0.76596">
        <ele>34</ele>
        <time>2010-09-26T07:26:16Z</time>
      </trkpt>
      <trkpt lat="45.81854" lon="-0.76589">
        <ele>34</ele>
        <time>2010-09-26T07:26:20Z</time>
      </trkpt>
      <trkpt lat="45.81855" lon="-0.76582">
        <ele>34</ele>
        <time>2010-09-26T07:26:23Z</time>
      </trkpt>
      <trkpt lat="45.81857" lon="-0.76575">
        <ele>34</ele>
        <time>2010-09-26T07:26:27Z</time>
      </trkpt>
      <trkpt lat="45.81859" lon="-0.7657">
        <ele>34</ele>
        <time>2010-09-26T07:26:30Z</time>
      </trkpt>
      <trkpt lat="45.81863" lon="-0.76563">
        <ele>34</ele>
        <time>2010-09-26T07:26:34Z</time>
      </trkpt>
      <trkpt lat="45.81866" lon="-0.76558">
        <ele>34</ele>
        <time>2010-09-26T07:26:38Z</time>
      </trkpt>
      <trkpt lat="45.8187" lon="-0.76553">
        <ele>34</ele>
        <time>2010-09-26T07:26:42Z</time>
      </trkpt>
      <trkpt lat="45.8187" lon="-0.76546">
        <ele>34</ele>
        <time>2010-09-26T07:26:46Z</time>
      </trkpt>
      <trkpt lat="45.81868" lon="-0.76538">
        <ele>34</ele>
        <time>2010-09-26T07:26:50Z</time>
      </trkpt>
      <trkpt lat="45.81866" lon="-0.7653">
        <ele>35</ele>
        <time>2010-09-26T07:26:54Z</time>
      </trkpt>
      <trkpt lat="45.81865" lon="-0.76523">
        <ele>35</ele>
        <time>2010-09-26T07:26:57Z</time>
      </trkpt>
      <trkpt lat="45.81864" lon="-0.76515">
        <ele>35</ele>
        <time>2010-09-26T07:27:01Z</time>
      </trkpt>
      <trkpt lat="45.81862" lon="-0.76507">
        <ele>35</ele>
        <time>2010-09-26T07:27:05Z</time>
      </trkpt>
      <trkpt lat="45.8186" lon="-0.76499">
        <ele>34</ele>
        <time>2010-09-26T07:27:09Z</time>
      </trkpt>
      <trkpt lat="45.81858" lon="-0.76491">
        <ele>34</ele>
        <time>2010-09-26T07:27:13Z</time>
      </trkpt>
      <trkpt lat="45.81856" lon="-0.76483">
        <ele>34</ele>
        <time>2010-09-26T07:27:17Z</time>
      </trkpt>
      <trkpt lat="45.81855" lon="-0.76475">
        <ele>34</ele>
        <time>2010-09-26T07:27:21Z</time>
      </trkpt>
      <trkpt lat="45.81855" lon="-0.76469">
        <ele>34</ele>
        <time>2010-09-26T07:27:24Z</time>
      </trkpt>
      <trkpt lat="45.81859" lon="-0.76463">
        <ele>34</ele>
        <time>2010-09-26T07:27:28Z</time>
      </trkpt>
      <trkpt lat="45.81864" lon="-0.76459">
        <ele>34</ele>
        <time>2010-09-26T07:27:32Z</time>
      </trkpt>
      <trkpt lat="45.81869" lon="-0.76454">
        <ele>34</ele>
        <time>2010-09-26T07:27:36Z</time>
      </trkpt>
      <trkpt lat="45.81873" lon="-0.7645">
        <ele>34</ele>
        <time>2010-09-26T07:27:40Z</time>
      </trkpt>
      <trkpt lat="45.81877" lon="-0.76446">
        <ele>34</ele>
        <time>2010-09-26T07:27:43Z</time>
      </trkpt>
      <trkpt lat="45.81882" lon="-0.76441">
        <ele>35</ele>
        <time>2010-09-26T07:27:47Z</time>
      </trkpt>
      <trkpt lat="45.81886" lon="-0.76438">
        <ele>35</ele>
        <time>2010-09-26T07:27:50Z</time>
      </trkpt>
      <trkpt lat="45.81891" lon="-0.76434">
        <ele>35</ele>
        <time>2010-09-26T07:27:54Z</time>
      </trkpt>
      <trkpt lat="45.81896" lon="-0.7643">
        <ele>35</ele>
        <time>2010-09-26T07:27:58Z</time>
      </trkpt>
      <trkpt lat="45.81901" lon="-0.76425">
        <ele>36</ele>
        <time>2010-09-26T07:28:02Z</time>
      </trkpt>
      <trkpt lat="45.81905" lon="-0.76421">
        <ele>36</ele>
        <time>2010-09-26T07:28:06Z</time>
      </trkpt>
      <trkpt lat="45.81909" lon="-0.76418">
        <ele>36</ele>
        <time>2010-09-26T07:28:09Z</time>
      </trkpt>
      <trkpt lat="45.81913" lon="-0.76412">
        <ele>36</ele>
        <time>2010-09-26T07:28:13Z</time>
      </trkpt>
      <trkpt lat="45.81918" lon="-0.76408">
        <ele>36</ele>
        <time>2010-09-26T07:28:17Z</time>
      </trkpt>
      <trkpt lat="45.81922" lon="-0.76404">
        <ele>36</ele>
        <time>2010-09-26T07:28:21Z</time>
      </trkpt>
      <trkpt lat="45.81926" lon="-0.76401">
        <ele>36</ele>
        <time>2010-09-26T07:28:24Z</time>
      </trkpt>
      <trkpt lat="45.81932" lon="-0.76398">
        <ele>36</ele>
        <time>2010-09-26T07:28:28Z</time>
      </trkpt>
      <trkpt lat="45.81937" lon="-0.76396">
        <ele>36</ele>
        <time>2010-09-26T07:28:32Z</time>
      </trkpt>
      <trkpt lat="45.81942" lon="-0.76391">
        <ele>36</ele>
        <time>2010-09-26T07:28:36Z</time>
      </trkpt>
      <trkpt lat="45.81943" lon="-0.76392">
        <ele>36</ele>
        <time>2010-09-26T07:28:38Z</time>
      </trkpt>
      <trkpt lat="45.81946" lon="-0.76389">
        <ele>35</ele>
        <time>2010-09-26T07:28:51Z</time>
      </trkpt>
      <trkpt lat="45.81947" lon="-0.76388">
        <ele>35</ele>
        <time>2010-09-26T07:28:52Z</time>
      </trkpt>
      <trkpt lat="45.81952" lon="-0.76385">
        <ele>35</ele>
        <time>2010-09-26T07:28:56Z</time>
      </trkpt>
      <trkpt lat="45.81956" lon="-0.76382">
        <ele>35</ele>
        <time>2010-09-26T07:29:00Z</time>
      </trkpt>
      <trkpt lat="45.8196" lon="-0.76377">
        <ele>35</ele>
        <time>2010-09-26T07:29:04Z</time>
      </trkpt>
      <trkpt lat="45.81965" lon="-0.76374">
        <ele>35</ele>
        <time>2010-09-26T07:29:09Z</time>
      </trkpt>
      <trkpt lat="45.81969" lon="-0.7637">
        <ele>35</ele>
        <time>2010-09-26T07:29:13Z</time>
      </trkpt>
      <trkpt lat="45.81973" lon="-0.76367">
        <ele>35</ele>
        <time>2010-09-26T07:29:17Z</time>
      </trkpt>
      <trkpt lat="45.81977" lon="-0.76362">
        <ele>35</ele>
        <time>2010-09-26T07:29:22Z</time>
      </trkpt>
      <trkpt lat="45.81982" lon="-0.7636">
        <ele>35</ele>
        <time>2010-09-26T07:29:26Z</time>
      </trkpt>
      <trkpt lat="45.81986" lon="-0.76356">
        <ele>35</ele>
        <time>2010-09-26T07:29:31Z</time>
      </trkpt>
      <trkpt lat="45.81991" lon="-0.76352">
        <ele>35</ele>
        <time>2010-09-26T07:29:36Z</time>
      </trkpt>
      <trkpt lat="45.81995" lon="-0.76348">
        <ele>35</ele>
        <time>2010-09-26T07:29:40Z</time>
      </trkpt>
      <trkpt lat="45.82" lon="-0.76344">
        <ele>35</ele>
        <time>2010-09-26T07:29:44Z</time>
      </trkpt>
      <trkpt lat="45.82005" lon="-0.7634">
        <ele>35</ele>
        <time>2010-09-26T07:29:49Z</time>
      </trkpt>
      <trkpt lat="45.82009" lon="-0.76338">
        <ele>35</ele>
        <time>2010-09-26T07:29:53Z</time>
      </trkpt>
      <trkpt lat="45.82013" lon="-0.76334">
        <ele>34</ele>
        <time>2010-09-26T07:29:57Z</time>
      </trkpt>
      <trkpt lat="45.82018" lon="-0.7633">
        <ele>34</ele>
        <time>2010-09-26T07:30:01Z</time>
      </trkpt>
      <trkpt lat="45.82022" lon="-0.76325">
        <ele>34</ele>
        <time>2010-09-26T07:30:06Z</time>
      </trkpt>
      <trkpt lat="45.82026" lon="-0.76322">
        <ele>34</ele>
        <time>2010-09-26T07:30:10Z</time>
      </trkpt>
      <trkpt lat="45.82031" lon="-0.76318">
        <ele>34</ele>
        <time>2010-09-26T07:30:15Z</time>
      </trkpt>
      <trkpt lat="45.82036" lon="-0.76314">
        <ele>34</ele>
        <time>2010-09-26T07:30:20Z</time>
      </trkpt>
      <trkpt lat="45.8204" lon="-0.7631">
        <ele>34</ele>
        <time>2010-09-26T07:30:24Z</time>
      </trkpt>
      <trkpt lat="45.82046" lon="-0.76306">
        <ele>34</ele>
        <time>2010-09-26T07:30:28Z</time>
      </trkpt>
      <trkpt lat="45.82048" lon="-0.76301">
        <ele>33</ele>
        <time>2010-09-26T07:30:32Z</time>
      </trkpt>
      <trkpt lat="45.8205" lon="-0.76294">
        <ele>33</ele>
        <time>2010-09-26T07:30:37Z</time>
      </trkpt>
      <trkpt lat="45.82051" lon="-0.76287">
        <ele>33</ele>
        <time>2010-09-26T07:30:42Z</time>
      </trkpt>
      <trkpt lat="45.82053" lon="-0.76279">
        <ele>33</ele>
        <time>2010-09-26T07:30:47Z</time>
      </trkpt>
      <trkpt lat="45.82054" lon="-0.76273">
        <ele>33</ele>
        <time>2010-09-26T07:30:51Z</time>
      </trkpt>
      <trkpt lat="45.82055" lon="-0.76266">
        <ele>33</ele>
        <time>2010-09-26T07:30:55Z</time>
      </trkpt>
      <trkpt lat="45.82055" lon="-0.76258">
        <ele>33</ele>
        <time>2010-09-26T07:30:59Z</time>
      </trkpt>
      <trkpt lat="45.82057" lon="-0.76251">
        <ele>33</ele>
        <time>2010-09-26T07:31:04Z</time>
      </trkpt>
      <trkpt lat="45.82058" lon="-0.76243">
        <ele>33</ele>
        <time>2010-09-26T07:31:09Z</time>
      </trkpt>
      <trkpt lat="45.82058" lon="-0.76236">
        <ele>33</ele>
        <time>2010-09-26T07:31:13Z</time>
      </trkpt>
      <trkpt lat="45.82058" lon="-0.76229">
        <ele>33</ele>
        <time>2010-09-26T07:31:17Z</time>
      </trkpt>
      <trkpt lat="45.82059" lon="-0.76221">
        <ele>33</ele>
        <time>2010-09-26T07:31:21Z</time>
      </trkpt>
      <trkpt lat="45.8206" lon="-0.76214">
        <ele>33</ele>
        <time>2010-09-26T07:31:25Z</time>
      </trkpt>
      <trkpt lat="45.8206" lon="-0.76206">
        <ele>33</ele>
        <time>2010-09-26T07:31:29Z</time>
      </trkpt>
      <trkpt lat="45.82061" lon="-0.76199">
        <ele>33</ele>
        <time>2010-09-26T07:31:32Z</time>
      </trkpt>
      <trkpt lat="45.82061" lon="-0.76193">
        <ele>33</ele>
        <time>2010-09-26T07:31:35Z</time>
      </trkpt>
      <trkpt lat="45.82062" lon="-0.76184">
        <ele>33</ele>
        <time>2010-09-26T07:31:39Z</time>
      </trkpt>
      <trkpt lat="45.82062" lon="-0.76176">
        <ele>33</ele>
        <time>2010-09-26T07:31:43Z</time>
      </trkpt>
      <trkpt lat="45.82063" lon="-0.76169">
        <ele>33</ele>
        <time>2010-09-26T07:31:47Z</time>
      </trkpt>
      <trkpt lat="45.82064" lon="-0.76161">
        <ele>34</ele>
        <time>2010-09-26T07:31:51Z</time>
      </trkpt>
      <trkpt lat="45.82066" lon="-0.76153">
        <ele>34</ele>
        <time>2010-09-26T07:31:55Z</time>
      </trkpt>
      <trkpt lat="45.82068" lon="-0.76145">
        <ele>34</ele>
        <time>2010-09-26T07:31:59Z</time>
      </trkpt>
      <trkpt lat="45.82068" lon="-0.76138">
        <ele>34</ele>
        <time>2010-09-26T07:32:03Z</time>
      </trkpt>
      <trkpt lat="45.8207" lon="-0.76131">
        <ele>34</ele>
        <time>2010-09-26T07:32:07Z</time>
      </trkpt>
      <trkpt lat="45.82071" lon="-0.76124">
        <ele>34</ele>
        <time>2010-09-26T07:32:11Z</time>
      </trkpt>
      <trkpt lat="45.82072" lon="-0.76118">
        <ele>34</ele>
        <time>2010-09-26T07:32:15Z</time>
      </trkpt>
      <trkpt lat="45.82073" lon="-0.76111">
        <ele>35</ele>
        <time>2010-09-26T07:32:20Z</time>
      </trkpt>
      <trkpt lat="45.82073" lon="-0.76103">
        <ele>35</ele>
        <time>2010-09-26T07:32:24Z</time>
      </trkpt>
      <trkpt lat="45.82074" lon="-0.76096">
        <ele>34</ele>
        <time>2010-09-26T07:32:28Z</time>
      </trkpt>
      <trkpt lat="45.82075" lon="-0.76089">
        <ele>34</ele>
        <time>2010-09-26T07:32:32Z</time>
      </trkpt>
      <trkpt lat="45.82076" lon="-0.76082">
        <ele>35</ele>
        <time>2010-09-26T07:32:36Z</time>
      </trkpt>
      <trkpt lat="45.82076" lon="-0.76075">
        <ele>35</ele>
        <time>2010-09-26T07:32:40Z</time>
      </trkpt>
      <trkpt lat="45.82075" lon="-0.76067">
        <ele>35</ele>
        <time>2010-09-26T07:32:44Z</time>
      </trkpt>
      <trkpt lat="45.82075" lon="-0.7606">
        <ele>36</ele>
        <time>2010-09-26T07:32:48Z</time>
      </trkpt>
      <trkpt lat="45.82073" lon="-0.76053">
        <ele>36</ele>
        <time>2010-09-26T07:32:52Z</time>
      </trkpt>
      <trkpt lat="45.82075" lon="-0.76045">
        <ele>36</ele>
        <time>2010-09-26T07:32:56Z</time>
      </trkpt>
      <trkpt lat="45.82076" lon="-0.76037">
        <ele>36</ele>
        <time>2010-09-26T07:33:00Z</time>
      </trkpt>
      <trkpt lat="45.82076" lon="-0.76029">
        <ele>36</ele>
        <time>2010-09-26T07:33:04Z</time>
      </trkpt>
      <trkpt lat="45.82077" lon="-0.76022">
        <ele>36</ele>
        <time>2010-09-26T07:33:08Z</time>
      </trkpt>
      <trkpt lat="45.82078" lon="-0.76015">
        <ele>36</ele>
        <time>2010-09-26T07:33:12Z</time>
      </trkpt>
      <trkpt lat="45.8208" lon="-0.76007">
        <ele>36</ele>
        <time>2010-09-26T07:33:16Z</time>
      </trkpt>
      <trkpt lat="45.8208" lon="-0.75999">
        <ele>36</ele>
        <time>2010-09-26T07:33:21Z</time>
      </trkpt>
      <trkpt lat="45.8208" lon="-0.75992">
        <ele>37</ele>
        <time>2010-09-26T07:33:25Z</time>
      </trkpt>
      <trkpt lat="45.82081" lon="-0.75984">
        <ele>37</ele>
        <time>2010-09-26T07:33:29Z</time>
      </trkpt>
      <trkpt lat="45.82082" lon="-0.75977">
        <ele>38</ele>
        <time>2010-09-26T07:33:33Z</time>
      </trkpt>
      <trkpt lat="45.82084" lon="-0.7597">
        <ele>37</ele>
        <time>2010-09-26T07:33:38Z</time>
      </trkpt>
      <trkpt lat="45.82087" lon="-0.75967">
        <ele>37</ele>
        <time>2010-09-26T07:33:42Z</time>
      </trkpt>
      <trkpt lat="45.82092" lon="-0.75962">
        <ele>37</ele>
        <time>2010-09-26T07:33:46Z</time>
      </trkpt>
      <trkpt lat="45.82095" lon="-0.75959">
        <ele>37</ele>
        <time>2010-09-26T07:33:50Z</time>
      </trkpt>
      <trkpt lat="45.821" lon="-0.75956">
        <ele>38</ele>
        <time>2010-09-26T07:33:54Z</time>
      </trkpt>
      <trkpt lat="45.82105" lon="-0.75952">
        <ele>38</ele>
        <time>2010-09-26T07:33:58Z</time>
      </trkpt>
      <trkpt lat="45.82109" lon="-0.75948">
        <ele>38</ele>
        <time>2010-09-26T07:34:03Z</time>
      </trkpt>
      <trkpt lat="45.82113" lon="-0.75942">
        <ele>38</ele>
        <time>2010-09-26T07:34:08Z</time>
      </trkpt>
      <trkpt lat="45.82117" lon="-0.7594">
        <ele>38</ele>
        <time>2010-09-26T07:34:11Z</time>
      </trkpt>
      <trkpt lat="45.82118" lon="-0.75939">
        <ele>38</ele>
        <time>2010-09-26T07:34:13Z</time>
      </trkpt>
      <trkpt lat="45.82117" lon="-0.75934">
        <ele>38</ele>
        <time>2010-09-26T07:34:29Z</time>
      </trkpt>
      <trkpt lat="45.82117" lon="-0.75932">
        <ele>38</ele>
        <time>2010-09-26T07:34:30Z</time>
      </trkpt>
      <trkpt lat="45.8212" lon="-0.75927">
        <ele>38</ele>
        <time>2010-09-26T07:34:37Z</time>
      </trkpt>
      <trkpt lat="45.82124" lon="-0.75923">
        <ele>38</ele>
        <time>2010-09-26T07:34:42Z</time>
      </trkpt>
      <trkpt lat="45.8213" lon="-0.75918">
        <ele>38</ele>
        <time>2010-09-26T07:34:46Z</time>
      </trkpt>
      <trkpt lat="45.82135" lon="-0.75917">
        <ele>38</ele>
        <time>2010-09-26T07:34:50Z</time>
      </trkpt>
      <trkpt lat="45.82139" lon="-0.75914">
        <ele>39</ele>
        <time>2010-09-26T07:34:54Z</time>
      </trkpt>
      <trkpt lat="45.82144" lon="-0.75911">
        <ele>39</ele>
        <time>2010-09-26T07:34:59Z</time>
      </trkpt>
      <trkpt lat="45.82149" lon="-0.75908">
        <ele>39</ele>
        <time>2010-09-26T07:35:03Z</time>
      </trkpt>
      <trkpt lat="45.82153" lon="-0.75906">
        <ele>39</ele>
        <time>2010-09-26T07:35:07Z</time>
      </trkpt>
      <trkpt lat="45.82159" lon="-0.75904">
        <ele>39</ele>
        <time>2010-09-26T07:35:12Z</time>
      </trkpt>
      <trkpt lat="45.82164" lon="-0.759">
        <ele>39</ele>
        <time>2010-09-26T07:35:16Z</time>
      </trkpt>
      <trkpt lat="45.82169" lon="-0.75898">
        <ele>37</ele>
        <time>2010-09-26T07:35:20Z</time>
      </trkpt>
      <trkpt lat="45.82174" lon="-0.75895">
        <ele>37</ele>
        <time>2010-09-26T07:35:24Z</time>
      </trkpt>
      <trkpt lat="45.82179" lon="-0.75891">
        <ele>37</ele>
        <time>2010-09-26T07:35:28Z</time>
      </trkpt>
      <trkpt lat="45.82183" lon="-0.75887">
        <ele>37</ele>
        <time>2010-09-26T07:35:33Z</time>
      </trkpt>
      <trkpt lat="45.82188" lon="-0.75883">
        <ele>37</ele>
        <time>2010-09-26T07:35:37Z</time>
      </trkpt>
      <trkpt lat="45.82193" lon="-0.75879">
        <ele>37</ele>
        <time>2010-09-26T07:35:41Z</time>
      </trkpt>
      <trkpt lat="45.82197" lon="-0.75874">
        <ele>37</ele>
        <time>2010-09-26T07:35:45Z</time>
      </trkpt>
      <trkpt lat="45.82202" lon="-0.75872">
        <ele>37</ele>
        <time>2010-09-26T07:35:49Z</time>
      </trkpt>
      <trkpt lat="45.82205" lon="-0.75868">
        <ele>37</ele>
        <time>2010-09-26T07:35:53Z</time>
      </trkpt>
      <trkpt lat="45.82209" lon="-0.75864">
        <ele>36</ele>
        <time>2010-09-26T07:35:57Z</time>
      </trkpt>
      <trkpt lat="45.82215" lon="-0.7586">
        <ele>36</ele>
        <time>2010-09-26T07:36:01Z</time>
      </trkpt>
      <trkpt lat="45.82218" lon="-0.75857">
        <ele>36</ele>
        <time>2010-09-26T07:36:04Z</time>
      </trkpt>
      <trkpt lat="45.82222" lon="-0.75852">
        <ele>36</ele>
        <time>2010-09-26T07:36:07Z</time>
      </trkpt>
      <trkpt lat="45.82226" lon="-0.75849">
        <ele>36</ele>
        <time>2010-09-26T07:36:10Z</time>
      </trkpt>
      <trkpt lat="45.82231" lon="-0.75844">
        <ele>36</ele>
        <time>2010-09-26T07:36:13Z</time>
      </trkpt>
      <trkpt lat="45.82234" lon="-0.75837">
        <ele>36</ele>
        <time>2010-09-26T07:36:16Z</time>
      </trkpt>
      <trkpt lat="45.82239" lon="-0.75832">
        <ele>35</ele>
        <time>2010-09-26T07:36:19Z</time>
      </trkpt>
      <trkpt lat="45.82243" lon="-0.75829">
        <ele>35</ele>
        <time>2010-09-26T07:36:22Z</time>
      </trkpt>
      <trkpt lat="45.82247" lon="-0.75826">
        <ele>35</ele>
        <time>2010-09-26T07:36:25Z</time>
      </trkpt>
      <trkpt lat="45.8225" lon="-0.7582">
        <ele>34</ele>
        <time>2010-09-26T07:36:28Z</time>
      </trkpt>
      <trkpt lat="45.82253" lon="-0.75813">
        <ele>34</ele>
        <time>2010-09-26T07:36:31Z</time>
      </trkpt>
      <trkpt lat="45.82255" lon="-0.75807">
        <ele>34</ele>
        <time>2010-09-26T07:36:34Z</time>
      </trkpt>
      <trkpt lat="45.82257" lon="-0.75801">
        <ele>34</ele>
        <time>2010-09-26T07:36:37Z</time>
      </trkpt>
      <trkpt lat="45.8226" lon="-0.75793">
        <ele>34</ele>
        <time>2010-09-26T07:36:40Z</time>
      </trkpt>
      <trkpt lat="45.82262" lon="-0.75787">
        <ele>33</ele>
        <time>2010-09-26T07:36:43Z</time>
      </trkpt>
      <trkpt lat="45.82264" lon="-0.75781">
        <ele>33</ele>
        <time>2010-09-26T07:36:46Z</time>
      </trkpt>
      <trkpt lat="45.82267" lon="-0.75775">
        <ele>33</ele>
        <time>2010-09-26T07:36:49Z</time>
      </trkpt>
      <trkpt lat="45.82269" lon="-0.75769">
        <ele>33</ele>
        <time>2010-09-26T07:36:52Z</time>
      </trkpt>
      <trkpt lat="45.82272" lon="-0.75762">
        <ele>33</ele>
        <time>2010-09-26T07:36:56Z</time>
      </trkpt>
      <trkpt lat="45.82275" lon="-0.75756">
        <ele>33</ele>
        <time>2010-09-26T07:37:00Z</time>
      </trkpt>
      <trkpt lat="45.82278" lon="-0.7575">
        <ele>33</ele>
        <time>2010-09-26T07:37:03Z</time>
      </trkpt>
      <trkpt lat="45.82282" lon="-0.75745">
        <ele>32</ele>
        <time>2010-09-26T07:37:07Z</time>
      </trkpt>
      <trkpt lat="45.82286" lon="-0.75738">
        <ele>32</ele>
        <time>2010-09-26T07:37:11Z</time>
      </trkpt>
      <trkpt lat="45.8229" lon="-0.75732">
        <ele>32</ele>
        <time>2010-09-26T07:37:15Z</time>
      </trkpt>
      <trkpt lat="45.82293" lon="-0.75726">
        <ele>32</ele>
        <time>2010-09-26T07:37:19Z</time>
      </trkpt>
      <trkpt lat="45.82295" lon="-0.7572">
        <ele>32</ele>
        <time>2010-09-26T07:37:23Z</time>
      </trkpt>
      <trkpt lat="45.82294" lon="-0.75713">
        <ele>32</ele>
        <time>2010-09-26T07:37:27Z</time>
      </trkpt>
      <trkpt lat="45.82291" lon="-0.75706">
        <ele>32</ele>
        <time>2010-09-26T07:37:31Z</time>
      </trkpt>
      <trkpt lat="45.82287" lon="-0.75702">
        <ele>32</ele>
        <time>2010-09-26T07:37:35Z</time>
      </trkpt>
      <trkpt lat="45.82283" lon="-0.75696">
        <ele>32</ele>
        <time>2010-09-26T07:37:39Z</time>
      </trkpt>
      <trkpt lat="45.82279" lon="-0.75691">
        <ele>32</ele>
        <time>2010-09-26T07:37:43Z</time>
      </trkpt>
      <trkpt lat="45.82276" lon="-0.75684">
        <ele>32</ele>
        <time>2010-09-26T07:37:47Z</time>
      </trkpt>
      <trkpt lat="45.82274" lon="-0.75677">
        <ele>32</ele>
        <time>2010-09-26T07:37:51Z</time>
      </trkpt>
      <trkpt lat="45.8227" lon="-0.7567">
        <ele>32</ele>
        <time>2010-09-26T07:37:55Z</time>
      </trkpt>
      <trkpt lat="45.82267" lon="-0.75664">
        <ele>31</ele>
        <time>2010-09-26T07:37:59Z</time>
      </trkpt>
      <trkpt lat="45.82264" lon="-0.75658">
        <ele>31</ele>
        <time>2010-09-26T07:38:02Z</time>
      </trkpt>
      <trkpt lat="45.82261" lon="-0.75651">
        <ele>31</ele>
        <time>2010-09-26T07:38:06Z</time>
      </trkpt>
      <trkpt lat="45.82258" lon="-0.75644">
        <ele>31</ele>
        <time>2010-09-26T07:38:10Z</time>
      </trkpt>
      <trkpt lat="45.82255" lon="-0.75638">
        <ele>31</ele>
        <time>2010-09-26T07:38:13Z</time>
      </trkpt>
      <trkpt lat="45.82253" lon="-0.75632">
        <ele>31</ele>
        <time>2010-09-26T07:38:16Z</time>
      </trkpt>
      <trkpt lat="45.82249" lon="-0.75628">
        <ele>32</ele>
        <time>2010-09-26T07:38:19Z</time>
      </trkpt>
      <trkpt lat="45.82247" lon="-0.75622">
        <ele>32</ele>
        <time>2010-09-26T07:38:22Z</time>
      </trkpt>
      <trkpt lat="45.82244" lon="-0.75615">
        <ele>32</ele>
        <time>2010-09-26T07:38:26Z</time>
      </trkpt>
      <trkpt lat="45.8224" lon="-0.7561">
        <ele>32</ele>
        <time>2010-09-26T07:38:29Z</time>
      </trkpt>
      <trkpt lat="45.82238" lon="-0.75604">
        <ele>32</ele>
        <time>2010-09-26T07:38:32Z</time>
      </trkpt>
      <trkpt lat="45.82234" lon="-0.756">
        <ele>32</ele>
        <time>2010-09-26T07:38:35Z</time>
      </trkpt>
      <trkpt lat="45.82231" lon="-0.75594">
        <ele>32</ele>
        <time>2010-09-26T07:38:39Z</time>
      </trkpt>
      <trkpt lat="45.82227" lon="-0.75587">
        <ele>32</ele>
        <time>2010-09-26T07:38:43Z</time>
      </trkpt>
      <trkpt lat="45.82225" lon="-0.75582">
        <ele>32</ele>
        <time>2010-09-26T07:38:46Z</time>
      </trkpt>
      <trkpt lat="45.82222" lon="-0.75576">
        <ele>32</ele>
        <time>2010-09-26T07:38:50Z</time>
      </trkpt>
      <trkpt lat="45.82218" lon="-0.7557">
        <ele>32</ele>
        <time>2010-09-26T07:38:54Z</time>
      </trkpt>
      <trkpt lat="45.82215" lon="-0.75564">
        <ele>32</ele>
        <time>2010-09-26T07:38:57Z</time>
      </trkpt>
      <trkpt lat="45.82212" lon="-0.75559">
        <ele>32</ele>
        <time>2010-09-26T07:39:00Z</time>
      </trkpt>
      <trkpt lat="45.82209" lon="-0.75552">
        <ele>32</ele>
        <time>2010-09-26T07:39:04Z</time>
      </trkpt>
      <trkpt lat="45.82205" lon="-0.75546">
        <ele>32</ele>
        <time>2010-09-26T07:39:08Z</time>
      </trkpt>
      <trkpt lat="45.82202" lon="-0.7554">
        <ele>32</ele>
        <time>2010-09-26T07:39:12Z</time>
      </trkpt>
      <trkpt lat="45.82198" lon="-0.75536">
        <ele>32</ele>
        <time>2010-09-26T07:39:15Z</time>
      </trkpt>
      <trkpt lat="45.82193" lon="-0.75534">
        <ele>32</ele>
        <time>2010-09-26T07:39:20Z</time>
      </trkpt>
      <trkpt lat="45.82188" lon="-0.75535">
        <ele>32</ele>
        <time>2010-09-26T07:39:24Z</time>
      </trkpt>
      <trkpt lat="45.82183" lon="-0.75539">
        <ele>32</ele>
        <time>2010-09-26T07:39:28Z</time>
      </trkpt>
      <trkpt lat="45.82178" lon="-0.75543">
        <ele>32</ele>
        <time>2010-09-26T07:39:32Z</time>
      </trkpt>
      <trkpt lat="45.82173" lon="-0.75545">
        <ele>32</ele>
        <time>2010-09-26T07:39:35Z</time>
      </trkpt>
      <trkpt lat="45.82168" lon="-0.75547">
        <ele>32</ele>
        <time>2010-09-26T07:39:39Z</time>
      </trkpt>
      <trkpt lat="45.82162" lon="-0.75551">
        <ele>34</ele>
        <time>2010-09-26T07:39:43Z</time>
      </trkpt>
      <trkpt lat="45.82158" lon="-0.75554">
        <ele>34</ele>
        <time>2010-09-26T07:39:47Z</time>
      </trkpt>
      <trkpt lat="45.82153" lon="-0.75558">
        <ele>34</ele>
        <time>2010-09-26T07:39:51Z</time>
      </trkpt>
      <trkpt lat="45.82149" lon="-0.75561">
        <ele>34</ele>
        <time>2010-09-26T07:39:55Z</time>
      </trkpt>
      <trkpt lat="45.82143" lon="-0.75562">
        <ele>34</ele>
        <time>2010-09-26T07:39:59Z</time>
      </trkpt>
      <trkpt lat="45.82138" lon="-0.75559">
        <ele>34</ele>
        <time>2010-09-26T07:40:03Z</time>
      </trkpt>
      <trkpt lat="45.82134" lon="-0.75557">
        <ele>35</ele>
        <time>2010-09-26T07:40:06Z</time>
      </trkpt>
      <trkpt lat="45.8213" lon="-0.75554">
        <ele>35</ele>
        <time>2010-09-26T07:40:09Z</time>
      </trkpt>
      <trkpt lat="45.82125" lon="-0.75548">
        <ele>35</ele>
        <time>2010-09-26T07:40:13Z</time>
      </trkpt>
      <trkpt lat="45.82121" lon="-0.75543">
        <ele>35</ele>
        <time>2010-09-26T07:40:17Z</time>
      </trkpt>
      <trkpt lat="45.82117" lon="-0.75536">
        <ele>35</ele>
        <time>2010-09-26T07:40:21Z</time>
      </trkpt>
      <trkpt lat="45.82114" lon="-0.75531">
        <ele>35</ele>
        <time>2010-09-26T07:40:25Z</time>
      </trkpt>
      <trkpt lat="45.8211" lon="-0.75526">
        <ele>35</ele>
        <time>2010-09-26T07:40:29Z</time>
      </trkpt>
      <trkpt lat="45.82106" lon="-0.7552">
        <ele>35</ele>
        <time>2010-09-26T07:40:33Z</time>
      </trkpt>
      <trkpt lat="45.82103" lon="-0.75515">
        <ele>35</ele>
        <time>2010-09-26T07:40:36Z</time>
      </trkpt>
      <trkpt lat="45.821" lon="-0.7551">
        <ele>35</ele>
        <time>2010-09-26T07:40:39Z</time>
      </trkpt>
      <trkpt lat="45.82098" lon="-0.75503">
        <ele>35</ele>
        <time>2010-09-26T07:40:43Z</time>
      </trkpt>
      <trkpt lat="45.82096" lon="-0.75496">
        <ele>35</ele>
        <time>2010-09-26T07:40:47Z</time>
      </trkpt>
      <trkpt lat="45.82094" lon="-0.75489">
        <ele>35</ele>
        <time>2010-09-26T07:40:51Z</time>
      </trkpt>
      <trkpt lat="45.82092" lon="-0.75482">
        <ele>35</ele>
        <time>2010-09-26T07:40:55Z</time>
      </trkpt>
      <trkpt lat="45.8209" lon="-0.75474">
        <ele>35</ele>
        <time>2010-09-26T07:40:59Z</time>
      </trkpt>
      <trkpt lat="45.82088" lon="-0.75467">
        <ele>35</ele>
        <time>2010-09-26T07:41:02Z</time>
      </trkpt>
      <trkpt lat="45.82087" lon="-0.75461">
        <ele>35</ele>
        <time>2010-09-26T07:41:05Z</time>
      </trkpt>
      <trkpt lat="45.82085" lon="-0.75453">
        <ele>35</ele>
        <time>2010-09-26T07:41:09Z</time>
      </trkpt>
      <trkpt lat="45.82084" lon="-0.75445">
        <ele>35</ele>
        <time>2010-09-26T07:41:13Z</time>
      </trkpt>
      <trkpt lat="45.82081" lon="-0.75439">
        <ele>37</ele>
        <time>2010-09-26T07:41:16Z</time>
      </trkpt>
      <trkpt lat="45.82079" lon="-0.75432">
        <ele>37</ele>
        <time>2010-09-26T07:41:20Z</time>
      </trkpt>
      <trkpt lat="45.82077" lon="-0.75426">
        <ele>37</ele>
        <time>2010-09-26T07:41:23Z</time>
      </trkpt>
      <trkpt lat="45.82075" lon="-0.7542">
        <ele>37</ele>
        <time>2010-09-26T07:41:26Z</time>
      </trkpt>
      <trkpt lat="45.82072" lon="-0.75415">
        <ele>37</ele>
        <time>2010-09-26T07:41:29Z</time>
      </trkpt>
      <trkpt lat="45.82069" lon="-0.75408">
        <ele>37</ele>
        <time>2010-09-26T07:41:33Z</time>
      </trkpt>
      <trkpt lat="45.82066" lon="-0.75402">
        <ele>37</ele>
        <time>2010-09-26T07:41:36Z</time>
      </trkpt>
      <trkpt lat="45.82063" lon="-0.75395">
        <ele>37</ele>
        <time>2010-09-26T07:41:40Z</time>
      </trkpt>
      <trkpt lat="45.82058" lon="-0.75389">
        <ele>38</ele>
        <time>2010-09-26T07:41:44Z</time>
      </trkpt>
      <trkpt lat="45.82054" lon="-0.75387">
        <ele>38</ele>
        <time>2010-09-26T07:41:48Z</time>
      </trkpt>
      <trkpt lat="45.82049" lon="-0.75385">
        <ele>38</ele>
        <time>2010-09-26T07:41:52Z</time>
      </trkpt>
      <trkpt lat="45.82043" lon="-0.75382">
        <ele>38</ele>
        <time>2010-09-26T07:41:56Z</time>
      </trkpt>
      <trkpt lat="45.82039" lon="-0.75379">
        <ele>38</ele>
        <time>2010-09-26T07:42:00Z</time>
      </trkpt>
      <trkpt lat="45.82033" lon="-0.75379">
        <ele>38</ele>
        <time>2010-09-26T07:42:04Z</time>
      </trkpt>
      <trkpt lat="45.82029" lon="-0.75383">
        <ele>38</ele>
        <time>2010-09-26T07:42:08Z</time>
      </trkpt>
      <trkpt lat="45.82025" lon="-0.75387">
        <ele>38</ele>
        <time>2010-09-26T07:42:11Z</time>
      </trkpt>
      <trkpt lat="45.82021" lon="-0.7539">
        <ele>39</ele>
        <time>2010-09-26T07:42:15Z</time>
      </trkpt>
      <trkpt lat="45.82017" lon="-0.75395">
        <ele>39</ele>
        <time>2010-09-26T07:42:19Z</time>
      </trkpt>
      <trkpt lat="45.82011" lon="-0.75399">
        <ele>39</ele>
        <time>2010-09-26T07:42:23Z</time>
      </trkpt>
      <trkpt lat="45.82006" lon="-0.75403">
        <ele>39</ele>
        <time>2010-09-26T07:42:27Z</time>
      </trkpt>
      <trkpt lat="45.82002" lon="-0.75405">
        <ele>39</ele>
        <time>2010-09-26T07:42:30Z</time>
      </trkpt>
      <trkpt lat="45.81997" lon="-0.7541">
        <ele>40</ele>
        <time>2010-09-26T07:42:34Z</time>
      </trkpt>
      <trkpt lat="45.81992" lon="-0.75413">
        <ele>40</ele>
        <time>2010-09-26T07:42:38Z</time>
      </trkpt>
      <trkpt lat="45.81987" lon="-0.75414">
        <ele>40</ele>
        <time>2010-09-26T07:42:42Z</time>
      </trkpt>
      <trkpt lat="45.81982" lon="-0.75411">
        <ele>40</ele>
        <time>2010-09-26T07:42:45Z</time>
      </trkpt>
      <trkpt lat="45.81979" lon="-0.75405">
        <ele>40</ele>
        <time>2010-09-26T07:42:49Z</time>
      </trkpt>
      <trkpt lat="45.81976" lon="-0.75399">
        <ele>41</ele>
        <time>2010-09-26T07:42:53Z</time>
      </trkpt>
      <trkpt lat="45.81974" lon="-0.7539">
        <ele>41</ele>
        <time>2010-09-26T07:42:57Z</time>
      </trkpt>
      <trkpt lat="45.81972" lon="-0.75383">
        <ele>41</ele>
        <time>2010-09-26T07:43:01Z</time>
      </trkpt>
      <trkpt lat="45.81971" lon="-0.75377">
        <ele>41</ele>
        <time>2010-09-26T07:43:04Z</time>
      </trkpt>
      <trkpt lat="45.8197" lon="-0.75368">
        <ele>41</ele>
        <time>2010-09-26T07:43:08Z</time>
      </trkpt>
      <trkpt lat="45.81968" lon="-0.7536">
        <ele>41</ele>
        <time>2010-09-26T07:43:12Z</time>
      </trkpt>
      <trkpt lat="45.81967" lon="-0.75353">
        <ele>41</ele>
        <time>2010-09-26T07:43:16Z</time>
      </trkpt>
      <trkpt lat="45.81966" lon="-0.75346">
        <ele>41</ele>
        <time>2010-09-26T07:43:19Z</time>
      </trkpt>
      <trkpt lat="45.81965" lon="-0.75338">
        <ele>41</ele>
        <time>2010-09-26T07:43:23Z</time>
      </trkpt>
      <trkpt lat="45.81963" lon="-0.75332">
        <ele>41</ele>
        <time>2010-09-26T07:43:27Z</time>
      </trkpt>
      <trkpt lat="45.81963" lon="-0.75331">
        <ele>41</ele>
        <time>2010-09-26T07:43:28Z</time>
      </trkpt>
      <trkpt lat="45.81962" lon="-0.75326">
        <ele>41</ele>
        <time>2010-09-26T07:43:35Z</time>
      </trkpt>
      <trkpt lat="45.81962" lon="-0.75322">
        <ele>41</ele>
        <time>2010-09-26T07:43:36Z</time>
      </trkpt>
      <trkpt lat="45.8196" lon="-0.75314">
        <ele>41</ele>
        <time>2010-09-26T07:43:38Z</time>
      </trkpt>
      <trkpt lat="45.81958" lon="-0.75306">
        <ele>41</ele>
        <time>2010-09-26T07:43:41Z</time>
      </trkpt>
      <trkpt lat="45.81956" lon="-0.75299">
        <ele>41</ele>
        <time>2010-09-26T07:43:45Z</time>
      </trkpt>
      <trkpt lat="45.81954" lon="-0.75291">
        <ele>41</ele>
        <time>2010-09-26T07:43:49Z</time>
      </trkpt>
      <trkpt lat="45.81952" lon="-0.75283">
        <ele>41</ele>
        <time>2010-09-26T07:43:53Z</time>
      </trkpt>
      <trkpt lat="45.81951" lon="-0.75276">
        <ele>41</ele>
        <time>2010-09-26T07:43:56Z</time>
      </trkpt>
      <trkpt lat="45.8195" lon="-0.75269">
        <ele>41</ele>
        <time>2010-09-26T07:44:00Z</time>
      </trkpt>
      <trkpt lat="45.81948" lon="-0.75262">
        <ele>41</ele>
        <time>2010-09-26T07:44:03Z</time>
      </trkpt>
      <trkpt lat="45.81947" lon="-0.75254">
        <ele>41</ele>
        <time>2010-09-26T07:44:07Z</time>
      </trkpt>
      <trkpt lat="45.81945" lon="-0.75246">
        <ele>41</ele>
        <time>2010-09-26T07:44:11Z</time>
      </trkpt>
      <trkpt lat="45.81943" lon="-0.75238">
        <ele>41</ele>
        <time>2010-09-26T07:44:15Z</time>
      </trkpt>
      <trkpt lat="45.81942" lon="-0.75231">
        <ele>41</ele>
        <time>2010-09-26T07:44:18Z</time>
      </trkpt>
      <trkpt lat="45.8194" lon="-0.75223">
        <ele>41</ele>
        <time>2010-09-26T07:44:22Z</time>
      </trkpt>
      <trkpt lat="45.81939" lon="-0.75217">
        <ele>41</ele>
        <time>2010-09-26T07:44:25Z</time>
      </trkpt>
      <trkpt lat="45.81937" lon="-0.75211">
        <ele>42</ele>
        <time>2010-09-26T07:44:28Z</time>
      </trkpt>
      <trkpt lat="45.81936" lon="-0.75204">
        <ele>42</ele>
        <time>2010-09-26T07:44:31Z</time>
      </trkpt>
      <trkpt lat="45.81935" lon="-0.75196">
        <ele>42</ele>
        <time>2010-09-26T07:44:35Z</time>
      </trkpt>
      <trkpt lat="45.81933" lon="-0.75188">
        <ele>42</ele>
        <time>2010-09-26T07:44:39Z</time>
      </trkpt>
      <trkpt lat="45.81933" lon="-0.75181">
        <ele>42</ele>
        <time>2010-09-26T07:44:42Z</time>
      </trkpt>
      <trkpt lat="45.81931" lon="-0.75174">
        <ele>42</ele>
        <time>2010-09-26T07:44:45Z</time>
      </trkpt>
      <trkpt lat="45.8193" lon="-0.75168">
        <ele>42</ele>
        <time>2010-09-26T07:44:48Z</time>
      </trkpt>
      <trkpt lat="45.81929" lon="-0.7516">
        <ele>42</ele>
        <time>2010-09-26T07:44:52Z</time>
      </trkpt>
      <trkpt lat="45.81928" lon="-0.75153">
        <ele>42</ele>
        <time>2010-09-26T07:44:55Z</time>
      </trkpt>
      <trkpt lat="45.81926" lon="-0.75145">
        <ele>42</ele>
        <time>2010-09-26T07:44:59Z</time>
      </trkpt>
      <trkpt lat="45.81925" lon="-0.75139">
        <ele>42</ele>
        <time>2010-09-26T07:45:02Z</time>
      </trkpt>
      <trkpt lat="45.81924" lon="-0.75132">
        <ele>41</ele>
        <time>2010-09-26T07:45:05Z</time>
      </trkpt>
      <trkpt lat="45.81922" lon="-0.75125">
        <ele>41</ele>
        <time>2010-09-26T07:45:09Z</time>
      </trkpt>
      <trkpt lat="45.81919" lon="-0.75118">
        <ele>41</ele>
        <time>2010-09-26T07:45:13Z</time>
      </trkpt>
      <trkpt lat="45.81917" lon="-0.75111">
        <ele>41</ele>
        <time>2010-09-26T07:45:17Z</time>
      </trkpt>
      <trkpt lat="45.81914" lon="-0.75105">
        <ele>42</ele>
        <time>2010-09-26T07:45:20Z</time>
      </trkpt>
      <trkpt lat="45.81911" lon="-0.75098">
        <ele>42</ele>
        <time>2010-09-26T07:45:24Z</time>
      </trkpt>
      <trkpt lat="45.81909" lon="-0.75091">
        <ele>42</ele>
        <time>2010-09-26T07:45:28Z</time>
      </trkpt>
      <trkpt lat="45.81906" lon="-0.75084">
        <ele>42</ele>
        <time>2010-09-26T07:45:32Z</time>
      </trkpt>
      <trkpt lat="45.81903" lon="-0.75077">
        <ele>41</ele>
        <time>2010-09-26T07:45:36Z</time>
      </trkpt>
      <trkpt lat="45.819" lon="-0.7507">
        <ele>41</ele>
        <time>2010-09-26T07:45:40Z</time>
      </trkpt>
      <trkpt lat="45.81897" lon="-0.75064">
        <ele>41</ele>
        <time>2010-09-26T07:45:43Z</time>
      </trkpt>
      <trkpt lat="45.81894" lon="-0.75057">
        <ele>41</ele>
        <time>2010-09-26T07:45:47Z</time>
      </trkpt>
      <trkpt lat="45.81892" lon="-0.7505">
        <ele>41</ele>
        <time>2010-09-26T07:45:51Z</time>
      </trkpt>
      <trkpt lat="45.81889" lon="-0.75044">
        <ele>41</ele>
        <time>2010-09-26T07:45:54Z</time>
      </trkpt>
      <trkpt lat="45.81887" lon="-0.75036">
        <ele>41</ele>
        <time>2010-09-26T07:45:58Z</time>
      </trkpt>
      <trkpt lat="45.81884" lon="-0.75031">
        <ele>41</ele>
        <time>2010-09-26T07:46:01Z</time>
      </trkpt>
      <trkpt lat="45.81882" lon="-0.75025">
        <ele>41</ele>
        <time>2010-09-26T07:46:04Z</time>
      </trkpt>
      <trkpt lat="45.81879" lon="-0.75017">
        <ele>41</ele>
        <time>2010-09-26T07:46:08Z</time>
      </trkpt>
      <trkpt lat="45.81876" lon="-0.7501">
        <ele>41</ele>
        <time>2010-09-26T07:46:12Z</time>
      </trkpt>
      <trkpt lat="45.81873" lon="-0.75003">
        <ele>41</ele>
        <time>2010-09-26T07:46:16Z</time>
      </trkpt>
      <trkpt lat="45.8187" lon="-0.74997">
        <ele>40</ele>
        <time>2010-09-26T07:46:19Z</time>
      </trkpt>
      <trkpt lat="45.81867" lon="-0.7499">
        <ele>40</ele>
        <time>2010-09-26T07:46:23Z</time>
      </trkpt>
      <trkpt lat="45.81864" lon="-0.74985">
        <ele>40</ele>
        <time>2010-09-26T07:46:26Z</time>
      </trkpt>
      <trkpt lat="45.81862" lon="-0.74979">
        <ele>40</ele>
        <time>2010-09-26T07:46:29Z</time>
      </trkpt>
      <trkpt lat="45.81859" lon="-0.74971">
        <ele>40</ele>
        <time>2010-09-26T07:46:33Z</time>
      </trkpt>
      <trkpt lat="45.81857" lon="-0.74963">
        <ele>40</ele>
        <time>2010-09-26T07:46:37Z</time>
      </trkpt>
      <trkpt lat="45.81855" lon="-0.74956">
        <ele>40</ele>
        <time>2010-09-26T07:46:41Z</time>
      </trkpt>
      <trkpt lat="45.81851" lon="-0.7495">
        <ele>40</ele>
        <time>2010-09-26T07:46:45Z</time>
      </trkpt>
      <trkpt lat="45.81848" lon="-0.74943">
        <ele>40</ele>
        <time>2010-09-26T07:46:49Z</time>
      </trkpt>
      <trkpt lat="45.81846" lon="-0.74936">
        <ele>39</ele>
        <time>2010-09-26T07:46:53Z</time>
      </trkpt>
      <trkpt lat="45.81843" lon="-0.74929">
        <ele>39</ele>
        <time>2010-09-26T07:46:57Z</time>
      </trkpt>
      <trkpt lat="45.8184" lon="-0.74922">
        <ele>39</ele>
        <time>2010-09-26T07:47:01Z</time>
      </trkpt>
      <trkpt lat="45.81838" lon="-0.74914">
        <ele>39</ele>
        <time>2010-09-26T07:47:05Z</time>
      </trkpt>
      <trkpt lat="45.81835" lon="-0.74908">
        <ele>39</ele>
        <time>2010-09-26T07:47:08Z</time>
      </trkpt>
      <trkpt lat="45.81833" lon="-0.74901">
        <ele>39</ele>
        <time>2010-09-26T07:47:12Z</time>
      </trkpt>
      <trkpt lat="45.8183" lon="-0.74896">
        <ele>39</ele>
        <time>2010-09-26T07:47:15Z</time>
      </trkpt>
      <trkpt lat="45.81828" lon="-0.74889">
        <ele>39</ele>
        <time>2010-09-26T07:47:19Z</time>
      </trkpt>
      <trkpt lat="45.81825" lon="-0.74882">
        <ele>39</ele>
        <time>2010-09-26T07:47:23Z</time>
      </trkpt>
      <trkpt lat="45.81822" lon="-0.74875">
        <ele>39</ele>
        <time>2010-09-26T07:47:27Z</time>
      </trkpt>
      <trkpt lat="45.81819" lon="-0.7487">
        <ele>39</ele>
        <time>2010-09-26T07:47:30Z</time>
      </trkpt>
      <trkpt lat="45.81816" lon="-0.74863">
        <ele>39</ele>
        <time>2010-09-26T07:47:34Z</time>
      </trkpt>
      <trkpt lat="45.81814" lon="-0.74857">
        <ele>39</ele>
        <time>2010-09-26T07:47:37Z</time>
      </trkpt>
      <trkpt lat="45.81812" lon="-0.7485">
        <ele>39</ele>
        <time>2010-09-26T07:47:41Z</time>
      </trkpt>
      <trkpt lat="45.81809" lon="-0.74842">
        <ele>39</ele>
        <time>2010-09-26T07:47:45Z</time>
      </trkpt>
      <trkpt lat="45.81806" lon="-0.74836">
        <ele>39</ele>
        <time>2010-09-26T07:47:48Z</time>
      </trkpt>
      <trkpt lat="45.81804" lon="-0.74829">
        <ele>39</ele>
        <time>2010-09-26T07:47:52Z</time>
      </trkpt>
      <trkpt lat="45.81801" lon="-0.74823">
        <ele>39</ele>
        <time>2010-09-26T07:47:55Z</time>
      </trkpt>
      <trkpt lat="45.81799" lon="-0.74816">
        <ele>39</ele>
        <time>2010-09-26T07:47:58Z</time>
      </trkpt>
      <trkpt lat="45.81797" lon="-0.74811">
        <ele>39</ele>
        <time>2010-09-26T07:48:01Z</time>
      </trkpt>
      <trkpt lat="45.81796" lon="-0.74804">
        <ele>39</ele>
        <time>2010-09-26T07:48:04Z</time>
      </trkpt>
      <trkpt lat="45.81797" lon="-0.74798">
        <ele>39</ele>
        <time>2010-09-26T07:48:07Z</time>
      </trkpt>
      <trkpt lat="45.818" lon="-0.74793">
        <ele>39</ele>
        <time>2010-09-26T07:48:10Z</time>
      </trkpt>
      <trkpt lat="45.81805" lon="-0.7479">
        <ele>39</ele>
        <time>2010-09-26T07:48:13Z</time>
      </trkpt>
      <trkpt lat="45.8181" lon="-0.74785">
        <ele>39</ele>
        <time>2010-09-26T07:48:17Z</time>
      </trkpt>
      <trkpt lat="45.81815" lon="-0.74781">
        <ele>39</ele>
        <time>2010-09-26T07:48:21Z</time>
      </trkpt>
      <trkpt lat="45.81819" lon="-0.74778">
        <ele>39</ele>
        <time>2010-09-26T07:48:24Z</time>
      </trkpt>
      <trkpt lat="45.81823" lon="-0.74774">
        <ele>39</ele>
        <time>2010-09-26T07:48:27Z</time>
      </trkpt>
      <trkpt lat="45.81829" lon="-0.7477">
        <ele>39</ele>
        <time>2010-09-26T07:48:31Z</time>
      </trkpt>
      <trkpt lat="45.81833" lon="-0.74767">
        <ele>39</ele>
        <time>2010-09-26T07:48:34Z</time>
      </trkpt>
      <trkpt lat="45.81838" lon="-0.74763">
        <ele>38</ele>
        <time>2010-09-26T07:48:38Z</time>
      </trkpt>
      <trkpt lat="45.81844" lon="-0.74759">
        <ele>38</ele>
        <time>2010-09-26T07:48:42Z</time>
      </trkpt>
      <trkpt lat="45.81851" lon="-0.74753">
        <ele>38</ele>
        <time>2010-09-26T07:48:48Z</time>
      </trkpt>
      <trkpt lat="45.81856" lon="-0.7475">
        <ele>38</ele>
        <time>2010-09-26T07:48:52Z</time>
      </trkpt>
      <trkpt lat="45.8186" lon="-0.74748">
        <ele>38</ele>
        <time>2010-09-26T07:48:55Z</time>
      </trkpt>
      <trkpt lat="45.81864" lon="-0.74744">
        <ele>38</ele>
        <time>2010-09-26T07:48:58Z</time>
      </trkpt>
      <trkpt lat="45.81868" lon="-0.7474">
        <ele>38</ele>
        <time>2010-09-26T07:49:01Z</time>
      </trkpt>
      <trkpt lat="45.81873" lon="-0.74736">
        <ele>38</ele>
        <time>2010-09-26T07:49:05Z</time>
      </trkpt>
      <trkpt lat="45.81877" lon="-0.74732">
        <ele>38</ele>
        <time>2010-09-26T07:49:08Z</time>
      </trkpt>
      <trkpt lat="45.81881" lon="-0.74728">
        <ele>38</ele>
        <time>2010-09-26T07:49:12Z</time>
      </trkpt>
      <trkpt lat="45.81886" lon="-0.74725">
        <ele>37</ele>
        <time>2010-09-26T07:49:16Z</time>
      </trkpt>
      <trkpt lat="45.81891" lon="-0.74722">
        <ele>37</ele>
        <time>2010-09-26T07:49:19Z</time>
      </trkpt>
      <trkpt lat="45.81896" lon="-0.74718">
        <ele>37</ele>
        <time>2010-09-26T07:49:23Z</time>
      </trkpt>
      <trkpt lat="45.819" lon="-0.74714">
        <ele>37</ele>
        <time>2010-09-26T07:49:26Z</time>
      </trkpt>
      <trkpt lat="45.81904" lon="-0.7471">
        <ele>37</ele>
        <time>2010-09-26T07:49:30Z</time>
      </trkpt>
      <trkpt lat="45.81909" lon="-0.74707">
        <ele>37</ele>
        <time>2010-09-26T07:49:33Z</time>
      </trkpt>
      <trkpt lat="45.81914" lon="-0.74703">
        <ele>37</ele>
        <time>2010-09-26T07:49:37Z</time>
      </trkpt>
      <trkpt lat="45.81918" lon="-0.74699">
        <ele>36</ele>
        <time>2010-09-26T07:49:40Z</time>
      </trkpt>
      <trkpt lat="45.81923" lon="-0.74695">
        <ele>36</ele>
        <time>2010-09-26T07:49:44Z</time>
      </trkpt>
      <trkpt lat="45.81928" lon="-0.7469">
        <ele>36</ele>
        <time>2010-09-26T07:49:48Z</time>
      </trkpt>
      <trkpt lat="45.81933" lon="-0.74687">
        <ele>36</ele>
        <time>2010-09-26T07:49:52Z</time>
      </trkpt>
      <trkpt lat="45.81937" lon="-0.74685">
        <ele>36</ele>
        <time>2010-09-26T07:49:55Z</time>
      </trkpt>
      <trkpt lat="45.81941" lon="-0.74681">
        <ele>36</ele>
        <time>2010-09-26T07:49:58Z</time>
      </trkpt>
      <trkpt lat="45.81945" lon="-0.74678">
        <ele>36</ele>
        <time>2010-09-26T07:50:01Z</time>
      </trkpt>
      <trkpt lat="45.81949" lon="-0.74674">
        <ele>36</ele>
        <time>2010-09-26T07:50:04Z</time>
      </trkpt>
      <trkpt lat="45.81953" lon="-0.74671">
        <ele>36</ele>
        <time>2010-09-26T07:50:07Z</time>
      </trkpt>
      <trkpt lat="45.81959" lon="-0.74666">
        <ele>36</ele>
        <time>2010-09-26T07:50:11Z</time>
      </trkpt>
      <trkpt lat="45.81963" lon="-0.74662">
        <ele>36</ele>
        <time>2010-09-26T07:50:14Z</time>
      </trkpt>
      <trkpt lat="45.81968" lon="-0.74658">
        <ele>36</ele>
        <time>2010-09-26T07:50:18Z</time>
      </trkpt>
      <trkpt lat="45.81973" lon="-0.74653">
        <ele>36</ele>
        <time>2010-09-26T07:50:22Z</time>
      </trkpt>
      <trkpt lat="45.81978" lon="-0.74649">
        <ele>36</ele>
        <time>2010-09-26T07:50:26Z</time>
      </trkpt>
      <trkpt lat="45.81983" lon="-0.74645">
        <ele>36</ele>
        <time>2010-09-26T07:50:29Z</time>
      </trkpt>
      <trkpt lat="45.81987" lon="-0.74642">
        <ele>36</ele>
        <time>2010-09-26T07:50:32Z</time>
      </trkpt>
      <trkpt lat="45.81991" lon="-0.74637">
        <ele>36</ele>
        <time>2010-09-26T07:50:36Z</time>
      </trkpt>
      <trkpt lat="45.81995" lon="-0.74634">
        <ele>36</ele>
        <time>2010-09-26T07:50:39Z</time>
      </trkpt>
      <trkpt lat="45.82" lon="-0.74631">
        <ele>36</ele>
        <time>2010-09-26T07:50:42Z</time>
      </trkpt>
      <trkpt lat="45.82007" lon="-0.74623">
        <ele>35</ele>
        <time>2010-09-26T07:50:48Z</time>
      </trkpt>
      <trkpt lat="45.82012" lon="-0.74621">
        <ele>35</ele>
        <time>2010-09-26T07:50:51Z</time>
      </trkpt>
      <trkpt lat="45.82018" lon="-0.74617">
        <ele>35</ele>
        <time>2010-09-26T07:50:55Z</time>
      </trkpt>
      <trkpt lat="45.82022" lon="-0.74613">
        <ele>35</ele>
        <time>2010-09-26T07:50:59Z</time>
      </trkpt>
      <trkpt lat="45.82027" lon="-0.74609">
        <ele>35</ele>
        <time>2010-09-26T07:51:03Z</time>
      </trkpt>
      <trkpt lat="45.82032" lon="-0.74605">
        <ele>35</ele>
        <time>2010-09-26T07:51:07Z</time>
      </trkpt>
      <trkpt lat="45.82036" lon="-0.74601">
        <ele>35</ele>
        <time>2010-09-26T07:51:10Z</time>
      </trkpt>
      <trkpt lat="45.82041" lon="-0.74597">
        <ele>35</ele>
        <time>2010-09-26T07:51:14Z</time>
      </trkpt>
      <trkpt lat="45.82046" lon="-0.74593">
        <ele>35</ele>
        <time>2010-09-26T07:51:18Z</time>
      </trkpt>
      <trkpt lat="45.82051" lon="-0.74588">
        <ele>35</ele>
        <time>2010-09-26T07:51:22Z</time>
      </trkpt>
      <trkpt lat="45.82055" lon="-0.74585">
        <ele>34</ele>
        <time>2010-09-26T07:51:25Z</time>
      </trkpt>
      <trkpt lat="45.8206" lon="-0.74582">
        <ele>35</ele>
        <time>2010-09-26T07:51:28Z</time>
      </trkpt>
      <trkpt lat="45.82064" lon="-0.74577">
        <ele>35</ele>
        <time>2010-09-26T07:51:32Z</time>
      </trkpt>
      <trkpt lat="45.82069" lon="-0.74575">
        <ele>35</ele>
        <time>2010-09-26T07:51:35Z</time>
      </trkpt>
      <trkpt lat="45.82074" lon="-0.74571">
        <ele>35</ele>
        <time>2010-09-26T07:51:39Z</time>
      </trkpt>
      <trkpt lat="45.82078" lon="-0.74568">
        <ele>35</ele>
        <time>2010-09-26T07:51:42Z</time>
      </trkpt>
      <trkpt lat="45.82083" lon="-0.74566">
        <ele>35</ele>
        <time>2010-09-26T07:51:45Z</time>
      </trkpt>
      <trkpt lat="45.82088" lon="-0.74568">
        <ele>34</ele>
        <time>2010-09-26T07:51:48Z</time>
      </trkpt>
      <trkpt lat="45.82091" lon="-0.74575">
        <ele>34</ele>
        <time>2010-09-26T07:51:52Z</time>
      </trkpt>
      <trkpt lat="45.8209" lon="-0.74582">
        <ele>34</ele>
        <time>2010-09-26T07:51:55Z</time>
      </trkpt>
      <trkpt lat="45.82089" lon="-0.74588">
        <ele>34</ele>
        <time>2010-09-26T07:51:59Z</time>
      </trkpt>
      <trkpt lat="45.82088" lon="-0.74595">
        <ele>33</ele>
        <time>2010-09-26T07:52:02Z</time>
      </trkpt>
      <trkpt lat="45.82088" lon="-0.74601">
        <ele>33</ele>
        <time>2010-09-26T07:52:05Z</time>
      </trkpt>
      <trkpt lat="45.82091" lon="-0.74607">
        <ele>33</ele>
        <time>2010-09-26T07:52:09Z</time>
      </trkpt>
      <trkpt lat="45.82096" lon="-0.74607">
        <ele>33</ele>
        <time>2010-09-26T07:52:13Z</time>
      </trkpt>
      <trkpt lat="45.82101" lon="-0.74605">
        <ele>33</ele>
        <time>2010-09-26T07:52:17Z</time>
      </trkpt>
      <trkpt lat="45.82105" lon="-0.74601">
        <ele>33</ele>
        <time>2010-09-26T07:52:21Z</time>
      </trkpt>
      <trkpt lat="45.8211" lon="-0.74598">
        <ele>33</ele>
        <time>2010-09-26T07:52:25Z</time>
      </trkpt>
      <trkpt lat="45.82115" lon="-0.74593">
        <ele>33</ele>
        <time>2010-09-26T07:52:29Z</time>
      </trkpt>
      <trkpt lat="45.8212" lon="-0.7459">
        <ele>33</ele>
        <time>2010-09-26T07:52:33Z</time>
      </trkpt>
      <trkpt lat="45.82124" lon="-0.74585">
        <ele>33</ele>
        <time>2010-09-26T07:52:37Z</time>
      </trkpt>
      <trkpt lat="45.82129" lon="-0.74581">
        <ele>33</ele>
        <time>2010-09-26T07:52:41Z</time>
      </trkpt>
      <trkpt lat="45.82133" lon="-0.74577">
        <ele>33</ele>
        <time>2010-09-26T07:52:45Z</time>
      </trkpt>
      <trkpt lat="45.82137" lon="-0.74573">
        <ele>33</ele>
        <time>2010-09-26T07:52:48Z</time>
      </trkpt>
      <trkpt lat="45.82142" lon="-0.74569">
        <ele>33</ele>
        <time>2010-09-26T07:52:52Z</time>
      </trkpt>
      <trkpt lat="45.82146" lon="-0.74565">
        <ele>33</ele>
        <time>2010-09-26T07:52:56Z</time>
      </trkpt>
      <trkpt lat="45.82151" lon="-0.7456">
        <ele>33</ele>
        <time>2010-09-26T07:53:00Z</time>
      </trkpt>
      <trkpt lat="45.82156" lon="-0.74555">
        <ele>33</ele>
        <time>2010-09-26T07:53:04Z</time>
      </trkpt>
      <trkpt lat="45.8216" lon="-0.7455">
        <ele>33</ele>
        <time>2010-09-26T07:53:08Z</time>
      </trkpt>
      <trkpt lat="45.82164" lon="-0.74547">
        <ele>33</ele>
        <time>2010-09-26T07:53:12Z</time>
      </trkpt>
      <trkpt lat="45.82168" lon="-0.74543">
        <ele>32</ele>
        <time>2010-09-26T07:53:15Z</time>
      </trkpt>
      <trkpt lat="45.82172" lon="-0.74539">
        <ele>32</ele>
        <time>2010-09-26T07:53:18Z</time>
      </trkpt>
      <trkpt lat="45.82176" lon="-0.74534">
        <ele>32</ele>
        <time>2010-09-26T07:53:22Z</time>
      </trkpt>
      <trkpt lat="45.8218" lon="-0.7453">
        <ele>32</ele>
        <time>2010-09-26T07:53:25Z</time>
      </trkpt>
      <trkpt lat="45.82184" lon="-0.74526">
        <ele>32</ele>
        <time>2010-09-26T07:53:29Z</time>
      </trkpt>
      <trkpt lat="45.82189" lon="-0.74522">
        <ele>32</ele>
        <time>2010-09-26T07:53:33Z</time>
      </trkpt>
      <trkpt lat="45.82194" lon="-0.74519">
        <ele>32</ele>
        <time>2010-09-26T07:53:37Z</time>
      </trkpt>
      <trkpt lat="45.82199" lon="-0.74518">
        <ele>32</ele>
        <time>2010-09-26T07:53:40Z</time>
      </trkpt>
      <trkpt lat="45.82203" lon="-0.7452">
        <ele>32</ele>
        <time>2010-09-26T07:53:43Z</time>
      </trkpt>
      <trkpt lat="45.8221" lon="-0.74524">
        <ele>32</ele>
        <time>2010-09-26T07:53:48Z</time>
      </trkpt>
      <trkpt lat="45.82214" lon="-0.74526">
        <ele>32</ele>
        <time>2010-09-26T07:53:52Z</time>
      </trkpt>
      <trkpt lat="45.82219" lon="-0.7453">
        <ele>31</ele>
        <time>2010-09-26T07:53:56Z</time>
      </trkpt>
      <trkpt lat="45.82225" lon="-0.74531">
        <ele>31</ele>
        <time>2010-09-26T07:54:00Z</time>
      </trkpt>
      <trkpt lat="45.8223" lon="-0.74534">
        <ele>31</ele>
        <time>2010-09-26T07:54:04Z</time>
      </trkpt>
      <trkpt lat="45.82234" lon="-0.74539">
        <ele>31</ele>
        <time>2010-09-26T07:54:08Z</time>
      </trkpt>
      <trkpt lat="45.8224" lon="-0.74544">
        <ele>31</ele>
        <time>2010-09-26T07:54:12Z</time>
      </trkpt>
      <trkpt lat="45.82244" lon="-0.74548">
        <ele>31</ele>
        <time>2010-09-26T07:54:15Z</time>
      </trkpt>
      <trkpt lat="45.82249" lon="-0.74553">
        <ele>31</ele>
        <time>2010-09-26T07:54:19Z</time>
      </trkpt>
      <trkpt lat="45.82253" lon="-0.74558">
        <ele>30</ele>
        <time>2010-09-26T07:54:23Z</time>
      </trkpt>
      <trkpt lat="45.82256" lon="-0.74563">
        <ele>30</ele>
        <time>2010-09-26T07:54:26Z</time>
      </trkpt>
      <trkpt lat="45.82261" lon="-0.74567">
        <ele>30</ele>
        <time>2010-09-26T07:54:29Z</time>
      </trkpt>
      <trkpt lat="45.82265" lon="-0.74571">
        <ele>30</ele>
        <time>2010-09-26T07:54:33Z</time>
      </trkpt>
      <trkpt lat="45.8227" lon="-0.74573">
        <ele>30</ele>
        <time>2010-09-26T07:54:36Z</time>
      </trkpt>
      <trkpt lat="45.82274" lon="-0.74576">
        <ele>30</ele>
        <time>2010-09-26T07:54:39Z</time>
      </trkpt>
      <trkpt lat="45.8228" lon="-0.74576">
        <ele>30</ele>
        <time>2010-09-26T07:54:43Z</time>
      </trkpt>
      <trkpt lat="45.82287" lon="-0.74578">
        <ele>30</ele>
        <time>2010-09-26T07:54:48Z</time>
      </trkpt>
      <trkpt lat="45.82292" lon="-0.7458">
        <ele>30</ele>
        <time>2010-09-26T07:54:52Z</time>
      </trkpt>
      <trkpt lat="45.82297" lon="-0.74582">
        <ele>30</ele>
        <time>2010-09-26T07:54:55Z</time>
      </trkpt>
      <trkpt lat="45.82302" lon="-0.74584">
        <ele>30</ele>
        <time>2010-09-26T07:54:58Z</time>
      </trkpt>
      <trkpt lat="45.82306" lon="-0.74586">
        <ele>30</ele>
        <time>2010-09-26T07:55:01Z</time>
      </trkpt>
      <trkpt lat="45.82311" lon="-0.74589">
        <ele>30</ele>
        <time>2010-09-26T07:55:04Z</time>
      </trkpt>
      <trkpt lat="45.82315" lon="-0.74592">
        <ele>30</ele>
        <time>2010-09-26T07:55:07Z</time>
      </trkpt>
      <trkpt lat="45.8232" lon="-0.74593">
        <ele>30</ele>
        <time>2010-09-26T07:55:10Z</time>
      </trkpt>
      <trkpt lat="45.82325" lon="-0.74593">
        <ele>30</ele>
        <time>2010-09-26T07:55:13Z</time>
      </trkpt>
      <trkpt lat="45.8233" lon="-0.74594">
        <ele>30</ele>
        <time>2010-09-26T07:55:16Z</time>
      </trkpt>
      <trkpt lat="45.82334" lon="-0.74596">
        <ele>30</ele>
        <time>2010-09-26T07:55:19Z</time>
      </trkpt>
      <trkpt lat="45.8234" lon="-0.74597">
        <ele>30</ele>
        <time>2010-09-26T07:55:23Z</time>
      </trkpt>
      <trkpt lat="45.82346" lon="-0.74599">
        <ele>30</ele>
        <time>2010-09-26T07:55:27Z</time>
      </trkpt>
      <trkpt lat="45.82352" lon="-0.74601">
        <ele>30</ele>
        <time>2010-09-26T07:55:31Z</time>
      </trkpt>
      <trkpt lat="45.82358" lon="-0.74602">
        <ele>30</ele>
        <time>2010-09-26T07:55:35Z</time>
      </trkpt>
      <trkpt lat="45.82363" lon="-0.74603">
        <ele>30</ele>
        <time>2010-09-26T07:55:39Z</time>
      </trkpt>
      <trkpt lat="45.82367" lon="-0.74603">
        <ele>30</ele>
        <time>2010-09-26T07:55:43Z</time>
      </trkpt>
      <trkpt lat="45.82375" lon="-0.74601">
        <ele>30</ele>
        <time>2010-09-26T07:55:48Z</time>
      </trkpt>
      <trkpt lat="45.8238" lon="-0.74601">
        <ele>30</ele>
        <time>2010-09-26T07:55:51Z</time>
      </trkpt>
      <trkpt lat="45.82385" lon="-0.74605">
        <ele>30</ele>
        <time>2010-09-26T07:55:55Z</time>
      </trkpt>
      <trkpt lat="45.82388" lon="-0.7461">
        <ele>30</ele>
        <time>2010-09-26T07:55:59Z</time>
      </trkpt>
      <trkpt lat="45.82392" lon="-0.74615">
        <ele>30</ele>
        <time>2010-09-26T07:56:02Z</time>
      </trkpt>
      <trkpt lat="45.82396" lon="-0.74619">
        <ele>30</ele>
        <time>2010-09-26T07:56:05Z</time>
      </trkpt>
      <trkpt lat="45.824" lon="-0.74623">
        <ele>30</ele>
        <time>2010-09-26T07:56:08Z</time>
      </trkpt>
      <trkpt lat="45.82404" lon="-0.74628">
        <ele>30</ele>
        <time>2010-09-26T07:56:12Z</time>
      </trkpt>
      <trkpt lat="45.82408" lon="-0.74631">
        <ele>30</ele>
        <time>2010-09-26T07:56:15Z</time>
      </trkpt>
      <trkpt lat="45.82414" lon="-0.74635">
        <ele>30</ele>
        <time>2010-09-26T07:56:19Z</time>
      </trkpt>
      <trkpt lat="45.82418" lon="-0.74637">
        <ele>31</ele>
        <time>2010-09-26T07:56:22Z</time>
      </trkpt>
      <trkpt lat="45.82423" lon="-0.74639">
        <ele>31</ele>
        <time>2010-09-26T07:56:26Z</time>
      </trkpt>
      <trkpt lat="45.82428" lon="-0.74639">
        <ele>31</ele>
        <time>2010-09-26T07:56:30Z</time>
      </trkpt>
      <trkpt lat="45.82432" lon="-0.74637">
        <ele>31</ele>
        <time>2010-09-26T07:56:34Z</time>
      </trkpt>
      <trkpt lat="45.82437" lon="-0.74635">
        <ele>31</ele>
        <time>2010-09-26T07:56:38Z</time>
      </trkpt>
      <trkpt lat="45.82442" lon="-0.74632">
        <ele>31</ele>
        <time>2010-09-26T07:56:42Z</time>
      </trkpt>
      <trkpt lat="45.82448" lon="-0.74628">
        <ele>31</ele>
        <time>2010-09-26T07:56:48Z</time>
      </trkpt>
      <trkpt lat="45.82454" lon="-0.74628">
        <ele>31</ele>
        <time>2010-09-26T07:56:52Z</time>
      </trkpt>
      <trkpt lat="45.8246" lon="-0.74627">
        <ele>31</ele>
        <time>2010-09-26T07:56:55Z</time>
      </trkpt>
      <trkpt lat="45.82466" lon="-0.74622">
        <ele>31</ele>
        <time>2010-09-26T07:56:59Z</time>
      </trkpt>
      <trkpt lat="45.82469" lon="-0.74618">
        <ele>31</ele>
        <time>2010-09-26T07:57:02Z</time>
      </trkpt>
      <trkpt lat="45.82474" lon="-0.74614">
        <ele>32</ele>
        <time>2010-09-26T07:57:05Z</time>
      </trkpt>
      <trkpt lat="45.82477" lon="-0.7461">
        <ele>32</ele>
        <time>2010-09-26T07:57:08Z</time>
      </trkpt>
      <trkpt lat="45.82481" lon="-0.74606">
        <ele>32</ele>
        <time>2010-09-26T07:57:11Z</time>
      </trkpt>
      <trkpt lat="45.82485" lon="-0.74601">
        <ele>32</ele>
        <time>2010-09-26T07:57:14Z</time>
      </trkpt>
      <trkpt lat="45.8249" lon="-0.74597">
        <ele>32</ele>
        <time>2010-09-26T07:57:17Z</time>
      </trkpt>
      <trkpt lat="45.82494" lon="-0.74593">
        <ele>32</ele>
        <time>2010-09-26T07:57:20Z</time>
      </trkpt>
      <trkpt lat="45.82499" lon="-0.7459">
        <ele>33</ele>
        <time>2010-09-26T07:57:24Z</time>
      </trkpt>
      <trkpt lat="45.82504" lon="-0.74587">
        <ele>33</ele>
        <time>2010-09-26T07:57:28Z</time>
      </trkpt>
      <trkpt lat="45.8251" lon="-0.74584">
        <ele>33</ele>
        <time>2010-09-26T07:57:32Z</time>
      </trkpt>
      <trkpt lat="45.82514" lon="-0.74579">
        <ele>33</ele>
        <time>2010-09-26T07:57:36Z</time>
      </trkpt>
      <trkpt lat="45.82518" lon="-0.74577">
        <ele>33</ele>
        <time>2010-09-26T07:57:39Z</time>
      </trkpt>
      <trkpt lat="45.82524" lon="-0.74573">
        <ele>33</ele>
        <time>2010-09-26T07:57:43Z</time>
      </trkpt>
      <trkpt lat="45.82529" lon="-0.7457">
        <ele>33</ele>
        <time>2010-09-26T07:57:47Z</time>
      </trkpt>
      <trkpt lat="45.82534" lon="-0.74566">
        <ele>33</ele>
        <time>2010-09-26T07:57:50Z</time>
      </trkpt>
      <trkpt lat="45.82539" lon="-0.74563">
        <ele>33</ele>
        <time>2010-09-26T07:57:54Z</time>
      </trkpt>
      <trkpt lat="45.82543" lon="-0.7456">
        <ele>33</ele>
        <time>2010-09-26T07:57:57Z</time>
      </trkpt>
      <trkpt lat="45.82548" lon="-0.74558">
        <ele>33</ele>
        <time>2010-09-26T07:58:00Z</time>
      </trkpt>
      <trkpt lat="45.82552" lon="-0.74558">
        <ele>33</ele>
        <time>2010-09-26T07:58:03Z</time>
      </trkpt>
      <trkpt lat="45.82559" lon="-0.74556">
        <ele>33</ele>
        <time>2010-09-26T07:58:07Z</time>
      </trkpt>
      <trkpt lat="45.82565" lon="-0.74555">
        <ele>33</ele>
        <time>2010-09-26T07:58:11Z</time>
      </trkpt>
      <trkpt lat="45.82571" lon="-0.74554">
        <ele>33</ele>
        <time>2010-09-26T07:58:14Z</time>
      </trkpt>
      <trkpt lat="45.82576" lon="-0.74554">
        <ele>33</ele>
        <time>2010-09-26T07:58:17Z</time>
      </trkpt>
      <trkpt lat="45.82581" lon="-0.74553">
        <ele>33</ele>
        <time>2010-09-26T07:58:20Z</time>
      </trkpt>
      <trkpt lat="45.82587" lon="-0.74553">
        <ele>32</ele>
        <time>2010-09-26T07:58:24Z</time>
      </trkpt>
      <trkpt lat="45.82592" lon="-0.74552">
        <ele>32</ele>
        <time>2010-09-26T07:58:28Z</time>
      </trkpt>
      <trkpt lat="45.82598" lon="-0.74551">
        <ele>32</ele>
        <time>2010-09-26T07:58:32Z</time>
      </trkpt>
      <trkpt lat="45.82603" lon="-0.74553">
        <ele>32</ele>
        <time>2010-09-26T07:58:36Z</time>
      </trkpt>
      <trkpt lat="45.82608" lon="-0.74554">
        <ele>32</ele>
        <time>2010-09-26T07:58:39Z</time>
      </trkpt>
      <trkpt lat="45.82614" lon="-0.74554">
        <ele>31</ele>
        <time>2010-09-26T07:58:42Z</time>
      </trkpt>
      <trkpt lat="45.82618" lon="-0.74556">
        <ele>31</ele>
        <time>2010-09-26T07:58:45Z</time>
      </trkpt>
      <trkpt lat="45.82624" lon="-0.74556">
        <ele>31</ele>
        <time>2010-09-26T07:58:49Z</time>
      </trkpt>
      <trkpt lat="45.82629" lon="-0.74555">
        <ele>31</ele>
        <time>2010-09-26T07:58:53Z</time>
      </trkpt>
      <trkpt lat="45.82635" lon="-0.74555">
        <ele>31</ele>
        <time>2010-09-26T07:58:57Z</time>
      </trkpt>
      <trkpt lat="45.82641" lon="-0.74554">
        <ele>31</ele>
        <time>2010-09-26T07:59:02Z</time>
      </trkpt>
      <trkpt lat="45.82646" lon="-0.74553">
        <ele>31</ele>
        <time>2010-09-26T07:59:06Z</time>
      </trkpt>
      <trkpt lat="45.82652" lon="-0.74551">
        <ele>31</ele>
        <time>2010-09-26T07:59:10Z</time>
      </trkpt>
      <trkpt lat="45.82657" lon="-0.74549">
        <ele>31</ele>
        <time>2010-09-26T07:59:15Z</time>
      </trkpt>
      <trkpt lat="45.82662" lon="-0.74547">
        <ele>31</ele>
        <time>2010-09-26T07:59:19Z</time>
      </trkpt>
      <trkpt lat="45.82666" lon="-0.74544">
        <ele>31</ele>
        <time>2010-09-26T07:59:22Z</time>
      </trkpt>
      <trkpt lat="45.82671" lon="-0.74542">
        <ele>30</ele>
        <time>2010-09-26T07:59:26Z</time>
      </trkpt>
      <trkpt lat="45.82677" lon="-0.74541">
        <ele>30</ele>
        <time>2010-09-26T07:59:29Z</time>
      </trkpt>
      <trkpt lat="45.82683" lon="-0.74539">
        <ele>30</ele>
        <time>2010-09-26T07:59:32Z</time>
      </trkpt>
      <trkpt lat="45.82688" lon="-0.74538">
        <ele>30</ele>
        <time>2010-09-26T07:59:35Z</time>
      </trkpt>
      <trkpt lat="45.82693" lon="-0.74536">
        <ele>30</ele>
        <time>2010-09-26T07:59:38Z</time>
      </trkpt>
      <trkpt lat="45.82699" lon="-0.74536">
        <ele>30</ele>
        <time>2010-09-26T07:59:41Z</time>
      </trkpt>
      <trkpt lat="45.82705" lon="-0.74537">
        <ele>30</ele>
        <time>2010-09-26T07:59:44Z</time>
      </trkpt>
      <trkpt lat="45.8271" lon="-0.74537">
        <ele>29</ele>
        <time>2010-09-26T07:59:48Z</time>
      </trkpt>
      <trkpt lat="45.82714" lon="-0.74539">
        <ele>29</ele>
        <time>2010-09-26T07:59:51Z</time>
      </trkpt>
      <trkpt lat="45.8272" lon="-0.7454">
        <ele>29</ele>
        <time>2010-09-26T07:59:54Z</time>
      </trkpt>
      <trkpt lat="45.82726" lon="-0.74538">
        <ele>29</ele>
        <time>2010-09-26T07:59:58Z</time>
      </trkpt>
      <trkpt lat="45.82731" lon="-0.74536">
        <ele>29</ele>
        <time>2010-09-26T08:00:02Z</time>
      </trkpt>
      <trkpt lat="45.82736" lon="-0.74535">
        <ele>29</ele>
        <time>2010-09-26T08:00:05Z</time>
      </trkpt>
      <trkpt lat="45.82741" lon="-0.74533">
        <ele>29</ele>
        <time>2010-09-26T08:00:09Z</time>
      </trkpt>
      <trkpt lat="45.82746" lon="-0.74531">
        <ele>29</ele>
        <time>2010-09-26T08:00:13Z</time>
      </trkpt>
      <trkpt lat="45.82752" lon="-0.7453">
        <ele>28</ele>
        <time>2010-09-26T08:00:17Z</time>
      </trkpt>
      <trkpt lat="45.82758" lon="-0.74528">
        <ele>28</ele>
        <time>2010-09-26T08:00:21Z</time>
      </trkpt>
      <trkpt lat="45.82762" lon="-0.74526">
        <ele>28</ele>
        <time>2010-09-26T08:00:24Z</time>
      </trkpt>
      <trkpt lat="45.82767" lon="-0.74525">
        <ele>28</ele>
        <time>2010-09-26T08:00:27Z</time>
      </trkpt>
      <trkpt lat="45.82772" lon="-0.74522">
        <ele>28</ele>
        <time>2010-09-26T08:00:31Z</time>
      </trkpt>
      <trkpt lat="45.82778" lon="-0.7452">
        <ele>28</ele>
        <time>2010-09-26T08:00:35Z</time>
      </trkpt>
      <trkpt lat="45.82784" lon="-0.74518">
        <ele>28</ele>
        <time>2010-09-26T08:00:40Z</time>
      </trkpt>
      <trkpt lat="45.82789" lon="-0.74516">
        <ele>28</ele>
        <time>2010-09-26T08:00:43Z</time>
      </trkpt>
      <trkpt lat="45.82797" lon="-0.74508">
        <ele>28</ele>
        <time>2010-09-26T08:00:48Z</time>
      </trkpt>
      <trkpt lat="45.82807" lon="-0.74504">
        <ele>27</ele>
        <time>2010-09-26T08:00:55Z</time>
      </trkpt>
      <trkpt lat="45.82811" lon="-0.74497">
        <ele>27</ele>
        <time>2010-09-26T08:00:58Z</time>
      </trkpt>
      <trkpt lat="45.82815" lon="-0.74492">
        <ele>27</ele>
        <time>2010-09-26T08:01:01Z</time>
      </trkpt>
      <trkpt lat="45.82819" lon="-0.74487">
        <ele>27</ele>
        <time>2010-09-26T08:01:04Z</time>
      </trkpt>
      <trkpt lat="45.82824" lon="-0.74482">
        <ele>27</ele>
        <time>2010-09-26T08:01:08Z</time>
      </trkpt>
      <trkpt lat="45.82828" lon="-0.74477">
        <ele>27</ele>
        <time>2010-09-26T08:01:11Z</time>
      </trkpt>
      <trkpt lat="45.82832" lon="-0.74472">
        <ele>27</ele>
        <time>2010-09-26T08:01:15Z</time>
      </trkpt>
      <trkpt lat="45.82836" lon="-0.74467">
        <ele>25</ele>
        <time>2010-09-26T08:01:19Z</time>
      </trkpt>
      <trkpt lat="45.8284" lon="-0.74462">
        <ele>25</ele>
        <time>2010-09-26T08:01:22Z</time>
      </trkpt>
      <trkpt lat="45.82844" lon="-0.74458">
        <ele>25</ele>
        <time>2010-09-26T08:01:25Z</time>
      </trkpt>
      <trkpt lat="45.82848" lon="-0.74452">
        <ele>25</ele>
        <time>2010-09-26T08:01:29Z</time>
      </trkpt>
      <trkpt lat="45.82852" lon="-0.74448">
        <ele>25</ele>
        <time>2010-09-26T08:01:32Z</time>
      </trkpt>
      <trkpt lat="45.82856" lon="-0.74445">
        <ele>25</ele>
        <time>2010-09-26T08:01:35Z</time>
      </trkpt>
      <trkpt lat="45.8286" lon="-0.74441">
        <ele>25</ele>
        <time>2010-09-26T08:01:38Z</time>
      </trkpt>
      <trkpt lat="45.82864" lon="-0.74437">
        <ele>25</ele>
        <time>2010-09-26T08:01:41Z</time>
      </trkpt>
      <trkpt lat="45.82867" lon="-0.74431">
        <ele>25</ele>
        <time>2010-09-26T08:01:45Z</time>
      </trkpt>
      <trkpt lat="45.82871" lon="-0.74426">
        <ele>25</ele>
        <time>2010-09-26T08:01:48Z</time>
      </trkpt>
      <trkpt lat="45.82874" lon="-0.74421">
        <ele>25</ele>
        <time>2010-09-26T08:01:51Z</time>
      </trkpt>
      <trkpt lat="45.82879" lon="-0.74415">
        <ele>24</ele>
        <time>2010-09-26T08:01:55Z</time>
      </trkpt>
      <trkpt lat="45.82881" lon="-0.74408">
        <ele>24</ele>
        <time>2010-09-26T08:01:58Z</time>
      </trkpt>
      <trkpt lat="45.82884" lon="-0.74401">
        <ele>24</ele>
        <time>2010-09-26T08:02:02Z</time>
      </trkpt>
      <trkpt lat="45.82887" lon="-0.74394">
        <ele>24</ele>
        <time>2010-09-26T08:02:06Z</time>
      </trkpt>
      <trkpt lat="45.8289" lon="-0.74387">
        <ele>24</ele>
        <time>2010-09-26T08:02:10Z</time>
      </trkpt>
      <trkpt lat="45.82894" lon="-0.74384">
        <ele>24</ele>
        <time>2010-09-26T08:02:14Z</time>
      </trkpt>
      <trkpt lat="45.82896" lon="-0.74378">
        <ele>24</ele>
        <time>2010-09-26T08:02:18Z</time>
      </trkpt>
      <trkpt lat="45.82898" lon="-0.7437">
        <ele>24</ele>
        <time>2010-09-26T08:02:22Z</time>
      </trkpt>
      <trkpt lat="45.829" lon="-0.74364">
        <ele>24</ele>
        <time>2010-09-26T08:02:25Z</time>
      </trkpt>
      <trkpt lat="45.82902" lon="-0.74357">
        <ele>24</ele>
        <time>2010-09-26T08:02:28Z</time>
      </trkpt>
      <trkpt lat="45.82903" lon="-0.74351">
        <ele>24</ele>
        <time>2010-09-26T08:02:32Z</time>
      </trkpt>
      <trkpt lat="45.82905" lon="-0.74343">
        <ele>24</ele>
        <time>2010-09-26T08:02:37Z</time>
      </trkpt>
      <trkpt lat="45.82908" lon="-0.74336">
        <ele>24</ele>
        <time>2010-09-26T08:02:41Z</time>
      </trkpt>
      <trkpt lat="45.8291" lon="-0.7433">
        <ele>24</ele>
        <time>2010-09-26T08:02:46Z</time>
      </trkpt>
      <trkpt lat="45.82911" lon="-0.74322">
        <ele>24</ele>
        <time>2010-09-26T08:02:50Z</time>
      </trkpt>
      <trkpt lat="45.82915" lon="-0.74314">
        <ele>24</ele>
        <time>2010-09-26T08:02:53Z</time>
      </trkpt>
      <trkpt lat="45.82917" lon="-0.74308">
        <ele>25</ele>
        <time>2010-09-26T08:02:55Z</time>
      </trkpt>
      <trkpt lat="45.82919" lon="-0.74302">
        <ele>26</ele>
        <time>2010-09-26T08:02:57Z</time>
      </trkpt>
      <trkpt lat="45.82923" lon="-0.74296">
        <ele>26</ele>
        <time>2010-09-26T08:03:00Z</time>
      </trkpt>
      <trkpt lat="45.82926" lon="-0.7429">
        <ele>26</ele>
        <time>2010-09-26T08:03:02Z</time>
      </trkpt>
      <trkpt lat="45.82931" lon="-0.74285">
        <ele>26</ele>
        <time>2010-09-26T08:03:06Z</time>
      </trkpt>
      <trkpt lat="45.82936" lon="-0.74281">
        <ele>26</ele>
        <time>2010-09-26T08:03:09Z</time>
      </trkpt>
      <trkpt lat="45.8294" lon="-0.74277">
        <ele>26</ele>
        <time>2010-09-26T08:03:12Z</time>
      </trkpt>
      <trkpt lat="45.82944" lon="-0.74273">
        <ele>26</ele>
        <time>2010-09-26T08:03:15Z</time>
      </trkpt>
      <trkpt lat="45.82947" lon="-0.74267">
        <ele>27</ele>
        <time>2010-09-26T08:03:18Z</time>
      </trkpt>
      <trkpt lat="45.82951" lon="-0.74261">
        <ele>27</ele>
        <time>2010-09-26T08:03:22Z</time>
      </trkpt>
      <trkpt lat="45.82955" lon="-0.74254">
        <ele>27</ele>
        <time>2010-09-26T08:03:26Z</time>
      </trkpt>
      <trkpt lat="45.82959" lon="-0.74251">
        <ele>27</ele>
        <time>2010-09-26T08:03:29Z</time>
      </trkpt>
      <trkpt lat="45.82964" lon="-0.74248">
        <ele>28</ele>
        <time>2010-09-26T08:03:33Z</time>
      </trkpt>
      <trkpt lat="45.82968" lon="-0.74244">
        <ele>28</ele>
        <time>2010-09-26T08:03:36Z</time>
      </trkpt>
      <trkpt lat="45.82971" lon="-0.7424">
        <ele>28</ele>
        <time>2010-09-26T08:03:39Z</time>
      </trkpt>
      <trkpt lat="45.82975" lon="-0.74236">
        <ele>28</ele>
        <time>2010-09-26T08:03:42Z</time>
      </trkpt>
      <trkpt lat="45.82979" lon="-0.74231">
        <ele>28</ele>
        <time>2010-09-26T08:03:46Z</time>
      </trkpt>
      <trkpt lat="45.82983" lon="-0.74227">
        <ele>28</ele>
        <time>2010-09-26T08:03:49Z</time>
      </trkpt>
      <trkpt lat="45.82988" lon="-0.74225">
        <ele>28</ele>
        <time>2010-09-26T08:03:52Z</time>
      </trkpt>
      <trkpt lat="45.82992" lon="-0.74222">
        <ele>28</ele>
        <time>2010-09-26T08:03:56Z</time>
      </trkpt>
      <trkpt lat="45.82997" lon="-0.74219">
        <ele>28</ele>
        <time>2010-09-26T08:03:59Z</time>
      </trkpt>
      <trkpt lat="45.83001" lon="-0.74217">
        <ele>29</ele>
        <time>2010-09-26T08:04:02Z</time>
      </trkpt>
      <trkpt lat="45.83006" lon="-0.74216">
        <ele>29</ele>
        <time>2010-09-26T08:04:05Z</time>
      </trkpt>
      <trkpt lat="45.83012" lon="-0.74214">
        <ele>29</ele>
        <time>2010-09-26T08:04:09Z</time>
      </trkpt>
      <trkpt lat="45.83017" lon="-0.74211">
        <ele>29</ele>
        <time>2010-09-26T08:04:13Z</time>
      </trkpt>
      <trkpt lat="45.83022" lon="-0.74208">
        <ele>29</ele>
        <time>2010-09-26T08:04:17Z</time>
      </trkpt>
      <trkpt lat="45.83027" lon="-0.74207">
        <ele>29</ele>
        <time>2010-09-26T08:04:20Z</time>
      </trkpt>
      <trkpt lat="45.83032" lon="-0.74207">
        <ele>29</ele>
        <time>2010-09-26T08:04:23Z</time>
      </trkpt>
      <trkpt lat="45.83036" lon="-0.74205">
        <ele>29</ele>
        <time>2010-09-26T08:04:26Z</time>
      </trkpt>
      <trkpt lat="45.83042" lon="-0.74205">
        <ele>29</ele>
        <time>2010-09-26T08:04:29Z</time>
      </trkpt>
      <trkpt lat="45.83047" lon="-0.74204">
        <ele>29</ele>
        <time>2010-09-26T08:04:33Z</time>
      </trkpt>
      <trkpt lat="45.83051" lon="-0.74203">
        <ele>29</ele>
        <time>2010-09-26T08:04:36Z</time>
      </trkpt>
      <trkpt lat="45.83056" lon="-0.74201">
        <ele>29</ele>
        <time>2010-09-26T08:04:39Z</time>
      </trkpt>
      <trkpt lat="45.83062" lon="-0.74198">
        <ele>29</ele>
        <time>2010-09-26T08:04:43Z</time>
      </trkpt>
      <trkpt lat="45.83066" lon="-0.74196">
        <ele>29</ele>
        <time>2010-09-26T08:04:46Z</time>
      </trkpt>
      <trkpt lat="45.83071" lon="-0.74193">
        <ele>29</ele>
        <time>2010-09-26T08:04:50Z</time>
      </trkpt>
      <trkpt lat="45.83077" lon="-0.74192">
        <ele>29</ele>
        <time>2010-09-26T08:04:54Z</time>
      </trkpt>
      <trkpt lat="45.83082" lon="-0.74191">
        <ele>29</ele>
        <time>2010-09-26T08:04:58Z</time>
      </trkpt>
      <trkpt lat="45.83087" lon="-0.74189">
        <ele>29</ele>
        <time>2010-09-26T08:05:02Z</time>
      </trkpt>
      <trkpt lat="45.83092" lon="-0.74189">
        <ele>29</ele>
        <time>2010-09-26T08:05:06Z</time>
      </trkpt>
      <trkpt lat="45.83097" lon="-0.74188">
        <ele>29</ele>
        <time>2010-09-26T08:05:10Z</time>
      </trkpt>
      <trkpt lat="45.83102" lon="-0.74184">
        <ele>29</ele>
        <time>2010-09-26T08:05:14Z</time>
      </trkpt>
      <trkpt lat="45.83107" lon="-0.74186">
        <ele>29</ele>
        <time>2010-09-26T08:05:18Z</time>
      </trkpt>
      <trkpt lat="45.83111" lon="-0.74181">
        <ele>29</ele>
        <time>2010-09-26T08:05:22Z</time>
      </trkpt>
      <trkpt lat="45.83116" lon="-0.74177">
        <ele>29</ele>
        <time>2010-09-26T08:05:26Z</time>
      </trkpt>
      <trkpt lat="45.83121" lon="-0.74175">
        <ele>29</ele>
        <time>2010-09-26T08:05:30Z</time>
      </trkpt>
      <trkpt lat="45.83124" lon="-0.74171">
        <ele>29</ele>
        <time>2010-09-26T08:05:33Z</time>
      </trkpt>
      <trkpt lat="45.83128" lon="-0.74165">
        <ele>29</ele>
        <time>2010-09-26T08:05:36Z</time>
      </trkpt>
      <trkpt lat="45.83133" lon="-0.74161">
        <ele>29</ele>
        <time>2010-09-26T08:05:39Z</time>
      </trkpt>
      <trkpt lat="45.83138" lon="-0.74158">
        <ele>29</ele>
        <time>2010-09-26T08:05:43Z</time>
      </trkpt>
      <trkpt lat="45.83142" lon="-0.74155">
        <ele>29</ele>
        <time>2010-09-26T08:05:46Z</time>
      </trkpt>
      <trkpt lat="45.83146" lon="-0.74152">
        <ele>29</ele>
        <time>2010-09-26T08:05:49Z</time>
      </trkpt>
      <trkpt lat="45.83151" lon="-0.74149">
        <ele>29</ele>
        <time>2010-09-26T08:05:52Z</time>
      </trkpt>
      <trkpt lat="45.83157" lon="-0.74147">
        <ele>29</ele>
        <time>2010-09-26T08:05:56Z</time>
      </trkpt>
      <trkpt lat="45.83162" lon="-0.74147">
        <ele>29</ele>
        <time>2010-09-26T08:06:00Z</time>
      </trkpt>
      <trkpt lat="45.83168" lon="-0.74145">
        <ele>29</ele>
        <time>2010-09-26T08:06:03Z</time>
      </trkpt>
      <trkpt lat="45.83173" lon="-0.74144">
        <ele>29</ele>
        <time>2010-09-26T08:06:07Z</time>
      </trkpt>
      <trkpt lat="45.83179" lon="-0.74139">
        <ele>29</ele>
        <time>2010-09-26T08:06:12Z</time>
      </trkpt>
      <trkpt lat="45.83183" lon="-0.74137">
        <ele>29</ele>
        <time>2010-09-26T08:06:15Z</time>
      </trkpt>
      <trkpt lat="45.83187" lon="-0.74134">
        <ele>29</ele>
        <time>2010-09-26T08:06:20Z</time>
      </trkpt>
      <trkpt lat="45.83191" lon="-0.74132">
        <ele>29</ele>
        <time>2010-09-26T08:06:24Z</time>
      </trkpt>
      <trkpt lat="45.83196" lon="-0.74128">
        <ele>29</ele>
        <time>2010-09-26T08:06:27Z</time>
      </trkpt>
      <trkpt lat="45.83201" lon="-0.74123">
        <ele>29</ele>
        <time>2010-09-26T08:06:29Z</time>
      </trkpt>
      <trkpt lat="45.83206" lon="-0.7412">
        <ele>29</ele>
        <time>2010-09-26T08:06:31Z</time>
      </trkpt>
      <trkpt lat="45.83211" lon="-0.74116">
        <ele>29</ele>
        <time>2010-09-26T08:06:34Z</time>
      </trkpt>
      <trkpt lat="45.83216" lon="-0.74113">
        <ele>29</ele>
        <time>2010-09-26T08:06:37Z</time>
      </trkpt>
      <trkpt lat="45.83221" lon="-0.7411">
        <ele>29</ele>
        <time>2010-09-26T08:06:40Z</time>
      </trkpt>
      <trkpt lat="45.83226" lon="-0.74107">
        <ele>29</ele>
        <time>2010-09-26T08:06:43Z</time>
      </trkpt>
      <trkpt lat="45.83229" lon="-0.74102">
        <ele>29</ele>
        <time>2010-09-26T08:06:46Z</time>
      </trkpt>
      <trkpt lat="45.83234" lon="-0.74099">
        <ele>28</ele>
        <time>2010-09-26T08:06:49Z</time>
      </trkpt>
      <trkpt lat="45.83238" lon="-0.74095">
        <ele>28</ele>
        <time>2010-09-26T08:06:52Z</time>
      </trkpt>
      <trkpt lat="45.83242" lon="-0.74091">
        <ele>28</ele>
        <time>2010-09-26T08:06:55Z</time>
      </trkpt>
      <trkpt lat="45.83246" lon="-0.74088">
        <ele>28</ele>
        <time>2010-09-26T08:06:58Z</time>
      </trkpt>
      <trkpt lat="45.8325" lon="-0.74084">
        <ele>28</ele>
        <time>2010-09-26T08:07:01Z</time>
      </trkpt>
      <trkpt lat="45.83254" lon="-0.74079">
        <ele>28</ele>
        <time>2010-09-26T08:07:04Z</time>
      </trkpt>
      <trkpt lat="45.83258" lon="-0.74075">
        <ele>28</ele>
        <time>2010-09-26T08:07:07Z</time>
      </trkpt>
      <trkpt lat="45.83262" lon="-0.74071">
        <ele>28</ele>
        <time>2010-09-26T08:07:10Z</time>
      </trkpt>
      <trkpt lat="45.83265" lon="-0.74066">
        <ele>28</ele>
        <time>2010-09-26T08:07:13Z</time>
      </trkpt>
      <trkpt lat="45.8327" lon="-0.74062">
        <ele>28</ele>
        <time>2010-09-26T08:07:17Z</time>
      </trkpt>
      <trkpt lat="45.83274" lon="-0.74058">
        <ele>28</ele>
        <time>2010-09-26T08:07:21Z</time>
      </trkpt>
      <trkpt lat="45.83278" lon="-0.74056">
        <ele>28</ele>
        <time>2010-09-26T08:07:24Z</time>
      </trkpt>
      <trkpt lat="45.83283" lon="-0.74052">
        <ele>28</ele>
        <time>2010-09-26T08:07:27Z</time>
      </trkpt>
      <trkpt lat="45.83287" lon="-0.74047">
        <ele>28</ele>
        <time>2010-09-26T08:07:31Z</time>
      </trkpt>
      <trkpt lat="45.83292" lon="-0.74041">
        <ele>28</ele>
        <time>2010-09-26T08:07:35Z</time>
      </trkpt>
      <trkpt lat="45.83295" lon="-0.74035">
        <ele>28</ele>
        <time>2010-09-26T08:07:39Z</time>
      </trkpt>
      <trkpt lat="45.833" lon="-0.7403">
        <ele>28</ele>
        <time>2010-09-26T08:07:43Z</time>
      </trkpt>
      <trkpt lat="45.83304" lon="-0.74027">
        <ele>28</ele>
        <time>2010-09-26T08:07:47Z</time>
      </trkpt>
      <trkpt lat="45.83308" lon="-0.74023">
        <ele>28</ele>
        <time>2010-09-26T08:07:50Z</time>
      </trkpt>
      <trkpt lat="45.83312" lon="-0.74019">
        <ele>28</ele>
        <time>2010-09-26T08:07:53Z</time>
      </trkpt>
      <trkpt lat="45.83317" lon="-0.74015">
        <ele>28</ele>
        <time>2010-09-26T08:07:57Z</time>
      </trkpt>
      <trkpt lat="45.83321" lon="-0.7401">
        <ele>28</ele>
        <time>2010-09-26T08:08:00Z</time>
      </trkpt>
      <trkpt lat="45.83326" lon="-0.74005">
        <ele>29</ele>
        <time>2010-09-26T08:08:04Z</time>
      </trkpt>
      <trkpt lat="45.8333" lon="-0.74001">
        <ele>29</ele>
        <time>2010-09-26T08:08:08Z</time>
      </trkpt>
      <trkpt lat="45.83333" lon="-0.73995">
        <ele>29</ele>
        <time>2010-09-26T08:08:12Z</time>
      </trkpt>
      <trkpt lat="45.83337" lon="-0.73989">
        <ele>29</ele>
        <time>2010-09-26T08:08:17Z</time>
      </trkpt>
      <trkpt lat="45.83341" lon="-0.73986">
        <ele>29</ele>
        <time>2010-09-26T08:08:20Z</time>
      </trkpt>
      <trkpt lat="45.83345" lon="-0.73982">
        <ele>29</ele>
        <time>2010-09-26T08:08:23Z</time>
      </trkpt>
      <trkpt lat="45.8335" lon="-0.73979">
        <ele>29</ele>
        <time>2010-09-26T08:08:27Z</time>
      </trkpt>
      <trkpt lat="45.83356" lon="-0.73976">
        <ele>29</ele>
        <time>2010-09-26T08:08:31Z</time>
      </trkpt>
      <trkpt lat="45.8336" lon="-0.73973">
        <ele>29</ele>
        <time>2010-09-26T08:08:34Z</time>
      </trkpt>
      <trkpt lat="45.83364" lon="-0.7397">
        <ele>29</ele>
        <time>2010-09-26T08:08:37Z</time>
      </trkpt>
      <trkpt lat="45.83368" lon="-0.73967">
        <ele>29</ele>
        <time>2010-09-26T08:08:40Z</time>
      </trkpt>
      <trkpt lat="45.83373" lon="-0.73962">
        <ele>29</ele>
        <time>2010-09-26T08:08:44Z</time>
      </trkpt>
      <trkpt lat="45.83378" lon="-0.73959">
        <ele>29</ele>
        <time>2010-09-26T08:08:48Z</time>
      </trkpt>
      <trkpt lat="45.83382" lon="-0.73955">
        <ele>29</ele>
        <time>2010-09-26T08:08:51Z</time>
      </trkpt>
      <trkpt lat="45.83386" lon="-0.7395">
        <ele>29</ele>
        <time>2010-09-26T08:08:55Z</time>
      </trkpt>
      <trkpt lat="45.83391" lon="-0.73945">
        <ele>29</ele>
        <time>2010-09-26T08:08:59Z</time>
      </trkpt>
      <trkpt lat="45.83396" lon="-0.7394">
        <ele>29</ele>
        <time>2010-09-26T08:09:03Z</time>
      </trkpt>
      <trkpt lat="45.834" lon="-0.73937">
        <ele>29</ele>
        <time>2010-09-26T08:09:07Z</time>
      </trkpt>
      <trkpt lat="45.83404" lon="-0.73935">
        <ele>29</ele>
        <time>2010-09-26T08:09:10Z</time>
      </trkpt>
      <trkpt lat="45.83409" lon="-0.73931">
        <ele>29</ele>
        <time>2010-09-26T08:09:13Z</time>
      </trkpt>
      <trkpt lat="45.83413" lon="-0.73927">
        <ele>29</ele>
        <time>2010-09-26T08:09:16Z</time>
      </trkpt>
      <trkpt lat="45.83417" lon="-0.73923">
        <ele>29</ele>
        <time>2010-09-26T08:09:19Z</time>
      </trkpt>
      <trkpt lat="45.8342" lon="-0.73919">
        <ele>29</ele>
        <time>2010-09-26T08:09:22Z</time>
      </trkpt>
      <trkpt lat="45.83425" lon="-0.73916">
        <ele>29</ele>
        <time>2010-09-26T08:09:25Z</time>
      </trkpt>
      <trkpt lat="45.83429" lon="-0.73911">
        <ele>29</ele>
        <time>2010-09-26T08:09:28Z</time>
      </trkpt>
      <trkpt lat="45.83433" lon="-0.73907">
        <ele>29</ele>
        <time>2010-09-26T08:09:32Z</time>
      </trkpt>
      <trkpt lat="45.83436" lon="-0.73901">
        <ele>29</ele>
        <time>2010-09-26T08:09:36Z</time>
      </trkpt>
      <trkpt lat="45.8344" lon="-0.73898">
        <ele>29</ele>
        <time>2010-09-26T08:09:40Z</time>
      </trkpt>
      <trkpt lat="45.83444" lon="-0.73893">
        <ele>29</ele>
        <time>2010-09-26T08:09:43Z</time>
      </trkpt>
      <trkpt lat="45.8345" lon="-0.73891">
        <ele>29</ele>
        <time>2010-09-26T08:09:46Z</time>
      </trkpt>
      <trkpt lat="45.83454" lon="-0.73887">
        <ele>29</ele>
        <time>2010-09-26T08:09:49Z</time>
      </trkpt>
      <trkpt lat="45.83459" lon="-0.73884">
        <ele>29</ele>
        <time>2010-09-26T08:09:53Z</time>
      </trkpt>
      <trkpt lat="45.83464" lon="-0.73882">
        <ele>29</ele>
        <time>2010-09-26T08:09:57Z</time>
      </trkpt>
      <trkpt lat="45.8347" lon="-0.7388">
        <ele>29</ele>
        <time>2010-09-26T08:10:02Z</time>
      </trkpt>
      <trkpt lat="45.83475" lon="-0.73878">
        <ele>29</ele>
        <time>2010-09-26T08:10:07Z</time>
      </trkpt>
      <trkpt lat="45.8348" lon="-0.73875">
        <ele>29</ele>
        <time>2010-09-26T08:10:11Z</time>
      </trkpt>
      <trkpt lat="45.83485" lon="-0.73873">
        <ele>29</ele>
        <time>2010-09-26T08:10:15Z</time>
      </trkpt>
      <trkpt lat="45.8349" lon="-0.73869">
        <ele>29</ele>
        <time>2010-09-26T08:10:19Z</time>
      </trkpt>
      <trkpt lat="45.83494" lon="-0.73866">
        <ele>29</ele>
        <time>2010-09-26T08:10:22Z</time>
      </trkpt>
      <trkpt lat="45.835" lon="-0.73866">
        <ele>29</ele>
        <time>2010-09-26T08:10:25Z</time>
      </trkpt>
      <trkpt lat="45.83506" lon="-0.73864">
        <ele>28</ele>
        <time>2010-09-26T08:10:29Z</time>
      </trkpt>
      <trkpt lat="45.83511" lon="-0.73863">
        <ele>28</ele>
        <time>2010-09-26T08:10:32Z</time>
      </trkpt>
      <trkpt lat="45.83516" lon="-0.7386">
        <ele>28</ele>
        <time>2010-09-26T08:10:36Z</time>
      </trkpt>
      <trkpt lat="45.83522" lon="-0.73858">
        <ele>28</ele>
        <time>2010-09-26T08:10:39Z</time>
      </trkpt>
      <trkpt lat="45.83527" lon="-0.73857">
        <ele>28</ele>
        <time>2010-09-26T08:10:41Z</time>
      </trkpt>
      <trkpt lat="45.8353" lon="-0.73852">
        <ele>28</ele>
        <time>2010-09-26T08:10:44Z</time>
      </trkpt>
      <trkpt lat="45.83535" lon="-0.73848">
        <ele>28</ele>
        <time>2010-09-26T08:10:47Z</time>
      </trkpt>
      <trkpt lat="45.83537" lon="-0.73842">
        <ele>28</ele>
        <time>2010-09-26T08:10:50Z</time>
      </trkpt>
      <trkpt lat="45.8354" lon="-0.73836">
        <ele>28</ele>
        <time>2010-09-26T08:10:53Z</time>
      </trkpt>
      <trkpt lat="45.83542" lon="-0.7383">
        <ele>27</ele>
        <time>2010-09-26T08:10:55Z</time>
      </trkpt>
      <trkpt lat="45.83544" lon="-0.73824">
        <ele>27</ele>
        <time>2010-09-26T08:10:58Z</time>
      </trkpt>
      <trkpt lat="45.83547" lon="-0.73818">
        <ele>27</ele>
        <time>2010-09-26T08:11:01Z</time>
      </trkpt>
      <trkpt lat="45.8355" lon="-0.73812">
        <ele>27</ele>
        <time>2010-09-26T08:11:05Z</time>
      </trkpt>
      <trkpt lat="45.83554" lon="-0.73807">
        <ele>27</ele>
        <time>2010-09-26T08:11:09Z</time>
      </trkpt>
      <trkpt lat="45.83557" lon="-0.73802">
        <ele>27</ele>
        <time>2010-09-26T08:11:12Z</time>
      </trkpt>
      <trkpt lat="45.8356" lon="-0.73797">
        <ele>27</ele>
        <time>2010-09-26T08:11:15Z</time>
      </trkpt>
      <trkpt lat="45.83565" lon="-0.73792">
        <ele>27</ele>
        <time>2010-09-26T08:11:19Z</time>
      </trkpt>
      <trkpt lat="45.83569" lon="-0.73794">
        <ele>27</ele>
        <time>2010-09-26T08:11:23Z</time>
      </trkpt>
      <trkpt lat="45.83571" lon="-0.738">
        <ele>27</ele>
        <time>2010-09-26T08:11:26Z</time>
      </trkpt>
      <trkpt lat="45.83573" lon="-0.73807">
        <ele>27</ele>
        <time>2010-09-26T08:11:29Z</time>
      </trkpt>
      <trkpt lat="45.83574" lon="-0.73813">
        <ele>26</ele>
        <time>2010-09-26T08:11:34Z</time>
      </trkpt>
      <trkpt lat="45.83575" lon="-0.7382">
        <ele>26</ele>
        <time>2010-09-26T08:11:37Z</time>
      </trkpt>
      <trkpt lat="45.83577" lon="-0.73828">
        <ele>26</ele>
        <time>2010-09-26T08:11:41Z</time>
      </trkpt>
      <trkpt lat="45.83579" lon="-0.73836">
        <ele>26</ele>
        <time>2010-09-26T08:11:45Z</time>
      </trkpt>
      <trkpt lat="45.8358" lon="-0.73843">
        <ele>26</ele>
        <time>2010-09-26T08:11:48Z</time>
      </trkpt>
      <trkpt lat="45.8358" lon="-0.7385">
        <ele>27</ele>
        <time>2010-09-26T08:11:52Z</time>
      </trkpt>
      <trkpt lat="45.83581" lon="-0.73857">
        <ele>27</ele>
        <time>2010-09-26T08:11:55Z</time>
      </trkpt>
      <trkpt lat="45.83582" lon="-0.73865">
        <ele>27</ele>
        <time>2010-09-26T08:11:59Z</time>
      </trkpt>
      <trkpt lat="45.83584" lon="-0.73871">
        <ele>26</ele>
        <time>2010-09-26T08:12:02Z</time>
      </trkpt>
      <trkpt lat="45.83585" lon="-0.73878">
        <ele>26</ele>
        <time>2010-09-26T08:12:05Z</time>
      </trkpt>
      <trkpt lat="45.83587" lon="-0.73885">
        <ele>26</ele>
        <time>2010-09-26T08:12:08Z</time>
      </trkpt>
      <trkpt lat="45.83586" lon="-0.73892">
        <ele>26</ele>
        <time>2010-09-26T08:12:12Z</time>
      </trkpt>
      <trkpt lat="45.83587" lon="-0.73899">
        <ele>26</ele>
        <time>2010-09-26T08:12:16Z</time>
      </trkpt>
      <trkpt lat="45.83587" lon="-0.73906">
        <ele>26</ele>
        <time>2010-09-26T08:12:20Z</time>
      </trkpt>
      <trkpt lat="45.83587" lon="-0.73914">
        <ele>26</ele>
        <time>2010-09-26T08:12:24Z</time>
      </trkpt>
      <trkpt lat="45.83589" lon="-0.73921">
        <ele>26</ele>
        <time>2010-09-26T08:12:27Z</time>
      </trkpt>
      <trkpt lat="45.83591" lon="-0.73929">
        <ele>26</ele>
        <time>2010-09-26T08:12:31Z</time>
      </trkpt>
      <trkpt lat="45.83593" lon="-0.73936">
        <ele>26</ele>
        <time>2010-09-26T08:12:34Z</time>
      </trkpt>
      <trkpt lat="45.83594" lon="-0.73943">
        <ele>26</ele>
        <time>2010-09-26T08:12:38Z</time>
      </trkpt>
      <trkpt lat="45.83594" lon="-0.73951">
        <ele>26</ele>
        <time>2010-09-26T08:12:42Z</time>
      </trkpt>
      <trkpt lat="45.83594" lon="-0.73959">
        <ele>27</ele>
        <time>2010-09-26T08:12:46Z</time>
      </trkpt>
      <trkpt lat="45.83595" lon="-0.73966">
        <ele>27</ele>
        <time>2010-09-26T08:12:49Z</time>
      </trkpt>
      <trkpt lat="45.83596" lon="-0.73973">
        <ele>27</ele>
        <time>2010-09-26T08:12:52Z</time>
      </trkpt>
      <trkpt lat="45.83597" lon="-0.7398">
        <ele>26</ele>
        <time>2010-09-26T08:12:55Z</time>
      </trkpt>
      <trkpt lat="45.83597" lon="-0.73987">
        <ele>26</ele>
        <time>2010-09-26T08:12:59Z</time>
      </trkpt>
      <trkpt lat="45.83597" lon="-0.73995">
        <ele>26</ele>
        <time>2010-09-26T08:13:03Z</time>
      </trkpt>
      <trkpt lat="45.83598" lon="-0.74002">
        <ele>26</ele>
        <time>2010-09-26T08:13:06Z</time>
      </trkpt>
      <trkpt lat="45.83601" lon="-0.74009">
        <ele>27</ele>
        <time>2010-09-26T08:13:08Z</time>
      </trkpt>
      <trkpt lat="45.83603" lon="-0.74016">
        <ele>27</ele>
        <time>2010-09-26T08:13:11Z</time>
      </trkpt>
      <trkpt lat="45.83604" lon="-0.74024">
        <ele>27</ele>
        <time>2010-09-26T08:13:16Z</time>
      </trkpt>
      <trkpt lat="45.83607" lon="-0.74031">
        <ele>27</ele>
        <time>2010-09-26T08:13:20Z</time>
      </trkpt>
      <trkpt lat="45.83609" lon="-0.74037">
        <ele>27</ele>
        <time>2010-09-26T08:13:24Z</time>
      </trkpt>
      <trkpt lat="45.83611" lon="-0.74044">
        <ele>27</ele>
        <time>2010-09-26T08:13:29Z</time>
      </trkpt>
      <trkpt lat="45.83612" lon="-0.74051">
        <ele>27</ele>
        <time>2010-09-26T08:13:33Z</time>
      </trkpt>
      <trkpt lat="45.83612" lon="-0.74058">
        <ele>27</ele>
        <time>2010-09-26T08:13:37Z</time>
      </trkpt>
      <trkpt lat="45.83615" lon="-0.74064">
        <ele>27</ele>
        <time>2010-09-26T08:13:40Z</time>
      </trkpt>
      <trkpt lat="45.83616" lon="-0.74072">
        <ele>27</ele>
        <time>2010-09-26T08:13:45Z</time>
      </trkpt>
      <trkpt lat="45.83615" lon="-0.74078">
        <ele>27</ele>
        <time>2010-09-26T08:13:49Z</time>
      </trkpt>
      <trkpt lat="45.83615" lon="-0.74085">
        <ele>27</ele>
        <time>2010-09-26T08:13:52Z</time>
      </trkpt>
      <trkpt lat="45.83615" lon="-0.74094">
        <ele>27</ele>
        <time>2010-09-26T08:13:56Z</time>
      </trkpt>
      <trkpt lat="45.83614" lon="-0.74101">
        <ele>27</ele>
        <time>2010-09-26T08:13:59Z</time>
      </trkpt>
      <trkpt lat="45.83614" lon="-0.74109">
        <ele>27</ele>
        <time>2010-09-26T08:14:02Z</time>
      </trkpt>
      <trkpt lat="45.83613" lon="-0.74116">
        <ele>27</ele>
        <time>2010-09-26T08:14:05Z</time>
      </trkpt>
      <trkpt lat="45.83613" lon="-0.74123">
        <ele>28</ele>
        <time>2010-09-26T08:14:07Z</time>
      </trkpt>
      <trkpt lat="45.83612" lon="-0.74129">
        <ele>28</ele>
        <time>2010-09-26T08:14:10Z</time>
      </trkpt>
      <trkpt lat="45.83611" lon="-0.74136">
        <ele>28</ele>
        <time>2010-09-26T08:14:13Z</time>
      </trkpt>
      <trkpt lat="45.83609" lon="-0.74145">
        <ele>28</ele>
        <time>2010-09-26T08:14:17Z</time>
      </trkpt>
      <trkpt lat="45.83609" lon="-0.74153">
        <ele>28</ele>
        <time>2010-09-26T08:14:20Z</time>
      </trkpt>
      <trkpt lat="45.83608" lon="-0.74161">
        <ele>28</ele>
        <time>2010-09-26T08:14:24Z</time>
      </trkpt>
      <trkpt lat="45.83607" lon="-0.74168">
        <ele>29</ele>
        <time>2010-09-26T08:14:27Z</time>
      </trkpt>
      <trkpt lat="45.83606" lon="-0.74175">
        <ele>29</ele>
        <time>2010-09-26T08:14:31Z</time>
      </trkpt>
      <trkpt lat="45.83603" lon="-0.74181">
        <ele>29</ele>
        <time>2010-09-26T08:14:34Z</time>
      </trkpt>
      <trkpt lat="45.83603" lon="-0.74188">
        <ele>29</ele>
        <time>2010-09-26T08:14:37Z</time>
      </trkpt>
      <trkpt lat="45.836" lon="-0.74196">
        <ele>29</ele>
        <time>2010-09-26T08:14:41Z</time>
      </trkpt>
      <trkpt lat="45.83597" lon="-0.74202">
        <ele>29</ele>
        <time>2010-09-26T08:14:44Z</time>
      </trkpt>
      <trkpt lat="45.83595" lon="-0.74207">
        <ele>29</ele>
        <time>2010-09-26T08:14:47Z</time>
      </trkpt>
      <trkpt lat="45.83592" lon="-0.74214">
        <ele>29</ele>
        <time>2010-09-26T08:14:51Z</time>
      </trkpt>
      <trkpt lat="45.83589" lon="-0.74218">
        <ele>29</ele>
        <time>2010-09-26T08:14:54Z</time>
      </trkpt>
      <trkpt lat="45.83587" lon="-0.74226">
        <ele>29</ele>
        <time>2010-09-26T08:14:58Z</time>
      </trkpt>
      <trkpt lat="45.83585" lon="-0.74232">
        <ele>29</ele>
        <time>2010-09-26T08:15:01Z</time>
      </trkpt>
      <trkpt lat="45.83582" lon="-0.74241">
        <ele>29</ele>
        <time>2010-09-26T08:15:05Z</time>
      </trkpt>
      <trkpt lat="45.8358" lon="-0.74247">
        <ele>29</ele>
        <time>2010-09-26T08:15:08Z</time>
      </trkpt>
      <trkpt lat="45.83578" lon="-0.74253">
        <ele>29</ele>
        <time>2010-09-26T08:15:11Z</time>
      </trkpt>
      <trkpt lat="45.83575" lon="-0.7426">
        <ele>29</ele>
        <time>2010-09-26T08:15:15Z</time>
      </trkpt>
      <trkpt lat="45.83574" lon="-0.74268">
        <ele>29</ele>
        <time>2010-09-26T08:15:19Z</time>
      </trkpt>
      <trkpt lat="45.83572" lon="-0.74274">
        <ele>29</ele>
        <time>2010-09-26T08:15:22Z</time>
      </trkpt>
      <trkpt lat="45.83572" lon="-0.74274">
        <ele>29</ele>
        <time>2010-09-26T08:15:22Z</time>
      </trkpt>
      <trkpt lat="45.83571" lon="-0.74281">
        <ele>29</ele>
        <time>2010-09-26T08:15:25Z</time>
      </trkpt>
      <trkpt lat="45.8357" lon="-0.74287">
        <ele>29</ele>
        <time>2010-09-26T08:15:28Z</time>
      </trkpt>
      <trkpt lat="45.83569" lon="-0.74295">
        <ele>29</ele>
        <time>2010-09-26T08:15:32Z</time>
      </trkpt>
      <trkpt lat="45.83567" lon="-0.74301">
        <ele>29</ele>
        <time>2010-09-26T08:15:35Z</time>
      </trkpt>
      <trkpt lat="45.83566" lon="-0.74309">
        <ele>29</ele>
        <time>2010-09-26T08:15:39Z</time>
      </trkpt>
      <trkpt lat="45.83566" lon="-0.74315">
        <ele>29</ele>
        <time>2010-09-26T08:15:42Z</time>
      </trkpt>
      <trkpt lat="45.83566" lon="-0.74323">
        <ele>29</ele>
        <time>2010-09-26T08:15:46Z</time>
      </trkpt>
      <trkpt lat="45.83567" lon="-0.74332">
        <ele>29</ele>
        <time>2010-09-26T08:15:50Z</time>
      </trkpt>
      <trkpt lat="45.83568" lon="-0.74338">
        <ele>29</ele>
        <time>2010-09-26T08:15:53Z</time>
      </trkpt>
      <trkpt lat="45.83566" lon="-0.74346">
        <ele>28</ele>
        <time>2010-09-26T08:15:56Z</time>
      </trkpt>
      <trkpt lat="45.83566" lon="-0.74354">
        <ele>28</ele>
        <time>2010-09-26T08:16:00Z</time>
      </trkpt>
      <trkpt lat="45.83565" lon="-0.7436">
        <ele>28</ele>
        <time>2010-09-26T08:16:03Z</time>
      </trkpt>
      <trkpt lat="45.83565" lon="-0.74366">
        <ele>28</ele>
        <time>2010-09-26T08:16:06Z</time>
      </trkpt>
      <trkpt lat="45.83565" lon="-0.74374">
        <ele>27</ele>
        <time>2010-09-26T08:16:10Z</time>
      </trkpt>
      <trkpt lat="45.83564" lon="-0.74381">
        <ele>27</ele>
        <time>2010-09-26T08:16:13Z</time>
      </trkpt>
      <trkpt lat="45.83563" lon="-0.74388">
        <ele>27</ele>
        <time>2010-09-26T08:16:17Z</time>
      </trkpt>
      <trkpt lat="45.83562" lon="-0.74394">
        <ele>27</ele>
        <time>2010-09-26T08:16:20Z</time>
      </trkpt>
      <trkpt lat="45.83562" lon="-0.74401">
        <ele>27</ele>
        <time>2010-09-26T08:16:23Z</time>
      </trkpt>
      <trkpt lat="45.83563" lon="-0.74408">
        <ele>27</ele>
        <time>2010-09-26T08:16:26Z</time>
      </trkpt>
      <trkpt lat="45.83563" lon="-0.74415">
        <ele>27</ele>
        <time>2010-09-26T08:16:29Z</time>
      </trkpt>
      <trkpt lat="45.83565" lon="-0.74422">
        <ele>26</ele>
        <time>2010-09-26T08:16:32Z</time>
      </trkpt>
      <trkpt lat="45.83566" lon="-0.7443">
        <ele>26</ele>
        <time>2010-09-26T08:16:36Z</time>
      </trkpt>
      <trkpt lat="45.83567" lon="-0.74439">
        <ele>26</ele>
        <time>2010-09-26T08:16:40Z</time>
      </trkpt>
      <trkpt lat="45.83569" lon="-0.74446">
        <ele>26</ele>
        <time>2010-09-26T08:16:44Z</time>
      </trkpt>
      <trkpt lat="45.83571" lon="-0.74454">
        <ele>26</ele>
        <time>2010-09-26T08:16:48Z</time>
      </trkpt>
      <trkpt lat="45.83574" lon="-0.7446">
        <ele>26</ele>
        <time>2010-09-26T08:16:51Z</time>
      </trkpt>
      <trkpt lat="45.83576" lon="-0.74466">
        <ele>26</ele>
        <time>2010-09-26T08:16:55Z</time>
      </trkpt>
      <trkpt lat="45.83578" lon="-0.74473">
        <ele>26</ele>
        <time>2010-09-26T08:16:59Z</time>
      </trkpt>
      <trkpt lat="45.83581" lon="-0.74478">
        <ele>26</ele>
        <time>2010-09-26T08:17:03Z</time>
      </trkpt>
      <trkpt lat="45.83583" lon="-0.74484">
        <ele>26</ele>
        <time>2010-09-26T08:17:08Z</time>
      </trkpt>
      <trkpt lat="45.83586" lon="-0.74491">
        <ele>27</ele>
        <time>2010-09-26T08:17:13Z</time>
      </trkpt>
      <trkpt lat="45.83589" lon="-0.74496">
        <ele>27</ele>
        <time>2010-09-26T08:17:17Z</time>
      </trkpt>
      <trkpt lat="45.83593" lon="-0.745">
        <ele>27</ele>
        <time>2010-09-26T08:17:22Z</time>
      </trkpt>
      <trkpt lat="45.83597" lon="-0.74503">
        <ele>28</ele>
        <time>2010-09-26T08:17:26Z</time>
      </trkpt>
      <trkpt lat="45.83602" lon="-0.74507">
        <ele>28</ele>
        <time>2010-09-26T08:17:30Z</time>
      </trkpt>
      <trkpt lat="45.83606" lon="-0.74511">
        <ele>28</ele>
        <time>2010-09-26T08:17:33Z</time>
      </trkpt>
      <trkpt lat="45.83611" lon="-0.74514">
        <ele>29</ele>
        <time>2010-09-26T08:17:37Z</time>
      </trkpt>
      <trkpt lat="45.83616" lon="-0.74518">
        <ele>29</ele>
        <time>2010-09-26T08:17:41Z</time>
      </trkpt>
      <trkpt lat="45.83621" lon="-0.74521">
        <ele>29</ele>
        <time>2010-09-26T08:17:45Z</time>
      </trkpt>
      <trkpt lat="45.83625" lon="-0.74524">
        <ele>29</ele>
        <time>2010-09-26T08:17:49Z</time>
      </trkpt>
      <trkpt lat="45.83631" lon="-0.74527">
        <ele>29</ele>
        <time>2010-09-26T08:17:54Z</time>
      </trkpt>
      <trkpt lat="45.83635" lon="-0.74529">
        <ele>30</ele>
        <time>2010-09-26T08:17:58Z</time>
      </trkpt>
      <trkpt lat="45.83639" lon="-0.74532">
        <ele>30</ele>
        <time>2010-09-26T08:18:02Z</time>
      </trkpt>
      <trkpt lat="45.83644" lon="-0.74535">
        <ele>30</ele>
        <time>2010-09-26T08:18:06Z</time>
      </trkpt>
      <trkpt lat="45.83648" lon="-0.74539">
        <ele>30</ele>
        <time>2010-09-26T08:18:09Z</time>
      </trkpt>
      <trkpt lat="45.83653" lon="-0.74542">
        <ele>30</ele>
        <time>2010-09-26T08:18:12Z</time>
      </trkpt>
      <trkpt lat="45.83656" lon="-0.74546">
        <ele>30</ele>
        <time>2010-09-26T08:18:16Z</time>
      </trkpt>
      <trkpt lat="45.83661" lon="-0.74548">
        <ele>30</ele>
        <time>2010-09-26T08:18:20Z</time>
      </trkpt>
      <trkpt lat="45.83666" lon="-0.74551">
        <ele>30</ele>
        <time>2010-09-26T08:18:24Z</time>
      </trkpt>
      <trkpt lat="45.8367" lon="-0.74555">
        <ele>32</ele>
        <time>2010-09-26T08:18:29Z</time>
      </trkpt>
      <trkpt lat="45.83675" lon="-0.74559">
        <ele>32</ele>
        <time>2010-09-26T08:18:32Z</time>
      </trkpt>
      <trkpt lat="45.8368" lon="-0.7456">
        <ele>32</ele>
        <time>2010-09-26T08:18:36Z</time>
      </trkpt>
      <trkpt lat="45.83684" lon="-0.74561">
        <ele>32</ele>
        <time>2010-09-26T08:18:40Z</time>
      </trkpt>
      <trkpt lat="45.83689" lon="-0.74562">
        <ele>32</ele>
        <time>2010-09-26T08:18:44Z</time>
      </trkpt>
      <trkpt lat="45.83695" lon="-0.74565">
        <ele>32</ele>
        <time>2010-09-26T08:18:48Z</time>
      </trkpt>
      <trkpt lat="45.83701" lon="-0.74568">
        <ele>32</ele>
        <time>2010-09-26T08:18:51Z</time>
      </trkpt>
      <trkpt lat="45.83706" lon="-0.74569">
        <ele>32</ele>
        <time>2010-09-26T08:18:54Z</time>
      </trkpt>
      <trkpt lat="45.83712" lon="-0.74571">
        <ele>32</ele>
        <time>2010-09-26T08:18:58Z</time>
      </trkpt>
      <trkpt lat="45.83717" lon="-0.74573">
        <ele>32</ele>
        <time>2010-09-26T08:19:01Z</time>
      </trkpt>
      <trkpt lat="45.83722" lon="-0.74577">
        <ele>32</ele>
        <time>2010-09-26T08:19:05Z</time>
      </trkpt>
      <trkpt lat="45.83727" lon="-0.7458">
        <ele>32</ele>
        <time>2010-09-26T08:19:08Z</time>
      </trkpt>
      <trkpt lat="45.83732" lon="-0.74582">
        <ele>32</ele>
        <time>2010-09-26T08:19:11Z</time>
      </trkpt>
      <trkpt lat="45.83736" lon="-0.74585">
        <ele>32</ele>
        <time>2010-09-26T08:19:15Z</time>
      </trkpt>
      <trkpt lat="45.83741" lon="-0.74588">
        <ele>32</ele>
        <time>2010-09-26T08:19:20Z</time>
      </trkpt>
      <trkpt lat="45.83746" lon="-0.74591">
        <ele>32</ele>
        <time>2010-09-26T08:19:24Z</time>
      </trkpt>
      <trkpt lat="45.8375" lon="-0.74594">
        <ele>32</ele>
        <time>2010-09-26T08:19:30Z</time>
      </trkpt>
      <trkpt lat="45.83755" lon="-0.74595">
        <ele>32</ele>
        <time>2010-09-26T08:19:33Z</time>
      </trkpt>
      <trkpt lat="45.83762" lon="-0.74594">
        <ele>32</ele>
        <time>2010-09-26T08:19:37Z</time>
      </trkpt>
      <trkpt lat="45.83766" lon="-0.74597">
        <ele>31</ele>
        <time>2010-09-26T08:19:39Z</time>
      </trkpt>
      <trkpt lat="45.83771" lon="-0.746">
        <ele>31</ele>
        <time>2010-09-26T08:19:41Z</time>
      </trkpt>
      <trkpt lat="45.83775" lon="-0.74605">
        <ele>31</ele>
        <time>2010-09-26T08:19:43Z</time>
      </trkpt>
      <trkpt lat="45.8378" lon="-0.7461">
        <ele>31</ele>
        <time>2010-09-26T08:19:45Z</time>
      </trkpt>
      <trkpt lat="45.83784" lon="-0.74616">
        <ele>31</ele>
        <time>2010-09-26T08:19:48Z</time>
      </trkpt>
      <trkpt lat="45.83786" lon="-0.74623">
        <ele>31</ele>
        <time>2010-09-26T08:19:51Z</time>
      </trkpt>
      <trkpt lat="45.83789" lon="-0.74629">
        <ele>31</ele>
        <time>2010-09-26T08:19:54Z</time>
      </trkpt>
      <trkpt lat="45.83792" lon="-0.74634">
        <ele>31</ele>
        <time>2010-09-26T08:19:56Z</time>
      </trkpt>
      <trkpt lat="45.83794" lon="-0.74642">
        <ele>31</ele>
        <time>2010-09-26T08:20:00Z</time>
      </trkpt>
      <trkpt lat="45.83796" lon="-0.74647">
        <ele>31</ele>
        <time>2010-09-26T08:20:03Z</time>
      </trkpt>
      <trkpt lat="45.83799" lon="-0.74653">
        <ele>31</ele>
        <time>2010-09-26T08:20:06Z</time>
      </trkpt>
      <trkpt lat="45.83801" lon="-0.7466">
        <ele>31</ele>
        <time>2010-09-26T08:20:10Z</time>
      </trkpt>
      <trkpt lat="45.83803" lon="-0.74666">
        <ele>31</ele>
        <time>2010-09-26T08:20:13Z</time>
      </trkpt>
      <trkpt lat="45.83806" lon="-0.74674">
        <ele>30</ele>
        <time>2010-09-26T08:20:17Z</time>
      </trkpt>
      <trkpt lat="45.83808" lon="-0.74682">
        <ele>30</ele>
        <time>2010-09-26T08:20:21Z</time>
      </trkpt>
      <trkpt lat="45.83811" lon="-0.74688">
        <ele>30</ele>
        <time>2010-09-26T08:20:24Z</time>
      </trkpt>
      <trkpt lat="45.83814" lon="-0.74694">
        <ele>30</ele>
        <time>2010-09-26T08:20:27Z</time>
      </trkpt>
      <trkpt lat="45.83816" lon="-0.747">
        <ele>30</ele>
        <time>2010-09-26T08:20:31Z</time>
      </trkpt>
      <trkpt lat="45.8382" lon="-0.74706">
        <ele>30</ele>
        <time>2010-09-26T08:20:34Z</time>
      </trkpt>
      <trkpt lat="45.83823" lon="-0.74712">
        <ele>30</ele>
        <time>2010-09-26T08:20:37Z</time>
      </trkpt>
      <trkpt lat="45.83827" lon="-0.74718">
        <ele>30</ele>
        <time>2010-09-26T08:20:41Z</time>
      </trkpt>
      <trkpt lat="45.8383" lon="-0.74723">
        <ele>30</ele>
        <time>2010-09-26T08:20:44Z</time>
      </trkpt>
      <trkpt lat="45.83834" lon="-0.74727">
        <ele>29</ele>
        <time>2010-09-26T08:20:48Z</time>
      </trkpt>
      <trkpt lat="45.83837" lon="-0.74733">
        <ele>29</ele>
        <time>2010-09-26T08:20:52Z</time>
      </trkpt>
      <trkpt lat="45.8384" lon="-0.74739">
        <ele>29</ele>
        <time>2010-09-26T08:20:55Z</time>
      </trkpt>
      <trkpt lat="45.83842" lon="-0.74745">
        <ele>29</ele>
        <time>2010-09-26T08:20:59Z</time>
      </trkpt>
      <trkpt lat="45.83845" lon="-0.74752">
        <ele>29</ele>
        <time>2010-09-26T08:21:02Z</time>
      </trkpt>
      <trkpt lat="45.8385" lon="-0.74757">
        <ele>28</ele>
        <time>2010-09-26T08:21:05Z</time>
      </trkpt>
      <trkpt lat="45.83853" lon="-0.74762">
        <ele>28</ele>
        <time>2010-09-26T08:21:08Z</time>
      </trkpt>
      <trkpt lat="45.83857" lon="-0.74768">
        <ele>28</ele>
        <time>2010-09-26T08:21:11Z</time>
      </trkpt>
      <trkpt lat="45.8386" lon="-0.74773">
        <ele>28</ele>
        <time>2010-09-26T08:21:14Z</time>
      </trkpt>
      <trkpt lat="45.83862" lon="-0.74778">
        <ele>28</ele>
        <time>2010-09-26T08:21:17Z</time>
      </trkpt>
      <trkpt lat="45.83866" lon="-0.74784">
        <ele>28</ele>
        <time>2010-09-26T08:21:21Z</time>
      </trkpt>
      <trkpt lat="45.8387" lon="-0.74791">
        <ele>28</ele>
        <time>2010-09-26T08:21:25Z</time>
      </trkpt>
      <trkpt lat="45.83873" lon="-0.74797">
        <ele>28</ele>
        <time>2010-09-26T08:21:29Z</time>
      </trkpt>
      <trkpt lat="45.83876" lon="-0.74803">
        <ele>28</ele>
        <time>2010-09-26T08:21:33Z</time>
      </trkpt>
      <trkpt lat="45.8388" lon="-0.74807">
        <ele>28</ele>
        <time>2010-09-26T08:21:36Z</time>
      </trkpt>
      <trkpt lat="45.83884" lon="-0.74812">
        <ele>28</ele>
        <time>2010-09-26T08:21:40Z</time>
      </trkpt>
      <trkpt lat="45.83888" lon="-0.74818">
        <ele>28</ele>
        <time>2010-09-26T08:21:43Z</time>
      </trkpt>
      <trkpt lat="45.83891" lon="-0.74824">
        <ele>28</ele>
        <time>2010-09-26T08:21:47Z</time>
      </trkpt>
      <trkpt lat="45.83895" lon="-0.74829">
        <ele>28</ele>
        <time>2010-09-26T08:21:50Z</time>
      </trkpt>
      <trkpt lat="45.83898" lon="-0.74834">
        <ele>27</ele>
        <time>2010-09-26T08:21:53Z</time>
      </trkpt>
      <trkpt lat="45.83903" lon="-0.7484">
        <ele>27</ele>
        <time>2010-09-26T08:21:57Z</time>
      </trkpt>
      <trkpt lat="45.83906" lon="-0.74845">
        <ele>27</ele>
        <time>2010-09-26T08:22:01Z</time>
      </trkpt>
      <trkpt lat="45.83911" lon="-0.74851">
        <ele>27</ele>
        <time>2010-09-26T08:22:05Z</time>
      </trkpt>
      <trkpt lat="45.83915" lon="-0.74855">
        <ele>27</ele>
        <time>2010-09-26T08:22:08Z</time>
      </trkpt>
      <trkpt lat="45.83919" lon="-0.7486">
        <ele>28</ele>
        <time>2010-09-26T08:22:12Z</time>
      </trkpt>
      <trkpt lat="45.83923" lon="-0.74865">
        <ele>28</ele>
        <time>2010-09-26T08:22:16Z</time>
      </trkpt>
      <trkpt lat="45.83927" lon="-0.74871">
        <ele>28</ele>
        <time>2010-09-26T08:22:20Z</time>
      </trkpt>
      <trkpt lat="45.83931" lon="-0.74875">
        <ele>28</ele>
        <time>2010-09-26T08:22:23Z</time>
      </trkpt>
      <trkpt lat="45.83935" lon="-0.74881">
        <ele>28</ele>
        <time>2010-09-26T08:22:27Z</time>
      </trkpt>
      <trkpt lat="45.8394" lon="-0.74887">
        <ele>28</ele>
        <time>2010-09-26T08:22:31Z</time>
      </trkpt>
      <trkpt lat="45.83944" lon="-0.74892">
        <ele>28</ele>
        <time>2010-09-26T08:22:35Z</time>
      </trkpt>
      <trkpt lat="45.83948" lon="-0.74897">
        <ele>28</ele>
        <time>2010-09-26T08:22:39Z</time>
      </trkpt>
      <trkpt lat="45.83953" lon="-0.74902">
        <ele>28</ele>
        <time>2010-09-26T08:22:43Z</time>
      </trkpt>
      <trkpt lat="45.83956" lon="-0.74907">
        <ele>28</ele>
        <time>2010-09-26T08:22:47Z</time>
      </trkpt>
      <trkpt lat="45.8396" lon="-0.74911">
        <ele>28</ele>
        <time>2010-09-26T08:22:50Z</time>
      </trkpt>
      <trkpt lat="45.83965" lon="-0.74916">
        <ele>28</ele>
        <time>2010-09-26T08:22:54Z</time>
      </trkpt>
      <trkpt lat="45.83969" lon="-0.74922">
        <ele>27</ele>
        <time>2010-09-26T08:22:58Z</time>
      </trkpt>
      <trkpt lat="45.83974" lon="-0.74927">
        <ele>27</ele>
        <time>2010-09-26T08:23:02Z</time>
      </trkpt>
      <trkpt lat="45.83978" lon="-0.74932">
        <ele>27</ele>
        <time>2010-09-26T08:23:06Z</time>
      </trkpt>
      <trkpt lat="45.83983" lon="-0.74937">
        <ele>27</ele>
        <time>2010-09-26T08:23:10Z</time>
      </trkpt>
      <trkpt lat="45.83987" lon="-0.74943">
        <ele>27</ele>
        <time>2010-09-26T08:23:14Z</time>
      </trkpt>
      <trkpt lat="45.83992" lon="-0.74947">
        <ele>27</ele>
        <time>2010-09-26T08:23:17Z</time>
      </trkpt>
      <trkpt lat="45.83996" lon="-0.74952">
        <ele>27</ele>
        <time>2010-09-26T08:23:21Z</time>
      </trkpt>
      <trkpt lat="45.84" lon="-0.74956">
        <ele>27</ele>
        <time>2010-09-26T08:23:25Z</time>
      </trkpt>
      <trkpt lat="45.84004" lon="-0.74962">
        <ele>28</ele>
        <time>2010-09-26T08:23:29Z</time>
      </trkpt>
      <trkpt lat="45.84008" lon="-0.74967">
        <ele>28</ele>
        <time>2010-09-26T08:23:33Z</time>
      </trkpt>
      <trkpt lat="45.84013" lon="-0.74971">
        <ele>28</ele>
        <time>2010-09-26T08:23:36Z</time>
      </trkpt>
      <trkpt lat="45.84018" lon="-0.74975">
        <ele>28</ele>
        <time>2010-09-26T08:23:40Z</time>
      </trkpt>
      <trkpt lat="45.84022" lon="-0.74979">
        <ele>28</ele>
        <time>2010-09-26T08:23:44Z</time>
      </trkpt>
      <trkpt lat="45.84026" lon="-0.74984">
        <ele>28</ele>
        <time>2010-09-26T08:23:48Z</time>
      </trkpt>
      <trkpt lat="45.8403" lon="-0.74988">
        <ele>28</ele>
        <time>2010-09-26T08:23:52Z</time>
      </trkpt>
      <trkpt lat="45.84035" lon="-0.74991">
        <ele>28</ele>
        <time>2010-09-26T08:23:56Z</time>
      </trkpt>
      <trkpt lat="45.8404" lon="-0.74996">
        <ele>28</ele>
        <time>2010-09-26T08:24:00Z</time>
      </trkpt>
      <trkpt lat="45.84044" lon="-0.75001">
        <ele>28</ele>
        <time>2010-09-26T08:24:04Z</time>
      </trkpt>
      <trkpt lat="45.84048" lon="-0.75005">
        <ele>28</ele>
        <time>2010-09-26T08:24:07Z</time>
      </trkpt>
      <trkpt lat="45.84052" lon="-0.75009">
        <ele>28</ele>
        <time>2010-09-26T08:24:10Z</time>
      </trkpt>
      <trkpt lat="45.84056" lon="-0.75016">
        <ele>28</ele>
        <time>2010-09-26T08:24:14Z</time>
      </trkpt>
      <trkpt lat="45.8406" lon="-0.7502">
        <ele>28</ele>
        <time>2010-09-26T08:24:18Z</time>
      </trkpt>
      <trkpt lat="45.84065" lon="-0.75024">
        <ele>28</ele>
        <time>2010-09-26T08:24:21Z</time>
      </trkpt>
      <trkpt lat="45.8407" lon="-0.75027">
        <ele>28</ele>
        <time>2010-09-26T08:24:25Z</time>
      </trkpt>
      <trkpt lat="45.84074" lon="-0.75031">
        <ele>28</ele>
        <time>2010-09-26T08:24:29Z</time>
      </trkpt>
      <trkpt lat="45.84079" lon="-0.75034">
        <ele>28</ele>
        <time>2010-09-26T08:24:33Z</time>
      </trkpt>
      <trkpt lat="45.84084" lon="-0.75038">
        <ele>28</ele>
        <time>2010-09-26T08:24:37Z</time>
      </trkpt>
      <trkpt lat="45.84088" lon="-0.75042">
        <ele>28</ele>
        <time>2010-09-26T08:24:40Z</time>
      </trkpt>
      <trkpt lat="45.84093" lon="-0.75046">
        <ele>28</ele>
        <time>2010-09-26T08:24:43Z</time>
      </trkpt>
      <trkpt lat="45.84097" lon="-0.75048">
        <ele>28</ele>
        <time>2010-09-26T08:24:46Z</time>
      </trkpt>
      <trkpt lat="45.84102" lon="-0.75051">
        <ele>28</ele>
        <time>2010-09-26T08:24:50Z</time>
      </trkpt>
      <trkpt lat="45.84107" lon="-0.75054">
        <ele>28</ele>
        <time>2010-09-26T08:24:54Z</time>
      </trkpt>
      <trkpt lat="45.84111" lon="-0.75057">
        <ele>28</ele>
        <time>2010-09-26T08:24:57Z</time>
      </trkpt>
      <trkpt lat="45.84116" lon="-0.75061">
        <ele>28</ele>
        <time>2010-09-26T08:25:00Z</time>
      </trkpt>
      <trkpt lat="45.8412" lon="-0.75066">
        <ele>28</ele>
        <time>2010-09-26T08:25:03Z</time>
      </trkpt>
      <trkpt lat="45.8412" lon="-0.75076">
        <ele>28</ele>
        <time>2010-09-26T08:25:06Z</time>
      </trkpt>
      <trkpt lat="45.84116" lon="-0.75081">
        <ele>28</ele>
        <time>2010-09-26T08:25:10Z</time>
      </trkpt>
      <trkpt lat="45.84111" lon="-0.75086">
        <ele>27</ele>
        <time>2010-09-26T08:25:14Z</time>
      </trkpt>
      <trkpt lat="45.84107" lon="-0.75088">
        <ele>27</ele>
        <time>2010-09-26T08:25:17Z</time>
      </trkpt>
      <trkpt lat="45.84102" lon="-0.75091">
        <ele>27</ele>
        <time>2010-09-26T08:25:21Z</time>
      </trkpt>
      <trkpt lat="45.84097" lon="-0.75092">
        <ele>27</ele>
        <time>2010-09-26T08:25:24Z</time>
      </trkpt>
      <trkpt lat="45.84092" lon="-0.75095">
        <ele>27</ele>
        <time>2010-09-26T08:25:28Z</time>
      </trkpt>
      <trkpt lat="45.84086" lon="-0.75097">
        <ele>27</ele>
        <time>2010-09-26T08:25:32Z</time>
      </trkpt>
      <trkpt lat="45.84081" lon="-0.75099">
        <ele>27</ele>
        <time>2010-09-26T08:25:35Z</time>
      </trkpt>
      <trkpt lat="45.84075" lon="-0.75101">
        <ele>27</ele>
        <time>2010-09-26T08:25:39Z</time>
      </trkpt>
      <trkpt lat="45.84071" lon="-0.75103">
        <ele>27</ele>
        <time>2010-09-26T08:25:42Z</time>
      </trkpt>
      <trkpt lat="45.84066" lon="-0.75106">
        <ele>27</ele>
        <time>2010-09-26T08:25:46Z</time>
      </trkpt>
      <trkpt lat="45.8406" lon="-0.75108">
        <ele>27</ele>
        <time>2010-09-26T08:25:50Z</time>
      </trkpt>
      <trkpt lat="45.84055" lon="-0.75109">
        <ele>27</ele>
        <time>2010-09-26T08:25:54Z</time>
      </trkpt>
      <trkpt lat="45.84049" lon="-0.75112">
        <ele>27</ele>
        <time>2010-09-26T08:25:58Z</time>
      </trkpt>
      <trkpt lat="45.84045" lon="-0.75114">
        <ele>27</ele>
        <time>2010-09-26T08:26:01Z</time>
      </trkpt>
      <trkpt lat="45.8404" lon="-0.75116">
        <ele>27</ele>
        <time>2010-09-26T08:26:04Z</time>
      </trkpt>
      <trkpt lat="45.84034" lon="-0.75118">
        <ele>27</ele>
        <time>2010-09-26T08:26:08Z</time>
      </trkpt>
      <trkpt lat="45.84029" lon="-0.7512">
        <ele>27</ele>
        <time>2010-09-26T08:26:12Z</time>
      </trkpt>
      <trkpt lat="45.84024" lon="-0.75122">
        <ele>27</ele>
        <time>2010-09-26T08:26:16Z</time>
      </trkpt>
      <trkpt lat="45.84019" lon="-0.75124">
        <ele>27</ele>
        <time>2010-09-26T08:26:20Z</time>
      </trkpt>
      <trkpt lat="45.84014" lon="-0.75127">
        <ele>27</ele>
        <time>2010-09-26T08:26:24Z</time>
      </trkpt>
      <trkpt lat="45.8401" lon="-0.7513">
        <ele>27</ele>
        <time>2010-09-26T08:26:27Z</time>
      </trkpt>
      <trkpt lat="45.84005" lon="-0.75133">
        <ele>27</ele>
        <time>2010-09-26T08:26:31Z</time>
      </trkpt>
      <trkpt lat="45.84002" lon="-0.75134">
        <ele>27</ele>
        <time>2010-09-26T08:26:33Z</time>
      </trkpt>
      <trkpt lat="45.83998" lon="-0.75136">
        <ele>27</ele>
        <time>2010-09-26T08:26:37Z</time>
      </trkpt>
      <trkpt lat="45.83997" lon="-0.75136">
        <ele>27</ele>
        <time>2010-09-26T08:26:38Z</time>
      </trkpt>
      <trkpt lat="45.83992" lon="-0.75138">
        <ele>27</ele>
        <time>2010-09-26T08:26:41Z</time>
      </trkpt>
      <trkpt lat="45.83987" lon="-0.75138">
        <ele>27</ele>
        <time>2010-09-26T08:26:44Z</time>
      </trkpt>
      <trkpt lat="45.83982" lon="-0.75139">
        <ele>27</ele>
        <time>2010-09-26T08:26:47Z</time>
      </trkpt>
      <trkpt lat="45.83978" lon="-0.75142">
        <ele>27</ele>
        <time>2010-09-26T08:26:50Z</time>
      </trkpt>
      <trkpt lat="45.83974" lon="-0.75144">
        <ele>27</ele>
        <time>2010-09-26T08:26:53Z</time>
      </trkpt>
      <trkpt lat="45.83967" lon="-0.75146">
        <ele>27</ele>
        <time>2010-09-26T08:26:57Z</time>
      </trkpt>
      <trkpt lat="45.83962" lon="-0.75147">
        <ele>27</ele>
        <time>2010-09-26T08:27:00Z</time>
      </trkpt>
      <trkpt lat="45.83957" lon="-0.7515">
        <ele>27</ele>
        <time>2010-09-26T08:27:04Z</time>
      </trkpt>
      <trkpt lat="45.83952" lon="-0.75152">
        <ele>27</ele>
        <time>2010-09-26T08:27:08Z</time>
      </trkpt>
      <trkpt lat="45.83947" lon="-0.75155">
        <ele>27</ele>
        <time>2010-09-26T08:27:12Z</time>
      </trkpt>
      <trkpt lat="45.83942" lon="-0.75158">
        <ele>27</ele>
        <time>2010-09-26T08:27:16Z</time>
      </trkpt>
      <trkpt lat="45.83937" lon="-0.7516">
        <ele>27</ele>
        <time>2010-09-26T08:27:20Z</time>
      </trkpt>
      <trkpt lat="45.83931" lon="-0.75162">
        <ele>27</ele>
        <time>2010-09-26T08:27:24Z</time>
      </trkpt>
      <trkpt lat="45.83926" lon="-0.75164">
        <ele>27</ele>
        <time>2010-09-26T08:27:28Z</time>
      </trkpt>
      <trkpt lat="45.83919" lon="-0.75167">
        <ele>27</ele>
        <time>2010-09-26T08:27:32Z</time>
      </trkpt>
      <trkpt lat="45.83913" lon="-0.75166">
        <ele>27</ele>
        <time>2010-09-26T08:27:35Z</time>
      </trkpt>
      <trkpt lat="45.83907" lon="-0.75166">
        <ele>27</ele>
        <time>2010-09-26T08:27:39Z</time>
      </trkpt>
      <trkpt lat="45.83902" lon="-0.75167">
        <ele>27</ele>
        <time>2010-09-26T08:27:43Z</time>
      </trkpt>
      <trkpt lat="45.83897" lon="-0.75169">
        <ele>27</ele>
        <time>2010-09-26T08:27:47Z</time>
      </trkpt>
      <trkpt lat="45.83892" lon="-0.75172">
        <ele>28</ele>
        <time>2010-09-26T08:27:51Z</time>
      </trkpt>
      <trkpt lat="45.83887" lon="-0.75174">
        <ele>28</ele>
        <time>2010-09-26T08:27:55Z</time>
      </trkpt>
      <trkpt lat="45.83882" lon="-0.75178">
        <ele>28</ele>
        <time>2010-09-26T08:28:00Z</time>
      </trkpt>
      <trkpt lat="45.83879" lon="-0.75183">
        <ele>28</ele>
        <time>2010-09-26T08:28:04Z</time>
      </trkpt>
      <trkpt lat="45.83872" lon="-0.75186">
        <ele>28</ele>
        <time>2010-09-26T08:28:08Z</time>
      </trkpt>
      <trkpt lat="45.83867" lon="-0.75187">
        <ele>28</ele>
        <time>2010-09-26T08:28:11Z</time>
      </trkpt>
      <trkpt lat="45.8386" lon="-0.75187">
        <ele>28</ele>
        <time>2010-09-26T08:28:15Z</time>
      </trkpt>
      <trkpt lat="45.83855" lon="-0.75186">
        <ele>28</ele>
        <time>2010-09-26T08:28:18Z</time>
      </trkpt>
      <trkpt lat="45.8385" lon="-0.75186">
        <ele>28</ele>
        <time>2010-09-26T08:28:21Z</time>
      </trkpt>
      <trkpt lat="45.83845" lon="-0.75185">
        <ele>28</ele>
        <time>2010-09-26T08:28:24Z</time>
      </trkpt>
      <trkpt lat="45.8384" lon="-0.75185">
        <ele>28</ele>
        <time>2010-09-26T08:28:27Z</time>
      </trkpt>
      <trkpt lat="45.83834" lon="-0.75184">
        <ele>28</ele>
        <time>2010-09-26T08:28:31Z</time>
      </trkpt>
      <trkpt lat="45.83829" lon="-0.75185">
        <ele>27</ele>
        <time>2010-09-26T08:28:35Z</time>
      </trkpt>
      <trkpt lat="45.83824" lon="-0.75186">
        <ele>27</ele>
        <time>2010-09-26T08:28:38Z</time>
      </trkpt>
      <trkpt lat="45.83818" lon="-0.75184">
        <ele>27</ele>
        <time>2010-09-26T08:28:43Z</time>
      </trkpt>
      <trkpt lat="45.83813" lon="-0.75186">
        <ele>27</ele>
        <time>2010-09-26T08:28:47Z</time>
      </trkpt>
      <trkpt lat="45.83808" lon="-0.75186">
        <ele>27</ele>
        <time>2010-09-26T08:28:51Z</time>
      </trkpt>
      <trkpt lat="45.83802" lon="-0.75186">
        <ele>27</ele>
        <time>2010-09-26T08:28:55Z</time>
      </trkpt>
      <trkpt lat="45.83798" lon="-0.75188">
        <ele>27</ele>
        <time>2010-09-26T08:28:59Z</time>
      </trkpt>
      <trkpt lat="45.83792" lon="-0.75188">
        <ele>27</ele>
        <time>2010-09-26T08:29:03Z</time>
      </trkpt>
      <trkpt lat="45.83787" lon="-0.75188">
        <ele>27</ele>
        <time>2010-09-26T08:29:08Z</time>
      </trkpt>
      <trkpt lat="45.83782" lon="-0.75189">
        <ele>27</ele>
        <time>2010-09-26T08:29:11Z</time>
      </trkpt>
      <trkpt lat="45.83777" lon="-0.75189">
        <ele>27</ele>
        <time>2010-09-26T08:29:14Z</time>
      </trkpt>
      <trkpt lat="45.83772" lon="-0.75188">
        <ele>27</ele>
        <time>2010-09-26T08:29:17Z</time>
      </trkpt>
      <trkpt lat="45.83766" lon="-0.75188">
        <ele>27</ele>
        <time>2010-09-26T08:29:21Z</time>
      </trkpt>
      <trkpt lat="45.83761" lon="-0.75188">
        <ele>27</ele>
        <time>2010-09-26T08:29:24Z</time>
      </trkpt>
      <trkpt lat="45.83756" lon="-0.75188">
        <ele>27</ele>
        <time>2010-09-26T08:29:27Z</time>
      </trkpt>
      <trkpt lat="45.83751" lon="-0.75189">
        <ele>27</ele>
        <time>2010-09-26T08:29:30Z</time>
      </trkpt>
      <trkpt lat="45.83746" lon="-0.7519">
        <ele>26</ele>
        <time>2010-09-26T08:29:33Z</time>
      </trkpt>
      <trkpt lat="45.83741" lon="-0.7519">
        <ele>26</ele>
        <time>2010-09-26T08:29:36Z</time>
      </trkpt>
      <trkpt lat="45.83735" lon="-0.75191">
        <ele>26</ele>
        <time>2010-09-26T08:29:40Z</time>
      </trkpt>
      <trkpt lat="45.8373" lon="-0.75193">
        <ele>26</ele>
        <time>2010-09-26T08:29:43Z</time>
      </trkpt>
      <trkpt lat="45.83725" lon="-0.75193">
        <ele>26</ele>
        <time>2010-09-26T08:29:46Z</time>
      </trkpt>
      <trkpt lat="45.8372" lon="-0.75191">
        <ele>26</ele>
        <time>2010-09-26T08:29:49Z</time>
      </trkpt>
      <trkpt lat="45.83714" lon="-0.75191">
        <ele>26</ele>
        <time>2010-09-26T08:29:53Z</time>
      </trkpt>
      <trkpt lat="45.83708" lon="-0.7519">
        <ele>26</ele>
        <time>2010-09-26T08:29:57Z</time>
      </trkpt>
      <trkpt lat="45.83703" lon="-0.75188">
        <ele>26</ele>
        <time>2010-09-26T08:30:00Z</time>
      </trkpt>
      <trkpt lat="45.83697" lon="-0.75185">
        <ele>26</ele>
        <time>2010-09-26T08:30:04Z</time>
      </trkpt>
      <trkpt lat="45.83691" lon="-0.75184">
        <ele>26</ele>
        <time>2010-09-26T08:30:08Z</time>
      </trkpt>
      <trkpt lat="45.83687" lon="-0.75184">
        <ele>26</ele>
        <time>2010-09-26T08:30:12Z</time>
      </trkpt>
      <trkpt lat="45.83681" lon="-0.75183">
        <ele>26</ele>
        <time>2010-09-26T08:30:16Z</time>
      </trkpt>
      <trkpt lat="45.83676" lon="-0.75183">
        <ele>26</ele>
        <time>2010-09-26T08:30:19Z</time>
      </trkpt>
      <trkpt lat="45.83671" lon="-0.75183">
        <ele>26</ele>
        <time>2010-09-26T08:30:22Z</time>
      </trkpt>
      <trkpt lat="45.83666" lon="-0.75182">
        <ele>25</ele>
        <time>2010-09-26T08:30:25Z</time>
      </trkpt>
      <trkpt lat="45.83661" lon="-0.75182">
        <ele>25</ele>
        <time>2010-09-26T08:30:29Z</time>
      </trkpt>
      <trkpt lat="45.83656" lon="-0.75182">
        <ele>25</ele>
        <time>2010-09-26T08:30:32Z</time>
      </trkpt>
      <trkpt lat="45.83651" lon="-0.75183">
        <ele>25</ele>
        <time>2010-09-26T08:30:36Z</time>
      </trkpt>
      <trkpt lat="45.83645" lon="-0.75182">
        <ele>25</ele>
        <time>2010-09-26T08:30:40Z</time>
      </trkpt>
      <trkpt lat="45.8364" lon="-0.75183">
        <ele>25</ele>
        <time>2010-09-26T08:30:43Z</time>
      </trkpt>
      <trkpt lat="45.83635" lon="-0.75184">
        <ele>24</ele>
        <time>2010-09-26T08:30:46Z</time>
      </trkpt>
      <trkpt lat="45.83629" lon="-0.75184">
        <ele>24</ele>
        <time>2010-09-26T08:30:49Z</time>
      </trkpt>
      <trkpt lat="45.83624" lon="-0.75184">
        <ele>24</ele>
        <time>2010-09-26T08:30:52Z</time>
      </trkpt>
      <trkpt lat="45.83618" lon="-0.75184">
        <ele>24</ele>
        <time>2010-09-26T08:30:55Z</time>
      </trkpt>
      <trkpt lat="45.83614" lon="-0.75185">
        <ele>24</ele>
        <time>2010-09-26T08:30:59Z</time>
      </trkpt>
      <trkpt lat="45.83608" lon="-0.75185">
        <ele>24</ele>
        <time>2010-09-26T08:31:03Z</time>
      </trkpt>
      <trkpt lat="45.83602" lon="-0.75183">
        <ele>24</ele>
        <time>2010-09-26T08:31:07Z</time>
      </trkpt>
      <trkpt lat="45.83596" lon="-0.75183">
        <ele>24</ele>
        <time>2010-09-26T08:31:11Z</time>
      </trkpt>
      <trkpt lat="45.83591" lon="-0.75182">
        <ele>24</ele>
        <time>2010-09-26T08:31:14Z</time>
      </trkpt>
      <trkpt lat="45.83585" lon="-0.7518">
        <ele>24</ele>
        <time>2010-09-26T08:31:18Z</time>
      </trkpt>
      <trkpt lat="45.83579" lon="-0.75178">
        <ele>23</ele>
        <time>2010-09-26T08:31:22Z</time>
      </trkpt>
      <trkpt lat="45.83574" lon="-0.75177">
        <ele>23</ele>
        <time>2010-09-26T08:31:25Z</time>
      </trkpt>
      <trkpt lat="45.8357" lon="-0.75175">
        <ele>23</ele>
        <time>2010-09-26T08:31:28Z</time>
      </trkpt>
      <trkpt lat="45.83565" lon="-0.75174">
        <ele>22</ele>
        <time>2010-09-26T08:31:31Z</time>
      </trkpt>
      <trkpt lat="45.83559" lon="-0.75173">
        <ele>22</ele>
        <time>2010-09-26T08:31:35Z</time>
      </trkpt>
      <trkpt lat="45.83555" lon="-0.75174">
        <ele>22</ele>
        <time>2010-09-26T08:31:38Z</time>
      </trkpt>
      <trkpt lat="45.8355" lon="-0.75173">
        <ele>22</ele>
        <time>2010-09-26T08:31:41Z</time>
      </trkpt>
      <trkpt lat="45.83544" lon="-0.75174">
        <ele>22</ele>
        <time>2010-09-26T08:31:44Z</time>
      </trkpt>
      <trkpt lat="45.83538" lon="-0.75175">
        <ele>21</ele>
        <time>2010-09-26T08:31:48Z</time>
      </trkpt>
      <trkpt lat="45.83533" lon="-0.75174">
        <ele>21</ele>
        <time>2010-09-26T08:31:52Z</time>
      </trkpt>
      <trkpt lat="45.83527" lon="-0.75174">
        <ele>21</ele>
        <time>2010-09-26T08:31:56Z</time>
      </trkpt>
      <trkpt lat="45.83522" lon="-0.75175">
        <ele>21</ele>
        <time>2010-09-26T08:31:59Z</time>
      </trkpt>
      <trkpt lat="45.83517" lon="-0.75174">
        <ele>21</ele>
        <time>2010-09-26T08:32:03Z</time>
      </trkpt>
      <trkpt lat="45.83512" lon="-0.75174">
        <ele>21</ele>
        <time>2010-09-26T08:32:06Z</time>
      </trkpt>
      <trkpt lat="45.83506" lon="-0.75173">
        <ele>20</ele>
        <time>2010-09-26T08:32:10Z</time>
      </trkpt>
      <trkpt lat="45.835" lon="-0.75171">
        <ele>20</ele>
        <time>2010-09-26T08:32:14Z</time>
      </trkpt>
      <trkpt lat="45.83495" lon="-0.75168">
        <ele>20</ele>
        <time>2010-09-26T08:32:18Z</time>
      </trkpt>
      <trkpt lat="45.83491" lon="-0.75166">
        <ele>20</ele>
        <time>2010-09-26T08:32:21Z</time>
      </trkpt>
      <trkpt lat="45.83486" lon="-0.75162">
        <ele>20</ele>
        <time>2010-09-26T08:32:24Z</time>
      </trkpt>
      <trkpt lat="45.83481" lon="-0.75158">
        <ele>21</ele>
        <time>2010-09-26T08:32:27Z</time>
      </trkpt>
      <trkpt lat="45.83476" lon="-0.75155">
        <ele>21</ele>
        <time>2010-09-26T08:32:31Z</time>
      </trkpt>
      <trkpt lat="45.8347" lon="-0.75154">
        <ele>21</ele>
        <time>2010-09-26T08:32:35Z</time>
      </trkpt>
      <trkpt lat="45.83466" lon="-0.7515">
        <ele>21</ele>
        <time>2010-09-26T08:32:39Z</time>
      </trkpt>
      <trkpt lat="45.8346" lon="-0.7515">
        <ele>21</ele>
        <time>2010-09-26T08:32:44Z</time>
      </trkpt>
      <trkpt lat="45.83455" lon="-0.7515">
        <ele>21</ele>
        <time>2010-09-26T08:32:50Z</time>
      </trkpt>
      <trkpt lat="45.83454" lon="-0.7515">
        <ele>21</ele>
        <time>2010-09-26T08:32:51Z</time>
      </trkpt>
      <trkpt lat="45.8345" lon="-0.75148">
        <ele>21</ele>
        <time>2010-09-26T08:32:54Z</time>
      </trkpt>
      <trkpt lat="45.83448" lon="-0.75147">
        <ele>21</ele>
        <time>2010-09-26T08:32:55Z</time>
      </trkpt>
      <trkpt lat="45.83443" lon="-0.75145">
        <ele>21</ele>
        <time>2010-09-26T08:32:59Z</time>
      </trkpt>
      <trkpt lat="45.83437" lon="-0.75143">
        <ele>21</ele>
        <time>2010-09-26T08:33:03Z</time>
      </trkpt>
      <trkpt lat="45.83432" lon="-0.75143">
        <ele>21</ele>
        <time>2010-09-26T08:33:08Z</time>
      </trkpt>
      <trkpt lat="45.83426" lon="-0.7514">
        <ele>21</ele>
        <time>2010-09-26T08:33:12Z</time>
      </trkpt>
      <trkpt lat="45.8342" lon="-0.7514">
        <ele>21</ele>
        <time>2010-09-26T08:33:15Z</time>
      </trkpt>
      <trkpt lat="45.83417" lon="-0.75144">
        <ele>21</ele>
        <time>2010-09-26T08:33:19Z</time>
      </trkpt>
      <trkpt lat="45.83416" lon="-0.75151">
        <ele>21</ele>
        <time>2010-09-26T08:33:26Z</time>
      </trkpt>
      <trkpt lat="45.83415" lon="-0.75158">
        <ele>21</ele>
        <time>2010-09-26T08:33:34Z</time>
      </trkpt>
      <trkpt lat="45.83413" lon="-0.75165">
        <ele>20</ele>
        <time>2010-09-26T08:33:38Z</time>
      </trkpt>
      <trkpt lat="45.83415" lon="-0.75172">
        <ele>21</ele>
        <time>2010-09-26T08:33:43Z</time>
      </trkpt>
      <trkpt lat="45.83413" lon="-0.75179">
        <ele>21</ele>
        <time>2010-09-26T08:33:50Z</time>
      </trkpt>
      <trkpt lat="45.8341" lon="-0.75186">
        <ele>21</ele>
        <time>2010-09-26T08:33:54Z</time>
      </trkpt>
      <trkpt lat="45.83408" lon="-0.75193">
        <ele>22</ele>
        <time>2010-09-26T08:33:58Z</time>
      </trkpt>
      <trkpt lat="45.83404" lon="-0.75199">
        <ele>22</ele>
        <time>2010-09-26T08:34:02Z</time>
      </trkpt>
      <trkpt lat="45.83401" lon="-0.75204">
        <ele>22</ele>
        <time>2010-09-26T08:34:06Z</time>
      </trkpt>
      <trkpt lat="45.83398" lon="-0.75211">
        <ele>22</ele>
        <time>2010-09-26T08:34:10Z</time>
      </trkpt>
      <trkpt lat="45.834" lon="-0.75218">
        <ele>22</ele>
        <time>2010-09-26T08:34:14Z</time>
      </trkpt>
      <trkpt lat="45.83397" lon="-0.75224">
        <ele>23</ele>
        <time>2010-09-26T08:34:19Z</time>
      </trkpt>
      <trkpt lat="45.83398" lon="-0.75231">
        <ele>23</ele>
        <time>2010-09-26T08:34:24Z</time>
      </trkpt>
      <trkpt lat="45.834" lon="-0.75238">
        <ele>23</ele>
        <time>2010-09-26T08:34:27Z</time>
      </trkpt>
      <trkpt lat="45.83405" lon="-0.75244">
        <ele>23</ele>
        <time>2010-09-26T08:34:31Z</time>
      </trkpt>
      <trkpt lat="45.83409" lon="-0.75249">
        <ele>23</ele>
        <time>2010-09-26T08:34:35Z</time>
      </trkpt>
      <trkpt lat="45.83413" lon="-0.75253">
        <ele>23</ele>
        <time>2010-09-26T08:34:40Z</time>
      </trkpt>
      <trkpt lat="45.83417" lon="-0.75257">
        <ele>23</ele>
        <time>2010-09-26T08:34:45Z</time>
      </trkpt>
      <trkpt lat="45.83417" lon="-0.75265">
        <ele>23</ele>
        <time>2010-09-26T08:34:49Z</time>
      </trkpt>
      <trkpt lat="45.8342" lon="-0.75272">
        <ele>23</ele>
        <time>2010-09-26T08:34:53Z</time>
      </trkpt>
      <trkpt lat="45.83423" lon="-0.75278">
        <ele>23</ele>
        <time>2010-09-26T08:34:57Z</time>
      </trkpt>
      <trkpt lat="45.83426" lon="-0.75284">
        <ele>23</ele>
        <time>2010-09-26T08:35:00Z</time>
      </trkpt>
      <trkpt lat="45.83425" lon="-0.75291">
        <ele>23</ele>
        <time>2010-09-26T08:35:03Z</time>
      </trkpt>
      <trkpt lat="45.83424" lon="-0.75299">
        <ele>24</ele>
        <time>2010-09-26T08:35:08Z</time>
      </trkpt>
      <trkpt lat="45.83426" lon="-0.75305">
        <ele>24</ele>
        <time>2010-09-26T08:35:12Z</time>
      </trkpt>
      <trkpt lat="45.83427" lon="-0.75313">
        <ele>24</ele>
        <time>2010-09-26T08:35:16Z</time>
      </trkpt>
      <trkpt lat="45.83431" lon="-0.75319">
        <ele>24</ele>
        <time>2010-09-26T08:35:20Z</time>
      </trkpt>
      <trkpt lat="45.83431" lon="-0.75328">
        <ele>25</ele>
        <time>2010-09-26T08:35:24Z</time>
      </trkpt>
      <trkpt lat="45.8343" lon="-0.75334">
        <ele>25</ele>
        <time>2010-09-26T08:35:27Z</time>
      </trkpt>
      <trkpt lat="45.83429" lon="-0.75341">
        <ele>25</ele>
        <time>2010-09-26T08:35:30Z</time>
      </trkpt>
      <trkpt lat="45.83426" lon="-0.75348">
        <ele>25</ele>
        <time>2010-09-26T08:35:34Z</time>
      </trkpt>
      <trkpt lat="45.83426" lon="-0.75356">
        <ele>25</ele>
        <time>2010-09-26T08:35:38Z</time>
      </trkpt>
      <trkpt lat="45.83427" lon="-0.75363">
        <ele>25</ele>
        <time>2010-09-26T08:35:41Z</time>
      </trkpt>
      <trkpt lat="45.83429" lon="-0.75369">
        <ele>25</ele>
        <time>2010-09-26T08:35:44Z</time>
      </trkpt>
      <trkpt lat="45.83427" lon="-0.75375">
        <ele>24</ele>
        <time>2010-09-26T08:35:49Z</time>
      </trkpt>
      <trkpt lat="45.83423" lon="-0.75381">
        <ele>24</ele>
        <time>2010-09-26T08:35:53Z</time>
      </trkpt>
      <trkpt lat="45.83419" lon="-0.75386">
        <ele>25</ele>
        <time>2010-09-26T08:35:56Z</time>
      </trkpt>
      <trkpt lat="45.83415" lon="-0.7539">
        <ele>26</ele>
        <time>2010-09-26T08:36:00Z</time>
      </trkpt>
      <trkpt lat="45.83412" lon="-0.75396">
        <ele>26</ele>
        <time>2010-09-26T08:36:04Z</time>
      </trkpt>
      <trkpt lat="45.83408" lon="-0.75401">
        <ele>26</ele>
        <time>2010-09-26T08:36:08Z</time>
      </trkpt>
      <trkpt lat="45.83404" lon="-0.75404">
        <ele>26</ele>
        <time>2010-09-26T08:36:12Z</time>
      </trkpt>
      <trkpt lat="45.83403" lon="-0.75411">
        <ele>26</ele>
        <time>2010-09-26T08:36:20Z</time>
      </trkpt>
      <trkpt lat="45.83405" lon="-0.75417">
        <ele>25</ele>
        <time>2010-09-26T08:36:24Z</time>
      </trkpt>
      <trkpt lat="45.83407" lon="-0.75424">
        <ele>25</ele>
        <time>2010-09-26T08:36:28Z</time>
      </trkpt>
      <trkpt lat="45.83408" lon="-0.75432">
        <ele>26</ele>
        <time>2010-09-26T08:36:32Z</time>
      </trkpt>
      <trkpt lat="45.83412" lon="-0.75439">
        <ele>26</ele>
        <time>2010-09-26T08:36:36Z</time>
      </trkpt>
      <trkpt lat="45.83415" lon="-0.75444">
        <ele>26</ele>
        <time>2010-09-26T08:36:39Z</time>
      </trkpt>
      <trkpt lat="45.83419" lon="-0.75449">
        <ele>24</ele>
        <time>2010-09-26T08:36:43Z</time>
      </trkpt>
      <trkpt lat="45.83423" lon="-0.75454">
        <ele>24</ele>
        <time>2010-09-26T08:36:47Z</time>
      </trkpt>
      <trkpt lat="45.83425" lon="-0.75461">
        <ele>24</ele>
        <time>2010-09-26T08:36:51Z</time>
      </trkpt>
      <trkpt lat="45.83428" lon="-0.75467">
        <ele>24</ele>
        <time>2010-09-26T08:36:54Z</time>
      </trkpt>
      <trkpt lat="45.83431" lon="-0.75473">
        <ele>24</ele>
        <time>2010-09-26T08:36:57Z</time>
      </trkpt>
      <trkpt lat="45.83434" lon="-0.75477">
        <ele>24</ele>
        <time>2010-09-26T08:37:02Z</time>
      </trkpt>
      <trkpt lat="45.83437" lon="-0.75482">
        <ele>24</ele>
        <time>2010-09-26T08:37:07Z</time>
      </trkpt>
      <trkpt lat="45.83441" lon="-0.75486">
        <ele>24</ele>
        <time>2010-09-26T08:37:10Z</time>
      </trkpt>
      <trkpt lat="45.83445" lon="-0.7549">
        <ele>24</ele>
        <time>2010-09-26T08:37:13Z</time>
      </trkpt>
      <trkpt lat="45.83448" lon="-0.75494">
        <ele>24</ele>
        <time>2010-09-26T08:37:17Z</time>
      </trkpt>
      <trkpt lat="45.83453" lon="-0.75498">
        <ele>24</ele>
        <time>2010-09-26T08:37:22Z</time>
      </trkpt>
      <trkpt lat="45.83457" lon="-0.75501">
        <ele>24</ele>
        <time>2010-09-26T08:37:27Z</time>
      </trkpt>
      <trkpt lat="45.83462" lon="-0.75505">
        <ele>24</ele>
        <time>2010-09-26T08:37:31Z</time>
      </trkpt>
      <trkpt lat="45.83467" lon="-0.75508">
        <ele>24</ele>
        <time>2010-09-26T08:37:34Z</time>
      </trkpt>
      <trkpt lat="45.83471" lon="-0.75511">
        <ele>24</ele>
        <time>2010-09-26T08:37:37Z</time>
      </trkpt>
      <trkpt lat="45.83476" lon="-0.75513">
        <ele>24</ele>
        <time>2010-09-26T08:37:40Z</time>
      </trkpt>
      <trkpt lat="45.83481" lon="-0.75515">
        <ele>24</ele>
        <time>2010-09-26T08:37:43Z</time>
      </trkpt>
      <trkpt lat="45.83486" lon="-0.75517">
        <ele>24</ele>
        <time>2010-09-26T08:37:47Z</time>
      </trkpt>
      <trkpt lat="45.83491" lon="-0.75517">
        <ele>24</ele>
        <time>2010-09-26T08:37:50Z</time>
      </trkpt>
      <trkpt lat="45.83496" lon="-0.75515">
        <ele>24</ele>
        <time>2010-09-26T08:37:54Z</time>
      </trkpt>
      <trkpt lat="45.83501" lon="-0.75515">
        <ele>24</ele>
        <time>2010-09-26T08:37:58Z</time>
      </trkpt>
      <trkpt lat="45.83507" lon="-0.75517">
        <ele>24</ele>
        <time>2010-09-26T08:38:02Z</time>
      </trkpt>
      <trkpt lat="45.83512" lon="-0.75518">
        <ele>24</ele>
        <time>2010-09-26T08:38:06Z</time>
      </trkpt>
      <trkpt lat="45.83516" lon="-0.75519">
        <ele>24</ele>
        <time>2010-09-26T08:38:09Z</time>
      </trkpt>
      <trkpt lat="45.83521" lon="-0.75521">
        <ele>24</ele>
        <time>2010-09-26T08:38:12Z</time>
      </trkpt>
      <trkpt lat="45.83527" lon="-0.75522">
        <ele>24</ele>
        <time>2010-09-26T08:38:16Z</time>
      </trkpt>
      <trkpt lat="45.83533" lon="-0.75523">
        <ele>24</ele>
        <time>2010-09-26T08:38:20Z</time>
      </trkpt>
      <trkpt lat="45.83537" lon="-0.75525">
        <ele>24</ele>
        <time>2010-09-26T08:38:23Z</time>
      </trkpt>
      <trkpt lat="45.83542" lon="-0.75527">
        <ele>24</ele>
        <time>2010-09-26T08:38:27Z</time>
      </trkpt>
      <trkpt lat="45.83548" lon="-0.75529">
        <ele>24</ele>
        <time>2010-09-26T08:38:31Z</time>
      </trkpt>
      <trkpt lat="45.83553" lon="-0.75531">
        <ele>24</ele>
        <time>2010-09-26T08:38:35Z</time>
      </trkpt>
      <trkpt lat="45.83559" lon="-0.75534">
        <ele>24</ele>
        <time>2010-09-26T08:38:39Z</time>
      </trkpt>
      <trkpt lat="45.83564" lon="-0.75535">
        <ele>24</ele>
        <time>2010-09-26T08:38:42Z</time>
      </trkpt>
      <trkpt lat="45.83569" lon="-0.75538">
        <ele>24</ele>
        <time>2010-09-26T08:38:45Z</time>
      </trkpt>
      <trkpt lat="45.83574" lon="-0.7554">
        <ele>24</ele>
        <time>2010-09-26T08:38:49Z</time>
      </trkpt>
      <trkpt lat="45.83579" lon="-0.75543">
        <ele>25</ele>
        <time>2010-09-26T08:38:53Z</time>
      </trkpt>
      <trkpt lat="45.83583" lon="-0.75545">
        <ele>25</ele>
        <time>2010-09-26T08:38:56Z</time>
      </trkpt>
      <trkpt lat="45.83587" lon="-0.75549">
        <ele>23</ele>
        <time>2010-09-26T08:39:00Z</time>
      </trkpt>
      <trkpt lat="45.83592" lon="-0.75552">
        <ele>23</ele>
        <time>2010-09-26T08:39:03Z</time>
      </trkpt>
      <trkpt lat="45.83596" lon="-0.75555">
        <ele>23</ele>
        <time>2010-09-26T08:39:06Z</time>
      </trkpt>
      <trkpt lat="45.836" lon="-0.75559">
        <ele>23</ele>
        <time>2010-09-26T08:39:09Z</time>
      </trkpt>
      <trkpt lat="45.83604" lon="-0.75562">
        <ele>23</ele>
        <time>2010-09-26T08:39:12Z</time>
      </trkpt>
      <trkpt lat="45.83609" lon="-0.75566">
        <ele>23</ele>
        <time>2010-09-26T08:39:16Z</time>
      </trkpt>
      <trkpt lat="45.83614" lon="-0.75569">
        <ele>23</ele>
        <time>2010-09-26T08:39:19Z</time>
      </trkpt>
      <trkpt lat="45.83618" lon="-0.75572">
        <ele>23</ele>
        <time>2010-09-26T08:39:22Z</time>
      </trkpt>
      <trkpt lat="45.83623" lon="-0.75577">
        <ele>23</ele>
        <time>2010-09-26T08:39:26Z</time>
      </trkpt>
      <trkpt lat="45.83629" lon="-0.7558">
        <ele>23</ele>
        <time>2010-09-26T08:39:30Z</time>
      </trkpt>
      <trkpt lat="45.83633" lon="-0.75583">
        <ele>23</ele>
        <time>2010-09-26T08:39:33Z</time>
      </trkpt>
      <trkpt lat="45.83638" lon="-0.75587">
        <ele>23</ele>
        <time>2010-09-26T08:39:37Z</time>
      </trkpt>
      <trkpt lat="45.83641" lon="-0.75592">
        <ele>23</ele>
        <time>2010-09-26T08:39:41Z</time>
      </trkpt>
      <trkpt lat="45.83642" lon="-0.756">
        <ele>23</ele>
        <time>2010-09-26T08:39:46Z</time>
      </trkpt>
      <trkpt lat="45.83646" lon="-0.75606">
        <ele>23</ele>
        <time>2010-09-26T08:39:50Z</time>
      </trkpt>
      <trkpt lat="45.83649" lon="-0.75613">
        <ele>24</ele>
        <time>2010-09-26T08:39:54Z</time>
      </trkpt>
      <trkpt lat="45.83652" lon="-0.75618">
        <ele>24</ele>
        <time>2010-09-26T08:39:58Z</time>
      </trkpt>
      <trkpt lat="45.83655" lon="-0.75623">
        <ele>24</ele>
        <time>2010-09-26T08:40:01Z</time>
      </trkpt>
      <trkpt lat="45.83659" lon="-0.7563">
        <ele>24</ele>
        <time>2010-09-26T08:40:04Z</time>
      </trkpt>
      <trkpt lat="45.83663" lon="-0.75636">
        <ele>24</ele>
        <time>2010-09-26T08:40:08Z</time>
      </trkpt>
      <trkpt lat="45.83667" lon="-0.75642">
        <ele>24</ele>
        <time>2010-09-26T08:40:11Z</time>
      </trkpt>
      <trkpt lat="45.83669" lon="-0.75647">
        <ele>23</ele>
        <time>2010-09-26T08:40:14Z</time>
      </trkpt>
      <trkpt lat="45.83672" lon="-0.75653">
        <ele>23</ele>
        <time>2010-09-26T08:40:19Z</time>
      </trkpt>
      <trkpt lat="45.83674" lon="-0.7566">
        <ele>24</ele>
        <time>2010-09-26T08:40:22Z</time>
      </trkpt>
      <trkpt lat="45.83676" lon="-0.75666">
        <ele>24</ele>
        <time>2010-09-26T08:40:25Z</time>
      </trkpt>
      <trkpt lat="45.8368" lon="-0.75672">
        <ele>24</ele>
        <time>2010-09-26T08:40:29Z</time>
      </trkpt>
      <trkpt lat="45.83683" lon="-0.75678">
        <ele>24</ele>
        <time>2010-09-26T08:40:33Z</time>
      </trkpt>
      <trkpt lat="45.83686" lon="-0.75684">
        <ele>24</ele>
        <time>2010-09-26T08:40:36Z</time>
      </trkpt>
      <trkpt lat="45.83689" lon="-0.75689">
        <ele>24</ele>
        <time>2010-09-26T08:40:39Z</time>
      </trkpt>
      <trkpt lat="45.83693" lon="-0.75695">
        <ele>23</ele>
        <time>2010-09-26T08:40:42Z</time>
      </trkpt>
      <trkpt lat="45.83696" lon="-0.75699">
        <ele>23</ele>
        <time>2010-09-26T08:40:45Z</time>
      </trkpt>
      <trkpt lat="45.83699" lon="-0.75704">
        <ele>23</ele>
        <time>2010-09-26T08:40:49Z</time>
      </trkpt>
      <trkpt lat="45.83703" lon="-0.7571">
        <ele>23</ele>
        <time>2010-09-26T08:40:53Z</time>
      </trkpt>
      <trkpt lat="45.83706" lon="-0.75715">
        <ele>23</ele>
        <time>2010-09-26T08:40:56Z</time>
      </trkpt>
      <trkpt lat="45.83711" lon="-0.7572">
        <ele>23</ele>
        <time>2010-09-26T08:40:59Z</time>
      </trkpt>
      <trkpt lat="45.83714" lon="-0.75727">
        <ele>23</ele>
        <time>2010-09-26T08:41:03Z</time>
      </trkpt>
      <trkpt lat="45.83718" lon="-0.75733">
        <ele>23</ele>
        <time>2010-09-26T08:41:06Z</time>
      </trkpt>
      <trkpt lat="45.8372" lon="-0.75741">
        <ele>23</ele>
        <time>2010-09-26T08:41:10Z</time>
      </trkpt>
      <trkpt lat="45.83722" lon="-0.75747">
        <ele>23</ele>
        <time>2010-09-26T08:41:13Z</time>
      </trkpt>
      <trkpt lat="45.83724" lon="-0.75754">
        <ele>23</ele>
        <time>2010-09-26T08:41:17Z</time>
      </trkpt>
      <trkpt lat="45.83727" lon="-0.75762">
        <ele>23</ele>
        <time>2010-09-26T08:41:20Z</time>
      </trkpt>
      <trkpt lat="45.8373" lon="-0.75767">
        <ele>23</ele>
        <time>2010-09-26T08:41:23Z</time>
      </trkpt>
      <trkpt lat="45.83734" lon="-0.75773">
        <ele>23</ele>
        <time>2010-09-26T08:41:27Z</time>
      </trkpt>
      <trkpt lat="45.83736" lon="-0.75779">
        <ele>23</ele>
        <time>2010-09-26T08:41:30Z</time>
      </trkpt>
      <trkpt lat="45.83738" lon="-0.75785">
        <ele>23</ele>
        <time>2010-09-26T08:41:33Z</time>
      </trkpt>
      <trkpt lat="45.8374" lon="-0.75793">
        <ele>23</ele>
        <time>2010-09-26T08:41:37Z</time>
      </trkpt>
      <trkpt lat="45.83742" lon="-0.75799">
        <ele>23</ele>
        <time>2010-09-26T08:41:40Z</time>
      </trkpt>
      <trkpt lat="45.83745" lon="-0.75806">
        <ele>23</ele>
        <time>2010-09-26T08:41:43Z</time>
      </trkpt>
      <trkpt lat="45.83748" lon="-0.75812">
        <ele>23</ele>
        <time>2010-09-26T08:41:46Z</time>
      </trkpt>
      <trkpt lat="45.83751" lon="-0.75818">
        <ele>22</ele>
        <time>2010-09-26T08:41:49Z</time>
      </trkpt>
      <trkpt lat="45.83754" lon="-0.75826">
        <ele>22</ele>
        <time>2010-09-26T08:41:53Z</time>
      </trkpt>
      <trkpt lat="45.83756" lon="-0.75832">
        <ele>22</ele>
        <time>2010-09-26T08:41:57Z</time>
      </trkpt>
      <trkpt lat="45.83759" lon="-0.75839">
        <ele>22</ele>
        <time>2010-09-26T08:42:01Z</time>
      </trkpt>
      <trkpt lat="45.83761" lon="-0.75846">
        <ele>22</ele>
        <time>2010-09-26T08:42:05Z</time>
      </trkpt>
      <trkpt lat="45.83765" lon="-0.75852">
        <ele>22</ele>
        <time>2010-09-26T08:42:09Z</time>
      </trkpt>
      <trkpt lat="45.83769" lon="-0.75859">
        <ele>22</ele>
        <time>2010-09-26T08:42:13Z</time>
      </trkpt>
      <trkpt lat="45.8377" lon="-0.75866">
        <ele>21</ele>
        <time>2010-09-26T08:42:17Z</time>
      </trkpt>
      <trkpt lat="45.83773" lon="-0.75874">
        <ele>21</ele>
        <time>2010-09-26T08:42:21Z</time>
      </trkpt>
      <trkpt lat="45.83772" lon="-0.75881">
        <ele>21</ele>
        <time>2010-09-26T08:42:24Z</time>
      </trkpt>
      <trkpt lat="45.83771" lon="-0.75888">
        <ele>21</ele>
        <time>2010-09-26T08:42:27Z</time>
      </trkpt>
      <trkpt lat="45.83771" lon="-0.75895">
        <ele>22</ele>
        <time>2010-09-26T08:42:32Z</time>
      </trkpt>
      <trkpt lat="45.8377" lon="-0.75902">
        <ele>22</ele>
        <time>2010-09-26T08:42:35Z</time>
      </trkpt>
      <trkpt lat="45.8377" lon="-0.75908">
        <ele>22</ele>
        <time>2010-09-26T08:42:38Z</time>
      </trkpt>
      <trkpt lat="45.83773" lon="-0.75914">
        <ele>22</ele>
        <time>2010-09-26T08:42:41Z</time>
      </trkpt>
      <trkpt lat="45.83775" lon="-0.75922">
        <ele>22</ele>
        <time>2010-09-26T08:42:44Z</time>
      </trkpt>
      <trkpt lat="45.83778" lon="-0.7593">
        <ele>21</ele>
        <time>2010-09-26T08:42:48Z</time>
      </trkpt>
      <trkpt lat="45.83781" lon="-0.75934">
        <ele>21</ele>
        <time>2010-09-26T08:42:51Z</time>
      </trkpt>
      <trkpt lat="45.83784" lon="-0.7594">
        <ele>21</ele>
        <time>2010-09-26T08:42:54Z</time>
      </trkpt>
      <trkpt lat="45.83786" lon="-0.75946">
        <ele>21</ele>
        <time>2010-09-26T08:42:58Z</time>
      </trkpt>
      <trkpt lat="45.83788" lon="-0.75953">
        <ele>21</ele>
        <time>2010-09-26T08:43:02Z</time>
      </trkpt>
      <trkpt lat="45.83791" lon="-0.7596">
        <ele>21</ele>
        <time>2010-09-26T08:43:06Z</time>
      </trkpt>
      <trkpt lat="45.83791" lon="-0.75967">
        <ele>21</ele>
        <time>2010-09-26T08:43:10Z</time>
      </trkpt>
      <trkpt lat="45.83793" lon="-0.75975">
        <ele>20</ele>
        <time>2010-09-26T08:43:14Z</time>
      </trkpt>
      <trkpt lat="45.83798" lon="-0.7598">
        <ele>20</ele>
        <time>2010-09-26T08:43:17Z</time>
      </trkpt>
      <trkpt lat="45.83801" lon="-0.75986">
        <ele>20</ele>
        <time>2010-09-26T08:43:21Z</time>
      </trkpt>
      <trkpt lat="45.83806" lon="-0.7599">
        <ele>20</ele>
        <time>2010-09-26T08:43:27Z</time>
      </trkpt>
      <trkpt lat="45.8381" lon="-0.75989">
        <ele>20</ele>
        <time>2010-09-26T08:43:31Z</time>
      </trkpt>
      <trkpt lat="45.83815" lon="-0.75989">
        <ele>20</ele>
        <time>2010-09-26T08:43:36Z</time>
      </trkpt>
      <trkpt lat="45.8382" lon="-0.75988">
        <ele>20</ele>
        <time>2010-09-26T08:43:41Z</time>
      </trkpt>
      <trkpt lat="45.83826" lon="-0.75987">
        <ele>20</ele>
        <time>2010-09-26T08:43:47Z</time>
      </trkpt>
      <trkpt lat="45.83831" lon="-0.75984">
        <ele>20</ele>
        <time>2010-09-26T08:43:52Z</time>
      </trkpt>
      <trkpt lat="45.83837" lon="-0.75982">
        <ele>18</ele>
        <time>2010-09-26T08:43:56Z</time>
      </trkpt>
      <trkpt lat="45.83842" lon="-0.75982">
        <ele>18</ele>
        <time>2010-09-26T08:44:00Z</time>
      </trkpt>
      <trkpt lat="45.83847" lon="-0.75983">
        <ele>18</ele>
        <time>2010-09-26T08:44:03Z</time>
      </trkpt>
      <trkpt lat="45.83854" lon="-0.75985">
        <ele>18</ele>
        <time>2010-09-26T08:44:07Z</time>
      </trkpt>
      <trkpt lat="45.83859" lon="-0.75988">
        <ele>17</ele>
        <time>2010-09-26T08:44:09Z</time>
      </trkpt>
      <trkpt lat="45.83866" lon="-0.7599">
        <ele>17</ele>
        <time>2010-09-26T08:44:12Z</time>
      </trkpt>
      <trkpt lat="45.83871" lon="-0.75991">
        <ele>17</ele>
        <time>2010-09-26T08:44:14Z</time>
      </trkpt>
      <trkpt lat="45.83877" lon="-0.75992">
        <ele>17</ele>
        <time>2010-09-26T08:44:17Z</time>
      </trkpt>
      <trkpt lat="45.83883" lon="-0.75991">
        <ele>17</ele>
        <time>2010-09-26T08:44:20Z</time>
      </trkpt>
      <trkpt lat="45.83887" lon="-0.75988">
        <ele>17</ele>
        <time>2010-09-26T08:44:23Z</time>
      </trkpt>
      <trkpt lat="45.8389" lon="-0.75983">
        <ele>17</ele>
        <time>2010-09-26T08:44:28Z</time>
      </trkpt>
      <trkpt lat="45.8389" lon="-0.75974">
        <ele>17</ele>
        <time>2010-09-26T08:44:33Z</time>
      </trkpt>
      <trkpt lat="45.8389" lon="-0.75966">
        <ele>17</ele>
        <time>2010-09-26T08:44:38Z</time>
      </trkpt>
      <trkpt lat="45.8389" lon="-0.75959">
        <ele>17</ele>
        <time>2010-09-26T08:44:42Z</time>
      </trkpt>
      <trkpt lat="45.83891" lon="-0.75951">
        <ele>17</ele>
        <time>2010-09-26T08:44:46Z</time>
      </trkpt>
      <trkpt lat="45.83893" lon="-0.75944">
        <ele>17</ele>
        <time>2010-09-26T08:44:51Z</time>
      </trkpt>
      <trkpt lat="45.83898" lon="-0.75944">
        <ele>17</ele>
        <time>2010-09-26T08:44:56Z</time>
      </trkpt>
      <trkpt lat="45.83901" lon="-0.75943">
        <ele>17</ele>
        <time>2010-09-26T08:45:02Z</time>
      </trkpt>
      <trkpt lat="45.83904" lon="-0.75942">
        <ele>17</ele>
        <time>2010-09-26T08:45:11Z</time>
      </trkpt>
      <trkpt lat="45.83905" lon="-0.75942">
        <ele>17</ele>
        <time>2010-09-26T08:45:12Z</time>
      </trkpt>
      <trkpt lat="45.83906" lon="-0.75941">
        <ele>17</ele>
        <time>2010-09-26T08:45:13Z</time>
      </trkpt>
      <trkpt lat="45.8391" lon="-0.75943">
        <ele>17</ele>
        <time>2010-09-26T08:50:26Z</time>
      </trkpt>
      <trkpt lat="45.8391" lon="-0.75944">
        <ele>17</ele>
        <time>2010-09-26T08:50:27Z</time>
      </trkpt>
      <trkpt lat="45.8391" lon="-0.75944">
        <ele>17</ele>
        <time>2010-09-26T08:50:27Z</time>
      </trkpt>
      <trkpt lat="45.83911" lon="-0.75943">
        <ele>17</ele>
        <time>2010-09-26T08:57:46Z</time>
      </trkpt>
      <trkpt lat="45.83905" lon="-0.75941">
        <ele>17</ele>
        <time>2010-09-26T08:57:47Z</time>
      </trkpt>
      <trkpt lat="45.83904" lon="-0.75933">
        <ele>17</ele>
        <time>2010-09-26T08:57:53Z</time>
      </trkpt>
      <trkpt lat="45.83905" lon="-0.75926">
        <ele>17</ele>
        <time>2010-09-26T08:57:58Z</time>
      </trkpt>
      <trkpt lat="45.83908" lon="-0.75919">
        <ele>17</ele>
        <time>2010-09-26T08:58:03Z</time>
      </trkpt>
      <trkpt lat="45.8391" lon="-0.75912">
        <ele>17</ele>
        <time>2010-09-26T08:58:08Z</time>
      </trkpt>
      <trkpt lat="45.83913" lon="-0.75907">
        <ele>17</ele>
        <time>2010-09-26T08:58:12Z</time>
      </trkpt>
      <trkpt lat="45.83916" lon="-0.75902">
        <ele>17</ele>
        <time>2010-09-26T08:58:17Z</time>
      </trkpt>
      <trkpt lat="45.83919" lon="-0.75895">
        <ele>18</ele>
        <time>2010-09-26T08:58:22Z</time>
      </trkpt>
      <trkpt lat="45.83921" lon="-0.7589">
        <ele>18</ele>
        <time>2010-09-26T08:58:25Z</time>
      </trkpt>
      <trkpt lat="45.83924" lon="-0.75884">
        <ele>18</ele>
        <time>2010-09-26T08:58:28Z</time>
      </trkpt>
      <trkpt lat="45.83926" lon="-0.75878">
        <ele>18</ele>
        <time>2010-09-26T08:58:33Z</time>
      </trkpt>
      <trkpt lat="45.8393" lon="-0.75872">
        <ele>18</ele>
        <time>2010-09-26T08:58:37Z</time>
      </trkpt>
      <trkpt lat="45.83934" lon="-0.75868">
        <ele>18</ele>
        <time>2010-09-26T08:58:40Z</time>
      </trkpt>
      <trkpt lat="45.83939" lon="-0.75864">
        <ele>19</ele>
        <time>2010-09-26T08:58:43Z</time>
      </trkpt>
      <trkpt lat="45.83945" lon="-0.75863">
        <ele>19</ele>
        <time>2010-09-26T08:58:48Z</time>
      </trkpt>
      <trkpt lat="45.83947" lon="-0.75869">
        <ele>19</ele>
        <time>2010-09-26T08:58:52Z</time>
      </trkpt>
      <trkpt lat="45.83949" lon="-0.75875">
        <ele>18</ele>
        <time>2010-09-26T08:58:55Z</time>
      </trkpt>
      <trkpt lat="45.8395" lon="-0.75882">
        <ele>18</ele>
        <time>2010-09-26T08:58:59Z</time>
      </trkpt>
      <trkpt lat="45.83952" lon="-0.75889">
        <ele>18</ele>
        <time>2010-09-26T08:59:03Z</time>
      </trkpt>
      <trkpt lat="45.83954" lon="-0.75896">
        <ele>18</ele>
        <time>2010-09-26T08:59:07Z</time>
      </trkpt>
      <trkpt lat="45.83954" lon="-0.75903">
        <ele>18</ele>
        <time>2010-09-26T08:59:11Z</time>
      </trkpt>
      <trkpt lat="45.83954" lon="-0.7591">
        <ele>18</ele>
        <time>2010-09-26T08:59:15Z</time>
      </trkpt>
      <trkpt lat="45.83955" lon="-0.75917">
        <ele>17</ele>
        <time>2010-09-26T08:59:19Z</time>
      </trkpt>
      <trkpt lat="45.83955" lon="-0.75924">
        <ele>17</ele>
        <time>2010-09-26T08:59:23Z</time>
      </trkpt>
      <trkpt lat="45.83957" lon="-0.75931">
        <ele>17</ele>
        <time>2010-09-26T08:59:27Z</time>
      </trkpt>
      <trkpt lat="45.83958" lon="-0.75939">
        <ele>17</ele>
        <time>2010-09-26T08:59:31Z</time>
      </trkpt>
      <trkpt lat="45.83958" lon="-0.75946">
        <ele>17</ele>
        <time>2010-09-26T08:59:34Z</time>
      </trkpt>
      <trkpt lat="45.83959" lon="-0.75952">
        <ele>17</ele>
        <time>2010-09-26T08:59:37Z</time>
      </trkpt>
      <trkpt lat="45.8396" lon="-0.7596">
        <ele>17</ele>
        <time>2010-09-26T08:59:41Z</time>
      </trkpt>
      <trkpt lat="45.8396" lon="-0.75967">
        <ele>17</ele>
        <time>2010-09-26T08:59:45Z</time>
      </trkpt>
      <trkpt lat="45.83961" lon="-0.75975">
        <ele>17</ele>
        <time>2010-09-26T08:59:49Z</time>
      </trkpt>
      <trkpt lat="45.83961" lon="-0.75983">
        <ele>17</ele>
        <time>2010-09-26T08:59:53Z</time>
      </trkpt>
      <trkpt lat="45.8396" lon="-0.75989">
        <ele>17</ele>
        <time>2010-09-26T08:59:56Z</time>
      </trkpt>
      <trkpt lat="45.83957" lon="-0.75995">
        <ele>16</ele>
        <time>2010-09-26T09:00:00Z</time>
      </trkpt>
      <trkpt lat="45.83953" lon="-0.75998">
        <ele>16</ele>
        <time>2010-09-26T09:00:03Z</time>
      </trkpt>
      <trkpt lat="45.83948" lon="-0.76002">
        <ele>15</ele>
        <time>2010-09-26T09:00:07Z</time>
      </trkpt>
      <trkpt lat="45.83945" lon="-0.76007">
        <ele>15</ele>
        <time>2010-09-26T09:00:11Z</time>
      </trkpt>
      <trkpt lat="45.83941" lon="-0.76012">
        <ele>15</ele>
        <time>2010-09-26T09:00:15Z</time>
      </trkpt>
      <trkpt lat="45.83937" lon="-0.76018">
        <ele>15</ele>
        <time>2010-09-26T09:00:19Z</time>
      </trkpt>
      <trkpt lat="45.83933" lon="-0.76022">
        <ele>15</ele>
        <time>2010-09-26T09:00:23Z</time>
      </trkpt>
      <trkpt lat="45.83929" lon="-0.76027">
        <ele>15</ele>
        <time>2010-09-26T09:00:30Z</time>
      </trkpt>
      <trkpt lat="45.83929" lon="-0.76027">
        <ele>15</ele>
        <time>2010-09-26T09:00:30Z</time>
      </trkpt>
      <trkpt lat="45.83926" lon="-0.7603">
        <ele>15</ele>
        <time>2010-09-26T09:00:33Z</time>
      </trkpt>
      <trkpt lat="45.83924" lon="-0.76033">
        <ele>15</ele>
        <time>2010-09-26T09:00:34Z</time>
      </trkpt>
      <trkpt lat="45.83918" lon="-0.76035">
        <ele>15</ele>
        <time>2010-09-26T09:00:36Z</time>
      </trkpt>
      <trkpt lat="45.83912" lon="-0.76035">
        <ele>16</ele>
        <time>2010-09-26T09:00:39Z</time>
      </trkpt>
      <trkpt lat="45.83908" lon="-0.76033">
        <ele>16</ele>
        <time>2010-09-26T09:00:42Z</time>
      </trkpt>
      <trkpt lat="45.83902" lon="-0.76029">
        <ele>16</ele>
        <time>2010-09-26T09:00:46Z</time>
      </trkpt>
      <trkpt lat="45.83898" lon="-0.76032">
        <ele>16</ele>
        <time>2010-09-26T09:00:50Z</time>
      </trkpt>
      <trkpt lat="45.83895" lon="-0.76037">
        <ele>17</ele>
        <time>2010-09-26T09:00:54Z</time>
      </trkpt>
      <trkpt lat="45.83896" lon="-0.76045">
        <ele>17</ele>
        <time>2010-09-26T09:00:59Z</time>
      </trkpt>
      <trkpt lat="45.83895" lon="-0.76052">
        <ele>17</ele>
        <time>2010-09-26T09:01:03Z</time>
      </trkpt>
      <trkpt lat="45.83895" lon="-0.76059">
        <ele>16</ele>
        <time>2010-09-26T09:01:06Z</time>
      </trkpt>
      <trkpt lat="45.83894" lon="-0.76067">
        <ele>16</ele>
        <time>2010-09-26T09:01:10Z</time>
      </trkpt>
      <trkpt lat="45.83894" lon="-0.76075">
        <ele>16</ele>
        <time>2010-09-26T09:01:14Z</time>
      </trkpt>
      <trkpt lat="45.83895" lon="-0.76082">
        <ele>16</ele>
        <time>2010-09-26T09:01:17Z</time>
      </trkpt>
      <trkpt lat="45.83898" lon="-0.76088">
        <ele>17</ele>
        <time>2010-09-26T09:01:20Z</time>
      </trkpt>
      <trkpt lat="45.839" lon="-0.76094">
        <ele>17</ele>
        <time>2010-09-26T09:01:23Z</time>
      </trkpt>
      <trkpt lat="45.83899" lon="-0.76101">
        <ele>17</ele>
        <time>2010-09-26T09:01:26Z</time>
      </trkpt>
      <trkpt lat="45.83898" lon="-0.76108">
        <ele>17</ele>
        <time>2010-09-26T09:01:29Z</time>
      </trkpt>
      <trkpt lat="45.83898" lon="-0.76115">
        <ele>17</ele>
        <time>2010-09-26T09:01:33Z</time>
      </trkpt>
      <trkpt lat="45.83899" lon="-0.76123">
        <ele>17</ele>
        <time>2010-09-26T09:01:37Z</time>
      </trkpt>
      <trkpt lat="45.83902" lon="-0.76129">
        <ele>17</ele>
        <time>2010-09-26T09:01:40Z</time>
      </trkpt>
      <trkpt lat="45.83904" lon="-0.76136">
        <ele>18</ele>
        <time>2010-09-26T09:01:43Z</time>
      </trkpt>
      <trkpt lat="45.83905" lon="-0.76144">
        <ele>18</ele>
        <time>2010-09-26T09:01:47Z</time>
      </trkpt>
      <trkpt lat="45.83906" lon="-0.7615">
        <ele>17</ele>
        <time>2010-09-26T09:01:50Z</time>
      </trkpt>
      <trkpt lat="45.83908" lon="-0.76156">
        <ele>17</ele>
        <time>2010-09-26T09:01:53Z</time>
      </trkpt>
      <trkpt lat="45.83907" lon="-0.76163">
        <ele>17</ele>
        <time>2010-09-26T09:01:56Z</time>
      </trkpt>
      <trkpt lat="45.83906" lon="-0.7617">
        <ele>18</ele>
        <time>2010-09-26T09:01:59Z</time>
      </trkpt>
      <trkpt lat="45.83906" lon="-0.76176">
        <ele>18</ele>
        <time>2010-09-26T09:02:02Z</time>
      </trkpt>
      <trkpt lat="45.83908" lon="-0.76183">
        <ele>19</ele>
        <time>2010-09-26T09:02:06Z</time>
      </trkpt>
      <trkpt lat="45.83909" lon="-0.76191">
        <ele>19</ele>
        <time>2010-09-26T09:02:10Z</time>
      </trkpt>
      <trkpt lat="45.8391" lon="-0.76197">
        <ele>19</ele>
        <time>2010-09-26T09:02:13Z</time>
      </trkpt>
      <trkpt lat="45.83912" lon="-0.76205">
        <ele>19</ele>
        <time>2010-09-26T09:02:17Z</time>
      </trkpt>
      <trkpt lat="45.83914" lon="-0.76213">
        <ele>19</ele>
        <time>2010-09-26T09:02:21Z</time>
      </trkpt>
      <trkpt lat="45.83916" lon="-0.7622">
        <ele>19</ele>
        <time>2010-09-26T09:02:25Z</time>
      </trkpt>
      <trkpt lat="45.83917" lon="-0.76226">
        <ele>17</ele>
        <time>2010-09-26T09:02:28Z</time>
      </trkpt>
      <trkpt lat="45.8392" lon="-0.76233">
        <ele>17</ele>
        <time>2010-09-26T09:02:32Z</time>
      </trkpt>
      <trkpt lat="45.83923" lon="-0.76241">
        <ele>18</ele>
        <time>2010-09-26T09:02:36Z</time>
      </trkpt>
      <trkpt lat="45.83925" lon="-0.76248">
        <ele>18</ele>
        <time>2010-09-26T09:02:40Z</time>
      </trkpt>
      <trkpt lat="45.83927" lon="-0.76255">
        <ele>18</ele>
        <time>2010-09-26T09:02:44Z</time>
      </trkpt>
      <trkpt lat="45.8393" lon="-0.76263">
        <ele>18</ele>
        <time>2010-09-26T09:02:48Z</time>
      </trkpt>
      <trkpt lat="45.83932" lon="-0.7627">
        <ele>18</ele>
        <time>2010-09-26T09:02:52Z</time>
      </trkpt>
      <trkpt lat="45.83935" lon="-0.76277">
        <ele>17</ele>
        <time>2010-09-26T09:02:56Z</time>
      </trkpt>
      <trkpt lat="45.83936" lon="-0.76284">
        <ele>17</ele>
        <time>2010-09-26T09:03:00Z</time>
      </trkpt>
      <trkpt lat="45.83939" lon="-0.76291">
        <ele>17</ele>
        <time>2010-09-26T09:03:04Z</time>
      </trkpt>
      <trkpt lat="45.83942" lon="-0.76296">
        <ele>17</ele>
        <time>2010-09-26T09:03:07Z</time>
      </trkpt>
      <trkpt lat="45.83945" lon="-0.76301">
        <ele>17</ele>
        <time>2010-09-26T09:03:10Z</time>
      </trkpt>
      <trkpt lat="45.83947" lon="-0.76309">
        <ele>17</ele>
        <time>2010-09-26T09:03:14Z</time>
      </trkpt>
      <trkpt lat="45.83949" lon="-0.76316">
        <ele>17</ele>
        <time>2010-09-26T09:03:17Z</time>
      </trkpt>
      <trkpt lat="45.83952" lon="-0.76323">
        <ele>17</ele>
        <time>2010-09-26T09:03:20Z</time>
      </trkpt>
      <trkpt lat="45.83954" lon="-0.76329">
        <ele>17</ele>
        <time>2010-09-26T09:03:23Z</time>
      </trkpt>
      <trkpt lat="45.83956" lon="-0.76336">
        <ele>18</ele>
        <time>2010-09-26T09:03:26Z</time>
      </trkpt>
      <trkpt lat="45.83958" lon="-0.76344">
        <ele>18</ele>
        <time>2010-09-26T09:03:30Z</time>
      </trkpt>
      <trkpt lat="45.8396" lon="-0.76352">
        <ele>18</ele>
        <time>2010-09-26T09:03:34Z</time>
      </trkpt>
      <trkpt lat="45.83962" lon="-0.76358">
        <ele>18</ele>
        <time>2010-09-26T09:03:37Z</time>
      </trkpt>
      <trkpt lat="45.83963" lon="-0.76366">
        <ele>18</ele>
        <time>2010-09-26T09:03:41Z</time>
      </trkpt>
      <trkpt lat="45.83965" lon="-0.76374">
        <ele>18</ele>
        <time>2010-09-26T09:03:45Z</time>
      </trkpt>
      <trkpt lat="45.83967" lon="-0.76381">
        <ele>18</ele>
        <time>2010-09-26T09:03:49Z</time>
      </trkpt>
      <trkpt lat="45.83969" lon="-0.76389">
        <ele>18</ele>
        <time>2010-09-26T09:03:53Z</time>
      </trkpt>
      <trkpt lat="45.83971" lon="-0.76395">
        <ele>18</ele>
        <time>2010-09-26T09:03:56Z</time>
      </trkpt>
      <trkpt lat="45.83974" lon="-0.76402">
        <ele>18</ele>
        <time>2010-09-26T09:04:00Z</time>
      </trkpt>
      <trkpt lat="45.83976" lon="-0.76408">
        <ele>18</ele>
        <time>2010-09-26T09:04:03Z</time>
      </trkpt>
      <trkpt lat="45.83979" lon="-0.76415">
        <ele>18</ele>
        <time>2010-09-26T09:04:07Z</time>
      </trkpt>
      <trkpt lat="45.83981" lon="-0.7642">
        <ele>18</ele>
        <time>2010-09-26T09:04:10Z</time>
      </trkpt>
      <trkpt lat="45.83983" lon="-0.76427">
        <ele>18</ele>
        <time>2010-09-26T09:04:13Z</time>
      </trkpt>
      <trkpt lat="45.83985" lon="-0.76433">
        <ele>18</ele>
        <time>2010-09-26T09:04:16Z</time>
      </trkpt>
      <trkpt lat="45.83987" lon="-0.76441">
        <ele>18</ele>
        <time>2010-09-26T09:04:20Z</time>
      </trkpt>
      <trkpt lat="45.8399" lon="-0.76448">
        <ele>18</ele>
        <time>2010-09-26T09:04:23Z</time>
      </trkpt>
      <trkpt lat="45.83992" lon="-0.76454">
        <ele>18</ele>
        <time>2010-09-26T09:04:26Z</time>
      </trkpt>
      <trkpt lat="45.83993" lon="-0.7646">
        <ele>18</ele>
        <time>2010-09-26T09:04:29Z</time>
      </trkpt>
      <trkpt lat="45.83995" lon="-0.76467">
        <ele>18</ele>
        <time>2010-09-26T09:04:32Z</time>
      </trkpt>
      <trkpt lat="45.83998" lon="-0.76473">
        <ele>18</ele>
        <time>2010-09-26T09:04:35Z</time>
      </trkpt>
      <trkpt lat="45.83999" lon="-0.7648">
        <ele>18</ele>
        <time>2010-09-26T09:04:38Z</time>
      </trkpt>
      <trkpt lat="45.84" lon="-0.76486">
        <ele>18</ele>
        <time>2010-09-26T09:04:41Z</time>
      </trkpt>
      <trkpt lat="45.84002" lon="-0.76494">
        <ele>18</ele>
        <time>2010-09-26T09:04:45Z</time>
      </trkpt>
      <trkpt lat="45.84004" lon="-0.76503">
        <ele>18</ele>
        <time>2010-09-26T09:04:49Z</time>
      </trkpt>
      <trkpt lat="45.84005" lon="-0.7651">
        <ele>18</ele>
        <time>2010-09-26T09:04:53Z</time>
      </trkpt>
      <trkpt lat="45.84007" lon="-0.76516">
        <ele>18</ele>
        <time>2010-09-26T09:04:56Z</time>
      </trkpt>
      <trkpt lat="45.84009" lon="-0.76524">
        <ele>18</ele>
        <time>2010-09-26T09:05:00Z</time>
      </trkpt>
      <trkpt lat="45.84012" lon="-0.76531">
        <ele>18</ele>
        <time>2010-09-26T09:05:04Z</time>
      </trkpt>
      <trkpt lat="45.84013" lon="-0.76537">
        <ele>19</ele>
        <time>2010-09-26T09:05:07Z</time>
      </trkpt>
      <trkpt lat="45.84016" lon="-0.76545">
        <ele>19</ele>
        <time>2010-09-26T09:05:11Z</time>
      </trkpt>
      <trkpt lat="45.84019" lon="-0.76551">
        <ele>19</ele>
        <time>2010-09-26T09:05:14Z</time>
      </trkpt>
      <trkpt lat="45.84019" lon="-0.76557">
        <ele>19</ele>
        <time>2010-09-26T09:05:17Z</time>
      </trkpt>
      <trkpt lat="45.84021" lon="-0.76563">
        <ele>19</ele>
        <time>2010-09-26T09:05:20Z</time>
      </trkpt>
      <trkpt lat="45.84023" lon="-0.76571">
        <ele>19</ele>
        <time>2010-09-26T09:05:24Z</time>
      </trkpt>
      <trkpt lat="45.84027" lon="-0.76578">
        <ele>19</ele>
        <time>2010-09-26T09:05:27Z</time>
      </trkpt>
      <trkpt lat="45.84027" lon="-0.76586">
        <ele>20</ele>
        <time>2010-09-26T09:05:31Z</time>
      </trkpt>
      <trkpt lat="45.84027" lon="-0.76593">
        <ele>20</ele>
        <time>2010-09-26T09:05:34Z</time>
      </trkpt>
      <trkpt lat="45.84028" lon="-0.76601">
        <ele>20</ele>
        <time>2010-09-26T09:05:38Z</time>
      </trkpt>
      <trkpt lat="45.84028" lon="-0.76608">
        <ele>20</ele>
        <time>2010-09-26T09:05:42Z</time>
      </trkpt>
      <trkpt lat="45.84027" lon="-0.76616">
        <ele>20</ele>
        <time>2010-09-26T09:05:46Z</time>
      </trkpt>
      <trkpt lat="45.84027" lon="-0.76624">
        <ele>20</ele>
        <time>2010-09-26T09:05:50Z</time>
      </trkpt>
      <trkpt lat="45.84026" lon="-0.76631">
        <ele>20</ele>
        <time>2010-09-26T09:05:54Z</time>
      </trkpt>
      <trkpt lat="45.84025" lon="-0.76639">
        <ele>20</ele>
        <time>2010-09-26T09:05:58Z</time>
      </trkpt>
      <trkpt lat="45.84023" lon="-0.76645">
        <ele>20</ele>
        <time>2010-09-26T09:06:01Z</time>
      </trkpt>
      <trkpt lat="45.84021" lon="-0.76651">
        <ele>20</ele>
        <time>2010-09-26T09:06:04Z</time>
      </trkpt>
      <trkpt lat="45.84021" lon="-0.76659">
        <ele>20</ele>
        <time>2010-09-26T09:06:08Z</time>
      </trkpt>
      <trkpt lat="45.84019" lon="-0.76666">
        <ele>20</ele>
        <time>2010-09-26T09:06:11Z</time>
      </trkpt>
      <trkpt lat="45.84017" lon="-0.76674">
        <ele>20</ele>
        <time>2010-09-26T09:06:15Z</time>
      </trkpt>
      <trkpt lat="45.84016" lon="-0.7668">
        <ele>20</ele>
        <time>2010-09-26T09:06:18Z</time>
      </trkpt>
      <trkpt lat="45.84015" lon="-0.76687">
        <ele>20</ele>
        <time>2010-09-26T09:06:21Z</time>
      </trkpt>
      <trkpt lat="45.84012" lon="-0.76694">
        <ele>20</ele>
        <time>2010-09-26T09:06:24Z</time>
      </trkpt>
      <trkpt lat="45.8401" lon="-0.76702">
        <ele>20</ele>
        <time>2010-09-26T09:06:28Z</time>
      </trkpt>
      <trkpt lat="45.84007" lon="-0.76707">
        <ele>20</ele>
        <time>2010-09-26T09:06:31Z</time>
      </trkpt>
      <trkpt lat="45.84004" lon="-0.76713">
        <ele>20</ele>
        <time>2010-09-26T09:06:34Z</time>
      </trkpt>
      <trkpt lat="45.84001" lon="-0.76718">
        <ele>20</ele>
        <time>2010-09-26T09:06:37Z</time>
      </trkpt>
      <trkpt lat="45.83999" lon="-0.76724">
        <ele>20</ele>
        <time>2010-09-26T09:06:40Z</time>
      </trkpt>
      <trkpt lat="45.83996" lon="-0.7673">
        <ele>20</ele>
        <time>2010-09-26T09:06:44Z</time>
      </trkpt>
      <trkpt lat="45.83993" lon="-0.76736">
        <ele>20</ele>
        <time>2010-09-26T09:06:48Z</time>
      </trkpt>
      <trkpt lat="45.8399" lon="-0.76741">
        <ele>20</ele>
        <time>2010-09-26T09:06:51Z</time>
      </trkpt>
      <trkpt lat="45.83987" lon="-0.76747">
        <ele>20</ele>
        <time>2010-09-26T09:06:54Z</time>
      </trkpt>
      <trkpt lat="45.83985" lon="-0.76752">
        <ele>20</ele>
        <time>2010-09-26T09:06:57Z</time>
      </trkpt>
      <trkpt lat="45.83983" lon="-0.76758">
        <ele>20</ele>
        <time>2010-09-26T09:07:00Z</time>
      </trkpt>
      <trkpt lat="45.83979" lon="-0.76765">
        <ele>20</ele>
        <time>2010-09-26T09:07:04Z</time>
      </trkpt>
      <trkpt lat="45.83977" lon="-0.76771">
        <ele>20</ele>
        <time>2010-09-26T09:07:07Z</time>
      </trkpt>
      <trkpt lat="45.83975" lon="-0.76779">
        <ele>20</ele>
        <time>2010-09-26T09:07:11Z</time>
      </trkpt>
      <trkpt lat="45.83973" lon="-0.76785">
        <ele>20</ele>
        <time>2010-09-26T09:07:14Z</time>
      </trkpt>
      <trkpt lat="45.83971" lon="-0.76791">
        <ele>20</ele>
        <time>2010-09-26T09:07:18Z</time>
      </trkpt>
      <trkpt lat="45.83969" lon="-0.76798">
        <ele>20</ele>
        <time>2010-09-26T09:07:22Z</time>
      </trkpt>
      <trkpt lat="45.83967" lon="-0.76805">
        <ele>20</ele>
        <time>2010-09-26T09:07:26Z</time>
      </trkpt>
      <trkpt lat="45.83964" lon="-0.76813">
        <ele>20</ele>
        <time>2010-09-26T09:07:30Z</time>
      </trkpt>
      <trkpt lat="45.83963" lon="-0.76821">
        <ele>20</ele>
        <time>2010-09-26T09:07:34Z</time>
      </trkpt>
      <trkpt lat="45.83962" lon="-0.76828">
        <ele>20</ele>
        <time>2010-09-26T09:07:38Z</time>
      </trkpt>
      <trkpt lat="45.83961" lon="-0.76834">
        <ele>20</ele>
        <time>2010-09-26T09:07:42Z</time>
      </trkpt>
      <trkpt lat="45.83959" lon="-0.76842">
        <ele>20</ele>
        <time>2010-09-26T09:07:47Z</time>
      </trkpt>
      <trkpt lat="45.83956" lon="-0.76847">
        <ele>20</ele>
        <time>2010-09-26T09:07:50Z</time>
      </trkpt>
      <trkpt lat="45.83953" lon="-0.76854">
        <ele>20</ele>
        <time>2010-09-26T09:07:53Z</time>
      </trkpt>
      <trkpt lat="45.8395" lon="-0.76861">
        <ele>21</ele>
        <time>2010-09-26T09:07:56Z</time>
      </trkpt>
      <trkpt lat="45.83947" lon="-0.76867">
        <ele>21</ele>
        <time>2010-09-26T09:07:59Z</time>
      </trkpt>
      <trkpt lat="45.83943" lon="-0.76873">
        <ele>21</ele>
        <time>2010-09-26T09:08:03Z</time>
      </trkpt>
      <trkpt lat="45.83941" lon="-0.76879">
        <ele>21</ele>
        <time>2010-09-26T09:08:06Z</time>
      </trkpt>
      <trkpt lat="45.83938" lon="-0.76884">
        <ele>21</ele>
        <time>2010-09-26T09:08:10Z</time>
      </trkpt>
      <trkpt lat="45.83935" lon="-0.76891">
        <ele>21</ele>
        <time>2010-09-26T09:08:14Z</time>
      </trkpt>
      <trkpt lat="45.83931" lon="-0.76897">
        <ele>21</ele>
        <time>2010-09-26T09:08:17Z</time>
      </trkpt>
      <trkpt lat="45.83928" lon="-0.76902">
        <ele>21</ele>
        <time>2010-09-26T09:08:20Z</time>
      </trkpt>
      <trkpt lat="45.83925" lon="-0.76908">
        <ele>21</ele>
        <time>2010-09-26T09:08:23Z</time>
      </trkpt>
      <trkpt lat="45.83922" lon="-0.76915">
        <ele>22</ele>
        <time>2010-09-26T09:08:27Z</time>
      </trkpt>
      <trkpt lat="45.83919" lon="-0.7692">
        <ele>22</ele>
        <time>2010-09-26T09:08:31Z</time>
      </trkpt>
      <trkpt lat="45.83916" lon="-0.76925">
        <ele>22</ele>
        <time>2010-09-26T09:08:34Z</time>
      </trkpt>
      <trkpt lat="45.83911" lon="-0.76931">
        <ele>23</ele>
        <time>2010-09-26T09:08:37Z</time>
      </trkpt>
      <trkpt lat="45.83908" lon="-0.76936">
        <ele>23</ele>
        <time>2010-09-26T09:08:40Z</time>
      </trkpt>
      <trkpt lat="45.83904" lon="-0.76942">
        <ele>23</ele>
        <time>2010-09-26T09:08:43Z</time>
      </trkpt>
      <trkpt lat="45.839" lon="-0.76946">
        <ele>23</ele>
        <time>2010-09-26T09:08:46Z</time>
      </trkpt>
      <trkpt lat="45.83896" lon="-0.76951">
        <ele>23</ele>
        <time>2010-09-26T09:08:49Z</time>
      </trkpt>
      <trkpt lat="45.83893" lon="-0.76957">
        <ele>23</ele>
        <time>2010-09-26T09:08:54Z</time>
      </trkpt>
      <trkpt lat="45.8389" lon="-0.76963">
        <ele>23</ele>
        <time>2010-09-26T09:08:57Z</time>
      </trkpt>
      <trkpt lat="45.83886" lon="-0.7697">
        <ele>24</ele>
        <time>2010-09-26T09:09:01Z</time>
      </trkpt>
      <trkpt lat="45.83881" lon="-0.76976">
        <ele>24</ele>
        <time>2010-09-26T09:09:05Z</time>
      </trkpt>
      <trkpt lat="45.83878" lon="-0.76982">
        <ele>24</ele>
        <time>2010-09-26T09:09:09Z</time>
      </trkpt>
      <trkpt lat="45.83874" lon="-0.76986">
        <ele>24</ele>
        <time>2010-09-26T09:09:12Z</time>
      </trkpt>
      <trkpt lat="45.8387" lon="-0.76991">
        <ele>24</ele>
        <time>2010-09-26T09:09:15Z</time>
      </trkpt>
      <trkpt lat="45.83866" lon="-0.76995">
        <ele>24</ele>
        <time>2010-09-26T09:09:19Z</time>
      </trkpt>
      <trkpt lat="45.83862" lon="-0.77001">
        <ele>24</ele>
        <time>2010-09-26T09:09:23Z</time>
      </trkpt>
      <trkpt lat="45.83858" lon="-0.77006">
        <ele>25</ele>
        <time>2010-09-26T09:09:26Z</time>
      </trkpt>
      <trkpt lat="45.83854" lon="-0.77011">
        <ele>25</ele>
        <time>2010-09-26T09:09:30Z</time>
      </trkpt>
      <trkpt lat="45.8385" lon="-0.77016">
        <ele>25</ele>
        <time>2010-09-26T09:09:34Z</time>
      </trkpt>
      <trkpt lat="45.83846" lon="-0.77022">
        <ele>25</ele>
        <time>2010-09-26T09:09:38Z</time>
      </trkpt>
      <trkpt lat="45.83843" lon="-0.77028">
        <ele>25</ele>
        <time>2010-09-26T09:09:42Z</time>
      </trkpt>
      <trkpt lat="45.83839" lon="-0.77032">
        <ele>25</ele>
        <time>2010-09-26T09:09:45Z</time>
      </trkpt>
      <trkpt lat="45.83835" lon="-0.77036">
        <ele>25</ele>
        <time>2010-09-26T09:09:48Z</time>
      </trkpt>
      <trkpt lat="45.83832" lon="-0.77041">
        <ele>25</ele>
        <time>2010-09-26T09:09:51Z</time>
      </trkpt>
      <trkpt lat="45.83828" lon="-0.77047">
        <ele>25</ele>
        <time>2010-09-26T09:09:55Z</time>
      </trkpt>
      <trkpt lat="45.83824" lon="-0.77053">
        <ele>25</ele>
        <time>2010-09-26T09:09:59Z</time>
      </trkpt>
      <trkpt lat="45.83821" lon="-0.77058">
        <ele>25</ele>
        <time>2010-09-26T09:10:02Z</time>
      </trkpt>
      <trkpt lat="45.83817" lon="-0.77063">
        <ele>25</ele>
        <time>2010-09-26T09:10:05Z</time>
      </trkpt>
      <trkpt lat="45.83814" lon="-0.77067">
        <ele>25</ele>
        <time>2010-09-26T09:10:08Z</time>
      </trkpt>
      <trkpt lat="45.8381" lon="-0.77071">
        <ele>25</ele>
        <time>2010-09-26T09:10:11Z</time>
      </trkpt>
      <trkpt lat="45.83806" lon="-0.77075">
        <ele>25</ele>
        <time>2010-09-26T09:10:14Z</time>
      </trkpt>
      <trkpt lat="45.83802" lon="-0.77079">
        <ele>25</ele>
        <time>2010-09-26T09:10:17Z</time>
      </trkpt>
      <trkpt lat="45.83798" lon="-0.77082">
        <ele>25</ele>
        <time>2010-09-26T09:10:20Z</time>
      </trkpt>
      <trkpt lat="45.83793" lon="-0.77087">
        <ele>25</ele>
        <time>2010-09-26T09:10:23Z</time>
      </trkpt>
      <trkpt lat="45.83788" lon="-0.77091">
        <ele>25</ele>
        <time>2010-09-26T09:10:27Z</time>
      </trkpt>
      <trkpt lat="45.83784" lon="-0.77094">
        <ele>25</ele>
        <time>2010-09-26T09:10:30Z</time>
      </trkpt>
      <trkpt lat="45.8378" lon="-0.77097">
        <ele>25</ele>
        <time>2010-09-26T09:10:33Z</time>
      </trkpt>
      <trkpt lat="45.83776" lon="-0.77101">
        <ele>25</ele>
        <time>2010-09-26T09:10:36Z</time>
      </trkpt>
      <trkpt lat="45.83772" lon="-0.77106">
        <ele>25</ele>
        <time>2010-09-26T09:10:40Z</time>
      </trkpt>
      <trkpt lat="45.83767" lon="-0.7711">
        <ele>25</ele>
        <time>2010-09-26T09:10:44Z</time>
      </trkpt>
      <trkpt lat="45.83764" lon="-0.77115">
        <ele>25</ele>
        <time>2010-09-26T09:10:48Z</time>
      </trkpt>
      <trkpt lat="45.8376" lon="-0.7712">
        <ele>25</ele>
        <time>2010-09-26T09:10:52Z</time>
      </trkpt>
      <trkpt lat="45.83756" lon="-0.77125">
        <ele>25</ele>
        <time>2010-09-26T09:10:55Z</time>
      </trkpt>
      <trkpt lat="45.83753" lon="-0.77129">
        <ele>25</ele>
        <time>2010-09-26T09:10:58Z</time>
      </trkpt>
      <trkpt lat="45.83749" lon="-0.77136">
        <ele>27</ele>
        <time>2010-09-26T09:11:02Z</time>
      </trkpt>
      <trkpt lat="45.83745" lon="-0.77141">
        <ele>27</ele>
        <time>2010-09-26T09:11:06Z</time>
      </trkpt>
      <trkpt lat="45.83742" lon="-0.77146">
        <ele>27</ele>
        <time>2010-09-26T09:11:11Z</time>
      </trkpt>
      <trkpt lat="45.83738" lon="-0.77151">
        <ele>27</ele>
        <time>2010-09-26T09:11:15Z</time>
      </trkpt>
      <trkpt lat="45.83734" lon="-0.77156">
        <ele>27</ele>
        <time>2010-09-26T09:11:20Z</time>
      </trkpt>
      <trkpt lat="45.83731" lon="-0.77161">
        <ele>27</ele>
        <time>2010-09-26T09:11:23Z</time>
      </trkpt>
      <trkpt lat="45.83727" lon="-0.77167">
        <ele>27</ele>
        <time>2010-09-26T09:11:26Z</time>
      </trkpt>
      <trkpt lat="45.83723" lon="-0.77171">
        <ele>26</ele>
        <time>2010-09-26T09:11:29Z</time>
      </trkpt>
      <trkpt lat="45.83719" lon="-0.77176">
        <ele>26</ele>
        <time>2010-09-26T09:11:33Z</time>
      </trkpt>
      <trkpt lat="45.83714" lon="-0.77181">
        <ele>27</ele>
        <time>2010-09-26T09:11:36Z</time>
      </trkpt>
      <trkpt lat="45.83711" lon="-0.77184">
        <ele>27</ele>
        <time>2010-09-26T09:11:39Z</time>
      </trkpt>
      <trkpt lat="45.83707" lon="-0.77189">
        <ele>27</ele>
        <time>2010-09-26T09:11:42Z</time>
      </trkpt>
      <trkpt lat="45.83703" lon="-0.77193">
        <ele>27</ele>
        <time>2010-09-26T09:11:46Z</time>
      </trkpt>
      <trkpt lat="45.83699" lon="-0.77198">
        <ele>27</ele>
        <time>2010-09-26T09:11:50Z</time>
      </trkpt>
      <trkpt lat="45.83695" lon="-0.77204">
        <ele>27</ele>
        <time>2010-09-26T09:11:56Z</time>
      </trkpt>
      <trkpt lat="45.83689" lon="-0.77207">
        <ele>27</ele>
        <time>2010-09-26T09:12:00Z</time>
      </trkpt>
      <trkpt lat="45.83685" lon="-0.77212">
        <ele>27</ele>
        <time>2010-09-26T09:12:03Z</time>
      </trkpt>
      <trkpt lat="45.83682" lon="-0.77217">
        <ele>27</ele>
        <time>2010-09-26T09:12:06Z</time>
      </trkpt>
      <trkpt lat="45.83678" lon="-0.77221">
        <ele>27</ele>
        <time>2010-09-26T09:12:09Z</time>
      </trkpt>
      <trkpt lat="45.83676" lon="-0.77226">
        <ele>27</ele>
        <time>2010-09-26T09:12:12Z</time>
      </trkpt>
      <trkpt lat="45.83672" lon="-0.7723">
        <ele>27</ele>
        <time>2010-09-26T09:12:15Z</time>
      </trkpt>
      <trkpt lat="45.83668" lon="-0.77234">
        <ele>27</ele>
        <time>2010-09-26T09:12:18Z</time>
      </trkpt>
      <trkpt lat="45.83664" lon="-0.7724">
        <ele>28</ele>
        <time>2010-09-26T09:12:23Z</time>
      </trkpt>
      <trkpt lat="45.8366" lon="-0.77245">
        <ele>28</ele>
        <time>2010-09-26T09:12:27Z</time>
      </trkpt>
      <trkpt lat="45.83655" lon="-0.77252">
        <ele>28</ele>
        <time>2010-09-26T09:12:30Z</time>
      </trkpt>
      <trkpt lat="45.83652" lon="-0.77257">
        <ele>28</ele>
        <time>2010-09-26T09:12:33Z</time>
      </trkpt>
      <trkpt lat="45.83647" lon="-0.77264">
        <ele>28</ele>
        <time>2010-09-26T09:12:36Z</time>
      </trkpt>
      <trkpt lat="45.83644" lon="-0.77271">
        <ele>28</ele>
        <time>2010-09-26T09:12:40Z</time>
      </trkpt>
      <trkpt lat="45.83641" lon="-0.77276">
        <ele>28</ele>
        <time>2010-09-26T09:12:44Z</time>
      </trkpt>
      <trkpt lat="45.83639" lon="-0.77283">
        <ele>28</ele>
        <time>2010-09-26T09:12:49Z</time>
      </trkpt>
      <trkpt lat="45.83636" lon="-0.77288">
        <ele>28</ele>
        <time>2010-09-26T09:12:52Z</time>
      </trkpt>
      <trkpt lat="45.83632" lon="-0.77295">
        <ele>28</ele>
        <time>2010-09-26T09:12:57Z</time>
      </trkpt>
      <trkpt lat="45.83628" lon="-0.77301">
        <ele>28</ele>
        <time>2010-09-26T09:13:00Z</time>
      </trkpt>
      <trkpt lat="45.83623" lon="-0.77307">
        <ele>28</ele>
        <time>2010-09-26T09:13:03Z</time>
      </trkpt>
      <trkpt lat="45.83621" lon="-0.77313">
        <ele>28</ele>
        <time>2010-09-26T09:13:06Z</time>
      </trkpt>
      <trkpt lat="45.83618" lon="-0.77318">
        <ele>28</ele>
        <time>2010-09-26T09:13:09Z</time>
      </trkpt>
      <trkpt lat="45.83615" lon="-0.77325">
        <ele>28</ele>
        <time>2010-09-26T09:13:12Z</time>
      </trkpt>
      <trkpt lat="45.83611" lon="-0.77329">
        <ele>28</ele>
        <time>2010-09-26T09:13:14Z</time>
      </trkpt>
      <trkpt lat="45.83608" lon="-0.77335">
        <ele>27</ele>
        <time>2010-09-26T09:13:17Z</time>
      </trkpt>
      <trkpt lat="45.83606" lon="-0.7734">
        <ele>27</ele>
        <time>2010-09-26T09:13:21Z</time>
      </trkpt>
      <trkpt lat="45.83601" lon="-0.77346">
        <ele>27</ele>
        <time>2010-09-26T09:13:26Z</time>
      </trkpt>
      <trkpt lat="45.83597" lon="-0.77351">
        <ele>27</ele>
        <time>2010-09-26T09:13:30Z</time>
      </trkpt>
      <trkpt lat="45.83596" lon="-0.77358">
        <ele>27</ele>
        <time>2010-09-26T09:13:35Z</time>
      </trkpt>
      <trkpt lat="45.83596" lon="-0.77366">
        <ele>27</ele>
        <time>2010-09-26T09:13:38Z</time>
      </trkpt>
      <trkpt lat="45.83599" lon="-0.77374">
        <ele>27</ele>
        <time>2010-09-26T09:13:42Z</time>
      </trkpt>
      <trkpt lat="45.836" lon="-0.77382">
        <ele>27</ele>
        <time>2010-09-26T09:13:46Z</time>
      </trkpt>
      <trkpt lat="45.83601" lon="-0.77389">
        <ele>27</ele>
        <time>2010-09-26T09:13:50Z</time>
      </trkpt>
      <trkpt lat="45.83604" lon="-0.77396">
        <ele>27</ele>
        <time>2010-09-26T09:13:53Z</time>
      </trkpt>
      <trkpt lat="45.83606" lon="-0.77403">
        <ele>27</ele>
        <time>2010-09-26T09:13:56Z</time>
      </trkpt>
      <trkpt lat="45.83608" lon="-0.77411">
        <ele>27</ele>
        <time>2010-09-26T09:14:01Z</time>
      </trkpt>
      <trkpt lat="45.83608" lon="-0.77418">
        <ele>26</ele>
        <time>2010-09-26T09:14:04Z</time>
      </trkpt>
      <trkpt lat="45.83609" lon="-0.77426">
        <ele>26</ele>
        <time>2010-09-26T09:14:07Z</time>
      </trkpt>
      <trkpt lat="45.8361" lon="-0.77433">
        <ele>26</ele>
        <time>2010-09-26T09:14:10Z</time>
      </trkpt>
      <trkpt lat="45.83613" lon="-0.77439">
        <ele>26</ele>
        <time>2010-09-26T09:14:13Z</time>
      </trkpt>
      <trkpt lat="45.83613" lon="-0.77446">
        <ele>26</ele>
        <time>2010-09-26T09:14:16Z</time>
      </trkpt>
      <trkpt lat="45.83613" lon="-0.77452">
        <ele>26</ele>
        <time>2010-09-26T09:14:19Z</time>
      </trkpt>
      <trkpt lat="45.83614" lon="-0.7746">
        <ele>26</ele>
        <time>2010-09-26T09:14:22Z</time>
      </trkpt>
      <trkpt lat="45.83613" lon="-0.77466">
        <ele>26</ele>
        <time>2010-09-26T09:14:26Z</time>
      </trkpt>
      <trkpt lat="45.83609" lon="-0.77473">
        <ele>26</ele>
        <time>2010-09-26T09:14:31Z</time>
      </trkpt>
      <trkpt lat="45.83606" lon="-0.77478">
        <ele>26</ele>
        <time>2010-09-26T09:14:35Z</time>
      </trkpt>
      <trkpt lat="45.83602" lon="-0.77482">
        <ele>26</ele>
        <time>2010-09-26T09:14:38Z</time>
      </trkpt>
      <trkpt lat="45.83597" lon="-0.77486">
        <ele>26</ele>
        <time>2010-09-26T09:14:42Z</time>
      </trkpt>
      <trkpt lat="45.83593" lon="-0.77491">
        <ele>26</ele>
        <time>2010-09-26T09:14:45Z</time>
      </trkpt>
      <trkpt lat="45.83589" lon="-0.77495">
        <ele>27</ele>
        <time>2010-09-26T09:14:50Z</time>
      </trkpt>
      <trkpt lat="45.83585" lon="-0.775">
        <ele>27</ele>
        <time>2010-09-26T09:14:54Z</time>
      </trkpt>
      <trkpt lat="45.83581" lon="-0.77504">
        <ele>27</ele>
        <time>2010-09-26T09:14:57Z</time>
      </trkpt>
      <trkpt lat="45.83576" lon="-0.77507">
        <ele>26</ele>
        <time>2010-09-26T09:15:00Z</time>
      </trkpt>
      <trkpt lat="45.83571" lon="-0.77512">
        <ele>26</ele>
        <time>2010-09-26T09:15:03Z</time>
      </trkpt>
      <trkpt lat="45.83566" lon="-0.77514">
        <ele>26</ele>
        <time>2010-09-26T09:15:06Z</time>
      </trkpt>
      <trkpt lat="45.83563" lon="-0.77519">
        <ele>26</ele>
        <time>2010-09-26T09:15:11Z</time>
      </trkpt>
      <trkpt lat="45.83557" lon="-0.77524">
        <ele>26</ele>
        <time>2010-09-26T09:15:15Z</time>
      </trkpt>
      <trkpt lat="45.83553" lon="-0.77529">
        <ele>26</ele>
        <time>2010-09-26T09:15:19Z</time>
      </trkpt>
      <trkpt lat="45.83549" lon="-0.77533">
        <ele>25</ele>
        <time>2010-09-26T09:15:24Z</time>
      </trkpt>
      <trkpt lat="45.83544" lon="-0.77537">
        <ele>25</ele>
        <time>2010-09-26T09:15:27Z</time>
      </trkpt>
      <trkpt lat="45.8354" lon="-0.7754">
        <ele>25</ele>
        <time>2010-09-26T09:15:29Z</time>
      </trkpt>
      <trkpt lat="45.83535" lon="-0.77544">
        <ele>25</ele>
        <time>2010-09-26T09:15:32Z</time>
      </trkpt>
      <trkpt lat="45.8353" lon="-0.77547">
        <ele>25</ele>
        <time>2010-09-26T09:15:36Z</time>
      </trkpt>
      <trkpt lat="45.83525" lon="-0.77551">
        <ele>25</ele>
        <time>2010-09-26T09:15:40Z</time>
      </trkpt>
      <trkpt lat="45.8352" lon="-0.77554">
        <ele>25</ele>
        <time>2010-09-26T09:15:44Z</time>
      </trkpt>
      <trkpt lat="45.83516" lon="-0.77558">
        <ele>25</ele>
        <time>2010-09-26T09:15:46Z</time>
      </trkpt>
      <trkpt lat="45.83511" lon="-0.77562">
        <ele>24</ele>
        <time>2010-09-26T09:15:50Z</time>
      </trkpt>
      <trkpt lat="45.83506" lon="-0.77566">
        <ele>24</ele>
        <time>2010-09-26T09:15:53Z</time>
      </trkpt>
      <trkpt lat="45.835" lon="-0.7757">
        <ele>24</ele>
        <time>2010-09-26T09:15:56Z</time>
      </trkpt>
      <trkpt lat="45.83496" lon="-0.77574">
        <ele>23</ele>
        <time>2010-09-26T09:15:59Z</time>
      </trkpt>
      <trkpt lat="45.83492" lon="-0.77578">
        <ele>23</ele>
        <time>2010-09-26T09:16:02Z</time>
      </trkpt>
      <trkpt lat="45.83488" lon="-0.77581">
        <ele>23</ele>
        <time>2010-09-26T09:16:05Z</time>
      </trkpt>
      <trkpt lat="45.83484" lon="-0.77587">
        <ele>23</ele>
        <time>2010-09-26T09:16:09Z</time>
      </trkpt>
      <trkpt lat="45.83481" lon="-0.77592">
        <ele>23</ele>
        <time>2010-09-26T09:16:12Z</time>
      </trkpt>
      <trkpt lat="45.83478" lon="-0.77598">
        <ele>23</ele>
        <time>2010-09-26T09:16:16Z</time>
      </trkpt>
      <trkpt lat="45.83476" lon="-0.77605">
        <ele>23</ele>
        <time>2010-09-26T09:16:21Z</time>
      </trkpt>
      <trkpt lat="45.83473" lon="-0.77611">
        <ele>23</ele>
        <time>2010-09-26T09:16:24Z</time>
      </trkpt>
      <trkpt lat="45.83469" lon="-0.77618">
        <ele>23</ele>
        <time>2010-09-26T09:16:27Z</time>
      </trkpt>
      <trkpt lat="45.83466" lon="-0.77624">
        <ele>23</ele>
        <time>2010-09-26T09:16:30Z</time>
      </trkpt>
      <trkpt lat="45.83463" lon="-0.77631">
        <ele>23</ele>
        <time>2010-09-26T09:16:33Z</time>
      </trkpt>
      <trkpt lat="45.83461" lon="-0.77637">
        <ele>23</ele>
        <time>2010-09-26T09:16:36Z</time>
      </trkpt>
      <trkpt lat="45.83458" lon="-0.77644">
        <ele>23</ele>
        <time>2010-09-26T09:16:41Z</time>
      </trkpt>
      <trkpt lat="45.83458" lon="-0.77652">
        <ele>23</ele>
        <time>2010-09-26T09:16:45Z</time>
      </trkpt>
      <trkpt lat="45.83457" lon="-0.77659">
        <ele>23</ele>
        <time>2010-09-26T09:16:48Z</time>
      </trkpt>
      <trkpt lat="45.83458" lon="-0.77665">
        <ele>23</ele>
        <time>2010-09-26T09:16:51Z</time>
      </trkpt>
      <trkpt lat="45.83458" lon="-0.77673">
        <ele>23</ele>
        <time>2010-09-26T09:16:55Z</time>
      </trkpt>
      <trkpt lat="45.83457" lon="-0.77679">
        <ele>23</ele>
        <time>2010-09-26T09:16:58Z</time>
      </trkpt>
      <trkpt lat="45.83457" lon="-0.77686">
        <ele>23</ele>
        <time>2010-09-26T09:17:01Z</time>
      </trkpt>
      <trkpt lat="45.83456" lon="-0.77693">
        <ele>23</ele>
        <time>2010-09-26T09:17:04Z</time>
      </trkpt>
      <trkpt lat="45.83457" lon="-0.777">
        <ele>23</ele>
        <time>2010-09-26T09:17:07Z</time>
      </trkpt>
      <trkpt lat="45.83457" lon="-0.77707">
        <ele>23</ele>
        <time>2010-09-26T09:17:10Z</time>
      </trkpt>
      <trkpt lat="45.83456" lon="-0.77714">
        <ele>23</ele>
        <time>2010-09-26T09:17:14Z</time>
      </trkpt>
      <trkpt lat="45.83457" lon="-0.77722">
        <ele>23</ele>
        <time>2010-09-26T09:17:18Z</time>
      </trkpt>
      <trkpt lat="45.83459" lon="-0.77729">
        <ele>23</ele>
        <time>2010-09-26T09:17:22Z</time>
      </trkpt>
      <trkpt lat="45.8346" lon="-0.77737">
        <ele>23</ele>
        <time>2010-09-26T09:17:26Z</time>
      </trkpt>
      <trkpt lat="45.8346" lon="-0.77743">
        <ele>23</ele>
        <time>2010-09-26T09:17:29Z</time>
      </trkpt>
      <trkpt lat="45.8346" lon="-0.7775">
        <ele>23</ele>
        <time>2010-09-26T09:17:32Z</time>
      </trkpt>
      <trkpt lat="45.83459" lon="-0.77758">
        <ele>22</ele>
        <time>2010-09-26T09:17:36Z</time>
      </trkpt>
      <trkpt lat="45.8346" lon="-0.77766">
        <ele>22</ele>
        <time>2010-09-26T09:17:40Z</time>
      </trkpt>
      <trkpt lat="45.8346" lon="-0.77772">
        <ele>22</ele>
        <time>2010-09-26T09:17:43Z</time>
      </trkpt>
      <trkpt lat="45.83462" lon="-0.7778">
        <ele>22</ele>
        <time>2010-09-26T09:17:46Z</time>
      </trkpt>
      <trkpt lat="45.83463" lon="-0.77786">
        <ele>22</ele>
        <time>2010-09-26T09:17:49Z</time>
      </trkpt>
      <trkpt lat="45.83461" lon="-0.77794">
        <ele>22</ele>
        <time>2010-09-26T09:17:52Z</time>
      </trkpt>
      <trkpt lat="45.8346" lon="-0.77802">
        <ele>22</ele>
        <time>2010-09-26T09:17:55Z</time>
      </trkpt>
      <trkpt lat="45.83461" lon="-0.77808">
        <ele>22</ele>
        <time>2010-09-26T09:17:58Z</time>
      </trkpt>
      <trkpt lat="45.83461" lon="-0.77815">
        <ele>22</ele>
        <time>2010-09-26T09:18:01Z</time>
      </trkpt>
      <trkpt lat="45.83462" lon="-0.77822">
        <ele>22</ele>
        <time>2010-09-26T09:18:04Z</time>
      </trkpt>
      <trkpt lat="45.83463" lon="-0.77828">
        <ele>22</ele>
        <time>2010-09-26T09:18:07Z</time>
      </trkpt>
      <trkpt lat="45.83465" lon="-0.77834">
        <ele>22</ele>
        <time>2010-09-26T09:18:10Z</time>
      </trkpt>
      <trkpt lat="45.83467" lon="-0.77841">
        <ele>22</ele>
        <time>2010-09-26T09:18:13Z</time>
      </trkpt>
      <trkpt lat="45.83467" lon="-0.77848">
        <ele>22</ele>
        <time>2010-09-26T09:18:16Z</time>
      </trkpt>
      <trkpt lat="45.83466" lon="-0.77855">
        <ele>22</ele>
        <time>2010-09-26T09:18:19Z</time>
      </trkpt>
      <trkpt lat="45.83466" lon="-0.77863">
        <ele>22</ele>
        <time>2010-09-26T09:18:23Z</time>
      </trkpt>
      <trkpt lat="45.83468" lon="-0.7787">
        <ele>22</ele>
        <time>2010-09-26T09:18:26Z</time>
      </trkpt>
      <trkpt lat="45.83468" lon="-0.77877">
        <ele>22</ele>
        <time>2010-09-26T09:18:29Z</time>
      </trkpt>
      <trkpt lat="45.83468" lon="-0.77884">
        <ele>22</ele>
        <time>2010-09-26T09:18:32Z</time>
      </trkpt>
      <trkpt lat="45.83468" lon="-0.77892">
        <ele>22</ele>
        <time>2010-09-26T09:18:36Z</time>
      </trkpt>
      <trkpt lat="45.83468" lon="-0.77898">
        <ele>21</ele>
        <time>2010-09-26T09:18:39Z</time>
      </trkpt>
      <trkpt lat="45.83469" lon="-0.77906">
        <ele>21</ele>
        <time>2010-09-26T09:18:43Z</time>
      </trkpt>
      <trkpt lat="45.83469" lon="-0.77914">
        <ele>21</ele>
        <time>2010-09-26T09:18:46Z</time>
      </trkpt>
      <trkpt lat="45.83469" lon="-0.77922">
        <ele>21</ele>
        <time>2010-09-26T09:18:49Z</time>
      </trkpt>
      <trkpt lat="45.83468" lon="-0.77929">
        <ele>21</ele>
        <time>2010-09-26T09:18:52Z</time>
      </trkpt>
      <trkpt lat="45.83467" lon="-0.77936">
        <ele>21</ele>
        <time>2010-09-26T09:18:55Z</time>
      </trkpt>
      <trkpt lat="45.83469" lon="-0.77943">
        <ele>21</ele>
        <time>2010-09-26T09:18:59Z</time>
      </trkpt>
      <trkpt lat="45.83469" lon="-0.7795">
        <ele>21</ele>
        <time>2010-09-26T09:19:02Z</time>
      </trkpt>
      <trkpt lat="45.83469" lon="-0.77956">
        <ele>21</ele>
        <time>2010-09-26T09:19:05Z</time>
      </trkpt>
      <trkpt lat="45.83469" lon="-0.77964">
        <ele>21</ele>
        <time>2010-09-26T09:19:09Z</time>
      </trkpt>
      <trkpt lat="45.83471" lon="-0.7797">
        <ele>21</ele>
        <time>2010-09-26T09:19:12Z</time>
      </trkpt>
      <trkpt lat="45.83471" lon="-0.77978">
        <ele>21</ele>
        <time>2010-09-26T09:19:16Z</time>
      </trkpt>
      <trkpt lat="45.83472" lon="-0.77986">
        <ele>21</ele>
        <time>2010-09-26T09:19:20Z</time>
      </trkpt>
      <trkpt lat="45.83473" lon="-0.77992">
        <ele>20</ele>
        <time>2010-09-26T09:19:23Z</time>
      </trkpt>
      <trkpt lat="45.83473" lon="-0.77999">
        <ele>20</ele>
        <time>2010-09-26T09:19:26Z</time>
      </trkpt>
      <trkpt lat="45.83473" lon="-0.78005">
        <ele>20</ele>
        <time>2010-09-26T09:19:29Z</time>
      </trkpt>
      <trkpt lat="45.83473" lon="-0.78013">
        <ele>20</ele>
        <time>2010-09-26T09:19:33Z</time>
      </trkpt>
      <trkpt lat="45.83475" lon="-0.7802">
        <ele>20</ele>
        <time>2010-09-26T09:19:36Z</time>
      </trkpt>
      <trkpt lat="45.83476" lon="-0.78026">
        <ele>20</ele>
        <time>2010-09-26T09:19:39Z</time>
      </trkpt>
      <trkpt lat="45.83479" lon="-0.78032">
        <ele>20</ele>
        <time>2010-09-26T09:19:42Z</time>
      </trkpt>
      <trkpt lat="45.83481" lon="-0.78039">
        <ele>20</ele>
        <time>2010-09-26T09:19:45Z</time>
      </trkpt>
      <trkpt lat="45.83484" lon="-0.78047">
        <ele>20</ele>
        <time>2010-09-26T09:19:48Z</time>
      </trkpt>
      <trkpt lat="45.83486" lon="-0.78053">
        <ele>20</ele>
        <time>2010-09-26T09:19:51Z</time>
      </trkpt>
      <trkpt lat="45.8349" lon="-0.78058">
        <ele>20</ele>
        <time>2010-09-26T09:19:54Z</time>
      </trkpt>
      <trkpt lat="45.83494" lon="-0.78064">
        <ele>20</ele>
        <time>2010-09-26T09:19:58Z</time>
      </trkpt>
      <trkpt lat="45.83498" lon="-0.78068">
        <ele>20</ele>
        <time>2010-09-26T09:20:02Z</time>
      </trkpt>
      <trkpt lat="45.83503" lon="-0.78072">
        <ele>19</ele>
        <time>2010-09-26T09:20:06Z</time>
      </trkpt>
      <trkpt lat="45.83508" lon="-0.78076">
        <ele>19</ele>
        <time>2010-09-26T09:20:10Z</time>
      </trkpt>
      <trkpt lat="45.83512" lon="-0.7808">
        <ele>19</ele>
        <time>2010-09-26T09:20:13Z</time>
      </trkpt>
      <trkpt lat="45.83516" lon="-0.78082">
        <ele>19</ele>
        <time>2010-09-26T09:20:16Z</time>
      </trkpt>
      <trkpt lat="45.83521" lon="-0.78084">
        <ele>18</ele>
        <time>2010-09-26T09:20:19Z</time>
      </trkpt>
      <trkpt lat="45.83526" lon="-0.78089">
        <ele>18</ele>
        <time>2010-09-26T09:20:23Z</time>
      </trkpt>
      <trkpt lat="45.83531" lon="-0.78094">
        <ele>18</ele>
        <time>2010-09-26T09:20:27Z</time>
      </trkpt>
      <trkpt lat="45.83535" lon="-0.78098">
        <ele>18</ele>
        <time>2010-09-26T09:20:31Z</time>
      </trkpt>
      <trkpt lat="45.83539" lon="-0.78103">
        <ele>18</ele>
        <time>2010-09-26T09:20:35Z</time>
      </trkpt>
      <trkpt lat="45.83544" lon="-0.78109">
        <ele>18</ele>
        <time>2010-09-26T09:20:39Z</time>
      </trkpt>
      <trkpt lat="45.83546" lon="-0.78116">
        <ele>18</ele>
        <time>2010-09-26T09:20:43Z</time>
      </trkpt>
      <trkpt lat="45.83548" lon="-0.78121">
        <ele>18</ele>
        <time>2010-09-26T09:20:46Z</time>
      </trkpt>
      <trkpt lat="45.8355" lon="-0.78129">
        <ele>18</ele>
        <time>2010-09-26T09:20:50Z</time>
      </trkpt>
      <trkpt lat="45.83552" lon="-0.78135">
        <ele>18</ele>
        <time>2010-09-26T09:20:53Z</time>
      </trkpt>
      <trkpt lat="45.83555" lon="-0.78141">
        <ele>17</ele>
        <time>2010-09-26T09:20:56Z</time>
      </trkpt>
      <trkpt lat="45.83556" lon="-0.78147">
        <ele>17</ele>
        <time>2010-09-26T09:20:59Z</time>
      </trkpt>
      <trkpt lat="45.83558" lon="-0.78153">
        <ele>17</ele>
        <time>2010-09-26T09:21:02Z</time>
      </trkpt>
      <trkpt lat="45.83559" lon="-0.7816">
        <ele>17</ele>
        <time>2010-09-26T09:21:05Z</time>
      </trkpt>
      <trkpt lat="45.83558" lon="-0.78168">
        <ele>15</ele>
        <time>2010-09-26T09:21:09Z</time>
      </trkpt>
      <trkpt lat="45.83557" lon="-0.78175">
        <ele>15</ele>
        <time>2010-09-26T09:21:12Z</time>
      </trkpt>
      <trkpt lat="45.83556" lon="-0.78182">
        <ele>15</ele>
        <time>2010-09-26T09:21:15Z</time>
      </trkpt>
      <trkpt lat="45.83553" lon="-0.7819">
        <ele>15</ele>
        <time>2010-09-26T09:21:19Z</time>
      </trkpt>
      <trkpt lat="45.83553" lon="-0.78196">
        <ele>15</ele>
        <time>2010-09-26T09:21:22Z</time>
      </trkpt>
      <trkpt lat="45.8355" lon="-0.78204">
        <ele>14</ele>
        <time>2010-09-26T09:21:26Z</time>
      </trkpt>
      <trkpt lat="45.83549" lon="-0.78211">
        <ele>14</ele>
        <time>2010-09-26T09:21:30Z</time>
      </trkpt>
      <trkpt lat="45.83548" lon="-0.78219">
        <ele>14</ele>
        <time>2010-09-26T09:21:34Z</time>
      </trkpt>
      <trkpt lat="45.83547" lon="-0.78227">
        <ele>14</ele>
        <time>2010-09-26T09:21:38Z</time>
      </trkpt>
      <trkpt lat="45.8355" lon="-0.78234">
        <ele>14</ele>
        <time>2010-09-26T09:21:42Z</time>
      </trkpt>
      <trkpt lat="45.83552" lon="-0.78242">
        <ele>13</ele>
        <time>2010-09-26T09:21:46Z</time>
      </trkpt>
      <trkpt lat="45.83553" lon="-0.78248">
        <ele>13</ele>
        <time>2010-09-26T09:21:49Z</time>
      </trkpt>
      <trkpt lat="45.83556" lon="-0.78256">
        <ele>11</ele>
        <time>2010-09-26T09:21:53Z</time>
      </trkpt>
      <trkpt lat="45.83559" lon="-0.78261">
        <ele>11</ele>
        <time>2010-09-26T09:21:57Z</time>
      </trkpt>
      <trkpt lat="45.83561" lon="-0.78269">
        <ele>11</ele>
        <time>2010-09-26T09:22:01Z</time>
      </trkpt>
      <trkpt lat="45.83562" lon="-0.78276">
        <ele>11</ele>
        <time>2010-09-26T09:22:04Z</time>
      </trkpt>
      <trkpt lat="45.8356" lon="-0.78284">
        <ele>11</ele>
        <time>2010-09-26T09:22:08Z</time>
      </trkpt>
      <trkpt lat="45.83557" lon="-0.7829">
        <ele>11</ele>
        <time>2010-09-26T09:22:11Z</time>
      </trkpt>
      <trkpt lat="45.83553" lon="-0.78296">
        <ele>11</ele>
        <time>2010-09-26T09:22:14Z</time>
      </trkpt>
      <trkpt lat="45.83548" lon="-0.78302">
        <ele>11</ele>
        <time>2010-09-26T09:22:18Z</time>
      </trkpt>
      <trkpt lat="45.83544" lon="-0.78305">
        <ele>11</ele>
        <time>2010-09-26T09:22:21Z</time>
      </trkpt>
      <trkpt lat="45.83541" lon="-0.7831">
        <ele>10</ele>
        <time>2010-09-26T09:22:24Z</time>
      </trkpt>
      <trkpt lat="45.83536" lon="-0.78315">
        <ele>10</ele>
        <time>2010-09-26T09:22:27Z</time>
      </trkpt>
      <trkpt lat="45.83532" lon="-0.78321">
        <ele>10</ele>
        <time>2010-09-26T09:22:31Z</time>
      </trkpt>
      <trkpt lat="45.83528" lon="-0.78324">
        <ele>10</ele>
        <time>2010-09-26T09:22:34Z</time>
      </trkpt>
      <trkpt lat="45.83522" lon="-0.78329">
        <ele>10</ele>
        <time>2010-09-26T09:22:38Z</time>
      </trkpt>
      <trkpt lat="45.83519" lon="-0.78332">
        <ele>10</ele>
        <time>2010-09-26T09:22:41Z</time>
      </trkpt>
      <trkpt lat="45.83514" lon="-0.78337">
        <ele>10</ele>
        <time>2010-09-26T09:22:45Z</time>
      </trkpt>
      <trkpt lat="45.83511" lon="-0.78341">
        <ele>10</ele>
        <time>2010-09-26T09:22:48Z</time>
      </trkpt>
      <trkpt lat="45.83507" lon="-0.78345">
        <ele>10</ele>
        <time>2010-09-26T09:22:51Z</time>
      </trkpt>
      <trkpt lat="45.83503" lon="-0.78347">
        <ele>10</ele>
        <time>2010-09-26T09:22:54Z</time>
      </trkpt>
      <trkpt lat="45.83498" lon="-0.78352">
        <ele>10</ele>
        <time>2010-09-26T09:22:58Z</time>
      </trkpt>
      <trkpt lat="45.83494" lon="-0.78356">
        <ele>10</ele>
        <time>2010-09-26T09:23:02Z</time>
      </trkpt>
      <trkpt lat="45.8349" lon="-0.78361">
        <ele>10</ele>
        <time>2010-09-26T09:23:05Z</time>
      </trkpt>
      <trkpt lat="45.83484" lon="-0.78364">
        <ele>10</ele>
        <time>2010-09-26T09:23:09Z</time>
      </trkpt>
      <trkpt lat="45.83481" lon="-0.78369">
        <ele>10</ele>
        <time>2010-09-26T09:23:13Z</time>
      </trkpt>
      <trkpt lat="45.83477" lon="-0.78374">
        <ele>10</ele>
        <time>2010-09-26T09:23:16Z</time>
      </trkpt>
      <trkpt lat="45.83472" lon="-0.78378">
        <ele>10</ele>
        <time>2010-09-26T09:23:20Z</time>
      </trkpt>
      <trkpt lat="45.83468" lon="-0.78382">
        <ele>10</ele>
        <time>2010-09-26T09:23:23Z</time>
      </trkpt>
      <trkpt lat="45.83463" lon="-0.78386">
        <ele>11</ele>
        <time>2010-09-26T09:23:27Z</time>
      </trkpt>
      <trkpt lat="45.83459" lon="-0.7839">
        <ele>11</ele>
        <time>2010-09-26T09:23:31Z</time>
      </trkpt>
      <trkpt lat="45.83455" lon="-0.78395">
        <ele>11</ele>
        <time>2010-09-26T09:23:35Z</time>
      </trkpt>
      <trkpt lat="45.83452" lon="-0.784">
        <ele>11</ele>
        <time>2010-09-26T09:23:39Z</time>
      </trkpt>
      <trkpt lat="45.83448" lon="-0.78405">
        <ele>11</ele>
        <time>2010-09-26T09:23:44Z</time>
      </trkpt>
      <trkpt lat="45.83445" lon="-0.78408">
        <ele>11</ele>
        <time>2010-09-26T09:23:47Z</time>
      </trkpt>
      <trkpt lat="45.83441" lon="-0.78412">
        <ele>11</ele>
        <time>2010-09-26T09:23:51Z</time>
      </trkpt>
      <trkpt lat="45.83437" lon="-0.78418">
        <ele>13</ele>
        <time>2010-09-26T09:23:56Z</time>
      </trkpt>
      <trkpt lat="45.83434" lon="-0.78425">
        <ele>14</ele>
        <time>2010-09-26T09:24:00Z</time>
      </trkpt>
      <trkpt lat="45.83431" lon="-0.78431">
        <ele>14</ele>
        <time>2010-09-26T09:24:03Z</time>
      </trkpt>
      <trkpt lat="45.83427" lon="-0.78437">
        <ele>14</ele>
        <time>2010-09-26T09:24:06Z</time>
      </trkpt>
      <trkpt lat="45.83427" lon="-0.78443">
        <ele>14</ele>
        <time>2010-09-26T09:24:09Z</time>
      </trkpt>
      <trkpt lat="45.8343" lon="-0.7845">
        <ele>15</ele>
        <time>2010-09-26T09:24:13Z</time>
      </trkpt>
      <trkpt lat="45.83432" lon="-0.78455">
        <ele>15</ele>
        <time>2010-09-26T09:24:16Z</time>
      </trkpt>
      <trkpt lat="45.83434" lon="-0.78462">
        <ele>15</ele>
        <time>2010-09-26T09:24:20Z</time>
      </trkpt>
      <trkpt lat="45.83437" lon="-0.78469">
        <ele>16</ele>
        <time>2010-09-26T09:24:24Z</time>
      </trkpt>
      <trkpt lat="45.83438" lon="-0.78476">
        <ele>16</ele>
        <time>2010-09-26T09:24:29Z</time>
      </trkpt>
      <trkpt lat="45.83439" lon="-0.78478">
        <ele>16</ele>
        <time>2010-09-26T09:24:35Z</time>
      </trkpt>
      <trkpt lat="45.83444" lon="-0.78479">
        <ele>16</ele>
        <time>2010-09-26T09:25:05Z</time>
      </trkpt>
      <trkpt lat="45.83444" lon="-0.78479">
        <ele>16</ele>
        <time>2010-09-26T09:25:06Z</time>
      </trkpt>
      <trkpt lat="45.83452" lon="-0.78481">
        <ele>16</ele>
        <time>2010-09-26T09:25:08Z</time>
      </trkpt>
      <trkpt lat="45.83457" lon="-0.78481">
        <ele>16</ele>
        <time>2010-09-26T09:25:15Z</time>
      </trkpt>
      <trkpt lat="45.83463" lon="-0.78482">
        <ele>16</ele>
        <time>2010-09-26T09:25:20Z</time>
      </trkpt>
      <trkpt lat="45.83468" lon="-0.78484">
        <ele>17</ele>
        <time>2010-09-26T09:25:24Z</time>
      </trkpt>
      <trkpt lat="45.83472" lon="-0.78486">
        <ele>17</ele>
        <time>2010-09-26T09:25:30Z</time>
      </trkpt>
      <trkpt lat="45.83478" lon="-0.78487">
        <ele>17</ele>
        <time>2010-09-26T09:25:35Z</time>
      </trkpt>
      <trkpt lat="45.83483" lon="-0.78488">
        <ele>18</ele>
        <time>2010-09-26T09:25:40Z</time>
      </trkpt>
      <trkpt lat="45.83488" lon="-0.7849">
        <ele>18</ele>
        <time>2010-09-26T09:25:46Z</time>
      </trkpt>
      <trkpt lat="45.83493" lon="-0.78491">
        <ele>19</ele>
        <time>2010-09-26T09:25:52Z</time>
      </trkpt>
      <trkpt lat="45.83499" lon="-0.78491">
        <ele>19</ele>
        <time>2010-09-26T09:25:54Z</time>
      </trkpt>
      <trkpt lat="45.83503" lon="-0.78492">
        <ele>19</ele>
        <time>2010-09-26T09:25:58Z</time>
      </trkpt>
      <trkpt lat="45.83508" lon="-0.78495">
        <ele>19</ele>
        <time>2010-09-26T09:26:03Z</time>
      </trkpt>
      <trkpt lat="45.83513" lon="-0.78496">
        <ele>19</ele>
        <time>2010-09-26T09:26:07Z</time>
      </trkpt>
      <trkpt lat="45.83518" lon="-0.78498">
        <ele>19</ele>
        <time>2010-09-26T09:26:11Z</time>
      </trkpt>
      <trkpt lat="45.83523" lon="-0.78498">
        <ele>18</ele>
        <time>2010-09-26T09:26:15Z</time>
      </trkpt>
      <trkpt lat="45.83528" lon="-0.78498">
        <ele>18</ele>
        <time>2010-09-26T09:26:19Z</time>
      </trkpt>
      <trkpt lat="45.83534" lon="-0.78498">
        <ele>18</ele>
        <time>2010-09-26T09:26:24Z</time>
      </trkpt>
      <trkpt lat="45.83539" lon="-0.78498">
        <ele>18</ele>
        <time>2010-09-26T09:26:28Z</time>
      </trkpt>
      <trkpt lat="45.83544" lon="-0.78498">
        <ele>18</ele>
        <time>2010-09-26T09:26:31Z</time>
      </trkpt>
      <trkpt lat="45.83545" lon="-0.78498">
        <ele>18</ele>
        <time>2010-09-26T09:26:33Z</time>
      </trkpt>
      <trkpt lat="45.83549" lon="-0.78497">
        <ele>18</ele>
        <time>2010-09-26T09:26:36Z</time>
      </trkpt>
      <trkpt lat="45.83551" lon="-0.78498">
        <ele>18</ele>
        <time>2010-09-26T09:26:37Z</time>
      </trkpt>
      <trkpt lat="45.83556" lon="-0.78498">
        <ele>18</ele>
        <time>2010-09-26T09:26:41Z</time>
      </trkpt>
      <trkpt lat="45.83561" lon="-0.78498">
        <ele>18</ele>
        <time>2010-09-26T09:26:45Z</time>
      </trkpt>
      <trkpt lat="45.83566" lon="-0.78499">
        <ele>18</ele>
        <time>2010-09-26T09:26:48Z</time>
      </trkpt>
      <trkpt lat="45.83571" lon="-0.78499">
        <ele>19</ele>
        <time>2010-09-26T09:26:51Z</time>
      </trkpt>
      <trkpt lat="45.83575" lon="-0.78498">
        <ele>19</ele>
        <time>2010-09-26T09:26:59Z</time>
      </trkpt>
      <trkpt lat="45.83581" lon="-0.78498">
        <ele>20</ele>
        <time>2010-09-26T09:27:03Z</time>
      </trkpt>
      <trkpt lat="45.83586" lon="-0.78498">
        <ele>20</ele>
        <time>2010-09-26T09:27:06Z</time>
      </trkpt>
      <trkpt lat="45.83591" lon="-0.78498">
        <ele>19</ele>
        <time>2010-09-26T09:27:09Z</time>
      </trkpt>
      <trkpt lat="45.83596" lon="-0.78499">
        <ele>19</ele>
        <time>2010-09-26T09:27:13Z</time>
      </trkpt>
      <trkpt lat="45.83601" lon="-0.78501">
        <ele>21</ele>
        <time>2010-09-26T09:27:17Z</time>
      </trkpt>
      <trkpt lat="45.83606" lon="-0.78502">
        <ele>21</ele>
        <time>2010-09-26T09:27:22Z</time>
      </trkpt>
      <trkpt lat="45.8361" lon="-0.78504">
        <ele>21</ele>
        <time>2010-09-26T09:27:27Z</time>
      </trkpt>
      <trkpt lat="45.83613" lon="-0.78506">
        <ele>21</ele>
        <time>2010-09-26T09:27:37Z</time>
      </trkpt>
      <trkpt lat="45.83615" lon="-0.78505">
        <ele>21</ele>
        <time>2010-09-26T09:27:38Z</time>
      </trkpt>
      <trkpt lat="45.83621" lon="-0.78503">
        <ele>21</ele>
        <time>2010-09-26T09:27:44Z</time>
      </trkpt>
      <trkpt lat="45.83624" lon="-0.785">
        <ele>18</ele>
        <time>2010-09-26T09:27:49Z</time>
      </trkpt>
      <trkpt lat="45.83629" lon="-0.78495">
        <ele>18</ele>
        <time>2010-09-26T09:27:54Z</time>
      </trkpt>
      <trkpt lat="45.83632" lon="-0.7849">
        <ele>18</ele>
        <time>2010-09-26T09:27:58Z</time>
      </trkpt>
      <trkpt lat="45.83635" lon="-0.78484">
        <ele>18</ele>
        <time>2010-09-26T09:28:02Z</time>
      </trkpt>
      <trkpt lat="45.83639" lon="-0.7848">
        <ele>18</ele>
        <time>2010-09-26T09:28:05Z</time>
      </trkpt>
      <trkpt lat="45.83644" lon="-0.78476">
        <ele>18</ele>
        <time>2010-09-26T09:28:08Z</time>
      </trkpt>
      <trkpt lat="45.83648" lon="-0.78471">
        <ele>18</ele>
        <time>2010-09-26T09:28:12Z</time>
      </trkpt>
      <trkpt lat="45.83652" lon="-0.78466">
        <ele>18</ele>
        <time>2010-09-26T09:28:16Z</time>
      </trkpt>
      <trkpt lat="45.83656" lon="-0.78461">
        <ele>18</ele>
        <time>2010-09-26T09:28:21Z</time>
      </trkpt>
      <trkpt lat="45.8366" lon="-0.78457">
        <ele>17</ele>
        <time>2010-09-26T09:28:24Z</time>
      </trkpt>
      <trkpt lat="45.83665" lon="-0.78453">
        <ele>17</ele>
        <time>2010-09-26T09:28:28Z</time>
      </trkpt>
      <trkpt lat="45.8367" lon="-0.7845">
        <ele>18</ele>
        <time>2010-09-26T09:28:32Z</time>
      </trkpt>
      <trkpt lat="45.83675" lon="-0.78448">
        <ele>18</ele>
        <time>2010-09-26T09:28:35Z</time>
      </trkpt>
      <trkpt lat="45.83679" lon="-0.78451">
        <ele>18</ele>
        <time>2010-09-26T09:28:38Z</time>
      </trkpt>
      <trkpt lat="45.83684" lon="-0.78449">
        <ele>18</ele>
        <time>2010-09-26T09:28:47Z</time>
      </trkpt>
      <trkpt lat="45.83684" lon="-0.78442">
        <ele>18</ele>
        <time>2010-09-26T09:28:52Z</time>
      </trkpt>
      <trkpt lat="45.83682" lon="-0.78437">
        <ele>17</ele>
        <time>2010-09-26T09:28:57Z</time>
      </trkpt>
      <trkpt lat="45.8368" lon="-0.78435">
        <ele>17</ele>
        <time>2010-09-26T09:28:59Z</time>
      </trkpt>
      <trkpt lat="45.83682" lon="-0.78434">
        <ele>17</ele>
        <time>2010-09-26T09:30:15Z</time>
      </trkpt>
      <trkpt lat="45.83688" lon="-0.78444">
        <ele>18</ele>
        <time>2010-09-26T09:30:16Z</time>
      </trkpt>
      <trkpt lat="45.83689" lon="-0.7845">
        <ele>18</ele>
        <time>2010-09-26T09:30:19Z</time>
      </trkpt>
      <trkpt lat="45.8369" lon="-0.78457">
        <ele>18</ele>
        <time>2010-09-26T09:30:23Z</time>
      </trkpt>
      <trkpt lat="45.83689" lon="-0.78464">
        <ele>18</ele>
        <time>2010-09-26T09:30:27Z</time>
      </trkpt>
      <trkpt lat="45.83688" lon="-0.78472">
        <ele>19</ele>
        <time>2010-09-26T09:30:31Z</time>
      </trkpt>
      <trkpt lat="45.83688" lon="-0.78478">
        <ele>19</ele>
        <time>2010-09-26T09:30:34Z</time>
      </trkpt>
      <trkpt lat="45.8369" lon="-0.78485">
        <ele>19</ele>
        <time>2010-09-26T09:30:38Z</time>
      </trkpt>
      <trkpt lat="45.83692" lon="-0.78491">
        <ele>19</ele>
        <time>2010-09-26T09:30:42Z</time>
      </trkpt>
      <trkpt lat="45.83694" lon="-0.78498">
        <ele>19</ele>
        <time>2010-09-26T09:30:46Z</time>
      </trkpt>
      <trkpt lat="45.83697" lon="-0.78505">
        <ele>21</ele>
        <time>2010-09-26T09:30:50Z</time>
      </trkpt>
      <trkpt lat="45.837" lon="-0.78512">
        <ele>20</ele>
        <time>2010-09-26T09:30:55Z</time>
      </trkpt>
      <trkpt lat="45.83702" lon="-0.7852">
        <ele>20</ele>
        <time>2010-09-26T09:30:59Z</time>
      </trkpt>
      <trkpt lat="45.83704" lon="-0.78527">
        <ele>20</ele>
        <time>2010-09-26T09:31:03Z</time>
      </trkpt>
      <trkpt lat="45.83705" lon="-0.78535">
        <ele>20</ele>
        <time>2010-09-26T09:31:07Z</time>
      </trkpt>
      <trkpt lat="45.83707" lon="-0.78541">
        <ele>21</ele>
        <time>2010-09-26T09:31:10Z</time>
      </trkpt>
      <trkpt lat="45.83709" lon="-0.78547">
        <ele>21</ele>
        <time>2010-09-26T09:31:13Z</time>
      </trkpt>
      <trkpt lat="45.83711" lon="-0.78554">
        <ele>21</ele>
        <time>2010-09-26T09:31:16Z</time>
      </trkpt>
      <trkpt lat="45.83712" lon="-0.78561">
        <ele>21</ele>
        <time>2010-09-26T09:31:19Z</time>
      </trkpt>
      <trkpt lat="45.83713" lon="-0.78567">
        <ele>21</ele>
        <time>2010-09-26T09:31:22Z</time>
      </trkpt>
      <trkpt lat="45.83715" lon="-0.78574">
        <ele>21</ele>
        <time>2010-09-26T09:31:25Z</time>
      </trkpt>
      <trkpt lat="45.83715" lon="-0.78574">
        <ele>21</ele>
        <time>2010-09-26T09:31:25Z</time>
      </trkpt>
      <trkpt lat="45.83716" lon="-0.78582">
        <ele>21</ele>
        <time>2010-09-26T09:31:29Z</time>
      </trkpt>
      <trkpt lat="45.83718" lon="-0.78589">
        <ele>21</ele>
        <time>2010-09-26T09:31:32Z</time>
      </trkpt>
      <trkpt lat="45.83719" lon="-0.78596">
        <ele>21</ele>
        <time>2010-09-26T09:31:35Z</time>
      </trkpt>
      <trkpt lat="45.83721" lon="-0.78602">
        <ele>21</ele>
        <time>2010-09-26T09:31:38Z</time>
      </trkpt>
      <trkpt lat="45.83724" lon="-0.7861">
        <ele>21</ele>
        <time>2010-09-26T09:31:42Z</time>
      </trkpt>
      <trkpt lat="45.83725" lon="-0.78617">
        <ele>21</ele>
        <time>2010-09-26T09:31:46Z</time>
      </trkpt>
      <trkpt lat="45.83728" lon="-0.78625">
        <ele>21</ele>
        <time>2010-09-26T09:31:50Z</time>
      </trkpt>
      <trkpt lat="45.83729" lon="-0.78632">
        <ele>21</ele>
        <time>2010-09-26T09:31:54Z</time>
      </trkpt>
      <trkpt lat="45.83731" lon="-0.7864">
        <ele>21</ele>
        <time>2010-09-26T09:31:58Z</time>
      </trkpt>
      <trkpt lat="45.83732" lon="-0.78647">
        <ele>21</ele>
        <time>2010-09-26T09:32:01Z</time>
      </trkpt>
      <trkpt lat="45.83733" lon="-0.78655">
        <ele>21</ele>
        <time>2010-09-26T09:32:05Z</time>
      </trkpt>
      <trkpt lat="45.83735" lon="-0.78662">
        <ele>21</ele>
        <time>2010-09-26T09:32:09Z</time>
      </trkpt>
      <trkpt lat="45.83738" lon="-0.78669">
        <ele>22</ele>
        <time>2010-09-26T09:32:13Z</time>
      </trkpt>
      <trkpt lat="45.83739" lon="-0.78677">
        <ele>22</ele>
        <time>2010-09-26T09:32:17Z</time>
      </trkpt>
      <trkpt lat="45.83741" lon="-0.78685">
        <ele>22</ele>
        <time>2010-09-26T09:32:21Z</time>
      </trkpt>
      <trkpt lat="45.83741" lon="-0.78692">
        <ele>22</ele>
        <time>2010-09-26T09:32:24Z</time>
      </trkpt>
      <trkpt lat="45.83743" lon="-0.78698">
        <ele>22</ele>
        <time>2010-09-26T09:32:27Z</time>
      </trkpt>
      <trkpt lat="45.83746" lon="-0.78706">
        <ele>22</ele>
        <time>2010-09-26T09:32:31Z</time>
      </trkpt>
      <trkpt lat="45.83748" lon="-0.78714">
        <ele>22</ele>
        <time>2010-09-26T09:32:35Z</time>
      </trkpt>
      <trkpt lat="45.83749" lon="-0.78722">
        <ele>23</ele>
        <time>2010-09-26T09:32:39Z</time>
      </trkpt>
      <trkpt lat="45.8375" lon="-0.78728">
        <ele>22</ele>
        <time>2010-09-26T09:32:42Z</time>
      </trkpt>
      <trkpt lat="45.83753" lon="-0.78735">
        <ele>23</ele>
        <time>2010-09-26T09:32:45Z</time>
      </trkpt>
      <trkpt lat="45.83752" lon="-0.78742">
        <ele>23</ele>
        <time>2010-09-26T09:32:48Z</time>
      </trkpt>
      <trkpt lat="45.83754" lon="-0.78748">
        <ele>23</ele>
        <time>2010-09-26T09:32:51Z</time>
      </trkpt>
      <trkpt lat="45.83755" lon="-0.78754">
        <ele>23</ele>
        <time>2010-09-26T09:32:55Z</time>
      </trkpt>
      <trkpt lat="45.83756" lon="-0.7876">
        <ele>23</ele>
        <time>2010-09-26T09:32:58Z</time>
      </trkpt>
      <trkpt lat="45.83759" lon="-0.78768">
        <ele>23</ele>
        <time>2010-09-26T09:33:02Z</time>
      </trkpt>
      <trkpt lat="45.83763" lon="-0.78775">
        <ele>23</ele>
        <time>2010-09-26T09:33:06Z</time>
      </trkpt>
      <trkpt lat="45.83763" lon="-0.78782">
        <ele>23</ele>
        <time>2010-09-26T09:33:09Z</time>
      </trkpt>
      <trkpt lat="45.83764" lon="-0.78788">
        <ele>23</ele>
        <time>2010-09-26T09:33:12Z</time>
      </trkpt>
      <trkpt lat="45.83765" lon="-0.78795">
        <ele>23</ele>
        <time>2010-09-26T09:33:15Z</time>
      </trkpt>
      <trkpt lat="45.83768" lon="-0.78803">
        <ele>23</ele>
        <time>2010-09-26T09:33:19Z</time>
      </trkpt>
      <trkpt lat="45.8377" lon="-0.78809">
        <ele>23</ele>
        <time>2010-09-26T09:33:22Z</time>
      </trkpt>
      <trkpt lat="45.83772" lon="-0.78816">
        <ele>23</ele>
        <time>2010-09-26T09:33:26Z</time>
      </trkpt>
      <trkpt lat="45.83774" lon="-0.78822">
        <ele>23</ele>
        <time>2010-09-26T09:33:29Z</time>
      </trkpt>
      <trkpt lat="45.83776" lon="-0.78829">
        <ele>23</ele>
        <time>2010-09-26T09:33:32Z</time>
      </trkpt>
      <trkpt lat="45.83777" lon="-0.78835">
        <ele>22</ele>
        <time>2010-09-26T09:33:35Z</time>
      </trkpt>
      <trkpt lat="45.83777" lon="-0.78841">
        <ele>22</ele>
        <time>2010-09-26T09:33:38Z</time>
      </trkpt>
      <trkpt lat="45.83779" lon="-0.78847">
        <ele>22</ele>
        <time>2010-09-26T09:33:41Z</time>
      </trkpt>
      <trkpt lat="45.8378" lon="-0.78853">
        <ele>22</ele>
        <time>2010-09-26T09:33:44Z</time>
      </trkpt>
      <trkpt lat="45.83783" lon="-0.78861">
        <ele>22</ele>
        <time>2010-09-26T09:33:48Z</time>
      </trkpt>
      <trkpt lat="45.83785" lon="-0.78869">
        <ele>22</ele>
        <time>2010-09-26T09:33:52Z</time>
      </trkpt>
      <trkpt lat="45.83786" lon="-0.78875">
        <ele>22</ele>
        <time>2010-09-26T09:33:55Z</time>
      </trkpt>
      <trkpt lat="45.83785" lon="-0.78882">
        <ele>22</ele>
        <time>2010-09-26T09:33:59Z</time>
      </trkpt>
      <trkpt lat="45.83781" lon="-0.78888">
        <ele>22</ele>
        <time>2010-09-26T09:34:04Z</time>
      </trkpt>
      <trkpt lat="45.83778" lon="-0.78892">
        <ele>22</ele>
        <time>2010-09-26T09:34:10Z</time>
      </trkpt>
      <trkpt lat="45.83775" lon="-0.78898">
        <ele>22</ele>
        <time>2010-09-26T09:34:15Z</time>
      </trkpt>
      <trkpt lat="45.83771" lon="-0.78903">
        <ele>22</ele>
        <time>2010-09-26T09:34:20Z</time>
      </trkpt>
      <trkpt lat="45.83769" lon="-0.78908">
        <ele>22</ele>
        <time>2010-09-26T09:34:24Z</time>
      </trkpt>
      <trkpt lat="45.83765" lon="-0.78913">
        <ele>23</ele>
        <time>2010-09-26T09:34:27Z</time>
      </trkpt>
      <trkpt lat="45.83762" lon="-0.78918">
        <ele>22</ele>
        <time>2010-09-26T09:34:30Z</time>
      </trkpt>
      <trkpt lat="45.83758" lon="-0.78923">
        <ele>22</ele>
        <time>2010-09-26T09:34:34Z</time>
      </trkpt>
      <trkpt lat="45.83754" lon="-0.78929">
        <ele>22</ele>
        <time>2010-09-26T09:34:39Z</time>
      </trkpt>
      <trkpt lat="45.8375" lon="-0.78934">
        <ele>21</ele>
        <time>2010-09-26T09:34:42Z</time>
      </trkpt>
      <trkpt lat="45.83747" lon="-0.78938">
        <ele>23</ele>
        <time>2010-09-26T09:34:45Z</time>
      </trkpt>
      <trkpt lat="45.83742" lon="-0.78941">
        <ele>23</ele>
        <time>2010-09-26T09:34:47Z</time>
      </trkpt>
      <trkpt lat="45.83738" lon="-0.78945">
        <ele>23</ele>
        <time>2010-09-26T09:34:49Z</time>
      </trkpt>
      <trkpt lat="45.83733" lon="-0.78948">
        <ele>23</ele>
        <time>2010-09-26T09:34:52Z</time>
      </trkpt>
      <trkpt lat="45.83729" lon="-0.78952">
        <ele>23</ele>
        <time>2010-09-26T09:34:55Z</time>
      </trkpt>
      <trkpt lat="45.83725" lon="-0.78956">
        <ele>23</ele>
        <time>2010-09-26T09:34:59Z</time>
      </trkpt>
      <trkpt lat="45.83721" lon="-0.7896">
        <ele>23</ele>
        <time>2010-09-26T09:35:02Z</time>
      </trkpt>
      <trkpt lat="45.83717" lon="-0.78964">
        <ele>23</ele>
        <time>2010-09-26T09:35:05Z</time>
      </trkpt>
      <trkpt lat="45.83714" lon="-0.78969">
        <ele>23</ele>
        <time>2010-09-26T09:35:09Z</time>
      </trkpt>
      <trkpt lat="45.83711" lon="-0.78974">
        <ele>23</ele>
        <time>2010-09-26T09:35:12Z</time>
      </trkpt>
      <trkpt lat="45.83706" lon="-0.78979">
        <ele>23</ele>
        <time>2010-09-26T09:35:15Z</time>
      </trkpt>
      <trkpt lat="45.83702" lon="-0.78981">
        <ele>23</ele>
        <time>2010-09-26T09:35:21Z</time>
      </trkpt>
      <trkpt lat="45.83697" lon="-0.78988">
        <ele>23</ele>
        <time>2010-09-26T09:35:25Z</time>
      </trkpt>
      <trkpt lat="45.83695" lon="-0.78993">
        <ele>23</ele>
        <time>2010-09-26T09:35:28Z</time>
      </trkpt>
      <trkpt lat="45.83691" lon="-0.78999">
        <ele>23</ele>
        <time>2010-09-26T09:35:31Z</time>
      </trkpt>
      <trkpt lat="45.83688" lon="-0.79004">
        <ele>21</ele>
        <time>2010-09-26T09:35:34Z</time>
      </trkpt>
      <trkpt lat="45.83685" lon="-0.7901">
        <ele>21</ele>
        <time>2010-09-26T09:35:37Z</time>
      </trkpt>
      <trkpt lat="45.83682" lon="-0.79015">
        <ele>21</ele>
        <time>2010-09-26T09:35:40Z</time>
      </trkpt>
      <trkpt lat="45.83678" lon="-0.79021">
        <ele>21</ele>
        <time>2010-09-26T09:35:43Z</time>
      </trkpt>
      <trkpt lat="45.83675" lon="-0.79025">
        <ele>21</ele>
        <time>2010-09-26T09:35:46Z</time>
      </trkpt>
      <trkpt lat="45.83671" lon="-0.7903">
        <ele>21</ele>
        <time>2010-09-26T09:35:50Z</time>
      </trkpt>
      <trkpt lat="45.83667" lon="-0.79036">
        <ele>23</ele>
        <time>2010-09-26T09:35:54Z</time>
      </trkpt>
      <trkpt lat="45.83663" lon="-0.7904">
        <ele>23</ele>
        <time>2010-09-26T09:35:58Z</time>
      </trkpt>
      <trkpt lat="45.83658" lon="-0.79046">
        <ele>23</ele>
        <time>2010-09-26T09:36:02Z</time>
      </trkpt>
      <trkpt lat="45.83654" lon="-0.79051">
        <ele>22</ele>
        <time>2010-09-26T09:36:06Z</time>
      </trkpt>
      <trkpt lat="45.83649" lon="-0.79056">
        <ele>22</ele>
        <time>2010-09-26T09:36:09Z</time>
      </trkpt>
      <trkpt lat="45.83645" lon="-0.7906">
        <ele>22</ele>
        <time>2010-09-26T09:36:12Z</time>
      </trkpt>
      <trkpt lat="45.83643" lon="-0.79066">
        <ele>22</ele>
        <time>2010-09-26T09:36:15Z</time>
      </trkpt>
      <trkpt lat="45.83639" lon="-0.7907">
        <ele>22</ele>
        <time>2010-09-26T09:36:18Z</time>
      </trkpt>
      <trkpt lat="45.83634" lon="-0.79075">
        <ele>22</ele>
        <time>2010-09-26T09:36:21Z</time>
      </trkpt>
      <trkpt lat="45.8363" lon="-0.7908">
        <ele>22</ele>
        <time>2010-09-26T09:36:24Z</time>
      </trkpt>
      <trkpt lat="45.83626" lon="-0.79085">
        <ele>20</ele>
        <time>2010-09-26T09:36:27Z</time>
      </trkpt>
      <trkpt lat="45.83623" lon="-0.79091">
        <ele>20</ele>
        <time>2010-09-26T09:36:30Z</time>
      </trkpt>
      <trkpt lat="45.83618" lon="-0.79097">
        <ele>21</ele>
        <time>2010-09-26T09:36:33Z</time>
      </trkpt>
      <trkpt lat="45.83615" lon="-0.79103">
        <ele>21</ele>
        <time>2010-09-26T09:36:36Z</time>
      </trkpt>
      <trkpt lat="45.83611" lon="-0.79109">
        <ele>21</ele>
        <time>2010-09-26T09:36:39Z</time>
      </trkpt>
      <trkpt lat="45.83607" lon="-0.79114">
        <ele>21</ele>
        <time>2010-09-26T09:36:42Z</time>
      </trkpt>
      <trkpt lat="45.83604" lon="-0.7912">
        <ele>20</ele>
        <time>2010-09-26T09:36:45Z</time>
      </trkpt>
      <trkpt lat="45.83601" lon="-0.79126">
        <ele>20</ele>
        <time>2010-09-26T09:36:49Z</time>
      </trkpt>
      <trkpt lat="45.83598" lon="-0.79132">
        <ele>20</ele>
        <time>2010-09-26T09:36:52Z</time>
      </trkpt>
      <trkpt lat="45.83595" lon="-0.79138">
        <ele>21</ele>
        <time>2010-09-26T09:36:55Z</time>
      </trkpt>
      <trkpt lat="45.83592" lon="-0.79144">
        <ele>21</ele>
        <time>2010-09-26T09:36:59Z</time>
      </trkpt>
      <trkpt lat="45.83589" lon="-0.7915">
        <ele>21</ele>
        <time>2010-09-26T09:37:02Z</time>
      </trkpt>
      <trkpt lat="45.83586" lon="-0.79157">
        <ele>21</ele>
        <time>2010-09-26T09:37:06Z</time>
      </trkpt>
      <trkpt lat="45.83583" lon="-0.79163">
        <ele>22</ele>
        <time>2010-09-26T09:37:10Z</time>
      </trkpt>
      <trkpt lat="45.83579" lon="-0.79169">
        <ele>22</ele>
        <time>2010-09-26T09:37:14Z</time>
      </trkpt>
      <trkpt lat="45.83576" lon="-0.79173">
        <ele>22</ele>
        <time>2010-09-26T09:37:17Z</time>
      </trkpt>
      <trkpt lat="45.83572" lon="-0.79179">
        <ele>22</ele>
        <time>2010-09-26T09:37:21Z</time>
      </trkpt>
      <trkpt lat="45.83569" lon="-0.79185">
        <ele>22</ele>
        <time>2010-09-26T09:37:25Z</time>
      </trkpt>
      <trkpt lat="45.83566" lon="-0.7919">
        <ele>22</ele>
        <time>2010-09-26T09:37:29Z</time>
      </trkpt>
      <trkpt lat="45.83562" lon="-0.79197">
        <ele>22</ele>
        <time>2010-09-26T09:37:33Z</time>
      </trkpt>
      <trkpt lat="45.83559" lon="-0.79201">
        <ele>22</ele>
        <time>2010-09-26T09:37:36Z</time>
      </trkpt>
      <trkpt lat="45.83555" lon="-0.79206">
        <ele>22</ele>
        <time>2010-09-26T09:37:40Z</time>
      </trkpt>
      <trkpt lat="45.83549" lon="-0.79206">
        <ele>22</ele>
        <time>2010-09-26T09:37:43Z</time>
      </trkpt>
      <trkpt lat="45.83543" lon="-0.79204">
        <ele>22</ele>
        <time>2010-09-26T09:37:46Z</time>
      </trkpt>
      <trkpt lat="45.83539" lon="-0.79199">
        <ele>22</ele>
        <time>2010-09-26T09:37:50Z</time>
      </trkpt>
      <trkpt lat="45.83535" lon="-0.79194">
        <ele>22</ele>
        <time>2010-09-26T09:37:54Z</time>
      </trkpt>
      <trkpt lat="45.8353" lon="-0.79189">
        <ele>22</ele>
        <time>2010-09-26T09:37:58Z</time>
      </trkpt>
      <trkpt lat="45.83527" lon="-0.79183">
        <ele>22</ele>
        <time>2010-09-26T09:38:02Z</time>
      </trkpt>
      <trkpt lat="45.83523" lon="-0.79177">
        <ele>23</ele>
        <time>2010-09-26T09:38:06Z</time>
      </trkpt>
      <trkpt lat="45.8352" lon="-0.7917">
        <ele>23</ele>
        <time>2010-09-26T09:38:10Z</time>
      </trkpt>
      <trkpt lat="45.83516" lon="-0.79163">
        <ele>24</ele>
        <time>2010-09-26T09:38:14Z</time>
      </trkpt>
      <trkpt lat="45.83513" lon="-0.79156">
        <ele>24</ele>
        <time>2010-09-26T09:38:18Z</time>
      </trkpt>
      <trkpt lat="45.8351" lon="-0.7915">
        <ele>24</ele>
        <time>2010-09-26T09:38:22Z</time>
      </trkpt>
      <trkpt lat="45.83507" lon="-0.79145">
        <ele>24</ele>
        <time>2010-09-26T09:38:26Z</time>
      </trkpt>
      <trkpt lat="45.83504" lon="-0.7914">
        <ele>24</ele>
        <time>2010-09-26T09:38:30Z</time>
      </trkpt>
      <trkpt lat="45.835" lon="-0.79135">
        <ele>24</ele>
        <time>2010-09-26T09:38:34Z</time>
      </trkpt>
      <trkpt lat="45.83496" lon="-0.7913">
        <ele>24</ele>
        <time>2010-09-26T09:38:38Z</time>
      </trkpt>
      <trkpt lat="45.83492" lon="-0.79125">
        <ele>24</ele>
        <time>2010-09-26T09:38:42Z</time>
      </trkpt>
      <trkpt lat="45.83489" lon="-0.79119">
        <ele>24</ele>
        <time>2010-09-26T09:38:46Z</time>
      </trkpt>
      <trkpt lat="45.83486" lon="-0.79113">
        <ele>24</ele>
        <time>2010-09-26T09:38:49Z</time>
      </trkpt>
      <trkpt lat="45.83483" lon="-0.79106">
        <ele>25</ele>
        <time>2010-09-26T09:38:53Z</time>
      </trkpt>
      <trkpt lat="45.8348" lon="-0.791">
        <ele>25</ele>
        <time>2010-09-26T09:38:57Z</time>
      </trkpt>
      <trkpt lat="45.83477" lon="-0.79094">
        <ele>25</ele>
        <time>2010-09-26T09:39:01Z</time>
      </trkpt>
      <trkpt lat="45.83474" lon="-0.79087">
        <ele>25</ele>
        <time>2010-09-26T09:39:05Z</time>
      </trkpt>
      <trkpt lat="45.8347" lon="-0.7908">
        <ele>25</ele>
        <time>2010-09-26T09:39:09Z</time>
      </trkpt>
      <trkpt lat="45.83467" lon="-0.79073">
        <ele>24</ele>
        <time>2010-09-26T09:39:13Z</time>
      </trkpt>
      <trkpt lat="45.83464" lon="-0.79067">
        <ele>24</ele>
        <time>2010-09-26T09:39:16Z</time>
      </trkpt>
      <trkpt lat="45.83461" lon="-0.7906">
        <ele>24</ele>
        <time>2010-09-26T09:39:20Z</time>
      </trkpt>
      <trkpt lat="45.83458" lon="-0.79053">
        <ele>24</ele>
        <time>2010-09-26T09:39:24Z</time>
      </trkpt>
      <trkpt lat="45.83454" lon="-0.79049">
        <ele>24</ele>
        <time>2010-09-26T09:39:27Z</time>
      </trkpt>
      <trkpt lat="45.83451" lon="-0.79043">
        <ele>24</ele>
        <time>2010-09-26T09:39:31Z</time>
      </trkpt>
      <trkpt lat="45.83449" lon="-0.79037">
        <ele>24</ele>
        <time>2010-09-26T09:39:34Z</time>
      </trkpt>
      <trkpt lat="45.83445" lon="-0.79032">
        <ele>24</ele>
        <time>2010-09-26T09:39:37Z</time>
      </trkpt>
      <trkpt lat="45.83442" lon="-0.79026">
        <ele>24</ele>
        <time>2010-09-26T09:39:40Z</time>
      </trkpt>
      <trkpt lat="45.83438" lon="-0.79022">
        <ele>23</ele>
        <time>2010-09-26T09:39:44Z</time>
      </trkpt>
      <trkpt lat="45.83434" lon="-0.79015">
        <ele>23</ele>
        <time>2010-09-26T09:39:48Z</time>
      </trkpt>
      <trkpt lat="45.83431" lon="-0.7901">
        <ele>23</ele>
        <time>2010-09-26T09:39:52Z</time>
      </trkpt>
      <trkpt lat="45.83426" lon="-0.79009">
        <ele>23</ele>
        <time>2010-09-26T09:39:58Z</time>
      </trkpt>
      <trkpt lat="45.83421" lon="-0.79011">
        <ele>23</ele>
        <time>2010-09-26T09:40:03Z</time>
      </trkpt>
      <trkpt lat="45.83417" lon="-0.79015">
        <ele>23</ele>
        <time>2010-09-26T09:40:09Z</time>
      </trkpt>
      <trkpt lat="45.83411" lon="-0.79019">
        <ele>22</ele>
        <time>2010-09-26T09:40:13Z</time>
      </trkpt>
      <trkpt lat="45.83406" lon="-0.79023">
        <ele>22</ele>
        <time>2010-09-26T09:40:17Z</time>
      </trkpt>
      <trkpt lat="45.83401" lon="-0.79025">
        <ele>22</ele>
        <time>2010-09-26T09:40:21Z</time>
      </trkpt>
      <trkpt lat="45.83397" lon="-0.79031">
        <ele>22</ele>
        <time>2010-09-26T09:40:25Z</time>
      </trkpt>
      <trkpt lat="45.83393" lon="-0.79036">
        <ele>21</ele>
        <time>2010-09-26T09:40:28Z</time>
      </trkpt>
      <trkpt lat="45.83389" lon="-0.7904">
        <ele>21</ele>
        <time>2010-09-26T09:40:32Z</time>
      </trkpt>
      <trkpt lat="45.83385" lon="-0.79046">
        <ele>21</ele>
        <time>2010-09-26T09:40:37Z</time>
      </trkpt>
      <trkpt lat="45.8338" lon="-0.79051">
        <ele>21</ele>
        <time>2010-09-26T09:40:41Z</time>
      </trkpt>
      <trkpt lat="45.83375" lon="-0.79054">
        <ele>21</ele>
        <time>2010-09-26T09:40:44Z</time>
      </trkpt>
      <trkpt lat="45.83371" lon="-0.79058">
        <ele>21</ele>
        <time>2010-09-26T09:40:47Z</time>
      </trkpt>
      <trkpt lat="45.83367" lon="-0.79062">
        <ele>21</ele>
        <time>2010-09-26T09:40:50Z</time>
      </trkpt>
      <trkpt lat="45.83363" lon="-0.79067">
        <ele>21</ele>
        <time>2010-09-26T09:40:54Z</time>
      </trkpt>
      <trkpt lat="45.83358" lon="-0.79072">
        <ele>21</ele>
        <time>2010-09-26T09:40:58Z</time>
      </trkpt>
      <trkpt lat="45.83354" lon="-0.79077">
        <ele>21</ele>
        <time>2010-09-26T09:41:02Z</time>
      </trkpt>
      <trkpt lat="45.8335" lon="-0.79081">
        <ele>21</ele>
        <time>2010-09-26T09:41:05Z</time>
      </trkpt>
      <trkpt lat="45.83345" lon="-0.79084">
        <ele>21</ele>
        <time>2010-09-26T09:41:08Z</time>
      </trkpt>
      <trkpt lat="45.83341" lon="-0.79087">
        <ele>20</ele>
        <time>2010-09-26T09:41:11Z</time>
      </trkpt>
      <trkpt lat="45.83336" lon="-0.79091">
        <ele>20</ele>
        <time>2010-09-26T09:41:15Z</time>
      </trkpt>
      <trkpt lat="45.83332" lon="-0.79095">
        <ele>20</ele>
        <time>2010-09-26T09:41:19Z</time>
      </trkpt>
      <trkpt lat="45.83328" lon="-0.79099">
        <ele>20</ele>
        <time>2010-09-26T09:41:22Z</time>
      </trkpt>
      <trkpt lat="45.83324" lon="-0.79103">
        <ele>20</ele>
        <time>2010-09-26T09:41:25Z</time>
      </trkpt>
      <trkpt lat="45.83319" lon="-0.79106">
        <ele>20</ele>
        <time>2010-09-26T09:41:29Z</time>
      </trkpt>
      <trkpt lat="45.83314" lon="-0.79111">
        <ele>20</ele>
        <time>2010-09-26T09:41:33Z</time>
      </trkpt>
      <trkpt lat="45.83309" lon="-0.79115">
        <ele>20</ele>
        <time>2010-09-26T09:41:37Z</time>
      </trkpt>
      <trkpt lat="45.83304" lon="-0.79118">
        <ele>20</ele>
        <time>2010-09-26T09:41:40Z</time>
      </trkpt>
      <trkpt lat="45.833" lon="-0.79124">
        <ele>20</ele>
        <time>2010-09-26T09:41:44Z</time>
      </trkpt>
      <trkpt lat="45.83296" lon="-0.79127">
        <ele>20</ele>
        <time>2010-09-26T09:41:47Z</time>
      </trkpt>
      <trkpt lat="45.83292" lon="-0.7913">
        <ele>20</ele>
        <time>2010-09-26T09:41:50Z</time>
      </trkpt>
      <trkpt lat="45.83287" lon="-0.79133">
        <ele>20</ele>
        <time>2010-09-26T09:41:54Z</time>
      </trkpt>
      <trkpt lat="45.83282" lon="-0.79138">
        <ele>20</ele>
        <time>2010-09-26T09:41:58Z</time>
      </trkpt>
      <trkpt lat="45.83277" lon="-0.7914">
        <ele>20</ele>
        <time>2010-09-26T09:42:01Z</time>
      </trkpt>
      <trkpt lat="45.83272" lon="-0.79142">
        <ele>20</ele>
        <time>2010-09-26T09:42:04Z</time>
      </trkpt>
      <trkpt lat="45.83268" lon="-0.79144">
        <ele>20</ele>
        <time>2010-09-26T09:42:07Z</time>
      </trkpt>
      <trkpt lat="45.83263" lon="-0.79147">
        <ele>19</ele>
        <time>2010-09-26T09:42:10Z</time>
      </trkpt>
      <trkpt lat="45.83258" lon="-0.79149">
        <ele>19</ele>
        <time>2010-09-26T09:42:13Z</time>
      </trkpt>
      <trkpt lat="45.83253" lon="-0.7915">
        <ele>19</ele>
        <time>2010-09-26T09:42:16Z</time>
      </trkpt>
      <trkpt lat="45.83247" lon="-0.79151">
        <ele>19</ele>
        <time>2010-09-26T09:42:20Z</time>
      </trkpt>
      <trkpt lat="45.83242" lon="-0.79153">
        <ele>19</ele>
        <time>2010-09-26T09:42:23Z</time>
      </trkpt>
      <trkpt lat="45.83237" lon="-0.79155">
        <ele>19</ele>
        <time>2010-09-26T09:42:27Z</time>
      </trkpt>
      <trkpt lat="45.83232" lon="-0.79156">
        <ele>19</ele>
        <time>2010-09-26T09:42:30Z</time>
      </trkpt>
      <trkpt lat="45.83226" lon="-0.79157">
        <ele>19</ele>
        <time>2010-09-26T09:42:34Z</time>
      </trkpt>
      <trkpt lat="45.83221" lon="-0.79159">
        <ele>19</ele>
        <time>2010-09-26T09:42:37Z</time>
      </trkpt>
      <trkpt lat="45.83216" lon="-0.79161">
        <ele>19</ele>
        <time>2010-09-26T09:42:41Z</time>
      </trkpt>
      <trkpt lat="45.8321" lon="-0.79162">
        <ele>19</ele>
        <time>2010-09-26T09:42:45Z</time>
      </trkpt>
      <trkpt lat="45.83204" lon="-0.79163">
        <ele>19</ele>
        <time>2010-09-26T09:42:49Z</time>
      </trkpt>
      <trkpt lat="45.83199" lon="-0.79164">
        <ele>19</ele>
        <time>2010-09-26T09:42:52Z</time>
      </trkpt>
      <trkpt lat="45.83194" lon="-0.79164">
        <ele>19</ele>
        <time>2010-09-26T09:42:56Z</time>
      </trkpt>
      <trkpt lat="45.83188" lon="-0.79164">
        <ele>19</ele>
        <time>2010-09-26T09:43:00Z</time>
      </trkpt>
      <trkpt lat="45.83183" lon="-0.79163">
        <ele>19</ele>
        <time>2010-09-26T09:43:03Z</time>
      </trkpt>
      <trkpt lat="45.83178" lon="-0.79163">
        <ele>20</ele>
        <time>2010-09-26T09:43:06Z</time>
      </trkpt>
      <trkpt lat="45.83173" lon="-0.79161">
        <ele>20</ele>
        <time>2010-09-26T09:43:09Z</time>
      </trkpt>
      <trkpt lat="45.83167" lon="-0.79159">
        <ele>20</ele>
        <time>2010-09-26T09:43:13Z</time>
      </trkpt>
      <trkpt lat="45.83162" lon="-0.79158">
        <ele>19</ele>
        <time>2010-09-26T09:43:16Z</time>
      </trkpt>
      <trkpt lat="45.83157" lon="-0.79156">
        <ele>19</ele>
        <time>2010-09-26T09:43:19Z</time>
      </trkpt>
      <trkpt lat="45.83153" lon="-0.79154">
        <ele>19</ele>
        <time>2010-09-26T09:43:22Z</time>
      </trkpt>
      <trkpt lat="45.83148" lon="-0.7915">
        <ele>19</ele>
        <time>2010-09-26T09:43:25Z</time>
      </trkpt>
      <trkpt lat="45.83143" lon="-0.79146">
        <ele>19</ele>
        <time>2010-09-26T09:43:29Z</time>
      </trkpt>
      <trkpt lat="45.83139" lon="-0.79143">
        <ele>19</ele>
        <time>2010-09-26T09:43:32Z</time>
      </trkpt>
      <trkpt lat="45.83134" lon="-0.79139">
        <ele>19</ele>
        <time>2010-09-26T09:43:35Z</time>
      </trkpt>
      <trkpt lat="45.83129" lon="-0.79135">
        <ele>19</ele>
        <time>2010-09-26T09:43:39Z</time>
      </trkpt>
      <trkpt lat="45.83125" lon="-0.79132">
        <ele>19</ele>
        <time>2010-09-26T09:43:42Z</time>
      </trkpt>
      <trkpt lat="45.83121" lon="-0.79128">
        <ele>19</ele>
        <time>2010-09-26T09:43:45Z</time>
      </trkpt>
      <trkpt lat="45.83116" lon="-0.79122">
        <ele>18</ele>
        <time>2010-09-26T09:43:49Z</time>
      </trkpt>
      <trkpt lat="45.83111" lon="-0.79117">
        <ele>18</ele>
        <time>2010-09-26T09:43:53Z</time>
      </trkpt>
      <trkpt lat="45.83107" lon="-0.79112">
        <ele>18</ele>
        <time>2010-09-26T09:43:57Z</time>
      </trkpt>
      <trkpt lat="45.83102" lon="-0.79107">
        <ele>18</ele>
        <time>2010-09-26T09:44:01Z</time>
      </trkpt>
      <trkpt lat="45.83098" lon="-0.79103">
        <ele>18</ele>
        <time>2010-09-26T09:44:04Z</time>
      </trkpt>
      <trkpt lat="45.83094" lon="-0.79097">
        <ele>18</ele>
        <time>2010-09-26T09:44:08Z</time>
      </trkpt>
      <trkpt lat="45.8309" lon="-0.79092">
        <ele>18</ele>
        <time>2010-09-26T09:44:11Z</time>
      </trkpt>
      <trkpt lat="45.83087" lon="-0.79088">
        <ele>17</ele>
        <time>2010-09-26T09:44:14Z</time>
      </trkpt>
      <trkpt lat="45.83084" lon="-0.79083">
        <ele>17</ele>
        <time>2010-09-26T09:44:17Z</time>
      </trkpt>
      <trkpt lat="45.83081" lon="-0.79077">
        <ele>17</ele>
        <time>2010-09-26T09:44:20Z</time>
      </trkpt>
      <trkpt lat="45.83077" lon="-0.79073">
        <ele>17</ele>
        <time>2010-09-26T09:44:24Z</time>
      </trkpt>
      <trkpt lat="45.83072" lon="-0.79074">
        <ele>17</ele>
        <time>2010-09-26T09:44:29Z</time>
      </trkpt>
      <trkpt lat="45.8307" lon="-0.79081">
        <ele>17</ele>
        <time>2010-09-26T09:44:34Z</time>
      </trkpt>
      <trkpt lat="45.83069" lon="-0.79088">
        <ele>18</ele>
        <time>2010-09-26T09:44:38Z</time>
      </trkpt>
      <trkpt lat="45.83069" lon="-0.79095">
        <ele>18</ele>
        <time>2010-09-26T09:44:42Z</time>
      </trkpt>
      <trkpt lat="45.83065" lon="-0.791">
        <ele>18</ele>
        <time>2010-09-26T09:44:47Z</time>
      </trkpt>
      <trkpt lat="45.83065" lon="-0.791">
        <ele>18</ele>
        <time>2010-09-26T09:44:47Z</time>
      </trkpt>
      <trkpt lat="45.83062" lon="-0.79104">
        <ele>18</ele>
        <time>2010-09-26T09:45:00Z</time>
      </trkpt>
      <trkpt lat="45.83062" lon="-0.79105">
        <ele>18</ele>
        <time>2010-09-26T09:45:01Z</time>
      </trkpt>
      <trkpt lat="45.83062" lon="-0.79105">
        <ele>18</ele>
        <time>2010-09-26T09:45:01Z</time>
      </trkpt>
      <trkpt lat="45.83062" lon="-0.79103">
        <ele>18</ele>
        <time>2010-09-26T09:45:59Z</time>
      </trkpt>
      <trkpt lat="45.83065" lon="-0.79097">
        <ele>18</ele>
        <time>2010-09-26T09:46:00Z</time>
      </trkpt>
      <trkpt lat="45.83069" lon="-0.79092">
        <ele>18</ele>
        <time>2010-09-26T09:46:06Z</time>
      </trkpt>
      <trkpt lat="45.8307" lon="-0.79085">
        <ele>18</ele>
        <time>2010-09-26T09:46:10Z</time>
      </trkpt>
      <trkpt lat="45.8307" lon="-0.79077">
        <ele>17</ele>
        <time>2010-09-26T09:46:14Z</time>
      </trkpt>
      <trkpt lat="45.83072" lon="-0.79069">
        <ele>17</ele>
        <time>2010-09-26T09:46:18Z</time>
      </trkpt>
      <trkpt lat="45.83072" lon="-0.79062">
        <ele>17</ele>
        <time>2010-09-26T09:46:22Z</time>
      </trkpt>
      <trkpt lat="45.83072" lon="-0.79055">
        <ele>17</ele>
        <time>2010-09-26T09:46:25Z</time>
      </trkpt>
      <trkpt lat="45.8307" lon="-0.79047">
        <ele>18</ele>
        <time>2010-09-26T09:46:29Z</time>
      </trkpt>
      <trkpt lat="45.83067" lon="-0.7904">
        <ele>18</ele>
        <time>2010-09-26T09:46:33Z</time>
      </trkpt>
      <trkpt lat="45.83065" lon="-0.79033">
        <ele>18</ele>
        <time>2010-09-26T09:46:36Z</time>
      </trkpt>
      <trkpt lat="45.83062" lon="-0.79028">
        <ele>18</ele>
        <time>2010-09-26T09:46:39Z</time>
      </trkpt>
      <trkpt lat="45.83059" lon="-0.79021">
        <ele>18</ele>
        <time>2010-09-26T09:46:42Z</time>
      </trkpt>
      <trkpt lat="45.83057" lon="-0.79016">
        <ele>18</ele>
        <time>2010-09-26T09:46:45Z</time>
      </trkpt>
      <trkpt lat="45.83053" lon="-0.79009">
        <ele>18</ele>
        <time>2010-09-26T09:46:49Z</time>
      </trkpt>
      <trkpt lat="45.8305" lon="-0.79003">
        <ele>18</ele>
        <time>2010-09-26T09:46:52Z</time>
      </trkpt>
      <trkpt lat="45.83047" lon="-0.78999">
        <ele>18</ele>
        <time>2010-09-26T09:46:55Z</time>
      </trkpt>
      <trkpt lat="45.83044" lon="-0.78993">
        <ele>18</ele>
        <time>2010-09-26T09:46:58Z</time>
      </trkpt>
      <trkpt lat="45.83042" lon="-0.78987">
        <ele>18</ele>
        <time>2010-09-26T09:47:01Z</time>
      </trkpt>
      <trkpt lat="45.83038" lon="-0.7898">
        <ele>18</ele>
        <time>2010-09-26T09:47:05Z</time>
      </trkpt>
      <trkpt lat="45.83035" lon="-0.78974">
        <ele>18</ele>
        <time>2010-09-26T09:47:08Z</time>
      </trkpt>
      <trkpt lat="45.83032" lon="-0.78969">
        <ele>19</ele>
        <time>2010-09-26T09:47:11Z</time>
      </trkpt>
      <trkpt lat="45.83028" lon="-0.78963">
        <ele>19</ele>
        <time>2010-09-26T09:47:15Z</time>
      </trkpt>
      <trkpt lat="45.83025" lon="-0.78958">
        <ele>19</ele>
        <time>2010-09-26T09:47:18Z</time>
      </trkpt>
      <trkpt lat="45.83023" lon="-0.78952">
        <ele>19</ele>
        <time>2010-09-26T09:47:21Z</time>
      </trkpt>
      <trkpt lat="45.8302" lon="-0.78947">
        <ele>19</ele>
        <time>2010-09-26T09:47:24Z</time>
      </trkpt>
      <trkpt lat="45.83017" lon="-0.78942">
        <ele>19</ele>
        <time>2010-09-26T09:47:27Z</time>
      </trkpt>
      <trkpt lat="45.83015" lon="-0.78936">
        <ele>19</ele>
        <time>2010-09-26T09:47:30Z</time>
      </trkpt>
      <trkpt lat="45.83011" lon="-0.78931">
        <ele>19</ele>
        <time>2010-09-26T09:47:33Z</time>
      </trkpt>
      <trkpt lat="45.83008" lon="-0.78925">
        <ele>19</ele>
        <time>2010-09-26T09:47:37Z</time>
      </trkpt>
      <trkpt lat="45.83005" lon="-0.78919">
        <ele>19</ele>
        <time>2010-09-26T09:47:40Z</time>
      </trkpt>
      <trkpt lat="45.83003" lon="-0.78914">
        <ele>19</ele>
        <time>2010-09-26T09:47:43Z</time>
      </trkpt>
      <trkpt lat="45.82997" lon="-0.78906">
        <ele>19</ele>
        <time>2010-09-26T09:47:48Z</time>
      </trkpt>
      <trkpt lat="45.82994" lon="-0.78901">
        <ele>19</ele>
        <time>2010-09-26T09:47:51Z</time>
      </trkpt>
      <trkpt lat="45.8299" lon="-0.78894">
        <ele>19</ele>
        <time>2010-09-26T09:47:55Z</time>
      </trkpt>
      <trkpt lat="45.82986" lon="-0.78888">
        <ele>19</ele>
        <time>2010-09-26T09:47:59Z</time>
      </trkpt>
      <trkpt lat="45.82982" lon="-0.78882">
        <ele>19</ele>
        <time>2010-09-26T09:48:03Z</time>
      </trkpt>
      <trkpt lat="45.82977" lon="-0.78877">
        <ele>19</ele>
        <time>2010-09-26T09:48:07Z</time>
      </trkpt>
      <trkpt lat="45.82974" lon="-0.78873">
        <ele>20</ele>
        <time>2010-09-26T09:48:10Z</time>
      </trkpt>
      <trkpt lat="45.82969" lon="-0.78869">
        <ele>20</ele>
        <time>2010-09-26T09:48:13Z</time>
      </trkpt>
      <trkpt lat="45.82966" lon="-0.78866">
        <ele>20</ele>
        <time>2010-09-26T09:48:16Z</time>
      </trkpt>
      <trkpt lat="45.82962" lon="-0.78862">
        <ele>20</ele>
        <time>2010-09-26T09:48:19Z</time>
      </trkpt>
      <trkpt lat="45.82957" lon="-0.78857">
        <ele>19</ele>
        <time>2010-09-26T09:48:23Z</time>
      </trkpt>
      <trkpt lat="45.82953" lon="-0.78853">
        <ele>19</ele>
        <time>2010-09-26T09:48:26Z</time>
      </trkpt>
      <trkpt lat="45.82949" lon="-0.7885">
        <ele>19</ele>
        <time>2010-09-26T09:48:29Z</time>
      </trkpt>
      <trkpt lat="45.82945" lon="-0.78846">
        <ele>19</ele>
        <time>2010-09-26T09:48:32Z</time>
      </trkpt>
      <trkpt lat="45.82941" lon="-0.78841">
        <ele>19</ele>
        <time>2010-09-26T09:48:36Z</time>
      </trkpt>
      <trkpt lat="45.82937" lon="-0.78839">
        <ele>19</ele>
        <time>2010-09-26T09:48:39Z</time>
      </trkpt>
      <trkpt lat="45.82932" lon="-0.78835">
        <ele>19</ele>
        <time>2010-09-26T09:48:42Z</time>
      </trkpt>
      <trkpt lat="45.82924" lon="-0.78829">
        <ele>19</ele>
        <time>2010-09-26T09:48:48Z</time>
      </trkpt>
      <trkpt lat="45.82919" lon="-0.78825">
        <ele>19</ele>
        <time>2010-09-26T09:48:52Z</time>
      </trkpt>
      <trkpt lat="45.82915" lon="-0.78823">
        <ele>20</ele>
        <time>2010-09-26T09:48:55Z</time>
      </trkpt>
      <trkpt lat="45.8291" lon="-0.78819">
        <ele>20</ele>
        <time>2010-09-26T09:48:59Z</time>
      </trkpt>
      <trkpt lat="45.82904" lon="-0.78817">
        <ele>20</ele>
        <time>2010-09-26T09:49:03Z</time>
      </trkpt>
      <trkpt lat="45.82899" lon="-0.78814">
        <ele>20</ele>
        <time>2010-09-26T09:49:07Z</time>
      </trkpt>
      <trkpt lat="45.82894" lon="-0.78811">
        <ele>20</ele>
        <time>2010-09-26T09:49:11Z</time>
      </trkpt>
      <trkpt lat="45.82889" lon="-0.7881">
        <ele>21</ele>
        <time>2010-09-26T09:49:14Z</time>
      </trkpt>
      <trkpt lat="45.82883" lon="-0.78808">
        <ele>21</ele>
        <time>2010-09-26T09:49:18Z</time>
      </trkpt>
      <trkpt lat="45.82877" lon="-0.78805">
        <ele>21</ele>
        <time>2010-09-26T09:49:22Z</time>
      </trkpt>
      <trkpt lat="45.82872" lon="-0.78803">
        <ele>21</ele>
        <time>2010-09-26T09:49:26Z</time>
      </trkpt>
      <trkpt lat="45.82866" lon="-0.788">
        <ele>21</ele>
        <time>2010-09-26T09:49:30Z</time>
      </trkpt>
      <trkpt lat="45.82861" lon="-0.78797">
        <ele>21</ele>
        <time>2010-09-26T09:49:34Z</time>
      </trkpt>
      <trkpt lat="45.82856" lon="-0.78795">
        <ele>21</ele>
        <time>2010-09-26T09:49:38Z</time>
      </trkpt>
      <trkpt lat="45.8285" lon="-0.78793">
        <ele>21</ele>
        <time>2010-09-26T09:49:42Z</time>
      </trkpt>
      <trkpt lat="45.82845" lon="-0.78791">
        <ele>21</ele>
        <time>2010-09-26T09:49:45Z</time>
      </trkpt>
      <trkpt lat="45.82841" lon="-0.78789">
        <ele>22</ele>
        <time>2010-09-26T09:49:49Z</time>
      </trkpt>
      <trkpt lat="45.82835" lon="-0.78787">
        <ele>22</ele>
        <time>2010-09-26T09:49:53Z</time>
      </trkpt>
      <trkpt lat="45.82829" lon="-0.78784">
        <ele>23</ele>
        <time>2010-09-26T09:49:57Z</time>
      </trkpt>
      <trkpt lat="45.82823" lon="-0.78782">
        <ele>23</ele>
        <time>2010-09-26T09:50:01Z</time>
      </trkpt>
      <trkpt lat="45.82817" lon="-0.78779">
        <ele>23</ele>
        <time>2010-09-26T09:50:05Z</time>
      </trkpt>
      <trkpt lat="45.82812" lon="-0.78776">
        <ele>24</ele>
        <time>2010-09-26T09:50:09Z</time>
      </trkpt>
      <trkpt lat="45.82806" lon="-0.78774">
        <ele>24</ele>
        <time>2010-09-26T09:50:13Z</time>
      </trkpt>
      <trkpt lat="45.82801" lon="-0.78772">
        <ele>24</ele>
        <time>2010-09-26T09:50:16Z</time>
      </trkpt>
      <trkpt lat="45.82796" lon="-0.78769">
        <ele>24</ele>
        <time>2010-09-26T09:50:20Z</time>
      </trkpt>
      <trkpt lat="45.82791" lon="-0.78767">
        <ele>24</ele>
        <time>2010-09-26T09:50:23Z</time>
      </trkpt>
      <trkpt lat="45.82786" lon="-0.78765">
        <ele>24</ele>
        <time>2010-09-26T09:50:26Z</time>
      </trkpt>
      <trkpt lat="45.8278" lon="-0.78764">
        <ele>24</ele>
        <time>2010-09-26T09:50:30Z</time>
      </trkpt>
      <trkpt lat="45.82775" lon="-0.78761">
        <ele>24</ele>
        <time>2010-09-26T09:50:34Z</time>
      </trkpt>
      <trkpt lat="45.82771" lon="-0.78759">
        <ele>24</ele>
        <time>2010-09-26T09:50:37Z</time>
      </trkpt>
      <trkpt lat="45.82766" lon="-0.78758">
        <ele>24</ele>
        <time>2010-09-26T09:50:40Z</time>
      </trkpt>
      <trkpt lat="45.82761" lon="-0.78755">
        <ele>25</ele>
        <time>2010-09-26T09:50:44Z</time>
      </trkpt>
      <trkpt lat="45.82755" lon="-0.78753">
        <ele>25</ele>
        <time>2010-09-26T09:50:48Z</time>
      </trkpt>
      <trkpt lat="45.82749" lon="-0.7875">
        <ele>25</ele>
        <time>2010-09-26T09:50:52Z</time>
      </trkpt>
      <trkpt lat="45.82745" lon="-0.78749">
        <ele>25</ele>
        <time>2010-09-26T09:50:55Z</time>
      </trkpt>
      <trkpt lat="45.8274" lon="-0.78748">
        <ele>25</ele>
        <time>2010-09-26T09:50:58Z</time>
      </trkpt>
      <trkpt lat="45.82734" lon="-0.78746">
        <ele>25</ele>
        <time>2010-09-26T09:51:02Z</time>
      </trkpt>
      <trkpt lat="45.8273" lon="-0.78743">
        <ele>25</ele>
        <time>2010-09-26T09:51:06Z</time>
      </trkpt>
      <trkpt lat="45.82725" lon="-0.78741">
        <ele>25</ele>
        <time>2010-09-26T09:51:09Z</time>
      </trkpt>
      <trkpt lat="45.8272" lon="-0.78739">
        <ele>25</ele>
        <time>2010-09-26T09:51:12Z</time>
      </trkpt>
      <trkpt lat="45.82715" lon="-0.78737">
        <ele>25</ele>
        <time>2010-09-26T09:51:15Z</time>
      </trkpt>
      <trkpt lat="45.82709" lon="-0.78734">
        <ele>25</ele>
        <time>2010-09-26T09:51:19Z</time>
      </trkpt>
      <trkpt lat="45.82703" lon="-0.78731">
        <ele>25</ele>
        <time>2010-09-26T09:51:23Z</time>
      </trkpt>
      <trkpt lat="45.82697" lon="-0.78729">
        <ele>25</ele>
        <time>2010-09-26T09:51:27Z</time>
      </trkpt>
      <trkpt lat="45.82691" lon="-0.78727">
        <ele>25</ele>
        <time>2010-09-26T09:51:31Z</time>
      </trkpt>
      <trkpt lat="45.82686" lon="-0.78724">
        <ele>25</ele>
        <time>2010-09-26T09:51:35Z</time>
      </trkpt>
      <trkpt lat="45.82681" lon="-0.78721">
        <ele>25</ele>
        <time>2010-09-26T09:51:39Z</time>
      </trkpt>
      <trkpt lat="45.82675" lon="-0.78719">
        <ele>25</ele>
        <time>2010-09-26T09:51:43Z</time>
      </trkpt>
      <trkpt lat="45.82665" lon="-0.78716">
        <ele>25</ele>
        <time>2010-09-26T09:51:49Z</time>
      </trkpt>
      <trkpt lat="45.8266" lon="-0.78713">
        <ele>25</ele>
        <time>2010-09-26T09:51:53Z</time>
      </trkpt>
      <trkpt lat="45.82654" lon="-0.7871">
        <ele>25</ele>
        <time>2010-09-26T09:51:57Z</time>
      </trkpt>
      <trkpt lat="45.8265" lon="-0.78709">
        <ele>25</ele>
        <time>2010-09-26T09:52:00Z</time>
      </trkpt>
      <trkpt lat="45.82645" lon="-0.78707">
        <ele>25</ele>
        <time>2010-09-26T09:52:03Z</time>
      </trkpt>
      <trkpt lat="45.82639" lon="-0.78705">
        <ele>25</ele>
        <time>2010-09-26T09:52:07Z</time>
      </trkpt>
      <trkpt lat="45.82635" lon="-0.78702">
        <ele>25</ele>
        <time>2010-09-26T09:52:10Z</time>
      </trkpt>
      <trkpt lat="45.8263" lon="-0.787">
        <ele>24</ele>
        <time>2010-09-26T09:52:13Z</time>
      </trkpt>
      <trkpt lat="45.82625" lon="-0.78697">
        <ele>24</ele>
        <time>2010-09-26T09:52:16Z</time>
      </trkpt>
      <trkpt lat="45.8262" lon="-0.78695">
        <ele>24</ele>
        <time>2010-09-26T09:52:20Z</time>
      </trkpt>
      <trkpt lat="45.82614" lon="-0.78692">
        <ele>24</ele>
        <time>2010-09-26T09:52:24Z</time>
      </trkpt>
      <trkpt lat="45.8261" lon="-0.7869">
        <ele>24</ele>
        <time>2010-09-26T09:52:27Z</time>
      </trkpt>
      <trkpt lat="45.82605" lon="-0.78687">
        <ele>24</ele>
        <time>2010-09-26T09:52:31Z</time>
      </trkpt>
      <trkpt lat="45.826" lon="-0.78684">
        <ele>24</ele>
        <time>2010-09-26T09:52:34Z</time>
      </trkpt>
      <trkpt lat="45.82595" lon="-0.78682">
        <ele>23</ele>
        <time>2010-09-26T09:52:37Z</time>
      </trkpt>
      <trkpt lat="45.8259" lon="-0.78679">
        <ele>23</ele>
        <time>2010-09-26T09:52:41Z</time>
      </trkpt>
      <trkpt lat="45.82585" lon="-0.78677">
        <ele>23</ele>
        <time>2010-09-26T09:52:44Z</time>
      </trkpt>
      <trkpt lat="45.82578" lon="-0.78676">
        <ele>22</ele>
        <time>2010-09-26T09:52:48Z</time>
      </trkpt>
      <trkpt lat="45.82572" lon="-0.78673">
        <ele>23</ele>
        <time>2010-09-26T09:52:52Z</time>
      </trkpt>
      <trkpt lat="45.82568" lon="-0.78671">
        <ele>23</ele>
        <time>2010-09-26T09:52:55Z</time>
      </trkpt>
      <trkpt lat="45.82563" lon="-0.78669">
        <ele>23</ele>
        <time>2010-09-26T09:52:58Z</time>
      </trkpt>
      <trkpt lat="45.82559" lon="-0.78666">
        <ele>21</ele>
        <time>2010-09-26T09:53:01Z</time>
      </trkpt>
      <trkpt lat="45.82555" lon="-0.78662">
        <ele>21</ele>
        <time>2010-09-26T09:53:05Z</time>
      </trkpt>
      <trkpt lat="45.8255" lon="-0.78661">
        <ele>21</ele>
        <time>2010-09-26T09:53:08Z</time>
      </trkpt>
      <trkpt lat="45.82544" lon="-0.7866">
        <ele>21</ele>
        <time>2010-09-26T09:53:11Z</time>
      </trkpt>
      <trkpt lat="45.82539" lon="-0.78658">
        <ele>21</ele>
        <time>2010-09-26T09:53:14Z</time>
      </trkpt>
      <trkpt lat="45.82534" lon="-0.78656">
        <ele>21</ele>
        <time>2010-09-26T09:53:17Z</time>
      </trkpt>
      <trkpt lat="45.82529" lon="-0.78653">
        <ele>21</ele>
        <time>2010-09-26T09:53:20Z</time>
      </trkpt>
      <trkpt lat="45.82524" lon="-0.78649">
        <ele>21</ele>
        <time>2010-09-26T09:53:24Z</time>
      </trkpt>
      <trkpt lat="45.82519" lon="-0.78646">
        <ele>21</ele>
        <time>2010-09-26T09:53:28Z</time>
      </trkpt>
      <trkpt lat="45.82514" lon="-0.78643">
        <ele>21</ele>
        <time>2010-09-26T09:53:32Z</time>
      </trkpt>
      <trkpt lat="45.82509" lon="-0.78641">
        <ele>21</ele>
        <time>2010-09-26T09:53:35Z</time>
      </trkpt>
      <trkpt lat="45.82503" lon="-0.78638">
        <ele>20</ele>
        <time>2010-09-26T09:53:39Z</time>
      </trkpt>
      <trkpt lat="45.82496" lon="-0.78636">
        <ele>20</ele>
        <time>2010-09-26T09:53:43Z</time>
      </trkpt>
      <trkpt lat="45.82488" lon="-0.78635">
        <ele>20</ele>
        <time>2010-09-26T09:53:48Z</time>
      </trkpt>
      <trkpt lat="45.82483" lon="-0.78632">
        <ele>20</ele>
        <time>2010-09-26T09:53:52Z</time>
      </trkpt>
      <trkpt lat="45.82477" lon="-0.78631">
        <ele>20</ele>
        <time>2010-09-26T09:53:56Z</time>
      </trkpt>
      <trkpt lat="45.82471" lon="-0.78631">
        <ele>20</ele>
        <time>2010-09-26T09:53:59Z</time>
      </trkpt>
      <trkpt lat="45.82466" lon="-0.78629">
        <ele>20</ele>
        <time>2010-09-26T09:54:03Z</time>
      </trkpt>
      <trkpt lat="45.8246" lon="-0.78629">
        <ele>20</ele>
        <time>2010-09-26T09:54:07Z</time>
      </trkpt>
      <trkpt lat="45.82455" lon="-0.7863">
        <ele>20</ele>
        <time>2010-09-26T09:54:10Z</time>
      </trkpt>
      <trkpt lat="45.82451" lon="-0.78629">
        <ele>20</ele>
        <time>2010-09-26T09:54:13Z</time>
      </trkpt>
      <trkpt lat="45.82444" lon="-0.78629">
        <ele>20</ele>
        <time>2010-09-26T09:54:17Z</time>
      </trkpt>
      <trkpt lat="45.82438" lon="-0.78628">
        <ele>20</ele>
        <time>2010-09-26T09:54:21Z</time>
      </trkpt>
      <trkpt lat="45.82433" lon="-0.78628">
        <ele>20</ele>
        <time>2010-09-26T09:54:24Z</time>
      </trkpt>
      <trkpt lat="45.82428" lon="-0.78629">
        <ele>20</ele>
        <time>2010-09-26T09:54:27Z</time>
      </trkpt>
      <trkpt lat="45.82422" lon="-0.78629">
        <ele>20</ele>
        <time>2010-09-26T09:54:31Z</time>
      </trkpt>
      <trkpt lat="45.82416" lon="-0.78629">
        <ele>19</ele>
        <time>2010-09-26T09:54:35Z</time>
      </trkpt>
      <trkpt lat="45.82411" lon="-0.78631">
        <ele>19</ele>
        <time>2010-09-26T09:54:38Z</time>
      </trkpt>
      <trkpt lat="45.82406" lon="-0.78633">
        <ele>19</ele>
        <time>2010-09-26T09:54:41Z</time>
      </trkpt>
      <trkpt lat="45.82401" lon="-0.78634">
        <ele>19</ele>
        <time>2010-09-26T09:54:45Z</time>
      </trkpt>
      <trkpt lat="45.82396" lon="-0.78636">
        <ele>19</ele>
        <time>2010-09-26T09:54:48Z</time>
      </trkpt>
      <trkpt lat="45.8239" lon="-0.78638">
        <ele>19</ele>
        <time>2010-09-26T09:54:52Z</time>
      </trkpt>
      <trkpt lat="45.82385" lon="-0.78641">
        <ele>19</ele>
        <time>2010-09-26T09:54:56Z</time>
      </trkpt>
      <trkpt lat="45.8238" lon="-0.78642">
        <ele>19</ele>
        <time>2010-09-26T09:54:59Z</time>
      </trkpt>
      <trkpt lat="45.82375" lon="-0.78643">
        <ele>19</ele>
        <time>2010-09-26T09:55:02Z</time>
      </trkpt>
      <trkpt lat="45.82369" lon="-0.78645">
        <ele>19</ele>
        <time>2010-09-26T09:55:06Z</time>
      </trkpt>
      <trkpt lat="45.82364" lon="-0.78646">
        <ele>19</ele>
        <time>2010-09-26T09:55:09Z</time>
      </trkpt>
      <trkpt lat="45.82359" lon="-0.78647">
        <ele>19</ele>
        <time>2010-09-26T09:55:12Z</time>
      </trkpt>
      <trkpt lat="45.82355" lon="-0.78648">
        <ele>19</ele>
        <time>2010-09-26T09:55:15Z</time>
      </trkpt>
      <trkpt lat="45.8235" lon="-0.78647">
        <ele>19</ele>
        <time>2010-09-26T09:55:18Z</time>
      </trkpt>
      <trkpt lat="45.82345" lon="-0.78647">
        <ele>19</ele>
        <time>2010-09-26T09:55:21Z</time>
      </trkpt>
      <trkpt lat="45.82339" lon="-0.78646">
        <ele>19</ele>
        <time>2010-09-26T09:55:25Z</time>
      </trkpt>
      <trkpt lat="45.82334" lon="-0.78645">
        <ele>19</ele>
        <time>2010-09-26T09:55:28Z</time>
      </trkpt>
      <trkpt lat="45.82329" lon="-0.78643">
        <ele>19</ele>
        <time>2010-09-26T09:55:31Z</time>
      </trkpt>
      <trkpt lat="45.82324" lon="-0.78643">
        <ele>19</ele>
        <time>2010-09-26T09:55:35Z</time>
      </trkpt>
      <trkpt lat="45.82319" lon="-0.78643">
        <ele>18</ele>
        <time>2010-09-26T09:55:38Z</time>
      </trkpt>
      <trkpt lat="45.82313" lon="-0.78643">
        <ele>18</ele>
        <time>2010-09-26T09:55:42Z</time>
      </trkpt>
      <trkpt lat="45.82308" lon="-0.78643">
        <ele>18</ele>
        <time>2010-09-26T09:55:45Z</time>
      </trkpt>
      <trkpt lat="45.82303" lon="-0.78644">
        <ele>18</ele>
        <time>2010-09-26T09:55:48Z</time>
      </trkpt>
      <trkpt lat="45.82298" lon="-0.78643">
        <ele>18</ele>
        <time>2010-09-26T09:55:51Z</time>
      </trkpt>
      <trkpt lat="45.82292" lon="-0.78642">
        <ele>18</ele>
        <time>2010-09-26T09:55:55Z</time>
      </trkpt>
      <trkpt lat="45.82287" lon="-0.78642">
        <ele>18</ele>
        <time>2010-09-26T09:55:58Z</time>
      </trkpt>
      <trkpt lat="45.82282" lon="-0.78642">
        <ele>18</ele>
        <time>2010-09-26T09:56:02Z</time>
      </trkpt>
      <trkpt lat="45.82276" lon="-0.78645">
        <ele>18</ele>
        <time>2010-09-26T09:56:06Z</time>
      </trkpt>
      <trkpt lat="45.82271" lon="-0.78647">
        <ele>18</ele>
        <time>2010-09-26T09:56:10Z</time>
      </trkpt>
      <trkpt lat="45.82266" lon="-0.78648">
        <ele>19</ele>
        <time>2010-09-26T09:56:13Z</time>
      </trkpt>
      <trkpt lat="45.82261" lon="-0.78648">
        <ele>19</ele>
        <time>2010-09-26T09:56:17Z</time>
      </trkpt>
      <trkpt lat="45.82255" lon="-0.78647">
        <ele>19</ele>
        <time>2010-09-26T09:56:21Z</time>
      </trkpt>
      <trkpt lat="45.82249" lon="-0.78648">
        <ele>19</ele>
        <time>2010-09-26T09:56:25Z</time>
      </trkpt>
      <trkpt lat="45.82244" lon="-0.78646">
        <ele>19</ele>
        <time>2010-09-26T09:56:29Z</time>
      </trkpt>
      <trkpt lat="45.82239" lon="-0.78642">
        <ele>18</ele>
        <time>2010-09-26T09:56:32Z</time>
      </trkpt>
      <trkpt lat="45.82234" lon="-0.78638">
        <ele>18</ele>
        <time>2010-09-26T09:56:37Z</time>
      </trkpt>
      <trkpt lat="45.82229" lon="-0.78639">
        <ele>18</ele>
        <time>2010-09-26T09:56:41Z</time>
      </trkpt>
      <trkpt lat="45.82223" lon="-0.78639">
        <ele>18</ele>
        <time>2010-09-26T09:56:45Z</time>
      </trkpt>
      <trkpt lat="45.82218" lon="-0.78641">
        <ele>18</ele>
        <time>2010-09-26T09:56:48Z</time>
      </trkpt>
      <trkpt lat="45.82212" lon="-0.78639">
        <ele>18</ele>
        <time>2010-09-26T09:56:52Z</time>
      </trkpt>
      <trkpt lat="45.82207" lon="-0.7864">
        <ele>18</ele>
        <time>2010-09-26T09:56:55Z</time>
      </trkpt>
      <trkpt lat="45.82202" lon="-0.78641">
        <ele>18</ele>
        <time>2010-09-26T09:56:59Z</time>
      </trkpt>
      <trkpt lat="45.82197" lon="-0.78642">
        <ele>18</ele>
        <time>2010-09-26T09:57:03Z</time>
      </trkpt>
      <trkpt lat="45.82193" lon="-0.78643">
        <ele>18</ele>
        <time>2010-09-26T09:57:07Z</time>
      </trkpt>
      <trkpt lat="45.82189" lon="-0.78639">
        <ele>18</ele>
        <time>2010-09-26T09:57:12Z</time>
      </trkpt>
      <trkpt lat="45.82185" lon="-0.78634">
        <ele>18</ele>
        <time>2010-09-26T09:57:16Z</time>
      </trkpt>
      <trkpt lat="45.8218" lon="-0.78633">
        <ele>18</ele>
        <time>2010-09-26T09:57:18Z</time>
      </trkpt>
      <trkpt lat="45.82174" lon="-0.78633">
        <ele>18</ele>
        <time>2010-09-26T09:57:21Z</time>
      </trkpt>
      <trkpt lat="45.82171" lon="-0.78628">
        <ele>18</ele>
        <time>2010-09-26T09:57:25Z</time>
      </trkpt>
      <trkpt lat="45.82165" lon="-0.78627">
        <ele>18</ele>
        <time>2010-09-26T09:57:29Z</time>
      </trkpt>
      <trkpt lat="45.82163" lon="-0.7862">
        <ele>18</ele>
        <time>2010-09-26T09:57:33Z</time>
      </trkpt>
      <trkpt lat="45.82165" lon="-0.78614">
        <ele>18</ele>
        <time>2010-09-26T09:57:38Z</time>
      </trkpt>
      <trkpt lat="45.82169" lon="-0.7861">
        <ele>18</ele>
        <time>2010-09-26T09:57:44Z</time>
      </trkpt>
      <trkpt lat="45.82173" lon="-0.78613">
        <ele>18</ele>
        <time>2010-09-26T09:57:49Z</time>
      </trkpt>
      <trkpt lat="45.82178" lon="-0.7861">
        <ele>18</ele>
        <time>2010-09-26T09:57:52Z</time>
      </trkpt>
      <trkpt lat="45.8218" lon="-0.78605">
        <ele>18</ele>
        <time>2010-09-26T09:57:57Z</time>
      </trkpt>
      <trkpt lat="45.82183" lon="-0.78603">
        <ele>18</ele>
        <time>2010-09-26T09:58:06Z</time>
      </trkpt>
      <trkpt lat="45.82183" lon="-0.786">
        <ele>18</ele>
        <time>2010-09-26T09:58:07Z</time>
      </trkpt>
      <trkpt lat="45.8218" lon="-0.78589">
        <ele>18</ele>
        <time>2010-09-26T09:58:09Z</time>
      </trkpt>
      <trkpt lat="45.8218" lon="-0.78582">
        <ele>18</ele>
        <time>2010-09-26T09:58:11Z</time>
      </trkpt>
      <trkpt lat="45.8218" lon="-0.78575">
        <ele>18</ele>
        <time>2010-09-26T09:58:14Z</time>
      </trkpt>
      <trkpt lat="45.82182" lon="-0.78567">
        <ele>18</ele>
        <time>2010-09-26T09:58:18Z</time>
      </trkpt>
      <trkpt lat="45.82186" lon="-0.78561">
        <ele>18</ele>
        <time>2010-09-26T09:58:22Z</time>
      </trkpt>
      <trkpt lat="45.82189" lon="-0.78557">
        <ele>18</ele>
        <time>2010-09-26T09:58:26Z</time>
      </trkpt>
      <trkpt lat="45.82193" lon="-0.78558">
        <ele>18</ele>
        <time>2010-09-26T09:58:38Z</time>
      </trkpt>
      <trkpt lat="45.82195" lon="-0.78559">
        <ele>18</ele>
        <time>2010-09-26T09:58:39Z</time>
      </trkpt>
      <trkpt lat="45.82197" lon="-0.78565">
        <ele>17</ele>
        <time>2010-09-26T09:58:45Z</time>
      </trkpt>
      <trkpt lat="45.82198" lon="-0.78572">
        <ele>17</ele>
        <time>2010-09-26T09:58:50Z</time>
      </trkpt>
      <trkpt lat="45.82201" lon="-0.78579">
        <ele>17</ele>
        <time>2010-09-26T09:58:55Z</time>
      </trkpt>
      <trkpt lat="45.82204" lon="-0.78584">
        <ele>17</ele>
        <time>2010-09-26T09:58:59Z</time>
      </trkpt>
      <trkpt lat="45.8221" lon="-0.78588">
        <ele>17</ele>
        <time>2010-09-26T09:59:03Z</time>
      </trkpt>
      <trkpt lat="45.82215" lon="-0.78589">
        <ele>17</ele>
        <time>2010-09-26T09:59:10Z</time>
      </trkpt>
      <trkpt lat="45.8222" lon="-0.78589">
        <ele>17</ele>
        <time>2010-09-26T09:59:16Z</time>
      </trkpt>
      <trkpt lat="45.82226" lon="-0.78587">
        <ele>17</ele>
        <time>2010-09-26T09:59:21Z</time>
      </trkpt>
      <trkpt lat="45.8223" lon="-0.78585">
        <ele>17</ele>
        <time>2010-09-26T09:59:25Z</time>
      </trkpt>
      <trkpt lat="45.82235" lon="-0.78583">
        <ele>16</ele>
        <time>2010-09-26T09:59:29Z</time>
      </trkpt>
      <trkpt lat="45.8224" lon="-0.7858">
        <ele>16</ele>
        <time>2010-09-26T09:59:33Z</time>
      </trkpt>
      <trkpt lat="45.82245" lon="-0.78575">
        <ele>16</ele>
        <time>2010-09-26T09:59:37Z</time>
      </trkpt>
      <trkpt lat="45.82249" lon="-0.78569">
        <ele>16</ele>
        <time>2010-09-26T09:59:42Z</time>
      </trkpt>
      <trkpt lat="45.82247" lon="-0.7856">
        <ele>16</ele>
        <time>2010-09-26T09:59:48Z</time>
      </trkpt>
      <trkpt lat="45.82246" lon="-0.78553">
        <ele>17</ele>
        <time>2010-09-26T09:59:51Z</time>
      </trkpt>
      <trkpt lat="45.82244" lon="-0.78547">
        <ele>17</ele>
        <time>2010-09-26T09:59:55Z</time>
      </trkpt>
      <trkpt lat="45.82242" lon="-0.78545">
        <ele>17</ele>
        <time>2010-09-26T09:59:57Z</time>
      </trkpt>
      <trkpt lat="45.82239" lon="-0.78545">
        <ele>17</ele>
        <time>2010-09-26T10:00:01Z</time>
      </trkpt>
      <trkpt lat="45.82237" lon="-0.78545">
        <ele>17</ele>
        <time>2010-09-26T10:00:02Z</time>
      </trkpt>
      <trkpt lat="45.82232" lon="-0.78546">
        <ele>17</ele>
        <time>2010-09-26T10:00:06Z</time>
      </trkpt>
      <trkpt lat="45.8223" lon="-0.7854">
        <ele>17</ele>
        <time>2010-09-26T10:00:10Z</time>
      </trkpt>
      <trkpt lat="45.82226" lon="-0.78535">
        <ele>17</ele>
        <time>2010-09-26T10:00:14Z</time>
      </trkpt>
      <trkpt lat="45.82223" lon="-0.7853">
        <ele>17</ele>
        <time>2010-09-26T10:00:18Z</time>
      </trkpt>
      <trkpt lat="45.8222" lon="-0.78524">
        <ele>17</ele>
        <time>2010-09-26T10:00:22Z</time>
      </trkpt>
      <trkpt lat="45.82217" lon="-0.78519">
        <ele>18</ele>
        <time>2010-09-26T10:00:27Z</time>
      </trkpt>
      <trkpt lat="45.82215" lon="-0.78513">
        <ele>18</ele>
        <time>2010-09-26T10:00:34Z</time>
      </trkpt>
      <trkpt lat="45.82213" lon="-0.78506">
        <ele>18</ele>
        <time>2010-09-26T10:00:38Z</time>
      </trkpt>
      <trkpt lat="45.82213" lon="-0.78498">
        <ele>18</ele>
        <time>2010-09-26T10:00:42Z</time>
      </trkpt>
      <trkpt lat="45.82211" lon="-0.78488">
        <ele>18</ele>
        <time>2010-09-26T10:00:49Z</time>
      </trkpt>
      <trkpt lat="45.82208" lon="-0.78481">
        <ele>18</ele>
        <time>2010-09-26T10:00:52Z</time>
      </trkpt>
      <trkpt lat="45.82205" lon="-0.78474">
        <ele>18</ele>
        <time>2010-09-26T10:00:55Z</time>
      </trkpt>
      <trkpt lat="45.82203" lon="-0.78469">
        <ele>18</ele>
        <time>2010-09-26T10:00:58Z</time>
      </trkpt>
      <trkpt lat="45.82203" lon="-0.78461">
        <ele>18</ele>
        <time>2010-09-26T10:01:00Z</time>
      </trkpt>
      <trkpt lat="45.82198" lon="-0.78455">
        <ele>18</ele>
        <time>2010-09-26T10:01:03Z</time>
      </trkpt>
      <trkpt lat="45.82196" lon="-0.78448">
        <ele>18</ele>
        <time>2010-09-26T10:01:08Z</time>
      </trkpt>
      <trkpt lat="45.82197" lon="-0.7844">
        <ele>18</ele>
        <time>2010-09-26T10:01:13Z</time>
      </trkpt>
      <trkpt lat="45.822" lon="-0.78435">
        <ele>18</ele>
        <time>2010-09-26T10:01:16Z</time>
      </trkpt>
      <trkpt lat="45.82204" lon="-0.78429">
        <ele>18</ele>
        <time>2010-09-26T10:01:20Z</time>
      </trkpt>
      <trkpt lat="45.82209" lon="-0.78425">
        <ele>18</ele>
        <time>2010-09-26T10:01:24Z</time>
      </trkpt>
      <trkpt lat="45.82213" lon="-0.78422">
        <ele>18</ele>
        <time>2010-09-26T10:01:28Z</time>
      </trkpt>
      <trkpt lat="45.82218" lon="-0.78419">
        <ele>17</ele>
        <time>2010-09-26T10:01:32Z</time>
      </trkpt>
      <trkpt lat="45.82217" lon="-0.78412">
        <ele>16</ele>
        <time>2010-09-26T10:01:37Z</time>
      </trkpt>
      <trkpt lat="45.82214" lon="-0.78406">
        <ele>16</ele>
        <time>2010-09-26T10:01:42Z</time>
      </trkpt>
      <trkpt lat="45.82211" lon="-0.78402">
        <ele>17</ele>
        <time>2010-09-26T10:01:46Z</time>
      </trkpt>
      <trkpt lat="45.82209" lon="-0.78395">
        <ele>17</ele>
        <time>2010-09-26T10:01:49Z</time>
      </trkpt>
      <trkpt lat="45.82213" lon="-0.78391">
        <ele>16</ele>
        <time>2010-09-26T10:01:54Z</time>
      </trkpt>
      <trkpt lat="45.82217" lon="-0.78388">
        <ele>16</ele>
        <time>2010-09-26T10:01:59Z</time>
      </trkpt>
      <trkpt lat="45.82219" lon="-0.78381">
        <ele>16</ele>
        <time>2010-09-26T10:02:05Z</time>
      </trkpt>
      <trkpt lat="45.82218" lon="-0.78375">
        <ele>16</ele>
        <time>2010-09-26T10:02:08Z</time>
      </trkpt>
      <trkpt lat="45.82216" lon="-0.78371">
        <ele>16</ele>
        <time>2010-09-26T10:02:13Z</time>
      </trkpt>
      <trkpt lat="45.82215" lon="-0.7837">
        <ele>16</ele>
        <time>2010-09-26T10:02:14Z</time>
      </trkpt>
      <trkpt lat="45.82211" lon="-0.78366">
        <ele>16</ele>
        <time>2010-09-26T10:02:18Z</time>
      </trkpt>
      <trkpt lat="45.82207" lon="-0.78361">
        <ele>16</ele>
        <time>2010-09-26T10:02:22Z</time>
      </trkpt>
      <trkpt lat="45.82203" lon="-0.78356">
        <ele>16</ele>
        <time>2010-09-26T10:02:26Z</time>
      </trkpt>
      <trkpt lat="45.82199" lon="-0.78352">
        <ele>16</ele>
        <time>2010-09-26T10:02:29Z</time>
      </trkpt>
      <trkpt lat="45.82195" lon="-0.78346">
        <ele>16</ele>
        <time>2010-09-26T10:02:33Z</time>
      </trkpt>
      <trkpt lat="45.82191" lon="-0.78341">
        <ele>16</ele>
        <time>2010-09-26T10:02:37Z</time>
      </trkpt>
      <trkpt lat="45.82188" lon="-0.78336">
        <ele>16</ele>
        <time>2010-09-26T10:02:41Z</time>
      </trkpt>
      <trkpt lat="45.82191" lon="-0.78329">
        <ele>15</ele>
        <time>2010-09-26T10:02:45Z</time>
      </trkpt>
      <trkpt lat="45.82194" lon="-0.78324">
        <ele>15</ele>
        <time>2010-09-26T10:02:48Z</time>
      </trkpt>
      <trkpt lat="45.82197" lon="-0.78318">
        <ele>15</ele>
        <time>2010-09-26T10:02:51Z</time>
      </trkpt>
      <trkpt lat="45.82201" lon="-0.78314">
        <ele>15</ele>
        <time>2010-09-26T10:02:54Z</time>
      </trkpt>
      <trkpt lat="45.82203" lon="-0.78307">
        <ele>15</ele>
        <time>2010-09-26T10:02:58Z</time>
      </trkpt>
      <trkpt lat="45.82206" lon="-0.78301">
        <ele>15</ele>
        <time>2010-09-26T10:03:02Z</time>
      </trkpt>
      <trkpt lat="45.82208" lon="-0.78294">
        <ele>15</ele>
        <time>2010-09-26T10:03:05Z</time>
      </trkpt>
      <trkpt lat="45.82211" lon="-0.78289">
        <ele>15</ele>
        <time>2010-09-26T10:03:09Z</time>
      </trkpt>
      <trkpt lat="45.82207" lon="-0.78283">
        <ele>15</ele>
        <time>2010-09-26T10:03:14Z</time>
      </trkpt>
      <trkpt lat="45.82203" lon="-0.78279">
        <ele>15</ele>
        <time>2010-09-26T10:03:18Z</time>
      </trkpt>
      <trkpt lat="45.822" lon="-0.78274">
        <ele>15</ele>
        <time>2010-09-26T10:03:22Z</time>
      </trkpt>
      <trkpt lat="45.82202" lon="-0.78267">
        <ele>15</ele>
        <time>2010-09-26T10:03:27Z</time>
      </trkpt>
      <trkpt lat="45.82202" lon="-0.78259">
        <ele>15</ele>
        <time>2010-09-26T10:03:32Z</time>
      </trkpt>
      <trkpt lat="45.822" lon="-0.78253">
        <ele>15</ele>
        <time>2010-09-26T10:03:36Z</time>
      </trkpt>
      <trkpt lat="45.82196" lon="-0.78249">
        <ele>16</ele>
        <time>2010-09-26T10:03:40Z</time>
      </trkpt>
      <trkpt lat="45.82192" lon="-0.78243">
        <ele>16</ele>
        <time>2010-09-26T10:03:45Z</time>
      </trkpt>
      <trkpt lat="45.82188" lon="-0.78239">
        <ele>16</ele>
        <time>2010-09-26T10:03:49Z</time>
      </trkpt>
      <trkpt lat="45.82185" lon="-0.78233">
        <ele>16</ele>
        <time>2010-09-26T10:03:53Z</time>
      </trkpt>
      <trkpt lat="45.82183" lon="-0.78227">
        <ele>16</ele>
        <time>2010-09-26T10:03:56Z</time>
      </trkpt>
      <trkpt lat="45.82182" lon="-0.7822">
        <ele>16</ele>
        <time>2010-09-26T10:03:59Z</time>
      </trkpt>
      <trkpt lat="45.82181" lon="-0.78213">
        <ele>16</ele>
        <time>2010-09-26T10:04:03Z</time>
      </trkpt>
      <trkpt lat="45.8218" lon="-0.78204">
        <ele>16</ele>
        <time>2010-09-26T10:04:10Z</time>
      </trkpt>
      <trkpt lat="45.82179" lon="-0.78198">
        <ele>16</ele>
        <time>2010-09-26T10:04:14Z</time>
      </trkpt>
      <trkpt lat="45.82178" lon="-0.7819">
        <ele>16</ele>
        <time>2010-09-26T10:04:18Z</time>
      </trkpt>
      <trkpt lat="45.82176" lon="-0.78182">
        <ele>16</ele>
        <time>2010-09-26T10:04:22Z</time>
      </trkpt>
      <trkpt lat="45.82176" lon="-0.78174">
        <ele>16</ele>
        <time>2010-09-26T10:04:26Z</time>
      </trkpt>
      <trkpt lat="45.82175" lon="-0.78167">
        <ele>17</ele>
        <time>2010-09-26T10:04:30Z</time>
      </trkpt>
      <trkpt lat="45.82174" lon="-0.78159">
        <ele>17</ele>
        <time>2010-09-26T10:04:34Z</time>
      </trkpt>
      <trkpt lat="45.82173" lon="-0.78153">
        <ele>17</ele>
        <time>2010-09-26T10:04:37Z</time>
      </trkpt>
      <trkpt lat="45.82172" lon="-0.78146">
        <ele>17</ele>
        <time>2010-09-26T10:04:40Z</time>
      </trkpt>
      <trkpt lat="45.8217" lon="-0.78138">
        <ele>18</ele>
        <time>2010-09-26T10:04:44Z</time>
      </trkpt>
      <trkpt lat="45.82169" lon="-0.78131">
        <ele>18</ele>
        <time>2010-09-26T10:04:48Z</time>
      </trkpt>
      <trkpt lat="45.82169" lon="-0.78124">
        <ele>18</ele>
        <time>2010-09-26T10:04:51Z</time>
      </trkpt>
      <trkpt lat="45.82168" lon="-0.78117">
        <ele>18</ele>
        <time>2010-09-26T10:04:55Z</time>
      </trkpt>
      <trkpt lat="45.82168" lon="-0.78109">
        <ele>18</ele>
        <time>2010-09-26T10:04:59Z</time>
      </trkpt>
      <trkpt lat="45.82167" lon="-0.78102">
        <ele>19</ele>
        <time>2010-09-26T10:05:03Z</time>
      </trkpt>
      <trkpt lat="45.82166" lon="-0.78094">
        <ele>19</ele>
        <time>2010-09-26T10:05:07Z</time>
      </trkpt>
      <trkpt lat="45.82164" lon="-0.78086">
        <ele>19</ele>
        <time>2010-09-26T10:05:11Z</time>
      </trkpt>
      <trkpt lat="45.82163" lon="-0.78079">
        <ele>19</ele>
        <time>2010-09-26T10:05:15Z</time>
      </trkpt>
      <trkpt lat="45.82161" lon="-0.78072">
        <ele>19</ele>
        <time>2010-09-26T10:05:19Z</time>
      </trkpt>
      <trkpt lat="45.82159" lon="-0.78064">
        <ele>19</ele>
        <time>2010-09-26T10:05:23Z</time>
      </trkpt>
      <trkpt lat="45.82158" lon="-0.78058">
        <ele>19</ele>
        <time>2010-09-26T10:05:26Z</time>
      </trkpt>
      <trkpt lat="45.82157" lon="-0.78049">
        <ele>20</ele>
        <time>2010-09-26T10:05:30Z</time>
      </trkpt>
      <trkpt lat="45.82155" lon="-0.7804">
        <ele>20</ele>
        <time>2010-09-26T10:05:33Z</time>
      </trkpt>
      <trkpt lat="45.82153" lon="-0.78035">
        <ele>20</ele>
        <time>2010-09-26T10:05:36Z</time>
      </trkpt>
      <trkpt lat="45.82152" lon="-0.78027">
        <ele>20</ele>
        <time>2010-09-26T10:05:40Z</time>
      </trkpt>
      <trkpt lat="45.82152" lon="-0.7802">
        <ele>20</ele>
        <time>2010-09-26T10:05:45Z</time>
      </trkpt>
      <trkpt lat="45.82151" lon="-0.78011">
        <ele>20</ele>
        <time>2010-09-26T10:05:49Z</time>
      </trkpt>
      <trkpt lat="45.8215" lon="-0.78002">
        <ele>21</ele>
        <time>2010-09-26T10:05:53Z</time>
      </trkpt>
      <trkpt lat="45.8215" lon="-0.77994">
        <ele>22</ele>
        <time>2010-09-26T10:05:57Z</time>
      </trkpt>
      <trkpt lat="45.8215" lon="-0.77987">
        <ele>22</ele>
        <time>2010-09-26T10:06:00Z</time>
      </trkpt>
      <trkpt lat="45.82149" lon="-0.7798">
        <ele>22</ele>
        <time>2010-09-26T10:06:03Z</time>
      </trkpt>
      <trkpt lat="45.82146" lon="-0.77974">
        <ele>22</ele>
        <time>2010-09-26T10:06:06Z</time>
      </trkpt>
      <trkpt lat="45.82143" lon="-0.77968">
        <ele>22</ele>
        <time>2010-09-26T10:06:10Z</time>
      </trkpt>
      <trkpt lat="45.82142" lon="-0.77961">
        <ele>22</ele>
        <time>2010-09-26T10:06:13Z</time>
      </trkpt>
      <trkpt lat="45.82142" lon="-0.77952">
        <ele>22</ele>
        <time>2010-09-26T10:06:17Z</time>
      </trkpt>
      <trkpt lat="45.82141" lon="-0.77945">
        <ele>22</ele>
        <time>2010-09-26T10:06:20Z</time>
      </trkpt>
      <trkpt lat="45.82141" lon="-0.77937">
        <ele>22</ele>
        <time>2010-09-26T10:06:24Z</time>
      </trkpt>
      <trkpt lat="45.8214" lon="-0.77931">
        <ele>22</ele>
        <time>2010-09-26T10:06:27Z</time>
      </trkpt>
      <trkpt lat="45.8214" lon="-0.77924">
        <ele>22</ele>
        <time>2010-09-26T10:06:30Z</time>
      </trkpt>
      <trkpt lat="45.82139" lon="-0.77917">
        <ele>24</ele>
        <time>2010-09-26T10:06:33Z</time>
      </trkpt>
      <trkpt lat="45.82139" lon="-0.77909">
        <ele>24</ele>
        <time>2010-09-26T10:06:37Z</time>
      </trkpt>
      <trkpt lat="45.82139" lon="-0.779">
        <ele>24</ele>
        <time>2010-09-26T10:06:41Z</time>
      </trkpt>
      <trkpt lat="45.82139" lon="-0.77893">
        <ele>24</ele>
        <time>2010-09-26T10:06:45Z</time>
      </trkpt>
      <trkpt lat="45.82139" lon="-0.77886">
        <ele>24</ele>
        <time>2010-09-26T10:06:49Z</time>
      </trkpt>
      <trkpt lat="45.82138" lon="-0.7788">
        <ele>24</ele>
        <time>2010-09-26T10:06:52Z</time>
      </trkpt>
      <trkpt lat="45.82137" lon="-0.77872">
        <ele>24</ele>
        <time>2010-09-26T10:06:55Z</time>
      </trkpt>
      <trkpt lat="45.82135" lon="-0.77864">
        <ele>24</ele>
        <time>2010-09-26T10:06:59Z</time>
      </trkpt>
      <trkpt lat="45.82134" lon="-0.77856">
        <ele>24</ele>
        <time>2010-09-26T10:07:03Z</time>
      </trkpt>
      <trkpt lat="45.82133" lon="-0.77848">
        <ele>24</ele>
        <time>2010-09-26T10:07:07Z</time>
      </trkpt>
      <trkpt lat="45.82131" lon="-0.77841">
        <ele>24</ele>
        <time>2010-09-26T10:07:11Z</time>
      </trkpt>
      <trkpt lat="45.82129" lon="-0.77836">
        <ele>24</ele>
        <time>2010-09-26T10:07:14Z</time>
      </trkpt>
      <trkpt lat="45.82127" lon="-0.77828">
        <ele>25</ele>
        <time>2010-09-26T10:07:18Z</time>
      </trkpt>
      <trkpt lat="45.82125" lon="-0.77821">
        <ele>25</ele>
        <time>2010-09-26T10:07:24Z</time>
      </trkpt>
      <trkpt lat="45.82123" lon="-0.77814">
        <ele>25</ele>
        <time>2010-09-26T10:07:29Z</time>
      </trkpt>
      <trkpt lat="45.82122" lon="-0.77806">
        <ele>25</ele>
        <time>2010-09-26T10:07:33Z</time>
      </trkpt>
      <trkpt lat="45.82121" lon="-0.778">
        <ele>25</ele>
        <time>2010-09-26T10:07:37Z</time>
      </trkpt>
      <trkpt lat="45.82119" lon="-0.77792">
        <ele>25</ele>
        <time>2010-09-26T10:07:41Z</time>
      </trkpt>
      <trkpt lat="45.82116" lon="-0.77784">
        <ele>25</ele>
        <time>2010-09-26T10:07:45Z</time>
      </trkpt>
      <trkpt lat="45.82114" lon="-0.77776">
        <ele>25</ele>
        <time>2010-09-26T10:07:49Z</time>
      </trkpt>
      <trkpt lat="45.82112" lon="-0.77769">
        <ele>25</ele>
        <time>2010-09-26T10:07:52Z</time>
      </trkpt>
      <trkpt lat="45.8211" lon="-0.77762">
        <ele>25</ele>
        <time>2010-09-26T10:07:55Z</time>
      </trkpt>
      <trkpt lat="45.82109" lon="-0.77755">
        <ele>25</ele>
        <time>2010-09-26T10:07:58Z</time>
      </trkpt>
      <trkpt lat="45.82108" lon="-0.77748">
        <ele>26</ele>
        <time>2010-09-26T10:08:02Z</time>
      </trkpt>
      <trkpt lat="45.82107" lon="-0.77741">
        <ele>26</ele>
        <time>2010-09-26T10:08:05Z</time>
      </trkpt>
      <trkpt lat="45.82104" lon="-0.77734">
        <ele>26</ele>
        <time>2010-09-26T10:08:09Z</time>
      </trkpt>
      <trkpt lat="45.821" lon="-0.77727">
        <ele>26</ele>
        <time>2010-09-26T10:08:13Z</time>
      </trkpt>
      <trkpt lat="45.82098" lon="-0.77721">
        <ele>26</ele>
        <time>2010-09-26T10:08:16Z</time>
      </trkpt>
      <trkpt lat="45.82096" lon="-0.77714">
        <ele>26</ele>
        <time>2010-09-26T10:08:20Z</time>
      </trkpt>
      <trkpt lat="45.82095" lon="-0.77707">
        <ele>26</ele>
        <time>2010-09-26T10:08:23Z</time>
      </trkpt>
      <trkpt lat="45.82095" lon="-0.77699">
        <ele>26</ele>
        <time>2010-09-26T10:08:27Z</time>
      </trkpt>
      <trkpt lat="45.82095" lon="-0.77693">
        <ele>26</ele>
        <time>2010-09-26T10:08:30Z</time>
      </trkpt>
      <trkpt lat="45.82092" lon="-0.77686">
        <ele>26</ele>
        <time>2010-09-26T10:08:34Z</time>
      </trkpt>
      <trkpt lat="45.8209" lon="-0.77678">
        <ele>26</ele>
        <time>2010-09-26T10:08:38Z</time>
      </trkpt>
      <trkpt lat="45.82088" lon="-0.7767">
        <ele>26</ele>
        <time>2010-09-26T10:08:42Z</time>
      </trkpt>
      <trkpt lat="45.82086" lon="-0.77664">
        <ele>26</ele>
        <time>2010-09-26T10:08:45Z</time>
      </trkpt>
      <trkpt lat="45.82085" lon="-0.77657">
        <ele>26</ele>
        <time>2010-09-26T10:08:48Z</time>
      </trkpt>
      <trkpt lat="45.82084" lon="-0.7765">
        <ele>27</ele>
        <time>2010-09-26T10:08:52Z</time>
      </trkpt>
      <trkpt lat="45.82082" lon="-0.77642">
        <ele>25</ele>
        <time>2010-09-26T10:08:56Z</time>
      </trkpt>
      <trkpt lat="45.82081" lon="-0.77635">
        <ele>25</ele>
        <time>2010-09-26T10:09:00Z</time>
      </trkpt>
      <trkpt lat="45.82081" lon="-0.77627">
        <ele>25</ele>
        <time>2010-09-26T10:09:04Z</time>
      </trkpt>
      <trkpt lat="45.82079" lon="-0.77621">
        <ele>25</ele>
        <time>2010-09-26T10:09:07Z</time>
      </trkpt>
      <trkpt lat="45.8208" lon="-0.77613">
        <ele>25</ele>
        <time>2010-09-26T10:09:11Z</time>
      </trkpt>
      <trkpt lat="45.8208" lon="-0.77604">
        <ele>25</ele>
        <time>2010-09-26T10:09:15Z</time>
      </trkpt>
      <trkpt lat="45.82079" lon="-0.77596">
        <ele>26</ele>
        <time>2010-09-26T10:09:19Z</time>
      </trkpt>
      <trkpt lat="45.82079" lon="-0.7759">
        <ele>26</ele>
        <time>2010-09-26T10:09:23Z</time>
      </trkpt>
      <trkpt lat="45.82077" lon="-0.77582">
        <ele>27</ele>
        <time>2010-09-26T10:09:27Z</time>
      </trkpt>
      <trkpt lat="45.82076" lon="-0.77574">
        <ele>27</ele>
        <time>2010-09-26T10:09:31Z</time>
      </trkpt>
      <trkpt lat="45.82074" lon="-0.77568">
        <ele>27</ele>
        <time>2010-09-26T10:09:34Z</time>
      </trkpt>
      <trkpt lat="45.82072" lon="-0.77561">
        <ele>26</ele>
        <time>2010-09-26T10:09:37Z</time>
      </trkpt>
      <trkpt lat="45.8207" lon="-0.77553">
        <ele>26</ele>
        <time>2010-09-26T10:09:41Z</time>
      </trkpt>
      <trkpt lat="45.82068" lon="-0.77545">
        <ele>27</ele>
        <time>2010-09-26T10:09:45Z</time>
      </trkpt>
      <trkpt lat="45.82065" lon="-0.77538">
        <ele>27</ele>
        <time>2010-09-26T10:09:49Z</time>
      </trkpt>
      <trkpt lat="45.82063" lon="-0.77531">
        <ele>27</ele>
        <time>2010-09-26T10:09:52Z</time>
      </trkpt>
      <trkpt lat="45.82061" lon="-0.77525">
        <ele>27</ele>
        <time>2010-09-26T10:09:55Z</time>
      </trkpt>
      <trkpt lat="45.82058" lon="-0.77519">
        <ele>27</ele>
        <time>2010-09-26T10:09:59Z</time>
      </trkpt>
      <trkpt lat="45.82056" lon="-0.77511">
        <ele>27</ele>
        <time>2010-09-26T10:10:03Z</time>
      </trkpt>
      <trkpt lat="45.82055" lon="-0.77505">
        <ele>27</ele>
        <time>2010-09-26T10:10:07Z</time>
      </trkpt>
      <trkpt lat="45.82053" lon="-0.77498">
        <ele>28</ele>
        <time>2010-09-26T10:10:12Z</time>
      </trkpt>
      <trkpt lat="45.82051" lon="-0.77491">
        <ele>28</ele>
        <time>2010-09-26T10:10:15Z</time>
      </trkpt>
      <trkpt lat="45.82049" lon="-0.77485">
        <ele>28</ele>
        <time>2010-09-26T10:10:18Z</time>
      </trkpt>
      <trkpt lat="45.82048" lon="-0.77478">
        <ele>28</ele>
        <time>2010-09-26T10:10:21Z</time>
      </trkpt>
      <trkpt lat="45.82046" lon="-0.77471">
        <ele>28</ele>
        <time>2010-09-26T10:10:25Z</time>
      </trkpt>
      <trkpt lat="45.82044" lon="-0.77465">
        <ele>28</ele>
        <time>2010-09-26T10:10:29Z</time>
      </trkpt>
      <trkpt lat="45.82044" lon="-0.77457">
        <ele>28</ele>
        <time>2010-09-26T10:10:33Z</time>
      </trkpt>
      <trkpt lat="45.82045" lon="-0.7745">
        <ele>28</ele>
        <time>2010-09-26T10:10:37Z</time>
      </trkpt>
      <trkpt lat="45.82044" lon="-0.77443">
        <ele>28</ele>
        <time>2010-09-26T10:10:40Z</time>
      </trkpt>
      <trkpt lat="45.82043" lon="-0.77434">
        <ele>28</ele>
        <time>2010-09-26T10:10:44Z</time>
      </trkpt>
      <trkpt lat="45.82043" lon="-0.77428">
        <ele>28</ele>
        <time>2010-09-26T10:10:47Z</time>
      </trkpt>
      <trkpt lat="45.82042" lon="-0.7742">
        <ele>28</ele>
        <time>2010-09-26T10:10:51Z</time>
      </trkpt>
      <trkpt lat="45.82044" lon="-0.77413">
        <ele>30</ele>
        <time>2010-09-26T10:10:55Z</time>
      </trkpt>
      <trkpt lat="45.82047" lon="-0.77406">
        <ele>30</ele>
        <time>2010-09-26T10:11:00Z</time>
      </trkpt>
      <trkpt lat="45.82049" lon="-0.77399">
        <ele>30</ele>
        <time>2010-09-26T10:11:04Z</time>
      </trkpt>
      <trkpt lat="45.82051" lon="-0.77392">
        <ele>30</ele>
        <time>2010-09-26T10:11:08Z</time>
      </trkpt>
      <trkpt lat="45.82053" lon="-0.77384">
        <ele>30</ele>
        <time>2010-09-26T10:11:12Z</time>
      </trkpt>
      <trkpt lat="45.82055" lon="-0.77378">
        <ele>31</ele>
        <time>2010-09-26T10:11:16Z</time>
      </trkpt>
      <trkpt lat="45.82057" lon="-0.77371">
        <ele>31</ele>
        <time>2010-09-26T10:11:20Z</time>
      </trkpt>
      <trkpt lat="45.8206" lon="-0.77363">
        <ele>31</ele>
        <time>2010-09-26T10:11:24Z</time>
      </trkpt>
      <trkpt lat="45.82062" lon="-0.77356">
        <ele>31</ele>
        <time>2010-09-26T10:11:28Z</time>
      </trkpt>
      <trkpt lat="45.82064" lon="-0.77348">
        <ele>31</ele>
        <time>2010-09-26T10:11:31Z</time>
      </trkpt>
      <trkpt lat="45.82065" lon="-0.77339">
        <ele>31</ele>
        <time>2010-09-26T10:11:34Z</time>
      </trkpt>
      <trkpt lat="45.82066" lon="-0.77332">
        <ele>32</ele>
        <time>2010-09-26T10:11:37Z</time>
      </trkpt>
      <trkpt lat="45.82065" lon="-0.77325">
        <ele>32</ele>
        <time>2010-09-26T10:11:40Z</time>
      </trkpt>
      <trkpt lat="45.82065" lon="-0.77318">
        <ele>32</ele>
        <time>2010-09-26T10:11:43Z</time>
      </trkpt>
      <trkpt lat="45.82066" lon="-0.7731">
        <ele>32</ele>
        <time>2010-09-26T10:11:47Z</time>
      </trkpt>
      <trkpt lat="45.82065" lon="-0.77302">
        <ele>32</ele>
        <time>2010-09-26T10:11:51Z</time>
      </trkpt>
      <trkpt lat="45.82065" lon="-0.77296">
        <ele>32</ele>
        <time>2010-09-26T10:11:54Z</time>
      </trkpt>
      <trkpt lat="45.82064" lon="-0.77287">
        <ele>33</ele>
        <time>2010-09-26T10:11:58Z</time>
      </trkpt>
      <trkpt lat="45.82063" lon="-0.7728">
        <ele>33</ele>
        <time>2010-09-26T10:12:01Z</time>
      </trkpt>
      <trkpt lat="45.82061" lon="-0.77272">
        <ele>33</ele>
        <time>2010-09-26T10:12:05Z</time>
      </trkpt>
      <trkpt lat="45.8206" lon="-0.77265">
        <ele>33</ele>
        <time>2010-09-26T10:12:09Z</time>
      </trkpt>
      <trkpt lat="45.82058" lon="-0.77257">
        <ele>33</ele>
        <time>2010-09-26T10:12:13Z</time>
      </trkpt>
      <trkpt lat="45.82057" lon="-0.7725">
        <ele>33</ele>
        <time>2010-09-26T10:12:17Z</time>
      </trkpt>
      <trkpt lat="45.82055" lon="-0.77243">
        <ele>33</ele>
        <time>2010-09-26T10:12:20Z</time>
      </trkpt>
      <trkpt lat="45.82053" lon="-0.77236">
        <ele>33</ele>
        <time>2010-09-26T10:12:24Z</time>
      </trkpt>
      <trkpt lat="45.82052" lon="-0.77229">
        <ele>33</ele>
        <time>2010-09-26T10:12:27Z</time>
      </trkpt>
      <trkpt lat="45.82051" lon="-0.77222">
        <ele>33</ele>
        <time>2010-09-26T10:12:31Z</time>
      </trkpt>
      <trkpt lat="45.82051" lon="-0.77215">
        <ele>33</ele>
        <time>2010-09-26T10:12:35Z</time>
      </trkpt>
      <trkpt lat="45.82051" lon="-0.77207">
        <ele>32</ele>
        <time>2010-09-26T10:12:39Z</time>
      </trkpt>
      <trkpt lat="45.82051" lon="-0.772">
        <ele>32</ele>
        <time>2010-09-26T10:12:43Z</time>
      </trkpt>
      <trkpt lat="45.82053" lon="-0.77193">
        <ele>32</ele>
        <time>2010-09-26T10:12:48Z</time>
      </trkpt>
      <trkpt lat="45.82054" lon="-0.77186">
        <ele>32</ele>
        <time>2010-09-26T10:12:54Z</time>
      </trkpt>
    </trkseg>
  </trk>
</gpx>